<?xml version="1.0" encoding="UTF-8" standalone="no" ?>
<gpx xmlns="http://www.topografix.com/GPX/1/1" xmlns:xsi="http://www.w3.org/2001/XMLSchema-instance" xsi:schemaLocation="http://www.topografix.com/GPX/1/1 http://www.topografix.com/GPX/1/1/gpx.xsd" version="1.1" creator="VisuGPX - https://www.visugpx.com">
  <metadata>
    <name>Far_West_Realisé</name>
  </metadata>
  <trk>
    <name><![CDATA[J6 - Far West - Lestelle-Bétharram - Oloron-Sainte-Marie - encore une journée cool et de beaux paysages !]]></name>
    <extensions>
      <line xmlns="http://www.topografix.com/GPX/gpx_style/0/2">
        <color>FF0000</color>
        <width>4</width>
      </line>
    </extensions>
    <trkseg>
      <trkpt lat="43.12726" lon="-0.20769">
        <ele>294</ele>
        <time>2022-09-08T08:21:30Z</time>
      </trkpt>
      <trkpt lat="43.12725" lon="-0.20771">
        <ele>294</ele>
        <time>2022-09-08T08:21:39Z</time>
      </trkpt>
      <trkpt lat="43.12729" lon="-0.20773">
        <ele>294</ele>
        <time>2022-09-08T08:21:42Z</time>
      </trkpt>
      <trkpt lat="43.1273" lon="-0.20773">
        <ele>294</ele>
        <time>2022-09-08T08:21:43Z</time>
      </trkpt>
      <trkpt lat="43.12739" lon="-0.20778">
        <ele>294</ele>
        <time>2022-09-08T08:21:49Z</time>
      </trkpt>
      <trkpt lat="43.12756" lon="-0.20787">
        <ele>294</ele>
        <time>2022-09-08T08:21:57Z</time>
      </trkpt>
      <trkpt lat="43.12776" lon="-0.20798">
        <ele>293.8</ele>
        <time>2022-09-08T08:22:06Z</time>
      </trkpt>
      <trkpt lat="43.12795" lon="-0.2081">
        <ele>293.6</ele>
        <time>2022-09-08T08:22:13Z</time>
      </trkpt>
      <trkpt lat="43.12816" lon="-0.20826">
        <ele>293.6</ele>
        <time>2022-09-08T08:22:21Z</time>
      </trkpt>
      <trkpt lat="43.12838" lon="-0.20841">
        <ele>293.2</ele>
        <time>2022-09-08T08:22:28Z</time>
      </trkpt>
      <trkpt lat="43.12861" lon="-0.2086">
        <ele>293.2</ele>
        <time>2022-09-08T08:22:37Z</time>
      </trkpt>
      <trkpt lat="43.12863" lon="-0.20863">
        <ele>293.2</ele>
        <time>2022-09-08T08:22:38Z</time>
      </trkpt>
      <trkpt lat="43.1286" lon="-0.2087">
        <ele>293</ele>
        <time>2022-09-08T08:22:40Z</time>
      </trkpt>
      <trkpt lat="43.12852" lon="-0.20883">
        <ele>293.2</ele>
        <time>2022-09-08T08:22:44Z</time>
      </trkpt>
      <trkpt lat="43.12848" lon="-0.2089">
        <ele>293.2</ele>
        <time>2022-09-08T08:22:46Z</time>
      </trkpt>
      <trkpt lat="43.12843" lon="-0.20905">
        <ele>293.4</ele>
        <time>2022-09-08T08:22:51Z</time>
      </trkpt>
      <trkpt lat="43.12845" lon="-0.20908">
        <ele>293.4</ele>
        <time>2022-09-08T08:22:52Z</time>
      </trkpt>
      <trkpt lat="43.12852" lon="-0.20917">
        <ele>293.4</ele>
        <time>2022-09-08T08:22:55Z</time>
      </trkpt>
      <trkpt lat="43.12859" lon="-0.20926">
        <ele>293.4</ele>
        <time>2022-09-08T08:22:58Z</time>
      </trkpt>
      <trkpt lat="43.12874" lon="-0.20944">
        <ele>293.2</ele>
        <time>2022-09-08T08:23:05Z</time>
      </trkpt>
      <trkpt lat="43.12892" lon="-0.20965">
        <ele>293.2</ele>
        <time>2022-09-08T08:23:12Z</time>
      </trkpt>
      <trkpt lat="43.12902" lon="-0.20978">
        <ele>293</ele>
        <time>2022-09-08T08:23:16Z</time>
      </trkpt>
      <trkpt lat="43.12911" lon="-0.20993">
        <ele>293</ele>
        <time>2022-09-08T08:23:20Z</time>
      </trkpt>
      <trkpt lat="43.12926" lon="-0.21011">
        <ele>293</ele>
        <time>2022-09-08T08:23:26Z</time>
      </trkpt>
      <trkpt lat="43.12944" lon="-0.2103">
        <ele>293</ele>
        <time>2022-09-08T08:23:33Z</time>
      </trkpt>
      <trkpt lat="43.12969" lon="-0.21051">
        <ele>292.8</ele>
        <time>2022-09-08T08:23:41Z</time>
      </trkpt>
      <trkpt lat="43.12985" lon="-0.21068">
        <ele>292.6</ele>
        <time>2022-09-08T08:23:47Z</time>
      </trkpt>
      <trkpt lat="43.13003" lon="-0.21091">
        <ele>292.4</ele>
        <time>2022-09-08T08:23:54Z</time>
      </trkpt>
      <trkpt lat="43.13018" lon="-0.21103">
        <ele>292</ele>
        <time>2022-09-08T08:23:59Z</time>
      </trkpt>
      <trkpt lat="43.13025" lon="-0.2111">
        <ele>291.8</ele>
        <time>2022-09-08T08:24:02Z</time>
      </trkpt>
      <trkpt lat="43.13026" lon="-0.21114">
        <ele>291.8</ele>
        <time>2022-09-08T08:24:04Z</time>
      </trkpt>
      <trkpt lat="43.13026" lon="-0.21116">
        <ele>291.8</ele>
        <time>2022-09-08T08:24:05Z</time>
      </trkpt>
      <trkpt lat="43.13022" lon="-0.21124">
        <ele>292</ele>
        <time>2022-09-08T08:24:08Z</time>
      </trkpt>
      <trkpt lat="43.13007" lon="-0.21147">
        <ele>292</ele>
        <time>2022-09-08T08:24:15Z</time>
      </trkpt>
      <trkpt lat="43.12987" lon="-0.21177">
        <ele>292.4</ele>
        <time>2022-09-08T08:24:24Z</time>
      </trkpt>
      <trkpt lat="43.12977" lon="-0.21193">
        <ele>293</ele>
        <time>2022-09-08T08:24:29Z</time>
      </trkpt>
      <trkpt lat="43.12974" lon="-0.21199">
        <ele>293.2</ele>
        <time>2022-09-08T08:24:31Z</time>
      </trkpt>
      <trkpt lat="43.12968" lon="-0.21214">
        <ele>294</ele>
        <time>2022-09-08T08:24:36Z</time>
      </trkpt>
      <trkpt lat="43.12964" lon="-0.21223">
        <ele>294.4</ele>
        <time>2022-09-08T08:24:39Z</time>
      </trkpt>
      <trkpt lat="43.1296" lon="-0.21231">
        <ele>295</ele>
        <time>2022-09-08T08:24:42Z</time>
      </trkpt>
      <trkpt lat="43.12956" lon="-0.21247">
        <ele>296</ele>
        <time>2022-09-08T08:24:47Z</time>
      </trkpt>
      <trkpt lat="43.12955" lon="-0.21249">
        <ele>296</ele>
        <time>2022-09-08T08:24:48Z</time>
      </trkpt>
      <trkpt lat="43.1295" lon="-0.21266">
        <ele>296.6</ele>
        <time>2022-09-08T08:24:54Z</time>
      </trkpt>
      <trkpt lat="43.12946" lon="-0.21296">
        <ele>296.8</ele>
        <time>2022-09-08T08:25:03Z</time>
      </trkpt>
      <trkpt lat="43.12945" lon="-0.21313">
        <ele>297</ele>
        <time>2022-09-08T08:25:08Z</time>
      </trkpt>
      <trkpt lat="43.12944" lon="-0.2132">
        <ele>297</ele>
        <time>2022-09-08T08:25:10Z</time>
      </trkpt>
      <trkpt lat="43.12945" lon="-0.21345">
        <ele>296.8</ele>
        <time>2022-09-08T08:25:16Z</time>
      </trkpt>
      <trkpt lat="43.12946" lon="-0.21371">
        <ele>295.8</ele>
        <time>2022-09-08T08:25:20Z</time>
      </trkpt>
      <trkpt lat="43.12946" lon="-0.21378">
        <ele>295.6</ele>
        <time>2022-09-08T08:25:21Z</time>
      </trkpt>
      <trkpt lat="43.12946" lon="-0.21427">
        <ele>295.2</ele>
        <time>2022-09-08T08:25:28Z</time>
      </trkpt>
      <trkpt lat="43.12945" lon="-0.21452">
        <ele>294.6</ele>
        <time>2022-09-08T08:25:31Z</time>
      </trkpt>
      <trkpt lat="43.12943" lon="-0.21471">
        <ele>294.4</ele>
        <time>2022-09-08T08:25:34Z</time>
      </trkpt>
      <trkpt lat="43.12935" lon="-0.21497">
        <ele>295.6</ele>
        <time>2022-09-08T08:25:39Z</time>
      </trkpt>
      <trkpt lat="43.12934" lon="-0.215">
        <ele>295.8</ele>
        <time>2022-09-08T08:25:40Z</time>
      </trkpt>
      <trkpt lat="43.12927" lon="-0.21511">
        <ele>296.4</ele>
        <time>2022-09-08T08:25:44Z</time>
      </trkpt>
      <trkpt lat="43.12925" lon="-0.21513">
        <ele>296.8</ele>
        <time>2022-09-08T08:25:45Z</time>
      </trkpt>
      <trkpt lat="43.12917" lon="-0.21521">
        <ele>297.8</ele>
        <time>2022-09-08T08:25:51Z</time>
      </trkpt>
      <trkpt lat="43.12909" lon="-0.21529">
        <ele>298.8</ele>
        <time>2022-09-08T08:25:57Z</time>
      </trkpt>
      <trkpt lat="43.12905" lon="-0.21533">
        <ele>299.6</ele>
        <time>2022-09-08T08:26:00Z</time>
      </trkpt>
      <trkpt lat="43.12903" lon="-0.21536">
        <ele>300</ele>
        <time>2022-09-08T08:26:02Z</time>
      </trkpt>
      <trkpt lat="43.12899" lon="-0.21541">
        <ele>300.8</ele>
        <time>2022-09-08T08:26:06Z</time>
      </trkpt>
      <trkpt lat="43.12895" lon="-0.21545">
        <ele>301</ele>
        <time>2022-09-08T08:26:09Z</time>
      </trkpt>
      <trkpt lat="43.1289" lon="-0.21551">
        <ele>302</ele>
        <time>2022-09-08T08:26:14Z</time>
      </trkpt>
      <trkpt lat="43.12889" lon="-0.21553">
        <ele>302</ele>
        <time>2022-09-08T08:26:15Z</time>
      </trkpt>
      <trkpt lat="43.12887" lon="-0.21564">
        <ele>303</ele>
        <time>2022-09-08T08:26:21Z</time>
      </trkpt>
      <trkpt lat="43.12886" lon="-0.21566">
        <ele>303.2</ele>
        <time>2022-09-08T08:26:22Z</time>
      </trkpt>
      <trkpt lat="43.12881" lon="-0.21575">
        <ele>304.2</ele>
        <time>2022-09-08T08:26:28Z</time>
      </trkpt>
      <trkpt lat="43.12881" lon="-0.21577">
        <ele>304.2</ele>
        <time>2022-09-08T08:26:29Z</time>
      </trkpt>
      <trkpt lat="43.1288" lon="-0.21584">
        <ele>305</ele>
        <time>2022-09-08T08:26:33Z</time>
      </trkpt>
      <trkpt lat="43.12879" lon="-0.21588">
        <ele>305.2</ele>
        <time>2022-09-08T08:26:35Z</time>
      </trkpt>
      <trkpt lat="43.12877" lon="-0.21593">
        <ele>305.8</ele>
        <time>2022-09-08T08:26:38Z</time>
      </trkpt>
      <trkpt lat="43.12875" lon="-0.21599">
        <ele>306.4</ele>
        <time>2022-09-08T08:26:42Z</time>
      </trkpt>
      <trkpt lat="43.12873" lon="-0.21605">
        <ele>307</ele>
        <time>2022-09-08T08:26:46Z</time>
      </trkpt>
      <trkpt lat="43.12872" lon="-0.21608">
        <ele>307.4</ele>
        <time>2022-09-08T08:26:48Z</time>
      </trkpt>
      <trkpt lat="43.1287" lon="-0.21618">
        <ele>308.4</ele>
        <time>2022-09-08T08:26:54Z</time>
      </trkpt>
      <trkpt lat="43.12869" lon="-0.21621">
        <ele>308.6</ele>
        <time>2022-09-08T08:26:56Z</time>
      </trkpt>
      <trkpt lat="43.12864" lon="-0.21629">
        <ele>309.4</ele>
        <time>2022-09-08T08:27:02Z</time>
      </trkpt>
      <trkpt lat="43.12864" lon="-0.21631">
        <ele>309.6</ele>
        <time>2022-09-08T08:27:03Z</time>
      </trkpt>
      <trkpt lat="43.12864" lon="-0.21632">
        <ele>309.6</ele>
        <time>2022-09-08T08:27:04Z</time>
      </trkpt>
      <trkpt lat="43.12862" lon="-0.21636">
        <ele>310</ele>
        <time>2022-09-08T08:27:07Z</time>
      </trkpt>
      <trkpt lat="43.1286" lon="-0.21639">
        <ele>310.6</ele>
        <time>2022-09-08T08:27:10Z</time>
      </trkpt>
      <trkpt lat="43.12858" lon="-0.21644">
        <ele>311.4</ele>
        <time>2022-09-08T08:27:14Z</time>
      </trkpt>
      <trkpt lat="43.12858" lon="-0.21647">
        <ele>311.8</ele>
        <time>2022-09-08T08:27:16Z</time>
      </trkpt>
      <trkpt lat="43.12857" lon="-0.21654">
        <ele>312.4</ele>
        <time>2022-09-08T08:27:21Z</time>
      </trkpt>
      <trkpt lat="43.12856" lon="-0.21656">
        <ele>312.8</ele>
        <time>2022-09-08T08:27:23Z</time>
      </trkpt>
      <trkpt lat="43.12854" lon="-0.21661">
        <ele>313.2</ele>
        <time>2022-09-08T08:27:26Z</time>
      </trkpt>
      <trkpt lat="43.12854" lon="-0.21662">
        <ele>313.4</ele>
        <time>2022-09-08T08:27:27Z</time>
      </trkpt>
      <trkpt lat="43.12855" lon="-0.21667">
        <ele>314</ele>
        <time>2022-09-08T08:27:30Z</time>
      </trkpt>
      <trkpt lat="43.12856" lon="-0.21675">
        <ele>314.4</ele>
        <time>2022-09-08T08:27:34Z</time>
      </trkpt>
      <trkpt lat="43.12856" lon="-0.21683">
        <ele>315</ele>
        <time>2022-09-08T08:27:38Z</time>
      </trkpt>
      <trkpt lat="43.12856" lon="-0.2169">
        <ele>315.4</ele>
        <time>2022-09-08T08:27:42Z</time>
      </trkpt>
      <trkpt lat="43.12856" lon="-0.21703">
        <ele>316</ele>
        <time>2022-09-08T08:27:48Z</time>
      </trkpt>
      <trkpt lat="43.12855" lon="-0.21707">
        <ele>316</ele>
        <time>2022-09-08T08:27:50Z</time>
      </trkpt>
      <trkpt lat="43.12854" lon="-0.21723">
        <ele>316.6</ele>
        <time>2022-09-08T08:27:57Z</time>
      </trkpt>
      <trkpt lat="43.12851" lon="-0.21735">
        <ele>317</ele>
        <time>2022-09-08T08:28:02Z</time>
      </trkpt>
      <trkpt lat="43.12851" lon="-0.21738">
        <ele>317.2</ele>
        <time>2022-09-08T08:28:04Z</time>
      </trkpt>
      <trkpt lat="43.12848" lon="-0.21754">
        <ele>317.8</ele>
        <time>2022-09-08T08:28:11Z</time>
      </trkpt>
      <trkpt lat="43.12846" lon="-0.21762">
        <ele>318</ele>
        <time>2022-09-08T08:28:15Z</time>
      </trkpt>
      <trkpt lat="43.12844" lon="-0.21772">
        <ele>318.4</ele>
        <time>2022-09-08T08:28:19Z</time>
      </trkpt>
      <trkpt lat="43.12841" lon="-0.21782">
        <ele>319.2</ele>
        <time>2022-09-08T08:28:24Z</time>
      </trkpt>
      <trkpt lat="43.1284" lon="-0.21786">
        <ele>319.4</ele>
        <time>2022-09-08T08:28:26Z</time>
      </trkpt>
      <trkpt lat="43.1284" lon="-0.21797">
        <ele>320.2</ele>
        <time>2022-09-08T08:28:31Z</time>
      </trkpt>
      <trkpt lat="43.1284" lon="-0.21804">
        <ele>320.6</ele>
        <time>2022-09-08T08:28:34Z</time>
      </trkpt>
      <trkpt lat="43.12839" lon="-0.21815">
        <ele>321.4</ele>
        <time>2022-09-08T08:28:39Z</time>
      </trkpt>
      <trkpt lat="43.12841" lon="-0.21824">
        <ele>321.8</ele>
        <time>2022-09-08T08:28:43Z</time>
      </trkpt>
      <trkpt lat="43.12842" lon="-0.2183">
        <ele>322.4</ele>
        <time>2022-09-08T08:28:46Z</time>
      </trkpt>
      <trkpt lat="43.12843" lon="-0.21841">
        <ele>323.4</ele>
        <time>2022-09-08T08:28:51Z</time>
      </trkpt>
      <trkpt lat="43.12843" lon="-0.21845">
        <ele>323.8</ele>
        <time>2022-09-08T08:28:53Z</time>
      </trkpt>
      <trkpt lat="43.12845" lon="-0.2185">
        <ele>324.6</ele>
        <time>2022-09-08T08:28:56Z</time>
      </trkpt>
      <trkpt lat="43.12845" lon="-0.21858">
        <ele>325.4</ele>
        <time>2022-09-08T08:29:01Z</time>
      </trkpt>
      <trkpt lat="43.12846" lon="-0.2186">
        <ele>325.6</ele>
        <time>2022-09-08T08:29:02Z</time>
      </trkpt>
      <trkpt lat="43.12847" lon="-0.2187">
        <ele>326.6</ele>
        <time>2022-09-08T08:29:08Z</time>
      </trkpt>
      <trkpt lat="43.12846" lon="-0.21873">
        <ele>326.8</ele>
        <time>2022-09-08T08:29:10Z</time>
      </trkpt>
      <trkpt lat="43.12846" lon="-0.21879">
        <ele>327.6</ele>
        <time>2022-09-08T08:29:13Z</time>
      </trkpt>
      <trkpt lat="43.12845" lon="-0.21883">
        <ele>328</ele>
        <time>2022-09-08T08:29:16Z</time>
      </trkpt>
      <trkpt lat="43.12842" lon="-0.21887">
        <ele>328.4</ele>
        <time>2022-09-08T08:29:19Z</time>
      </trkpt>
      <trkpt lat="43.12839" lon="-0.21892">
        <ele>329</ele>
        <time>2022-09-08T08:29:23Z</time>
      </trkpt>
      <trkpt lat="43.12836" lon="-0.21896">
        <ele>329.4</ele>
        <time>2022-09-08T08:29:26Z</time>
      </trkpt>
      <trkpt lat="43.12832" lon="-0.21899">
        <ele>330</ele>
        <time>2022-09-08T08:29:30Z</time>
      </trkpt>
      <trkpt lat="43.12828" lon="-0.21899">
        <ele>330.4</ele>
        <time>2022-09-08T08:29:33Z</time>
      </trkpt>
      <trkpt lat="43.12827" lon="-0.219">
        <ele>330.4</ele>
        <time>2022-09-08T08:29:34Z</time>
      </trkpt>
      <trkpt lat="43.12825" lon="-0.21901">
        <ele>331</ele>
        <time>2022-09-08T08:29:36Z</time>
      </trkpt>
      <trkpt lat="43.12821" lon="-0.21902">
        <ele>331.4</ele>
        <time>2022-09-08T08:29:39Z</time>
      </trkpt>
      <trkpt lat="43.12812" lon="-0.21903">
        <ele>332.2</ele>
        <time>2022-09-08T08:29:45Z</time>
      </trkpt>
      <trkpt lat="43.12808" lon="-0.21905">
        <ele>332.6</ele>
        <time>2022-09-08T08:29:48Z</time>
      </trkpt>
      <trkpt lat="43.12802" lon="-0.21905">
        <ele>333.2</ele>
        <time>2022-09-08T08:29:53Z</time>
      </trkpt>
      <trkpt lat="43.128" lon="-0.21906">
        <ele>333.4</ele>
        <time>2022-09-08T08:29:55Z</time>
      </trkpt>
      <trkpt lat="43.12794" lon="-0.21908">
        <ele>334.2</ele>
        <time>2022-09-08T08:30:00Z</time>
      </trkpt>
      <trkpt lat="43.12793" lon="-0.21908">
        <ele>334.4</ele>
        <time>2022-09-08T08:30:01Z</time>
      </trkpt>
      <trkpt lat="43.12791" lon="-0.21908">
        <ele>334.6</ele>
        <time>2022-09-08T08:30:03Z</time>
      </trkpt>
      <trkpt lat="43.12783" lon="-0.21911">
        <ele>335.2</ele>
        <time>2022-09-08T08:30:08Z</time>
      </trkpt>
      <trkpt lat="43.12782" lon="-0.21912">
        <ele>335.2</ele>
        <time>2022-09-08T08:30:09Z</time>
      </trkpt>
      <trkpt lat="43.1278" lon="-0.21914">
        <ele>335.4</ele>
        <time>2022-09-08T08:30:10Z</time>
      </trkpt>
      <trkpt lat="43.12773" lon="-0.21918">
        <ele>336.2</ele>
        <time>2022-09-08T08:30:15Z</time>
      </trkpt>
      <trkpt lat="43.12771" lon="-0.21918">
        <ele>336.4</ele>
        <time>2022-09-08T08:30:16Z</time>
      </trkpt>
      <trkpt lat="43.1277" lon="-0.21919">
        <ele>336.4</ele>
        <time>2022-09-08T08:30:17Z</time>
      </trkpt>
      <trkpt lat="43.12762" lon="-0.21921">
        <ele>337.4</ele>
        <time>2022-09-08T08:30:23Z</time>
      </trkpt>
      <trkpt lat="43.12761" lon="-0.21922">
        <ele>337.6</ele>
        <time>2022-09-08T08:30:24Z</time>
      </trkpt>
      <trkpt lat="43.12757" lon="-0.21927">
        <ele>338</ele>
        <time>2022-09-08T08:30:28Z</time>
      </trkpt>
      <trkpt lat="43.1275" lon="-0.21929">
        <ele>338.6</ele>
        <time>2022-09-08T08:30:33Z</time>
      </trkpt>
      <trkpt lat="43.12749" lon="-0.21931">
        <ele>338.8</ele>
        <time>2022-09-08T08:30:34Z</time>
      </trkpt>
      <trkpt lat="43.12743" lon="-0.21931">
        <ele>339.4</ele>
        <time>2022-09-08T08:30:38Z</time>
      </trkpt>
      <trkpt lat="43.12741" lon="-0.21933">
        <ele>339.8</ele>
        <time>2022-09-08T08:30:40Z</time>
      </trkpt>
      <trkpt lat="43.1274" lon="-0.21935">
        <ele>339.8</ele>
        <time>2022-09-08T08:30:41Z</time>
      </trkpt>
      <trkpt lat="43.12739" lon="-0.21935">
        <ele>340</ele>
        <time>2022-09-08T08:30:42Z</time>
      </trkpt>
      <trkpt lat="43.12732" lon="-0.21936">
        <ele>340.8</ele>
        <time>2022-09-08T08:30:47Z</time>
      </trkpt>
      <trkpt lat="43.12726" lon="-0.21941">
        <ele>341.6</ele>
        <time>2022-09-08T08:30:52Z</time>
      </trkpt>
      <trkpt lat="43.12723" lon="-0.21942">
        <ele>341.8</ele>
        <time>2022-09-08T08:30:54Z</time>
      </trkpt>
      <trkpt lat="43.12722" lon="-0.21943">
        <ele>342</ele>
        <time>2022-09-08T08:30:55Z</time>
      </trkpt>
      <trkpt lat="43.12715" lon="-0.21949">
        <ele>342.6</ele>
        <time>2022-09-08T08:31:00Z</time>
      </trkpt>
      <trkpt lat="43.12712" lon="-0.21952">
        <ele>342.8</ele>
        <time>2022-09-08T08:31:02Z</time>
      </trkpt>
      <trkpt lat="43.12707" lon="-0.21957">
        <ele>343</ele>
        <time>2022-09-08T08:31:06Z</time>
      </trkpt>
      <trkpt lat="43.12701" lon="-0.21968">
        <ele>343.4</ele>
        <time>2022-09-08T08:31:11Z</time>
      </trkpt>
      <trkpt lat="43.12693" lon="-0.21984">
        <ele>344</ele>
        <time>2022-09-08T08:31:17Z</time>
      </trkpt>
      <trkpt lat="43.1269" lon="-0.2199">
        <ele>344.2</ele>
        <time>2022-09-08T08:31:19Z</time>
      </trkpt>
      <trkpt lat="43.12679" lon="-0.22009">
        <ele>345.2</ele>
        <time>2022-09-08T08:31:26Z</time>
      </trkpt>
      <trkpt lat="43.12678" lon="-0.22012">
        <ele>345.4</ele>
        <time>2022-09-08T08:31:27Z</time>
      </trkpt>
      <trkpt lat="43.12664" lon="-0.22039">
        <ele>346.2</ele>
        <time>2022-09-08T08:31:36Z</time>
      </trkpt>
      <trkpt lat="43.12649" lon="-0.22066">
        <ele>347</ele>
        <time>2022-09-08T08:31:45Z</time>
      </trkpt>
      <trkpt lat="43.12643" lon="-0.22078">
        <ele>347.2</ele>
        <time>2022-09-08T08:31:49Z</time>
      </trkpt>
      <trkpt lat="43.12634" lon="-0.22098">
        <ele>347.6</ele>
        <time>2022-09-08T08:31:56Z</time>
      </trkpt>
      <trkpt lat="43.12624" lon="-0.22119">
        <ele>347.6</ele>
        <time>2022-09-08T08:32:05Z</time>
      </trkpt>
      <trkpt lat="43.12615" lon="-0.22141">
        <ele>347.4</ele>
        <time>2022-09-08T08:32:12Z</time>
      </trkpt>
      <trkpt lat="43.12601" lon="-0.2217">
        <ele>347.2</ele>
        <time>2022-09-08T08:32:20Z</time>
      </trkpt>
      <trkpt lat="43.12586" lon="-0.22204">
        <ele>346.6</ele>
        <time>2022-09-08T08:32:28Z</time>
      </trkpt>
      <trkpt lat="43.12575" lon="-0.22231">
        <ele>347</ele>
        <time>2022-09-08T08:32:35Z</time>
      </trkpt>
      <trkpt lat="43.12574" lon="-0.2225">
        <ele>347.8</ele>
        <time>2022-09-08T08:32:40Z</time>
      </trkpt>
      <trkpt lat="43.12575" lon="-0.22254">
        <ele>348.6</ele>
        <time>2022-09-08T08:32:42Z</time>
      </trkpt>
      <trkpt lat="43.12576" lon="-0.22262">
        <ele>349.6</ele>
        <time>2022-09-08T08:32:45Z</time>
      </trkpt>
      <trkpt lat="43.12577" lon="-0.22265">
        <ele>349.8</ele>
        <time>2022-09-08T08:32:46Z</time>
      </trkpt>
      <trkpt lat="43.12577" lon="-0.22275">
        <ele>351</ele>
        <time>2022-09-08T08:32:49Z</time>
      </trkpt>
      <trkpt lat="43.12578" lon="-0.22278">
        <ele>351</ele>
        <time>2022-09-08T08:32:50Z</time>
      </trkpt>
      <trkpt lat="43.12577" lon="-0.22282">
        <ele>351.2</ele>
        <time>2022-09-08T08:32:51Z</time>
      </trkpt>
      <trkpt lat="43.12577" lon="-0.22285">
        <ele>351.2</ele>
        <time>2022-09-08T08:32:52Z</time>
      </trkpt>
      <trkpt lat="43.12577" lon="-0.22296">
        <ele>351.4</ele>
        <time>2022-09-08T08:32:55Z</time>
      </trkpt>
      <trkpt lat="43.12579" lon="-0.22308">
        <ele>351</ele>
        <time>2022-09-08T08:32:58Z</time>
      </trkpt>
      <trkpt lat="43.12588" lon="-0.22328">
        <ele>350.8</ele>
        <time>2022-09-08T08:33:03Z</time>
      </trkpt>
      <trkpt lat="43.12605" lon="-0.22335">
        <ele>351.8</ele>
        <time>2022-09-08T08:33:09Z</time>
      </trkpt>
      <trkpt lat="43.12607" lon="-0.22336">
        <ele>352</ele>
        <time>2022-09-08T08:33:10Z</time>
      </trkpt>
      <trkpt lat="43.12618" lon="-0.22341">
        <ele>353</ele>
        <time>2022-09-08T08:33:16Z</time>
      </trkpt>
      <trkpt lat="43.12634" lon="-0.22346">
        <ele>352.8</ele>
        <time>2022-09-08T08:33:23Z</time>
      </trkpt>
      <trkpt lat="43.12653" lon="-0.22357">
        <ele>352.2</ele>
        <time>2022-09-08T08:33:28Z</time>
      </trkpt>
      <trkpt lat="43.1266" lon="-0.22364">
        <ele>352.2</ele>
        <time>2022-09-08T08:33:30Z</time>
      </trkpt>
      <trkpt lat="43.12663" lon="-0.22368">
        <ele>352</ele>
        <time>2022-09-08T08:33:31Z</time>
      </trkpt>
      <trkpt lat="43.12669" lon="-0.22378">
        <ele>351.8</ele>
        <time>2022-09-08T08:33:33Z</time>
      </trkpt>
      <trkpt lat="43.12672" lon="-0.22383">
        <ele>351.6</ele>
        <time>2022-09-08T08:33:34Z</time>
      </trkpt>
      <trkpt lat="43.12678" lon="-0.22396">
        <ele>351</ele>
        <time>2022-09-08T08:33:36Z</time>
      </trkpt>
      <trkpt lat="43.1268" lon="-0.22403">
        <ele>350.6</ele>
        <time>2022-09-08T08:33:37Z</time>
      </trkpt>
      <trkpt lat="43.12685" lon="-0.22417">
        <ele>350</ele>
        <time>2022-09-08T08:33:39Z</time>
      </trkpt>
      <trkpt lat="43.12688" lon="-0.22425">
        <ele>350</ele>
        <time>2022-09-08T08:33:40Z</time>
      </trkpt>
      <trkpt lat="43.12699" lon="-0.22456">
        <ele>348.8</ele>
        <time>2022-09-08T08:33:44Z</time>
      </trkpt>
      <trkpt lat="43.12705" lon="-0.22472">
        <ele>348.4</ele>
        <time>2022-09-08T08:33:46Z</time>
      </trkpt>
      <trkpt lat="43.12713" lon="-0.22498">
        <ele>347.6</ele>
        <time>2022-09-08T08:33:49Z</time>
      </trkpt>
      <trkpt lat="43.12725" lon="-0.22533">
        <ele>346.6</ele>
        <time>2022-09-08T08:33:53Z</time>
      </trkpt>
      <trkpt lat="43.12736" lon="-0.2256">
        <ele>345.2</ele>
        <time>2022-09-08T08:33:56Z</time>
      </trkpt>
      <trkpt lat="43.12751" lon="-0.22597">
        <ele>344</ele>
        <time>2022-09-08T08:34:00Z</time>
      </trkpt>
      <trkpt lat="43.12763" lon="-0.22635">
        <ele>342.6</ele>
        <time>2022-09-08T08:34:04Z</time>
      </trkpt>
      <trkpt lat="43.12767" lon="-0.22652">
        <ele>340.8</ele>
        <time>2022-09-08T08:34:06Z</time>
      </trkpt>
      <trkpt lat="43.12775" lon="-0.2268">
        <ele>340</ele>
        <time>2022-09-08T08:34:09Z</time>
      </trkpt>
      <trkpt lat="43.12778" lon="-0.2269">
        <ele>339.6</ele>
        <time>2022-09-08T08:34:10Z</time>
      </trkpt>
      <trkpt lat="43.12784" lon="-0.22711">
        <ele>338.6</ele>
        <time>2022-09-08T08:34:12Z</time>
      </trkpt>
      <trkpt lat="43.12792" lon="-0.22744">
        <ele>337</ele>
        <time>2022-09-08T08:34:15Z</time>
      </trkpt>
      <trkpt lat="43.12793" lon="-0.22755">
        <ele>336.4</ele>
        <time>2022-09-08T08:34:16Z</time>
      </trkpt>
      <trkpt lat="43.1279" lon="-0.22775">
        <ele>336.2</ele>
        <time>2022-09-08T08:34:18Z</time>
      </trkpt>
      <trkpt lat="43.12786" lon="-0.22784">
        <ele>336</ele>
        <time>2022-09-08T08:34:19Z</time>
      </trkpt>
      <trkpt lat="43.12784" lon="-0.22793">
        <ele>336</ele>
        <time>2022-09-08T08:34:20Z</time>
      </trkpt>
      <trkpt lat="43.1278" lon="-0.22811">
        <ele>335.8</ele>
        <time>2022-09-08T08:34:22Z</time>
      </trkpt>
      <trkpt lat="43.12775" lon="-0.22838">
        <ele>335</ele>
        <time>2022-09-08T08:34:25Z</time>
      </trkpt>
      <trkpt lat="43.12773" lon="-0.22848">
        <ele>334.6</ele>
        <time>2022-09-08T08:34:26Z</time>
      </trkpt>
      <trkpt lat="43.12769" lon="-0.22866">
        <ele>334.2</ele>
        <time>2022-09-08T08:34:28Z</time>
      </trkpt>
      <trkpt lat="43.12764" lon="-0.22885">
        <ele>333.8</ele>
        <time>2022-09-08T08:34:30Z</time>
      </trkpt>
      <trkpt lat="43.12754" lon="-0.2294">
        <ele>333.4</ele>
        <time>2022-09-08T08:34:36Z</time>
      </trkpt>
      <trkpt lat="43.12751" lon="-0.22975">
        <ele>333.8</ele>
        <time>2022-09-08T08:34:41Z</time>
      </trkpt>
      <trkpt lat="43.12749" lon="-0.22996">
        <ele>335</ele>
        <time>2022-09-08T08:34:46Z</time>
      </trkpt>
      <trkpt lat="43.12749" lon="-0.23005">
        <ele>336.2</ele>
        <time>2022-09-08T08:34:49Z</time>
      </trkpt>
      <trkpt lat="43.12751" lon="-0.23012">
        <ele>336.6</ele>
        <time>2022-09-08T08:34:52Z</time>
      </trkpt>
      <trkpt lat="43.12759" lon="-0.23021">
        <ele>337.2</ele>
        <time>2022-09-08T08:34:59Z</time>
      </trkpt>
      <trkpt lat="43.12761" lon="-0.23035">
        <ele>336.6</ele>
        <time>2022-09-08T08:35:51Z</time>
      </trkpt>
      <trkpt lat="43.12761" lon="-0.23046">
        <ele>336.2</ele>
        <time>2022-09-08T08:35:53Z</time>
      </trkpt>
      <trkpt lat="43.12759" lon="-0.23079">
        <ele>334.6</ele>
        <time>2022-09-08T08:35:57Z</time>
      </trkpt>
      <trkpt lat="43.12755" lon="-0.23102">
        <ele>333</ele>
        <time>2022-09-08T08:35:59Z</time>
      </trkpt>
      <trkpt lat="43.12753" lon="-0.23115">
        <ele>331.2</ele>
        <time>2022-09-08T08:36:00Z</time>
      </trkpt>
      <trkpt lat="43.12753" lon="-0.23128">
        <ele>329.8</ele>
        <time>2022-09-08T08:36:01Z</time>
      </trkpt>
      <trkpt lat="43.12753" lon="-0.23141">
        <ele>328.8</ele>
        <time>2022-09-08T08:36:02Z</time>
      </trkpt>
      <trkpt lat="43.12755" lon="-0.23164">
        <ele>327.4</ele>
        <time>2022-09-08T08:36:04Z</time>
      </trkpt>
      <trkpt lat="43.12755" lon="-0.23176">
        <ele>326.8</ele>
        <time>2022-09-08T08:36:05Z</time>
      </trkpt>
      <trkpt lat="43.12754" lon="-0.23189">
        <ele>326</ele>
        <time>2022-09-08T08:36:06Z</time>
      </trkpt>
      <trkpt lat="43.1275" lon="-0.23216">
        <ele>324.6</ele>
        <time>2022-09-08T08:36:08Z</time>
      </trkpt>
      <trkpt lat="43.12746" lon="-0.23242">
        <ele>323.2</ele>
        <time>2022-09-08T08:36:10Z</time>
      </trkpt>
      <trkpt lat="43.12739" lon="-0.23267">
        <ele>322</ele>
        <time>2022-09-08T08:36:12Z</time>
      </trkpt>
      <trkpt lat="43.12735" lon="-0.23278">
        <ele>321.4</ele>
        <time>2022-09-08T08:36:13Z</time>
      </trkpt>
      <trkpt lat="43.1273" lon="-0.23288">
        <ele>320.8</ele>
        <time>2022-09-08T08:36:14Z</time>
      </trkpt>
      <trkpt lat="43.1272" lon="-0.23306">
        <ele>319.4</ele>
        <time>2022-09-08T08:36:16Z</time>
      </trkpt>
      <trkpt lat="43.12715" lon="-0.23313">
        <ele>318.8</ele>
        <time>2022-09-08T08:36:17Z</time>
      </trkpt>
      <trkpt lat="43.1271" lon="-0.23319">
        <ele>318.4</ele>
        <time>2022-09-08T08:36:18Z</time>
      </trkpt>
      <trkpt lat="43.12693" lon="-0.2333">
        <ele>318.4</ele>
        <time>2022-09-08T08:36:21Z</time>
      </trkpt>
      <trkpt lat="43.12687" lon="-0.23333">
        <ele>318.2</ele>
        <time>2022-09-08T08:36:22Z</time>
      </trkpt>
      <trkpt lat="43.1267" lon="-0.23346">
        <ele>317.8</ele>
        <time>2022-09-08T08:36:25Z</time>
      </trkpt>
      <trkpt lat="43.1266" lon="-0.23356">
        <ele>317</ele>
        <time>2022-09-08T08:36:27Z</time>
      </trkpt>
      <trkpt lat="43.12652" lon="-0.23365">
        <ele>315.8</ele>
        <time>2022-09-08T08:36:29Z</time>
      </trkpt>
      <trkpt lat="43.12645" lon="-0.23369">
        <ele>315.4</ele>
        <time>2022-09-08T08:36:31Z</time>
      </trkpt>
      <trkpt lat="43.12633" lon="-0.23367">
        <ele>314.6</ele>
        <time>2022-09-08T08:36:34Z</time>
      </trkpt>
      <trkpt lat="43.1263" lon="-0.23365">
        <ele>314</ele>
        <time>2022-09-08T08:36:35Z</time>
      </trkpt>
      <trkpt lat="43.12626" lon="-0.23362">
        <ele>313.4</ele>
        <time>2022-09-08T08:36:36Z</time>
      </trkpt>
      <trkpt lat="43.1261" lon="-0.23354">
        <ele>312</ele>
        <time>2022-09-08T08:36:39Z</time>
      </trkpt>
      <trkpt lat="43.12583" lon="-0.23344">
        <ele>310.8</ele>
        <time>2022-09-08T08:36:43Z</time>
      </trkpt>
      <trkpt lat="43.12576" lon="-0.23342">
        <ele>310.4</ele>
        <time>2022-09-08T08:36:44Z</time>
      </trkpt>
      <trkpt lat="43.1256" lon="-0.23342">
        <ele>309.6</ele>
        <time>2022-09-08T08:36:46Z</time>
      </trkpt>
      <trkpt lat="43.12547" lon="-0.2335">
        <ele>309.2</ele>
        <time>2022-09-08T08:36:48Z</time>
      </trkpt>
      <trkpt lat="43.12534" lon="-0.23366">
        <ele>309</ele>
        <time>2022-09-08T08:36:51Z</time>
      </trkpt>
      <trkpt lat="43.1253" lon="-0.23371">
        <ele>308.8</ele>
        <time>2022-09-08T08:36:52Z</time>
      </trkpt>
      <trkpt lat="43.12529" lon="-0.23377">
        <ele>308.8</ele>
        <time>2022-09-08T08:36:53Z</time>
      </trkpt>
      <trkpt lat="43.1253" lon="-0.23389">
        <ele>308.6</ele>
        <time>2022-09-08T08:36:55Z</time>
      </trkpt>
      <trkpt lat="43.12534" lon="-0.23402">
        <ele>309.2</ele>
        <time>2022-09-08T08:36:58Z</time>
      </trkpt>
      <trkpt lat="43.12536" lon="-0.23406">
        <ele>309.2</ele>
        <time>2022-09-08T08:36:59Z</time>
      </trkpt>
      <trkpt lat="43.12543" lon="-0.23426">
        <ele>310.2</ele>
        <time>2022-09-08T08:37:05Z</time>
      </trkpt>
      <trkpt lat="43.12547" lon="-0.23438">
        <ele>310.8</ele>
        <time>2022-09-08T08:37:10Z</time>
      </trkpt>
      <trkpt lat="43.12547" lon="-0.23443">
        <ele>311.4</ele>
        <time>2022-09-08T08:37:12Z</time>
      </trkpt>
      <trkpt lat="43.12546" lon="-0.23445">
        <ele>311.4</ele>
        <time>2022-09-08T08:37:13Z</time>
      </trkpt>
      <trkpt lat="43.12545" lon="-0.23452">
        <ele>312</ele>
        <time>2022-09-08T08:37:16Z</time>
      </trkpt>
      <trkpt lat="43.12545" lon="-0.23454">
        <ele>312.2</ele>
        <time>2022-09-08T08:37:17Z</time>
      </trkpt>
      <trkpt lat="43.12544" lon="-0.23459">
        <ele>313</ele>
        <time>2022-09-08T08:37:20Z</time>
      </trkpt>
      <trkpt lat="43.12544" lon="-0.23461">
        <ele>313.2</ele>
        <time>2022-09-08T08:37:21Z</time>
      </trkpt>
      <trkpt lat="43.12543" lon="-0.23469">
        <ele>314.2</ele>
        <time>2022-09-08T08:37:25Z</time>
      </trkpt>
      <trkpt lat="43.12542" lon="-0.23471">
        <ele>314.4</ele>
        <time>2022-09-08T08:37:26Z</time>
      </trkpt>
      <trkpt lat="43.12542" lon="-0.23478">
        <ele>315.2</ele>
        <time>2022-09-08T08:37:30Z</time>
      </trkpt>
      <trkpt lat="43.12541" lon="-0.23483">
        <ele>316</ele>
        <time>2022-09-08T08:37:33Z</time>
      </trkpt>
      <trkpt lat="43.1254" lon="-0.23486">
        <ele>316.4</ele>
        <time>2022-09-08T08:37:35Z</time>
      </trkpt>
      <trkpt lat="43.12538" lon="-0.23493">
        <ele>317.2</ele>
        <time>2022-09-08T08:37:39Z</time>
      </trkpt>
      <trkpt lat="43.12538" lon="-0.23495">
        <ele>317.4</ele>
        <time>2022-09-08T08:37:40Z</time>
      </trkpt>
      <trkpt lat="43.12536" lon="-0.23502">
        <ele>318.6</ele>
        <time>2022-09-08T08:37:45Z</time>
      </trkpt>
      <trkpt lat="43.12534" lon="-0.23506">
        <ele>319.2</ele>
        <time>2022-09-08T08:37:48Z</time>
      </trkpt>
      <trkpt lat="43.12533" lon="-0.23511">
        <ele>319.6</ele>
        <time>2022-09-08T08:37:51Z</time>
      </trkpt>
      <trkpt lat="43.12533" lon="-0.23512">
        <ele>319.8</ele>
        <time>2022-09-08T08:37:52Z</time>
      </trkpt>
      <trkpt lat="43.12533" lon="-0.23515">
        <ele>320.2</ele>
        <time>2022-09-08T08:37:54Z</time>
      </trkpt>
      <trkpt lat="43.12531" lon="-0.23518">
        <ele>320.8</ele>
        <time>2022-09-08T08:37:57Z</time>
      </trkpt>
      <trkpt lat="43.12531" lon="-0.23522">
        <ele>321.2</ele>
        <time>2022-09-08T08:37:59Z</time>
      </trkpt>
      <trkpt lat="43.1253" lon="-0.23526">
        <ele>322</ele>
        <time>2022-09-08T08:38:02Z</time>
      </trkpt>
      <trkpt lat="43.12529" lon="-0.23529">
        <ele>322.4</ele>
        <time>2022-09-08T08:38:04Z</time>
      </trkpt>
      <trkpt lat="43.12528" lon="-0.2353">
        <ele>322.4</ele>
        <time>2022-09-08T08:38:05Z</time>
      </trkpt>
      <trkpt lat="43.12528" lon="-0.23531">
        <ele>322.6</ele>
        <time>2022-09-08T08:38:06Z</time>
      </trkpt>
      <trkpt lat="43.12528" lon="-0.23534">
        <ele>323</ele>
        <time>2022-09-08T08:38:08Z</time>
      </trkpt>
      <trkpt lat="43.12528" lon="-0.23537">
        <ele>323.4</ele>
        <time>2022-09-08T08:38:10Z</time>
      </trkpt>
      <trkpt lat="43.12526" lon="-0.23545">
        <ele>324.2</ele>
        <time>2022-09-08T08:38:15Z</time>
      </trkpt>
      <trkpt lat="43.12524" lon="-0.23548">
        <ele>324.4</ele>
        <time>2022-09-08T08:38:17Z</time>
      </trkpt>
      <trkpt lat="43.12523" lon="-0.23553">
        <ele>325.2</ele>
        <time>2022-09-08T08:38:21Z</time>
      </trkpt>
      <trkpt lat="43.12522" lon="-0.23555">
        <ele>325.4</ele>
        <time>2022-09-08T08:38:22Z</time>
      </trkpt>
      <trkpt lat="43.12521" lon="-0.23565">
        <ele>326.4</ele>
        <time>2022-09-08T08:38:28Z</time>
      </trkpt>
      <trkpt lat="43.12521" lon="-0.23566">
        <ele>326.6</ele>
        <time>2022-09-08T08:38:29Z</time>
      </trkpt>
      <trkpt lat="43.12518" lon="-0.23575">
        <ele>327.4</ele>
        <time>2022-09-08T08:38:35Z</time>
      </trkpt>
      <trkpt lat="43.12519" lon="-0.23576">
        <ele>327.8</ele>
        <time>2022-09-08T08:38:36Z</time>
      </trkpt>
      <trkpt lat="43.12515" lon="-0.23584">
        <ele>328.4</ele>
        <time>2022-09-08T08:38:42Z</time>
      </trkpt>
      <trkpt lat="43.12515" lon="-0.23591">
        <ele>329.2</ele>
        <time>2022-09-08T08:38:47Z</time>
      </trkpt>
      <trkpt lat="43.12513" lon="-0.23596">
        <ele>329.6</ele>
        <time>2022-09-08T08:38:50Z</time>
      </trkpt>
      <trkpt lat="43.12514" lon="-0.23601">
        <ele>330.2</ele>
        <time>2022-09-08T08:38:53Z</time>
      </trkpt>
      <trkpt lat="43.12512" lon="-0.23605">
        <ele>330.6</ele>
        <time>2022-09-08T08:38:56Z</time>
      </trkpt>
      <trkpt lat="43.12512" lon="-0.23608">
        <ele>331</ele>
        <time>2022-09-08T08:38:58Z</time>
      </trkpt>
      <trkpt lat="43.12512" lon="-0.23612">
        <ele>331.4</ele>
        <time>2022-09-08T08:39:01Z</time>
      </trkpt>
      <trkpt lat="43.12512" lon="-0.23616">
        <ele>331.8</ele>
        <time>2022-09-08T08:39:03Z</time>
      </trkpt>
      <trkpt lat="43.12511" lon="-0.23617">
        <ele>332</ele>
        <time>2022-09-08T08:39:04Z</time>
      </trkpt>
      <trkpt lat="43.12509" lon="-0.2362">
        <ele>332.4</ele>
        <time>2022-09-08T08:39:06Z</time>
      </trkpt>
      <trkpt lat="43.12511" lon="-0.23624">
        <ele>333</ele>
        <time>2022-09-08T08:39:09Z</time>
      </trkpt>
      <trkpt lat="43.1251" lon="-0.23627">
        <ele>333.2</ele>
        <time>2022-09-08T08:39:11Z</time>
      </trkpt>
      <trkpt lat="43.12509" lon="-0.23632">
        <ele>334</ele>
        <time>2022-09-08T08:39:15Z</time>
      </trkpt>
      <trkpt lat="43.12509" lon="-0.23635">
        <ele>334.4</ele>
        <time>2022-09-08T08:39:17Z</time>
      </trkpt>
      <trkpt lat="43.1251" lon="-0.23636">
        <ele>334.6</ele>
        <time>2022-09-08T08:39:18Z</time>
      </trkpt>
      <trkpt lat="43.12511" lon="-0.2364">
        <ele>334.8</ele>
        <time>2022-09-08T08:39:20Z</time>
      </trkpt>
      <trkpt lat="43.1251" lon="-0.23642">
        <ele>335</ele>
        <time>2022-09-08T08:39:21Z</time>
      </trkpt>
      <trkpt lat="43.12509" lon="-0.23647">
        <ele>335.6</ele>
        <time>2022-09-08T08:39:24Z</time>
      </trkpt>
      <trkpt lat="43.12509" lon="-0.23651">
        <ele>336</ele>
        <time>2022-09-08T08:39:26Z</time>
      </trkpt>
      <trkpt lat="43.12509" lon="-0.23658">
        <ele>336.8</ele>
        <time>2022-09-08T08:39:30Z</time>
      </trkpt>
      <trkpt lat="43.12508" lon="-0.23662">
        <ele>337</ele>
        <time>2022-09-08T08:39:32Z</time>
      </trkpt>
      <trkpt lat="43.1251" lon="-0.23669">
        <ele>337.8</ele>
        <time>2022-09-08T08:39:36Z</time>
      </trkpt>
      <trkpt lat="43.1251" lon="-0.23671">
        <ele>338</ele>
        <time>2022-09-08T08:39:37Z</time>
      </trkpt>
      <trkpt lat="43.12511" lon="-0.23674">
        <ele>338.2</ele>
        <time>2022-09-08T08:39:39Z</time>
      </trkpt>
      <trkpt lat="43.12511" lon="-0.23683">
        <ele>338.8</ele>
        <time>2022-09-08T08:39:44Z</time>
      </trkpt>
      <trkpt lat="43.12511" lon="-0.23689">
        <ele>339.2</ele>
        <time>2022-09-08T08:39:47Z</time>
      </trkpt>
      <trkpt lat="43.12513" lon="-0.23697">
        <ele>339.6</ele>
        <time>2022-09-08T08:39:51Z</time>
      </trkpt>
      <trkpt lat="43.12514" lon="-0.23709">
        <ele>340.4</ele>
        <time>2022-09-08T08:39:57Z</time>
      </trkpt>
      <trkpt lat="43.12514" lon="-0.23716">
        <ele>340.8</ele>
        <time>2022-09-08T08:40:00Z</time>
      </trkpt>
      <trkpt lat="43.12517" lon="-0.23732">
        <ele>341.4</ele>
        <time>2022-09-08T08:40:07Z</time>
      </trkpt>
      <trkpt lat="43.12518" lon="-0.23734">
        <ele>341.6</ele>
        <time>2022-09-08T08:40:08Z</time>
      </trkpt>
      <trkpt lat="43.12519" lon="-0.23756">
        <ele>342.4</ele>
        <time>2022-09-08T08:40:16Z</time>
      </trkpt>
      <trkpt lat="43.12522" lon="-0.23779">
        <ele>343.2</ele>
        <time>2022-09-08T08:40:24Z</time>
      </trkpt>
      <trkpt lat="43.12522" lon="-0.23782">
        <ele>343.6</ele>
        <time>2022-09-08T08:40:25Z</time>
      </trkpt>
      <trkpt lat="43.12525" lon="-0.23806">
        <ele>344.2</ele>
        <time>2022-09-08T08:40:33Z</time>
      </trkpt>
      <trkpt lat="43.12525" lon="-0.23816">
        <ele>344.6</ele>
        <time>2022-09-08T08:40:36Z</time>
      </trkpt>
      <trkpt lat="43.12526" lon="-0.23832">
        <ele>345</ele>
        <time>2022-09-08T08:40:41Z</time>
      </trkpt>
      <trkpt lat="43.1253" lon="-0.23865">
        <ele>345.6</ele>
        <time>2022-09-08T08:40:50Z</time>
      </trkpt>
      <trkpt lat="43.12535" lon="-0.23907">
        <ele>345.6</ele>
        <time>2022-09-08T08:41:00Z</time>
      </trkpt>
      <trkpt lat="43.12541" lon="-0.23949">
        <ele>346.6</ele>
        <time>2022-09-08T08:41:10Z</time>
      </trkpt>
      <trkpt lat="43.12542" lon="-0.23953">
        <ele>346.6</ele>
        <time>2022-09-08T08:41:11Z</time>
      </trkpt>
      <trkpt lat="43.12544" lon="-0.23974">
        <ele>347.6</ele>
        <time>2022-09-08T08:41:16Z</time>
      </trkpt>
      <trkpt lat="43.12547" lon="-0.2399">
        <ele>348.2</ele>
        <time>2022-09-08T08:41:20Z</time>
      </trkpt>
      <trkpt lat="43.12548" lon="-0.23998">
        <ele>348.6</ele>
        <time>2022-09-08T08:41:22Z</time>
      </trkpt>
      <trkpt lat="43.1255" lon="-0.24017">
        <ele>349.4</ele>
        <time>2022-09-08T08:41:27Z</time>
      </trkpt>
      <trkpt lat="43.12553" lon="-0.24033">
        <ele>349.8</ele>
        <time>2022-09-08T08:41:31Z</time>
      </trkpt>
      <trkpt lat="43.12555" lon="-0.24051">
        <ele>350.4</ele>
        <time>2022-09-08T08:41:36Z</time>
      </trkpt>
      <trkpt lat="43.12556" lon="-0.24063">
        <ele>351</ele>
        <time>2022-09-08T08:41:39Z</time>
      </trkpt>
      <trkpt lat="43.12558" lon="-0.24081">
        <ele>351.2</ele>
        <time>2022-09-08T08:41:45Z</time>
      </trkpt>
      <trkpt lat="43.12557" lon="-0.24098">
        <ele>351</ele>
        <time>2022-09-08T08:41:53Z</time>
      </trkpt>
      <trkpt lat="43.12553" lon="-0.2411">
        <ele>350.4</ele>
        <time>2022-09-08T08:42:01Z</time>
      </trkpt>
      <trkpt lat="43.12548" lon="-0.2412">
        <ele>349.8</ele>
        <time>2022-09-08T08:42:04Z</time>
      </trkpt>
      <trkpt lat="43.12545" lon="-0.24131">
        <ele>349.2</ele>
        <time>2022-09-08T08:42:06Z</time>
      </trkpt>
      <trkpt lat="43.12539" lon="-0.24144">
        <ele>348.8</ele>
        <time>2022-09-08T08:42:08Z</time>
      </trkpt>
      <trkpt lat="43.12534" lon="-0.24161">
        <ele>347.8</ele>
        <time>2022-09-08T08:42:10Z</time>
      </trkpt>
      <trkpt lat="43.12531" lon="-0.24171">
        <ele>347.2</ele>
        <time>2022-09-08T08:42:11Z</time>
      </trkpt>
      <trkpt lat="43.12525" lon="-0.24193">
        <ele>346.2</ele>
        <time>2022-09-08T08:42:13Z</time>
      </trkpt>
      <trkpt lat="43.12522" lon="-0.24204">
        <ele>345.6</ele>
        <time>2022-09-08T08:42:14Z</time>
      </trkpt>
      <trkpt lat="43.12518" lon="-0.24214">
        <ele>345.2</ele>
        <time>2022-09-08T08:42:15Z</time>
      </trkpt>
      <trkpt lat="43.12504" lon="-0.24245">
        <ele>344</ele>
        <time>2022-09-08T08:42:18Z</time>
      </trkpt>
      <trkpt lat="43.12499" lon="-0.24254">
        <ele>343.8</ele>
        <time>2022-09-08T08:42:19Z</time>
      </trkpt>
      <trkpt lat="43.12474" lon="-0.24291">
        <ele>343.4</ele>
        <time>2022-09-08T08:42:24Z</time>
      </trkpt>
      <trkpt lat="43.12469" lon="-0.24303">
        <ele>343.4</ele>
        <time>2022-09-08T08:42:27Z</time>
      </trkpt>
      <trkpt lat="43.12465" lon="-0.24308">
        <ele>343</ele>
        <time>2022-09-08T08:42:30Z</time>
      </trkpt>
      <trkpt lat="43.12465" lon="-0.24308">
        <ele>342.8</ele>
        <time>2022-09-08T08:42:31Z</time>
      </trkpt>
      <trkpt lat="43.12464" lon="-0.24316">
        <ele>342.2</ele>
        <time>2022-09-08T08:43:47Z</time>
      </trkpt>
      <trkpt lat="43.12462" lon="-0.2432">
        <ele>342</ele>
        <time>2022-09-08T08:43:48Z</time>
      </trkpt>
      <trkpt lat="43.12461" lon="-0.24324">
        <ele>341.8</ele>
        <time>2022-09-08T08:43:49Z</time>
      </trkpt>
      <trkpt lat="43.12456" lon="-0.24337">
        <ele>341.2</ele>
        <time>2022-09-08T08:43:51Z</time>
      </trkpt>
      <trkpt lat="43.12452" lon="-0.24345">
        <ele>340.8</ele>
        <time>2022-09-08T08:43:52Z</time>
      </trkpt>
      <trkpt lat="43.12439" lon="-0.24373">
        <ele>339.4</ele>
        <time>2022-09-08T08:43:55Z</time>
      </trkpt>
      <trkpt lat="43.12435" lon="-0.24382">
        <ele>338.8</ele>
        <time>2022-09-08T08:43:56Z</time>
      </trkpt>
      <trkpt lat="43.12431" lon="-0.2439">
        <ele>338.2</ele>
        <time>2022-09-08T08:43:57Z</time>
      </trkpt>
      <trkpt lat="43.12413" lon="-0.24422">
        <ele>336.8</ele>
        <time>2022-09-08T08:44:01Z</time>
      </trkpt>
      <trkpt lat="43.12402" lon="-0.24439">
        <ele>335.6</ele>
        <time>2022-09-08T08:44:03Z</time>
      </trkpt>
      <trkpt lat="43.12389" lon="-0.24455">
        <ele>333.6</ele>
        <time>2022-09-08T08:44:05Z</time>
      </trkpt>
      <trkpt lat="43.12382" lon="-0.24462">
        <ele>332.8</ele>
        <time>2022-09-08T08:44:06Z</time>
      </trkpt>
      <trkpt lat="43.12375" lon="-0.24467">
        <ele>332</ele>
        <time>2022-09-08T08:44:07Z</time>
      </trkpt>
      <trkpt lat="43.12361" lon="-0.24476">
        <ele>330.8</ele>
        <time>2022-09-08T08:44:09Z</time>
      </trkpt>
      <trkpt lat="43.12356" lon="-0.24482">
        <ele>330.6</ele>
        <time>2022-09-08T08:44:10Z</time>
      </trkpt>
      <trkpt lat="43.12344" lon="-0.24503">
        <ele>330.2</ele>
        <time>2022-09-08T08:44:13Z</time>
      </trkpt>
      <trkpt lat="43.1234" lon="-0.24511">
        <ele>330</ele>
        <time>2022-09-08T08:44:14Z</time>
      </trkpt>
      <trkpt lat="43.12334" lon="-0.24517">
        <ele>329.6</ele>
        <time>2022-09-08T08:44:15Z</time>
      </trkpt>
      <trkpt lat="43.1232" lon="-0.24533">
        <ele>328.2</ele>
        <time>2022-09-08T08:44:17Z</time>
      </trkpt>
      <trkpt lat="43.12313" lon="-0.24543">
        <ele>327.4</ele>
        <time>2022-09-08T08:44:18Z</time>
      </trkpt>
      <trkpt lat="43.12305" lon="-0.24552">
        <ele>326.4</ele>
        <time>2022-09-08T08:44:19Z</time>
      </trkpt>
      <trkpt lat="43.12293" lon="-0.24573">
        <ele>324.4</ele>
        <time>2022-09-08T08:44:21Z</time>
      </trkpt>
      <trkpt lat="43.12288" lon="-0.24584">
        <ele>323.2</ele>
        <time>2022-09-08T08:44:22Z</time>
      </trkpt>
      <trkpt lat="43.1228" lon="-0.24604">
        <ele>321.6</ele>
        <time>2022-09-08T08:44:24Z</time>
      </trkpt>
      <trkpt lat="43.12269" lon="-0.24623">
        <ele>320.2</ele>
        <time>2022-09-08T08:44:26Z</time>
      </trkpt>
      <trkpt lat="43.12262" lon="-0.24631">
        <ele>319.2</ele>
        <time>2022-09-08T08:44:27Z</time>
      </trkpt>
      <trkpt lat="43.12256" lon="-0.2464">
        <ele>318.4</ele>
        <time>2022-09-08T08:44:28Z</time>
      </trkpt>
      <trkpt lat="43.12245" lon="-0.24657">
        <ele>317.4</ele>
        <time>2022-09-08T08:44:30Z</time>
      </trkpt>
      <trkpt lat="43.12232" lon="-0.24672">
        <ele>316.4</ele>
        <time>2022-09-08T08:44:32Z</time>
      </trkpt>
      <trkpt lat="43.12226" lon="-0.24679">
        <ele>315.8</ele>
        <time>2022-09-08T08:44:33Z</time>
      </trkpt>
      <trkpt lat="43.12211" lon="-0.24691">
        <ele>314.6</ele>
        <time>2022-09-08T08:44:35Z</time>
      </trkpt>
      <trkpt lat="43.12191" lon="-0.24707">
        <ele>314</ele>
        <time>2022-09-08T08:44:38Z</time>
      </trkpt>
      <trkpt lat="43.12185" lon="-0.24712">
        <ele>313.4</ele>
        <time>2022-09-08T08:44:39Z</time>
      </trkpt>
      <trkpt lat="43.12171" lon="-0.24719">
        <ele>312.4</ele>
        <time>2022-09-08T08:44:41Z</time>
      </trkpt>
      <trkpt lat="43.12159" lon="-0.24725">
        <ele>311.2</ele>
        <time>2022-09-08T08:44:43Z</time>
      </trkpt>
      <trkpt lat="43.12154" lon="-0.24729">
        <ele>310.6</ele>
        <time>2022-09-08T08:44:44Z</time>
      </trkpt>
      <trkpt lat="43.12151" lon="-0.24732">
        <ele>309.8</ele>
        <time>2022-09-08T08:44:45Z</time>
      </trkpt>
      <trkpt lat="43.12148" lon="-0.24735">
        <ele>309.2</ele>
        <time>2022-09-08T08:44:46Z</time>
      </trkpt>
      <trkpt lat="43.12145" lon="-0.24739">
        <ele>308.6</ele>
        <time>2022-09-08T08:44:48Z</time>
      </trkpt>
      <trkpt lat="43.12143" lon="-0.24741">
        <ele>307.8</ele>
        <time>2022-09-08T08:44:50Z</time>
      </trkpt>
      <trkpt lat="43.12144" lon="-0.24741">
        <ele>307.6</ele>
        <time>2022-09-08T08:44:51Z</time>
      </trkpt>
      <trkpt lat="43.12156" lon="-0.24734">
        <ele>308.4</ele>
        <time>2022-09-08T08:45:52Z</time>
      </trkpt>
      <trkpt lat="43.12158" lon="-0.24733">
        <ele>308.4</ele>
        <time>2022-09-08T08:45:53Z</time>
      </trkpt>
      <trkpt lat="43.1217" lon="-0.24729">
        <ele>307.6</ele>
        <time>2022-09-08T08:45:58Z</time>
      </trkpt>
      <trkpt lat="43.12172" lon="-0.24728">
        <ele>307.6</ele>
        <time>2022-09-08T08:45:59Z</time>
      </trkpt>
      <trkpt lat="43.12187" lon="-0.24716">
        <ele>306.8</ele>
        <time>2022-09-08T08:46:04Z</time>
      </trkpt>
      <trkpt lat="43.12194" lon="-0.2471">
        <ele>306.4</ele>
        <time>2022-09-08T08:46:06Z</time>
      </trkpt>
      <trkpt lat="43.12209" lon="-0.24696">
        <ele>306</ele>
        <time>2022-09-08T08:46:10Z</time>
      </trkpt>
      <trkpt lat="43.1223" lon="-0.24678">
        <ele>305.4</ele>
        <time>2022-09-08T08:46:16Z</time>
      </trkpt>
      <trkpt lat="43.12251" lon="-0.24659">
        <ele>305</ele>
        <time>2022-09-08T08:46:23Z</time>
      </trkpt>
      <trkpt lat="43.12256" lon="-0.24654">
        <ele>304.2</ele>
        <time>2022-09-08T08:46:25Z</time>
      </trkpt>
      <trkpt lat="43.12269" lon="-0.24645">
        <ele>303.4</ele>
        <time>2022-09-08T08:46:29Z</time>
      </trkpt>
      <trkpt lat="43.12276" lon="-0.24642">
        <ele>303.2</ele>
        <time>2022-09-08T08:46:31Z</time>
      </trkpt>
      <trkpt lat="43.12294" lon="-0.24642">
        <ele>302</ele>
        <time>2022-09-08T08:46:35Z</time>
      </trkpt>
      <trkpt lat="43.12323" lon="-0.24648">
        <ele>301.6</ele>
        <time>2022-09-08T08:46:38Z</time>
      </trkpt>
      <trkpt lat="43.12351" lon="-0.24661">
        <ele>300.8</ele>
        <time>2022-09-08T08:46:42Z</time>
      </trkpt>
      <trkpt lat="43.12356" lon="-0.24665">
        <ele>300.6</ele>
        <time>2022-09-08T08:46:43Z</time>
      </trkpt>
      <trkpt lat="43.12373" lon="-0.24676">
        <ele>300</ele>
        <time>2022-09-08T08:46:46Z</time>
      </trkpt>
      <trkpt lat="43.12397" lon="-0.24688">
        <ele>300.2</ele>
        <time>2022-09-08T08:46:49Z</time>
      </trkpt>
      <trkpt lat="43.12408" lon="-0.24701">
        <ele>299.6</ele>
        <time>2022-09-08T08:46:52Z</time>
      </trkpt>
      <trkpt lat="43.12409" lon="-0.24706">
        <ele>299.2</ele>
        <time>2022-09-08T08:46:53Z</time>
      </trkpt>
      <trkpt lat="43.12419" lon="-0.24724">
        <ele>299</ele>
        <time>2022-09-08T08:46:56Z</time>
      </trkpt>
      <trkpt lat="43.12421" lon="-0.24731">
        <ele>298.6</ele>
        <time>2022-09-08T08:46:57Z</time>
      </trkpt>
      <trkpt lat="43.12428" lon="-0.24758">
        <ele>298.4</ele>
        <time>2022-09-08T08:47:01Z</time>
      </trkpt>
      <trkpt lat="43.1243" lon="-0.24766">
        <ele>298.4</ele>
        <time>2022-09-08T08:47:02Z</time>
      </trkpt>
      <trkpt lat="43.12438" lon="-0.24792">
        <ele>298.2</ele>
        <time>2022-09-08T08:47:07Z</time>
      </trkpt>
      <trkpt lat="43.12449" lon="-0.24825">
        <ele>298.2</ele>
        <time>2022-09-08T08:47:14Z</time>
      </trkpt>
      <trkpt lat="43.12458" lon="-0.24848">
        <ele>298.6</ele>
        <time>2022-09-08T08:47:20Z</time>
      </trkpt>
      <trkpt lat="43.12472" lon="-0.24874">
        <ele>299.2</ele>
        <time>2022-09-08T08:47:28Z</time>
      </trkpt>
      <trkpt lat="43.1248" lon="-0.24883">
        <ele>299.2</ele>
        <time>2022-09-08T08:47:32Z</time>
      </trkpt>
      <trkpt lat="43.12488" lon="-0.2489">
        <ele>299.2</ele>
        <time>2022-09-08T08:47:36Z</time>
      </trkpt>
      <trkpt lat="43.12501" lon="-0.249">
        <ele>299</ele>
        <time>2022-09-08T08:47:41Z</time>
      </trkpt>
      <trkpt lat="43.1252" lon="-0.24909">
        <ele>299</ele>
        <time>2022-09-08T08:47:48Z</time>
      </trkpt>
      <trkpt lat="43.12535" lon="-0.24914">
        <ele>299.2</ele>
        <time>2022-09-08T08:47:52Z</time>
      </trkpt>
      <trkpt lat="43.12562" lon="-0.24917">
        <ele>299</ele>
        <time>2022-09-08T08:47:59Z</time>
      </trkpt>
      <trkpt lat="43.12582" lon="-0.24919">
        <ele>299.2</ele>
        <time>2022-09-08T08:48:05Z</time>
      </trkpt>
      <trkpt lat="43.12603" lon="-0.24921">
        <ele>298.8</ele>
        <time>2022-09-08T08:48:11Z</time>
      </trkpt>
      <trkpt lat="43.12616" lon="-0.24923">
        <ele>298.4</ele>
        <time>2022-09-08T08:48:14Z</time>
      </trkpt>
      <trkpt lat="43.12626" lon="-0.24923">
        <ele>298</ele>
        <time>2022-09-08T08:48:16Z</time>
      </trkpt>
      <trkpt lat="43.12658" lon="-0.24924">
        <ele>298</ele>
        <time>2022-09-08T08:48:23Z</time>
      </trkpt>
      <trkpt lat="43.12679" lon="-0.24924">
        <ele>297.6</ele>
        <time>2022-09-08T08:48:28Z</time>
      </trkpt>
      <trkpt lat="43.12687" lon="-0.24924">
        <ele>297.6</ele>
        <time>2022-09-08T08:48:30Z</time>
      </trkpt>
      <trkpt lat="43.12712" lon="-0.24923">
        <ele>298</ele>
        <time>2022-09-08T08:48:36Z</time>
      </trkpt>
      <trkpt lat="43.12738" lon="-0.24924">
        <ele>298.2</ele>
        <time>2022-09-08T08:48:43Z</time>
      </trkpt>
      <trkpt lat="43.12769" lon="-0.24924">
        <ele>297.8</ele>
        <time>2022-09-08T08:48:51Z</time>
      </trkpt>
      <trkpt lat="43.12787" lon="-0.24926">
        <ele>297.4</ele>
        <time>2022-09-08T08:48:57Z</time>
      </trkpt>
      <trkpt lat="43.1281" lon="-0.2493">
        <ele>296.6</ele>
        <time>2022-09-08T08:49:32Z</time>
      </trkpt>
      <trkpt lat="43.12812" lon="-0.2493">
        <ele>296.6</ele>
        <time>2022-09-08T08:49:33Z</time>
      </trkpt>
      <trkpt lat="43.12817" lon="-0.2493">
        <ele>296.4</ele>
        <time>2022-09-08T08:49:35Z</time>
      </trkpt>
      <trkpt lat="43.12831" lon="-0.24927">
        <ele>296.2</ele>
        <time>2022-09-08T08:49:41Z</time>
      </trkpt>
      <trkpt lat="43.12847" lon="-0.24929">
        <ele>296</ele>
        <time>2022-09-08T08:49:47Z</time>
      </trkpt>
      <trkpt lat="43.12861" lon="-0.24929">
        <ele>295.4</ele>
        <time>2022-09-08T08:49:51Z</time>
      </trkpt>
      <trkpt lat="43.12867" lon="-0.24928">
        <ele>295.2</ele>
        <time>2022-09-08T08:49:53Z</time>
      </trkpt>
      <trkpt lat="43.12884" lon="-0.2493">
        <ele>294.8</ele>
        <time>2022-09-08T08:49:58Z</time>
      </trkpt>
      <trkpt lat="43.12906" lon="-0.2493">
        <ele>294.6</ele>
        <time>2022-09-08T08:50:04Z</time>
      </trkpt>
      <trkpt lat="43.12924" lon="-0.24931">
        <ele>294.8</ele>
        <time>2022-09-08T08:50:10Z</time>
      </trkpt>
      <trkpt lat="43.12938" lon="-0.2493">
        <ele>295</ele>
        <time>2022-09-08T08:50:15Z</time>
      </trkpt>
      <trkpt lat="43.12957" lon="-0.24932">
        <ele>295</ele>
        <time>2022-09-08T08:50:20Z</time>
      </trkpt>
      <trkpt lat="43.1298" lon="-0.2493">
        <ele>294.8</ele>
        <time>2022-09-08T08:50:25Z</time>
      </trkpt>
      <trkpt lat="43.13004" lon="-0.24929">
        <ele>295</ele>
        <time>2022-09-08T08:50:31Z</time>
      </trkpt>
      <trkpt lat="43.13029" lon="-0.24926">
        <ele>295</ele>
        <time>2022-09-08T08:50:37Z</time>
      </trkpt>
      <trkpt lat="43.13055" lon="-0.2492">
        <ele>295.2</ele>
        <time>2022-09-08T08:50:44Z</time>
      </trkpt>
      <trkpt lat="43.13075" lon="-0.24918">
        <ele>295.2</ele>
        <time>2022-09-08T08:50:50Z</time>
      </trkpt>
      <trkpt lat="43.13092" lon="-0.24917">
        <ele>295</ele>
        <time>2022-09-08T08:50:55Z</time>
      </trkpt>
      <trkpt lat="43.1312" lon="-0.24915">
        <ele>295</ele>
        <time>2022-09-08T08:51:03Z</time>
      </trkpt>
      <trkpt lat="43.13143" lon="-0.2491">
        <ele>295.4</ele>
        <time>2022-09-08T08:51:09Z</time>
      </trkpt>
      <trkpt lat="43.13167" lon="-0.24906">
        <ele>295.6</ele>
        <time>2022-09-08T08:51:15Z</time>
      </trkpt>
      <trkpt lat="43.13189" lon="-0.24903">
        <ele>295.6</ele>
        <time>2022-09-08T08:51:21Z</time>
      </trkpt>
      <trkpt lat="43.13209" lon="-0.249">
        <ele>295.4</ele>
        <time>2022-09-08T08:51:26Z</time>
      </trkpt>
      <trkpt lat="43.13232" lon="-0.24898">
        <ele>295</ele>
        <time>2022-09-08T08:51:32Z</time>
      </trkpt>
      <trkpt lat="43.13255" lon="-0.24898">
        <ele>294.2</ele>
        <time>2022-09-08T08:51:37Z</time>
      </trkpt>
      <trkpt lat="43.13285" lon="-0.24892">
        <ele>293.8</ele>
        <time>2022-09-08T08:51:44Z</time>
      </trkpt>
      <trkpt lat="43.13313" lon="-0.2489">
        <ele>293.4</ele>
        <time>2022-09-08T08:51:50Z</time>
      </trkpt>
      <trkpt lat="43.13339" lon="-0.24891">
        <ele>293.2</ele>
        <time>2022-09-08T08:51:56Z</time>
      </trkpt>
      <trkpt lat="43.13359" lon="-0.24893">
        <ele>293.4</ele>
        <time>2022-09-08T08:52:01Z</time>
      </trkpt>
      <trkpt lat="43.13382" lon="-0.24895">
        <ele>293.6</ele>
        <time>2022-09-08T08:52:07Z</time>
      </trkpt>
      <trkpt lat="43.13404" lon="-0.24897">
        <ele>294.2</ele>
        <time>2022-09-08T08:52:13Z</time>
      </trkpt>
      <trkpt lat="43.13427" lon="-0.24899">
        <ele>293.8</ele>
        <time>2022-09-08T08:52:19Z</time>
      </trkpt>
      <trkpt lat="43.13455" lon="-0.24902">
        <ele>293.8</ele>
        <time>2022-09-08T08:52:26Z</time>
      </trkpt>
      <trkpt lat="43.13479" lon="-0.24902">
        <ele>293.6</ele>
        <time>2022-09-08T08:52:32Z</time>
      </trkpt>
      <trkpt lat="43.1349" lon="-0.24903">
        <ele>293.2</ele>
        <time>2022-09-08T08:52:35Z</time>
      </trkpt>
      <trkpt lat="43.13501" lon="-0.24904">
        <ele>293</ele>
        <time>2022-09-08T08:52:38Z</time>
      </trkpt>
      <trkpt lat="43.13521" lon="-0.24908">
        <ele>293</ele>
        <time>2022-09-08T08:52:43Z</time>
      </trkpt>
      <trkpt lat="43.13532" lon="-0.24913">
        <ele>292.8</ele>
        <time>2022-09-08T08:52:46Z</time>
      </trkpt>
      <trkpt lat="43.13541" lon="-0.24917">
        <ele>292.6</ele>
        <time>2022-09-08T08:52:48Z</time>
      </trkpt>
      <trkpt lat="43.13572" lon="-0.24932">
        <ele>292.2</ele>
        <time>2022-09-08T08:52:55Z</time>
      </trkpt>
      <trkpt lat="43.13601" lon="-0.24946">
        <ele>292</ele>
        <time>2022-09-08T08:53:02Z</time>
      </trkpt>
      <trkpt lat="43.13624" lon="-0.24956">
        <ele>291.8</ele>
        <time>2022-09-08T08:53:07Z</time>
      </trkpt>
      <trkpt lat="43.13633" lon="-0.24959">
        <ele>291.6</ele>
        <time>2022-09-08T08:53:09Z</time>
      </trkpt>
      <trkpt lat="43.13642" lon="-0.24962">
        <ele>291.4</ele>
        <time>2022-09-08T08:53:11Z</time>
      </trkpt>
      <trkpt lat="43.13657" lon="-0.24964">
        <ele>290.6</ele>
        <time>2022-09-08T08:53:14Z</time>
      </trkpt>
      <trkpt lat="43.13663" lon="-0.24964">
        <ele>290.6</ele>
        <time>2022-09-08T08:53:15Z</time>
      </trkpt>
      <trkpt lat="43.13686" lon="-0.2496">
        <ele>289.6</ele>
        <time>2022-09-08T08:53:19Z</time>
      </trkpt>
      <trkpt lat="43.13703" lon="-0.24954">
        <ele>289</ele>
        <time>2022-09-08T08:53:22Z</time>
      </trkpt>
      <trkpt lat="43.1372" lon="-0.24948">
        <ele>288.4</ele>
        <time>2022-09-08T08:53:25Z</time>
      </trkpt>
      <trkpt lat="43.1374" lon="-0.24939">
        <ele>287.4</ele>
        <time>2022-09-08T08:53:29Z</time>
      </trkpt>
      <trkpt lat="43.13774" lon="-0.24928">
        <ele>286.6</ele>
        <time>2022-09-08T08:53:35Z</time>
      </trkpt>
      <trkpt lat="43.1378" lon="-0.24927">
        <ele>286.4</ele>
        <time>2022-09-08T08:53:36Z</time>
      </trkpt>
      <trkpt lat="43.13791" lon="-0.24924">
        <ele>286.2</ele>
        <time>2022-09-08T08:53:38Z</time>
      </trkpt>
      <trkpt lat="43.13801" lon="-0.24923">
        <ele>286.2</ele>
        <time>2022-09-08T08:53:40Z</time>
      </trkpt>
      <trkpt lat="43.13818" lon="-0.24923">
        <ele>285.8</ele>
        <time>2022-09-08T08:53:43Z</time>
      </trkpt>
      <trkpt lat="43.13833" lon="-0.24924">
        <ele>285.6</ele>
        <time>2022-09-08T08:53:46Z</time>
      </trkpt>
      <trkpt lat="43.13838" lon="-0.24925">
        <ele>285.6</ele>
        <time>2022-09-08T08:53:47Z</time>
      </trkpt>
      <trkpt lat="43.13852" lon="-0.24927">
        <ele>285.4</ele>
        <time>2022-09-08T08:53:50Z</time>
      </trkpt>
      <trkpt lat="43.13856" lon="-0.24928">
        <ele>285.4</ele>
        <time>2022-09-08T08:53:51Z</time>
      </trkpt>
      <trkpt lat="43.1387" lon="-0.24933">
        <ele>285.2</ele>
        <time>2022-09-08T08:53:54Z</time>
      </trkpt>
      <trkpt lat="43.1388" lon="-0.24938">
        <ele>285</ele>
        <time>2022-09-08T08:53:56Z</time>
      </trkpt>
      <trkpt lat="43.13907" lon="-0.24955">
        <ele>284.2</ele>
        <time>2022-09-08T08:54:02Z</time>
      </trkpt>
      <trkpt lat="43.13912" lon="-0.24958">
        <ele>284.2</ele>
        <time>2022-09-08T08:54:03Z</time>
      </trkpt>
      <trkpt lat="43.13939" lon="-0.2498">
        <ele>284</ele>
        <time>2022-09-08T08:54:09Z</time>
      </trkpt>
      <trkpt lat="43.13966" lon="-0.25004">
        <ele>283.6</ele>
        <time>2022-09-08T08:54:16Z</time>
      </trkpt>
      <trkpt lat="43.13989" lon="-0.2503">
        <ele>283.6</ele>
        <time>2022-09-08T08:54:24Z</time>
      </trkpt>
      <trkpt lat="43.14005" lon="-0.25045">
        <ele>283.2</ele>
        <time>2022-09-08T08:54:30Z</time>
      </trkpt>
      <trkpt lat="43.14019" lon="-0.25051">
        <ele>283.2</ele>
        <time>2022-09-08T08:54:34Z</time>
      </trkpt>
      <trkpt lat="43.1403" lon="-0.25054">
        <ele>283.2</ele>
        <time>2022-09-08T08:54:37Z</time>
      </trkpt>
      <trkpt lat="43.14054" lon="-0.25051">
        <ele>283</ele>
        <time>2022-09-08T08:54:44Z</time>
      </trkpt>
      <trkpt lat="43.14063" lon="-0.25043">
        <ele>283.6</ele>
        <time>2022-09-08T08:54:49Z</time>
      </trkpt>
      <trkpt lat="43.14069" lon="-0.25044">
        <ele>284</ele>
        <time>2022-09-08T08:55:31Z</time>
      </trkpt>
      <trkpt lat="43.1407" lon="-0.25048">
        <ele>284</ele>
        <time>2022-09-08T08:55:32Z</time>
      </trkpt>
      <trkpt lat="43.1407" lon="-0.25052">
        <ele>284.2</ele>
        <time>2022-09-08T08:55:33Z</time>
      </trkpt>
      <trkpt lat="43.1407" lon="-0.25057">
        <ele>284.2</ele>
        <time>2022-09-08T08:55:34Z</time>
      </trkpt>
      <trkpt lat="43.14068" lon="-0.25068">
        <ele>283.8</ele>
        <time>2022-09-08T08:55:36Z</time>
      </trkpt>
      <trkpt lat="43.14066" lon="-0.25097">
        <ele>283.8</ele>
        <time>2022-09-08T08:55:41Z</time>
      </trkpt>
      <trkpt lat="43.14061" lon="-0.25144">
        <ele>283.4</ele>
        <time>2022-09-08T08:55:49Z</time>
      </trkpt>
      <trkpt lat="43.14059" lon="-0.25191">
        <ele>283.2</ele>
        <time>2022-09-08T08:55:56Z</time>
      </trkpt>
      <trkpt lat="43.14059" lon="-0.25198">
        <ele>283.2</ele>
        <time>2022-09-08T08:55:57Z</time>
      </trkpt>
      <trkpt lat="43.14059" lon="-0.25244">
        <ele>283.4</ele>
        <time>2022-09-08T08:56:04Z</time>
      </trkpt>
      <trkpt lat="43.14059" lon="-0.2527">
        <ele>284.4</ele>
        <time>2022-09-08T08:56:09Z</time>
      </trkpt>
      <trkpt lat="43.14059" lon="-0.25278">
        <ele>285</ele>
        <time>2022-09-08T08:56:11Z</time>
      </trkpt>
      <trkpt lat="43.14059" lon="-0.25285">
        <ele>285.4</ele>
        <time>2022-09-08T08:56:13Z</time>
      </trkpt>
      <trkpt lat="43.14061" lon="-0.25299">
        <ele>286.6</ele>
        <time>2022-09-08T08:56:18Z</time>
      </trkpt>
      <trkpt lat="43.14061" lon="-0.25302">
        <ele>286.8</ele>
        <time>2022-09-08T08:56:19Z</time>
      </trkpt>
      <trkpt lat="43.14063" lon="-0.25313">
        <ele>287.8</ele>
        <time>2022-09-08T08:56:24Z</time>
      </trkpt>
      <trkpt lat="43.14064" lon="-0.25318">
        <ele>288.4</ele>
        <time>2022-09-08T08:56:26Z</time>
      </trkpt>
      <trkpt lat="43.14065" lon="-0.25322">
        <ele>289</ele>
        <time>2022-09-08T08:56:28Z</time>
      </trkpt>
      <trkpt lat="43.14068" lon="-0.25334">
        <ele>290</ele>
        <time>2022-09-08T08:56:33Z</time>
      </trkpt>
      <trkpt lat="43.1407" lon="-0.25344">
        <ele>291.2</ele>
        <time>2022-09-08T08:56:38Z</time>
      </trkpt>
      <trkpt lat="43.14072" lon="-0.25357">
        <ele>292.2</ele>
        <time>2022-09-08T08:56:44Z</time>
      </trkpt>
      <trkpt lat="43.14074" lon="-0.2537">
        <ele>293.4</ele>
        <time>2022-09-08T08:56:50Z</time>
      </trkpt>
      <trkpt lat="43.14074" lon="-0.25375">
        <ele>293.8</ele>
        <time>2022-09-08T08:56:52Z</time>
      </trkpt>
      <trkpt lat="43.14072" lon="-0.25388">
        <ele>294.6</ele>
        <time>2022-09-08T08:56:58Z</time>
      </trkpt>
      <trkpt lat="43.14071" lon="-0.2539">
        <ele>294.8</ele>
        <time>2022-09-08T08:56:59Z</time>
      </trkpt>
      <trkpt lat="43.14068" lon="-0.25401">
        <ele>295.6</ele>
        <time>2022-09-08T08:57:05Z</time>
      </trkpt>
      <trkpt lat="43.14066" lon="-0.25407">
        <ele>296.2</ele>
        <time>2022-09-08T08:57:08Z</time>
      </trkpt>
      <trkpt lat="43.14063" lon="-0.25415">
        <ele>296.8</ele>
        <time>2022-09-08T08:57:12Z</time>
      </trkpt>
      <trkpt lat="43.14059" lon="-0.25426">
        <ele>298</ele>
        <time>2022-09-08T08:57:18Z</time>
      </trkpt>
      <trkpt lat="43.14054" lon="-0.2544">
        <ele>299</ele>
        <time>2022-09-08T08:57:25Z</time>
      </trkpt>
      <trkpt lat="43.14052" lon="-0.25447">
        <ele>299.6</ele>
        <time>2022-09-08T08:57:29Z</time>
      </trkpt>
      <trkpt lat="43.14049" lon="-0.25453">
        <ele>300</ele>
        <time>2022-09-08T08:57:32Z</time>
      </trkpt>
      <trkpt lat="43.14046" lon="-0.25463">
        <ele>300.8</ele>
        <time>2022-09-08T08:57:37Z</time>
      </trkpt>
      <trkpt lat="43.14045" lon="-0.25468">
        <ele>301.2</ele>
        <time>2022-09-08T08:57:39Z</time>
      </trkpt>
      <trkpt lat="43.14041" lon="-0.25478">
        <ele>302</ele>
        <time>2022-09-08T08:57:44Z</time>
      </trkpt>
      <trkpt lat="43.14036" lon="-0.25487">
        <ele>302.2</ele>
        <time>2022-09-08T08:57:48Z</time>
      </trkpt>
      <trkpt lat="43.14033" lon="-0.25494">
        <ele>302.6</ele>
        <time>2022-09-08T08:57:51Z</time>
      </trkpt>
      <trkpt lat="43.14024" lon="-0.25508">
        <ele>303.2</ele>
        <time>2022-09-08T08:57:58Z</time>
      </trkpt>
      <trkpt lat="43.14021" lon="-0.25513">
        <ele>303.4</ele>
        <time>2022-09-08T08:58:00Z</time>
      </trkpt>
      <trkpt lat="43.14008" lon="-0.25536">
        <ele>304.2</ele>
        <time>2022-09-08T08:58:09Z</time>
      </trkpt>
      <trkpt lat="43.14006" lon="-0.25542">
        <ele>304.4</ele>
        <time>2022-09-08T08:58:11Z</time>
      </trkpt>
      <trkpt lat="43.13994" lon="-0.2556">
        <ele>305</ele>
        <time>2022-09-08T08:58:18Z</time>
      </trkpt>
      <trkpt lat="43.13988" lon="-0.25572">
        <ele>305.4</ele>
        <time>2022-09-08T08:58:22Z</time>
      </trkpt>
      <trkpt lat="43.13983" lon="-0.2558">
        <ele>306</ele>
        <time>2022-09-08T08:58:25Z</time>
      </trkpt>
      <trkpt lat="43.1398" lon="-0.25585">
        <ele>306.4</ele>
        <time>2022-09-08T08:58:27Z</time>
      </trkpt>
      <trkpt lat="43.13969" lon="-0.25606">
        <ele>307.2</ele>
        <time>2022-09-08T08:58:34Z</time>
      </trkpt>
      <trkpt lat="43.13966" lon="-0.25613">
        <ele>307.4</ele>
        <time>2022-09-08T08:58:36Z</time>
      </trkpt>
      <trkpt lat="43.13964" lon="-0.25616">
        <ele>307.6</ele>
        <time>2022-09-08T08:58:37Z</time>
      </trkpt>
      <trkpt lat="43.13949" lon="-0.25643">
        <ele>308.6</ele>
        <time>2022-09-08T08:58:46Z</time>
      </trkpt>
      <trkpt lat="43.1394" lon="-0.25666">
        <ele>309.4</ele>
        <time>2022-09-08T08:58:53Z</time>
      </trkpt>
      <trkpt lat="43.13938" lon="-0.25677">
        <ele>309.6</ele>
        <time>2022-09-08T08:58:56Z</time>
      </trkpt>
      <trkpt lat="43.13934" lon="-0.25687">
        <ele>310</ele>
        <time>2022-09-08T08:58:59Z</time>
      </trkpt>
      <trkpt lat="43.13921" lon="-0.25698">
        <ele>310.2</ele>
        <time>2022-09-08T08:59:04Z</time>
      </trkpt>
      <trkpt lat="43.13904" lon="-0.25719">
        <ele>310.8</ele>
        <time>2022-09-08T08:59:11Z</time>
      </trkpt>
      <trkpt lat="43.13901" lon="-0.25726">
        <ele>311</ele>
        <time>2022-09-08T08:59:13Z</time>
      </trkpt>
      <trkpt lat="43.13885" lon="-0.25753">
        <ele>311.8</ele>
        <time>2022-09-08T08:59:21Z</time>
      </trkpt>
      <trkpt lat="43.13872" lon="-0.25787">
        <ele>312.8</ele>
        <time>2022-09-08T08:59:30Z</time>
      </trkpt>
      <trkpt lat="43.13865" lon="-0.25819">
        <ele>313.8</ele>
        <time>2022-09-08T08:59:38Z</time>
      </trkpt>
      <trkpt lat="43.13863" lon="-0.25832">
        <ele>314</ele>
        <time>2022-09-08T08:59:41Z</time>
      </trkpt>
      <trkpt lat="43.1386" lon="-0.25849">
        <ele>314.4</ele>
        <time>2022-09-08T08:59:45Z</time>
      </trkpt>
      <trkpt lat="43.13857" lon="-0.25867">
        <ele>314.4</ele>
        <time>2022-09-08T08:59:49Z</time>
      </trkpt>
      <trkpt lat="43.13854" lon="-0.2589">
        <ele>315</ele>
        <time>2022-09-08T08:59:54Z</time>
      </trkpt>
      <trkpt lat="43.13851" lon="-0.25909">
        <ele>315.2</ele>
        <time>2022-09-08T08:59:58Z</time>
      </trkpt>
      <trkpt lat="43.13842" lon="-0.25952">
        <ele>316</ele>
        <time>2022-09-08T09:00:07Z</time>
      </trkpt>
      <trkpt lat="43.13837" lon="-0.25977">
        <ele>316</ele>
        <time>2022-09-08T09:00:12Z</time>
      </trkpt>
      <trkpt lat="43.13835" lon="-0.25992">
        <ele>316.2</ele>
        <time>2022-09-08T09:00:15Z</time>
      </trkpt>
      <trkpt lat="43.13835" lon="-0.2601">
        <ele>316.2</ele>
        <time>2022-09-08T09:00:18Z</time>
      </trkpt>
      <trkpt lat="43.13832" lon="-0.26021">
        <ele>316.2</ele>
        <time>2022-09-08T09:00:20Z</time>
      </trkpt>
      <trkpt lat="43.13822" lon="-0.26034">
        <ele>316</ele>
        <time>2022-09-08T09:00:24Z</time>
      </trkpt>
      <trkpt lat="43.13819" lon="-0.26037">
        <ele>315.8</ele>
        <time>2022-09-08T09:00:25Z</time>
      </trkpt>
      <trkpt lat="43.13811" lon="-0.26057">
        <ele>315.8</ele>
        <time>2022-09-08T09:00:30Z</time>
      </trkpt>
      <trkpt lat="43.138" lon="-0.26092">
        <ele>316</ele>
        <time>2022-09-08T09:00:38Z</time>
      </trkpt>
      <trkpt lat="43.13789" lon="-0.26132">
        <ele>316</ele>
        <time>2022-09-08T09:00:46Z</time>
      </trkpt>
      <trkpt lat="43.13776" lon="-0.26173">
        <ele>316.2</ele>
        <time>2022-09-08T09:00:54Z</time>
      </trkpt>
      <trkpt lat="43.13757" lon="-0.26215">
        <ele>316.8</ele>
        <time>2022-09-08T09:01:03Z</time>
      </trkpt>
      <trkpt lat="43.13733" lon="-0.26261">
        <ele>317</ele>
        <time>2022-09-08T09:01:13Z</time>
      </trkpt>
      <trkpt lat="43.13731" lon="-0.26265">
        <ele>317.2</ele>
        <time>2022-09-08T09:01:14Z</time>
      </trkpt>
      <trkpt lat="43.13715" lon="-0.2629">
        <ele>317.2</ele>
        <time>2022-09-08T09:01:20Z</time>
      </trkpt>
      <trkpt lat="43.13689" lon="-0.26326">
        <ele>317.4</ele>
        <time>2022-09-08T09:01:29Z</time>
      </trkpt>
      <trkpt lat="43.13659" lon="-0.26355">
        <ele>318.2</ele>
        <time>2022-09-08T09:01:38Z</time>
      </trkpt>
      <trkpt lat="43.13656" lon="-0.26357">
        <ele>318.4</ele>
        <time>2022-09-08T09:01:39Z</time>
      </trkpt>
      <trkpt lat="43.13634" lon="-0.26373">
        <ele>319.4</ele>
        <time>2022-09-08T09:01:45Z</time>
      </trkpt>
      <trkpt lat="43.13631" lon="-0.26376">
        <ele>319.6</ele>
        <time>2022-09-08T09:01:46Z</time>
      </trkpt>
      <trkpt lat="43.13602" lon="-0.26399">
        <ele>320.4</ele>
        <time>2022-09-08T09:01:55Z</time>
      </trkpt>
      <trkpt lat="43.1357" lon="-0.26421">
        <ele>321.2</ele>
        <time>2022-09-08T09:02:04Z</time>
      </trkpt>
      <trkpt lat="43.13552" lon="-0.26434">
        <ele>321.6</ele>
        <time>2022-09-08T09:02:09Z</time>
      </trkpt>
      <trkpt lat="43.13541" lon="-0.26442">
        <ele>321.8</ele>
        <time>2022-09-08T09:02:12Z</time>
      </trkpt>
      <trkpt lat="43.13538" lon="-0.26446">
        <ele>321.8</ele>
        <time>2022-09-08T09:02:13Z</time>
      </trkpt>
      <trkpt lat="43.13527" lon="-0.26463">
        <ele>322</ele>
        <time>2022-09-08T09:02:17Z</time>
      </trkpt>
      <trkpt lat="43.13525" lon="-0.26468">
        <ele>322</ele>
        <time>2022-09-08T09:02:18Z</time>
      </trkpt>
      <trkpt lat="43.13523" lon="-0.26473">
        <ele>322</ele>
        <time>2022-09-08T09:02:19Z</time>
      </trkpt>
      <trkpt lat="43.13514" lon="-0.26498">
        <ele>322</ele>
        <time>2022-09-08T09:02:24Z</time>
      </trkpt>
      <trkpt lat="43.13502" lon="-0.26539">
        <ele>322.6</ele>
        <time>2022-09-08T09:02:32Z</time>
      </trkpt>
      <trkpt lat="43.13495" lon="-0.2656">
        <ele>323</ele>
        <time>2022-09-08T09:02:36Z</time>
      </trkpt>
      <trkpt lat="43.13492" lon="-0.26571">
        <ele>323.2</ele>
        <time>2022-09-08T09:02:38Z</time>
      </trkpt>
      <trkpt lat="43.1348" lon="-0.26601">
        <ele>323.6</ele>
        <time>2022-09-08T09:02:44Z</time>
      </trkpt>
      <trkpt lat="43.13475" lon="-0.26611">
        <ele>323.8</ele>
        <time>2022-09-08T09:02:46Z</time>
      </trkpt>
      <trkpt lat="43.13468" lon="-0.26632">
        <ele>324.4</ele>
        <time>2022-09-08T09:02:50Z</time>
      </trkpt>
      <trkpt lat="43.13466" lon="-0.26637">
        <ele>324.8</ele>
        <time>2022-09-08T09:02:51Z</time>
      </trkpt>
      <trkpt lat="43.13459" lon="-0.26653">
        <ele>325.2</ele>
        <time>2022-09-08T09:02:54Z</time>
      </trkpt>
      <trkpt lat="43.13448" lon="-0.26681">
        <ele>325.8</ele>
        <time>2022-09-08T09:03:00Z</time>
      </trkpt>
      <trkpt lat="43.13433" lon="-0.26712">
        <ele>326.8</ele>
        <time>2022-09-08T09:03:07Z</time>
      </trkpt>
      <trkpt lat="43.1342" lon="-0.26737">
        <ele>327.6</ele>
        <time>2022-09-08T09:03:13Z</time>
      </trkpt>
      <trkpt lat="43.13418" lon="-0.2674">
        <ele>327.8</ele>
        <time>2022-09-08T09:03:14Z</time>
      </trkpt>
      <trkpt lat="43.13405" lon="-0.26758">
        <ele>328.6</ele>
        <time>2022-09-08T09:03:20Z</time>
      </trkpt>
      <trkpt lat="43.13399" lon="-0.26759">
        <ele>328.8</ele>
        <time>2022-09-08T09:03:23Z</time>
      </trkpt>
      <trkpt lat="43.13397" lon="-0.26758">
        <ele>329</ele>
        <time>2022-09-08T09:03:24Z</time>
      </trkpt>
      <trkpt lat="43.13385" lon="-0.26748">
        <ele>328.8</ele>
        <time>2022-09-08T09:03:31Z</time>
      </trkpt>
      <trkpt lat="43.1337" lon="-0.26738">
        <ele>327.6</ele>
        <time>2022-09-08T09:03:35Z</time>
      </trkpt>
      <trkpt lat="43.13365" lon="-0.26734">
        <ele>327.2</ele>
        <time>2022-09-08T09:03:36Z</time>
      </trkpt>
      <trkpt lat="43.1336" lon="-0.2673">
        <ele>326.6</ele>
        <time>2022-09-08T09:03:37Z</time>
      </trkpt>
      <trkpt lat="43.13353" lon="-0.26727">
        <ele>325.4</ele>
        <time>2022-09-08T09:03:38Z</time>
      </trkpt>
      <trkpt lat="43.13347" lon="-0.26724">
        <ele>324.2</ele>
        <time>2022-09-08T09:03:39Z</time>
      </trkpt>
      <trkpt lat="43.13341" lon="-0.26722">
        <ele>323.2</ele>
        <time>2022-09-08T09:03:40Z</time>
      </trkpt>
      <trkpt lat="43.13336" lon="-0.2672">
        <ele>322.2</ele>
        <time>2022-09-08T09:03:42Z</time>
      </trkpt>
      <trkpt lat="43.13328" lon="-0.26717">
        <ele>322.2</ele>
        <time>2022-09-08T09:03:48Z</time>
      </trkpt>
      <trkpt lat="43.1333" lon="-0.26719">
        <ele>322.2</ele>
        <time>2022-09-08T09:04:54Z</time>
      </trkpt>
      <trkpt lat="43.13332" lon="-0.26722">
        <ele>322</ele>
        <time>2022-09-08T09:04:56Z</time>
      </trkpt>
      <trkpt lat="43.13334" lon="-0.26729">
        <ele>321.2</ele>
        <time>2022-09-08T09:04:58Z</time>
      </trkpt>
      <trkpt lat="43.13336" lon="-0.26732">
        <ele>320.8</ele>
        <time>2022-09-08T09:04:59Z</time>
      </trkpt>
      <trkpt lat="43.13339" lon="-0.2674">
        <ele>319.6</ele>
        <time>2022-09-08T09:05:01Z</time>
      </trkpt>
      <trkpt lat="43.13339" lon="-0.26744">
        <ele>319.2</ele>
        <time>2022-09-08T09:05:02Z</time>
      </trkpt>
      <trkpt lat="43.13336" lon="-0.26755">
        <ele>318.2</ele>
        <time>2022-09-08T09:05:05Z</time>
      </trkpt>
      <trkpt lat="43.13336" lon="-0.26759">
        <ele>318</ele>
        <time>2022-09-08T09:05:06Z</time>
      </trkpt>
      <trkpt lat="43.1333" lon="-0.26772">
        <ele>316.8</ele>
        <time>2022-09-08T09:05:09Z</time>
      </trkpt>
      <trkpt lat="43.13329" lon="-0.26776">
        <ele>316.4</ele>
        <time>2022-09-08T09:05:10Z</time>
      </trkpt>
      <trkpt lat="43.13325" lon="-0.26785">
        <ele>315.6</ele>
        <time>2022-09-08T09:05:12Z</time>
      </trkpt>
      <trkpt lat="43.13322" lon="-0.26794">
        <ele>314.4</ele>
        <time>2022-09-08T09:05:14Z</time>
      </trkpt>
      <trkpt lat="43.13321" lon="-0.26798">
        <ele>314</ele>
        <time>2022-09-08T09:05:15Z</time>
      </trkpt>
      <trkpt lat="43.13318" lon="-0.26806">
        <ele>313.2</ele>
        <time>2022-09-08T09:05:18Z</time>
      </trkpt>
      <trkpt lat="43.13314" lon="-0.26818">
        <ele>312.2</ele>
        <time>2022-09-08T09:05:25Z</time>
      </trkpt>
      <trkpt lat="43.1331" lon="-0.26825">
        <ele>312</ele>
        <time>2022-09-08T09:07:54Z</time>
      </trkpt>
      <trkpt lat="43.13308" lon="-0.2683">
        <ele>312</ele>
        <time>2022-09-08T09:07:56Z</time>
      </trkpt>
      <trkpt lat="43.13301" lon="-0.26848">
        <ele>311.2</ele>
        <time>2022-09-08T09:08:01Z</time>
      </trkpt>
      <trkpt lat="43.133" lon="-0.26852">
        <ele>311</ele>
        <time>2022-09-08T09:08:02Z</time>
      </trkpt>
      <trkpt lat="43.13295" lon="-0.26865">
        <ele>309.8</ele>
        <time>2022-09-08T09:08:05Z</time>
      </trkpt>
      <trkpt lat="43.1329" lon="-0.2688">
        <ele>308.6</ele>
        <time>2022-09-08T09:08:09Z</time>
      </trkpt>
      <trkpt lat="43.13285" lon="-0.26893">
        <ele>307.6</ele>
        <time>2022-09-08T09:08:34Z</time>
      </trkpt>
      <trkpt lat="43.13284" lon="-0.26896">
        <ele>307.4</ele>
        <time>2022-09-08T09:08:35Z</time>
      </trkpt>
      <trkpt lat="43.13283" lon="-0.269">
        <ele>307.2</ele>
        <time>2022-09-08T09:08:36Z</time>
      </trkpt>
      <trkpt lat="43.13277" lon="-0.26918">
        <ele>306.2</ele>
        <time>2022-09-08T09:08:41Z</time>
      </trkpt>
      <trkpt lat="43.13275" lon="-0.26928">
        <ele>305.4</ele>
        <time>2022-09-08T09:08:44Z</time>
      </trkpt>
      <trkpt lat="43.13274" lon="-0.26931">
        <ele>305.2</ele>
        <time>2022-09-08T09:08:45Z</time>
      </trkpt>
      <trkpt lat="43.13268" lon="-0.26951">
        <ele>304.2</ele>
        <time>2022-09-08T09:08:50Z</time>
      </trkpt>
      <trkpt lat="43.13266" lon="-0.26954">
        <ele>303.6</ele>
        <time>2022-09-08T09:08:51Z</time>
      </trkpt>
      <trkpt lat="43.13262" lon="-0.26964">
        <ele>303.2</ele>
        <time>2022-09-08T09:08:54Z</time>
      </trkpt>
      <trkpt lat="43.13252" lon="-0.26979">
        <ele>302.6</ele>
        <time>2022-09-08T09:08:58Z</time>
      </trkpt>
      <trkpt lat="43.13244" lon="-0.26988">
        <ele>302</ele>
        <time>2022-09-08T09:09:01Z</time>
      </trkpt>
      <trkpt lat="43.13226" lon="-0.27007">
        <ele>301.2</ele>
        <time>2022-09-08T09:09:07Z</time>
      </trkpt>
      <trkpt lat="43.13223" lon="-0.2701">
        <ele>300.8</ele>
        <time>2022-09-08T09:09:08Z</time>
      </trkpt>
      <trkpt lat="43.132" lon="-0.27035">
        <ele>299.8</ele>
        <time>2022-09-08T09:09:15Z</time>
      </trkpt>
      <trkpt lat="43.13197" lon="-0.27039">
        <ele>299.6</ele>
        <time>2022-09-08T09:09:16Z</time>
      </trkpt>
      <trkpt lat="43.13185" lon="-0.27051">
        <ele>298.6</ele>
        <time>2022-09-08T09:09:20Z</time>
      </trkpt>
      <trkpt lat="43.13177" lon="-0.27061">
        <ele>297.4</ele>
        <time>2022-09-08T09:09:23Z</time>
      </trkpt>
      <trkpt lat="43.13155" lon="-0.27085">
        <ele>295.8</ele>
        <time>2022-09-08T09:09:29Z</time>
      </trkpt>
      <trkpt lat="43.13144" lon="-0.27096">
        <ele>294.8</ele>
        <time>2022-09-08T09:09:32Z</time>
      </trkpt>
      <trkpt lat="43.13135" lon="-0.27107">
        <ele>294.6</ele>
        <time>2022-09-08T09:09:35Z</time>
      </trkpt>
      <trkpt lat="43.13133" lon="-0.27127">
        <ele>293.8</ele>
        <time>2022-09-08T09:09:39Z</time>
      </trkpt>
      <trkpt lat="43.13133" lon="-0.27162">
        <ele>293.6</ele>
        <time>2022-09-08T09:09:46Z</time>
      </trkpt>
      <trkpt lat="43.13134" lon="-0.27168">
        <ele>293.6</ele>
        <time>2022-09-08T09:09:47Z</time>
      </trkpt>
      <trkpt lat="43.13136" lon="-0.27179">
        <ele>293.6</ele>
        <time>2022-09-08T09:09:49Z</time>
      </trkpt>
      <trkpt lat="43.13139" lon="-0.27189">
        <ele>293.6</ele>
        <time>2022-09-08T09:09:51Z</time>
      </trkpt>
      <trkpt lat="43.13147" lon="-0.27216">
        <ele>293.2</ele>
        <time>2022-09-08T09:09:56Z</time>
      </trkpt>
      <trkpt lat="43.13148" lon="-0.27232">
        <ele>292.6</ele>
        <time>2022-09-08T09:09:58Z</time>
      </trkpt>
      <trkpt lat="43.13148" lon="-0.27251">
        <ele>291.6</ele>
        <time>2022-09-08T09:10:00Z</time>
      </trkpt>
      <trkpt lat="43.13148" lon="-0.27262">
        <ele>291.4</ele>
        <time>2022-09-08T09:10:01Z</time>
      </trkpt>
      <trkpt lat="43.13143" lon="-0.27291">
        <ele>290.4</ele>
        <time>2022-09-08T09:10:04Z</time>
      </trkpt>
      <trkpt lat="43.13136" lon="-0.27337">
        <ele>290.4</ele>
        <time>2022-09-08T09:10:09Z</time>
      </trkpt>
      <trkpt lat="43.1313" lon="-0.27366">
        <ele>289.4</ele>
        <time>2022-09-08T09:10:12Z</time>
      </trkpt>
      <trkpt lat="43.1313" lon="-0.27376">
        <ele>289.4</ele>
        <time>2022-09-08T09:10:13Z</time>
      </trkpt>
      <trkpt lat="43.1313" lon="-0.27385">
        <ele>289.4</ele>
        <time>2022-09-08T09:10:14Z</time>
      </trkpt>
      <trkpt lat="43.13133" lon="-0.274">
        <ele>289.6</ele>
        <time>2022-09-08T09:10:16Z</time>
      </trkpt>
      <trkpt lat="43.13134" lon="-0.27414">
        <ele>290.2</ele>
        <time>2022-09-08T09:10:18Z</time>
      </trkpt>
      <trkpt lat="43.13136" lon="-0.27428">
        <ele>290.4</ele>
        <time>2022-09-08T09:10:20Z</time>
      </trkpt>
      <trkpt lat="43.13136" lon="-0.27451">
        <ele>291.4</ele>
        <time>2022-09-08T09:10:24Z</time>
      </trkpt>
      <trkpt lat="43.13138" lon="-0.27484">
        <ele>292.4</ele>
        <time>2022-09-08T09:10:31Z</time>
      </trkpt>
      <trkpt lat="43.13137" lon="-0.27517">
        <ele>292.4</ele>
        <time>2022-09-08T09:10:38Z</time>
      </trkpt>
      <trkpt lat="43.13136" lon="-0.27548">
        <ele>292.2</ele>
        <time>2022-09-08T09:10:44Z</time>
      </trkpt>
      <trkpt lat="43.13136" lon="-0.27581">
        <ele>292</ele>
        <time>2022-09-08T09:10:50Z</time>
      </trkpt>
      <trkpt lat="43.13136" lon="-0.27587">
        <ele>291.8</ele>
        <time>2022-09-08T09:10:51Z</time>
      </trkpt>
      <trkpt lat="43.13137" lon="-0.27604">
        <ele>291.4</ele>
        <time>2022-09-08T09:10:54Z</time>
      </trkpt>
      <trkpt lat="43.13139" lon="-0.27623">
        <ele>291</ele>
        <time>2022-09-08T09:10:57Z</time>
      </trkpt>
      <trkpt lat="43.1314" lon="-0.27631">
        <ele>290.4</ele>
        <time>2022-09-08T09:10:58Z</time>
      </trkpt>
      <trkpt lat="43.13142" lon="-0.27663">
        <ele>289.2</ele>
        <time>2022-09-08T09:11:02Z</time>
      </trkpt>
      <trkpt lat="43.13142" lon="-0.27672">
        <ele>288.8</ele>
        <time>2022-09-08T09:11:03Z</time>
      </trkpt>
      <trkpt lat="43.1314" lon="-0.27688">
        <ele>288.2</ele>
        <time>2022-09-08T09:11:05Z</time>
      </trkpt>
      <trkpt lat="43.13137" lon="-0.27701">
        <ele>288.6</ele>
        <time>2022-09-08T09:11:07Z</time>
      </trkpt>
      <trkpt lat="43.13134" lon="-0.27717">
        <ele>289.2</ele>
        <time>2022-09-08T09:11:10Z</time>
      </trkpt>
      <trkpt lat="43.13132" lon="-0.27731">
        <ele>290</ele>
        <time>2022-09-08T09:11:13Z</time>
      </trkpt>
      <trkpt lat="43.13132" lon="-0.27735">
        <ele>290.2</ele>
        <time>2022-09-08T09:11:14Z</time>
      </trkpt>
      <trkpt lat="43.13129" lon="-0.27752">
        <ele>291.4</ele>
        <time>2022-09-08T09:11:18Z</time>
      </trkpt>
      <trkpt lat="43.13128" lon="-0.27763">
        <ele>292</ele>
        <time>2022-09-08T09:11:21Z</time>
      </trkpt>
      <trkpt lat="43.13125" lon="-0.27774">
        <ele>292.4</ele>
        <time>2022-09-08T09:11:24Z</time>
      </trkpt>
      <trkpt lat="43.13122" lon="-0.27787">
        <ele>293.2</ele>
        <time>2022-09-08T09:11:28Z</time>
      </trkpt>
      <trkpt lat="43.1312" lon="-0.27793">
        <ele>293.4</ele>
        <time>2022-09-08T09:11:30Z</time>
      </trkpt>
      <trkpt lat="43.13114" lon="-0.27812">
        <ele>294.6</ele>
        <time>2022-09-08T09:11:36Z</time>
      </trkpt>
      <trkpt lat="43.13107" lon="-0.27833">
        <ele>295.8</ele>
        <time>2022-09-08T09:11:43Z</time>
      </trkpt>
      <trkpt lat="43.13105" lon="-0.27839">
        <ele>296</ele>
        <time>2022-09-08T09:11:45Z</time>
      </trkpt>
      <trkpt lat="43.131" lon="-0.27858">
        <ele>296.8</ele>
        <time>2022-09-08T09:11:51Z</time>
      </trkpt>
      <trkpt lat="43.13098" lon="-0.27862">
        <ele>296.8</ele>
        <time>2022-09-08T09:11:52Z</time>
      </trkpt>
      <trkpt lat="43.13087" lon="-0.27888">
        <ele>297.2</ele>
        <time>2022-09-08T09:12:00Z</time>
      </trkpt>
      <trkpt lat="43.13075" lon="-0.27912">
        <ele>297.4</ele>
        <time>2022-09-08T09:12:07Z</time>
      </trkpt>
      <trkpt lat="43.13059" lon="-0.27943">
        <ele>297.4</ele>
        <time>2022-09-08T09:12:16Z</time>
      </trkpt>
      <trkpt lat="43.1305" lon="-0.27961">
        <ele>297.6</ele>
        <time>2022-09-08T09:12:21Z</time>
      </trkpt>
      <trkpt lat="43.13032" lon="-0.27988">
        <ele>297.4</ele>
        <time>2022-09-08T09:12:29Z</time>
      </trkpt>
      <trkpt lat="43.13009" lon="-0.28014">
        <ele>297</ele>
        <time>2022-09-08T09:12:39Z</time>
      </trkpt>
      <trkpt lat="43.12992" lon="-0.28027">
        <ele>296</ele>
        <time>2022-09-08T09:12:45Z</time>
      </trkpt>
      <trkpt lat="43.12984" lon="-0.28034">
        <ele>295.6</ele>
        <time>2022-09-08T09:12:47Z</time>
      </trkpt>
      <trkpt lat="43.12977" lon="-0.28042">
        <ele>295.4</ele>
        <time>2022-09-08T09:12:49Z</time>
      </trkpt>
      <trkpt lat="43.12971" lon="-0.2805">
        <ele>295.2</ele>
        <time>2022-09-08T09:12:51Z</time>
      </trkpt>
      <trkpt lat="43.12952" lon="-0.28076">
        <ele>295.4</ele>
        <time>2022-09-08T09:12:58Z</time>
      </trkpt>
      <trkpt lat="43.12933" lon="-0.28101">
        <ele>294.8</ele>
        <time>2022-09-08T09:13:05Z</time>
      </trkpt>
      <trkpt lat="43.12912" lon="-0.28125">
        <ele>294.6</ele>
        <time>2022-09-08T09:13:12Z</time>
      </trkpt>
      <trkpt lat="43.12908" lon="-0.28129">
        <ele>294.4</ele>
        <time>2022-09-08T09:13:13Z</time>
      </trkpt>
      <trkpt lat="43.12889" lon="-0.28147">
        <ele>294</ele>
        <time>2022-09-08T09:13:18Z</time>
      </trkpt>
      <trkpt lat="43.12885" lon="-0.28151">
        <ele>294</ele>
        <time>2022-09-08T09:13:19Z</time>
      </trkpt>
      <trkpt lat="43.1287" lon="-0.2816">
        <ele>293.4</ele>
        <time>2022-09-08T09:13:22Z</time>
      </trkpt>
      <trkpt lat="43.12849" lon="-0.2817">
        <ele>292.8</ele>
        <time>2022-09-08T09:13:26Z</time>
      </trkpt>
      <trkpt lat="43.12833" lon="-0.28175">
        <ele>292.2</ele>
        <time>2022-09-08T09:13:29Z</time>
      </trkpt>
      <trkpt lat="43.12814" lon="-0.2818">
        <ele>291.6</ele>
        <time>2022-09-08T09:13:32Z</time>
      </trkpt>
      <trkpt lat="43.12795" lon="-0.28183">
        <ele>291.2</ele>
        <time>2022-09-08T09:13:35Z</time>
      </trkpt>
      <trkpt lat="43.12777" lon="-0.28184">
        <ele>291</ele>
        <time>2022-09-08T09:13:38Z</time>
      </trkpt>
      <trkpt lat="43.12742" lon="-0.28183">
        <ele>290.4</ele>
        <time>2022-09-08T09:13:44Z</time>
      </trkpt>
      <trkpt lat="43.12721" lon="-0.28181">
        <ele>290.6</ele>
        <time>2022-09-08T09:13:49Z</time>
      </trkpt>
      <trkpt lat="43.12699" lon="-0.28178">
        <ele>290.8</ele>
        <time>2022-09-08T09:13:54Z</time>
      </trkpt>
      <trkpt lat="43.1269" lon="-0.28179">
        <ele>290.8</ele>
        <time>2022-09-08T09:13:56Z</time>
      </trkpt>
      <trkpt lat="43.12661" lon="-0.28181">
        <ele>291.2</ele>
        <time>2022-09-08T09:14:03Z</time>
      </trkpt>
      <trkpt lat="43.12629" lon="-0.28186">
        <ele>291</ele>
        <time>2022-09-08T09:14:10Z</time>
      </trkpt>
      <trkpt lat="43.12625" lon="-0.28186">
        <ele>291</ele>
        <time>2022-09-08T09:14:11Z</time>
      </trkpt>
      <trkpt lat="43.12598" lon="-0.28188">
        <ele>291.6</ele>
        <time>2022-09-08T09:14:18Z</time>
      </trkpt>
      <trkpt lat="43.12594" lon="-0.28188">
        <ele>291.6</ele>
        <time>2022-09-08T09:14:19Z</time>
      </trkpt>
      <trkpt lat="43.12574" lon="-0.28189">
        <ele>291.4</ele>
        <time>2022-09-08T09:14:24Z</time>
      </trkpt>
      <trkpt lat="43.12561" lon="-0.28191">
        <ele>290.8</ele>
        <time>2022-09-08T09:14:27Z</time>
      </trkpt>
      <trkpt lat="43.12549" lon="-0.28193">
        <ele>290</ele>
        <time>2022-09-08T09:14:29Z</time>
      </trkpt>
      <trkpt lat="43.12535" lon="-0.28196">
        <ele>288.8</ele>
        <time>2022-09-08T09:14:31Z</time>
      </trkpt>
      <trkpt lat="43.12528" lon="-0.282">
        <ele>288.4</ele>
        <time>2022-09-08T09:14:32Z</time>
      </trkpt>
      <trkpt lat="43.12521" lon="-0.28205">
        <ele>287.8</ele>
        <time>2022-09-08T09:14:33Z</time>
      </trkpt>
      <trkpt lat="43.1251" lon="-0.28218">
        <ele>287</ele>
        <time>2022-09-08T09:14:35Z</time>
      </trkpt>
      <trkpt lat="43.12507" lon="-0.28237">
        <ele>286.6</ele>
        <time>2022-09-08T09:14:37Z</time>
      </trkpt>
      <trkpt lat="43.12508" lon="-0.28246">
        <ele>286.4</ele>
        <time>2022-09-08T09:14:38Z</time>
      </trkpt>
      <trkpt lat="43.12502" lon="-0.28281">
        <ele>286.4</ele>
        <time>2022-09-08T09:14:42Z</time>
      </trkpt>
      <trkpt lat="43.12493" lon="-0.28307">
        <ele>286.6</ele>
        <time>2022-09-08T09:14:46Z</time>
      </trkpt>
      <trkpt lat="43.12476" lon="-0.28346">
        <ele>287.6</ele>
        <time>2022-09-08T09:14:54Z</time>
      </trkpt>
      <trkpt lat="43.12462" lon="-0.28378">
        <ele>288.2</ele>
        <time>2022-09-08T09:15:01Z</time>
      </trkpt>
      <trkpt lat="43.12451" lon="-0.28411">
        <ele>288</ele>
        <time>2022-09-08T09:15:08Z</time>
      </trkpt>
      <trkpt lat="43.12444" lon="-0.2845">
        <ele>288.6</ele>
        <time>2022-09-08T09:15:15Z</time>
      </trkpt>
      <trkpt lat="43.12436" lon="-0.28482">
        <ele>289.2</ele>
        <time>2022-09-08T09:15:22Z</time>
      </trkpt>
      <trkpt lat="43.12426" lon="-0.28523">
        <ele>289.2</ele>
        <time>2022-09-08T09:15:30Z</time>
      </trkpt>
      <trkpt lat="43.12419" lon="-0.2855">
        <ele>289.8</ele>
        <time>2022-09-08T09:15:35Z</time>
      </trkpt>
      <trkpt lat="43.12415" lon="-0.28564">
        <ele>290.2</ele>
        <time>2022-09-08T09:15:38Z</time>
      </trkpt>
      <trkpt lat="43.12408" lon="-0.28594">
        <ele>290.8</ele>
        <time>2022-09-08T09:15:44Z</time>
      </trkpt>
      <trkpt lat="43.12404" lon="-0.28608">
        <ele>291.4</ele>
        <time>2022-09-08T09:15:47Z</time>
      </trkpt>
      <trkpt lat="43.12398" lon="-0.28629">
        <ele>292</ele>
        <time>2022-09-08T09:15:52Z</time>
      </trkpt>
      <trkpt lat="43.12394" lon="-0.2864">
        <ele>292</ele>
        <time>2022-09-08T09:15:55Z</time>
      </trkpt>
      <trkpt lat="43.12382" lon="-0.28668">
        <ele>291.4</ele>
        <time>2022-09-08T09:16:01Z</time>
      </trkpt>
      <trkpt lat="43.12369" lon="-0.28692">
        <ele>290.8</ele>
        <time>2022-09-08T09:16:06Z</time>
      </trkpt>
      <trkpt lat="43.12363" lon="-0.28704">
        <ele>290.6</ele>
        <time>2022-09-08T09:16:08Z</time>
      </trkpt>
      <trkpt lat="43.12348" lon="-0.28728">
        <ele>289.8</ele>
        <time>2022-09-08T09:16:12Z</time>
      </trkpt>
      <trkpt lat="43.12338" lon="-0.28748">
        <ele>289.6</ele>
        <time>2022-09-08T09:16:15Z</time>
      </trkpt>
      <trkpt lat="43.12314" lon="-0.28793">
        <ele>288.8</ele>
        <time>2022-09-08T09:16:22Z</time>
      </trkpt>
      <trkpt lat="43.12298" lon="-0.28826">
        <ele>288.8</ele>
        <time>2022-09-08T09:16:28Z</time>
      </trkpt>
      <trkpt lat="43.12296" lon="-0.28831">
        <ele>288.8</ele>
        <time>2022-09-08T09:16:29Z</time>
      </trkpt>
      <trkpt lat="43.1228" lon="-0.28862">
        <ele>289.2</ele>
        <time>2022-09-08T09:16:36Z</time>
      </trkpt>
      <trkpt lat="43.12258" lon="-0.289">
        <ele>289.8</ele>
        <time>2022-09-08T09:16:45Z</time>
      </trkpt>
      <trkpt lat="43.12243" lon="-0.28931">
        <ele>291</ele>
        <time>2022-09-08T09:16:52Z</time>
      </trkpt>
      <trkpt lat="43.12223" lon="-0.28976">
        <ele>290.6</ele>
        <time>2022-09-08T09:17:01Z</time>
      </trkpt>
      <trkpt lat="43.12203" lon="-0.29019">
        <ele>290.4</ele>
        <time>2022-09-08T09:17:10Z</time>
      </trkpt>
      <trkpt lat="43.12183" lon="-0.29057">
        <ele>290.4</ele>
        <time>2022-09-08T09:17:19Z</time>
      </trkpt>
      <trkpt lat="43.12156" lon="-0.29087">
        <ele>290.6</ele>
        <time>2022-09-08T09:17:28Z</time>
      </trkpt>
      <trkpt lat="43.12137" lon="-0.291">
        <ele>290.8</ele>
        <time>2022-09-08T09:17:34Z</time>
      </trkpt>
      <trkpt lat="43.12125" lon="-0.29112">
        <ele>291.2</ele>
        <time>2022-09-08T09:17:39Z</time>
      </trkpt>
      <trkpt lat="43.12124" lon="-0.29116">
        <ele>291.6</ele>
        <time>2022-09-08T09:17:40Z</time>
      </trkpt>
      <trkpt lat="43.12125" lon="-0.29119">
        <ele>292</ele>
        <time>2022-09-08T09:17:41Z</time>
      </trkpt>
      <trkpt lat="43.12126" lon="-0.29127">
        <ele>292.8</ele>
        <time>2022-09-08T09:17:44Z</time>
      </trkpt>
      <trkpt lat="43.12127" lon="-0.29133">
        <ele>292.8</ele>
        <time>2022-09-08T09:17:46Z</time>
      </trkpt>
      <trkpt lat="43.12127" lon="-0.29155">
        <ele>292.6</ele>
        <time>2022-09-08T09:17:52Z</time>
      </trkpt>
      <trkpt lat="43.12122" lon="-0.29182">
        <ele>292</ele>
        <time>2022-09-08T09:17:58Z</time>
      </trkpt>
      <trkpt lat="43.12115" lon="-0.29222">
        <ele>292.8</ele>
        <time>2022-09-08T09:18:07Z</time>
      </trkpt>
      <trkpt lat="43.12114" lon="-0.2923">
        <ele>293.2</ele>
        <time>2022-09-08T09:18:09Z</time>
      </trkpt>
      <trkpt lat="43.1211" lon="-0.29249">
        <ele>294.2</ele>
        <time>2022-09-08T09:18:15Z</time>
      </trkpt>
      <trkpt lat="43.12107" lon="-0.29261">
        <ele>295.4</ele>
        <time>2022-09-08T09:18:20Z</time>
      </trkpt>
      <trkpt lat="43.12105" lon="-0.29266">
        <ele>295.6</ele>
        <time>2022-09-08T09:18:22Z</time>
      </trkpt>
      <trkpt lat="43.12101" lon="-0.29281">
        <ele>296.4</ele>
        <time>2022-09-08T09:18:28Z</time>
      </trkpt>
      <trkpt lat="43.12099" lon="-0.29286">
        <ele>296.6</ele>
        <time>2022-09-08T09:18:30Z</time>
      </trkpt>
      <trkpt lat="43.12095" lon="-0.2931">
        <ele>297.6</ele>
        <time>2022-09-08T09:18:39Z</time>
      </trkpt>
      <trkpt lat="43.12094" lon="-0.29333">
        <ele>298.8</ele>
        <time>2022-09-08T09:18:47Z</time>
      </trkpt>
      <trkpt lat="43.12097" lon="-0.29363">
        <ele>299.8</ele>
        <time>2022-09-08T09:18:57Z</time>
      </trkpt>
      <trkpt lat="43.12098" lon="-0.29366">
        <ele>299.8</ele>
        <time>2022-09-08T09:18:58Z</time>
      </trkpt>
      <trkpt lat="43.12101" lon="-0.29388">
        <ele>300.4</ele>
        <time>2022-09-08T09:19:05Z</time>
      </trkpt>
      <trkpt lat="43.12107" lon="-0.29408">
        <ele>301</ele>
        <time>2022-09-08T09:19:12Z</time>
      </trkpt>
      <trkpt lat="43.12109" lon="-0.29414">
        <ele>301.2</ele>
        <time>2022-09-08T09:19:14Z</time>
      </trkpt>
      <trkpt lat="43.12113" lon="-0.29426">
        <ele>302</ele>
        <time>2022-09-08T09:19:18Z</time>
      </trkpt>
      <trkpt lat="43.12119" lon="-0.29439">
        <ele>302.6</ele>
        <time>2022-09-08T09:19:23Z</time>
      </trkpt>
      <trkpt lat="43.12123" lon="-0.29447">
        <ele>303</ele>
        <time>2022-09-08T09:19:26Z</time>
      </trkpt>
      <trkpt lat="43.12132" lon="-0.29463">
        <ele>303.4</ele>
        <time>2022-09-08T09:19:32Z</time>
      </trkpt>
      <trkpt lat="43.1215" lon="-0.2949">
        <ele>303.4</ele>
        <time>2022-09-08T09:19:41Z</time>
      </trkpt>
      <trkpt lat="43.12167" lon="-0.29516">
        <ele>303.4</ele>
        <time>2022-09-08T09:19:50Z</time>
      </trkpt>
      <trkpt lat="43.12174" lon="-0.29528">
        <ele>303.6</ele>
        <time>2022-09-08T09:19:57Z</time>
      </trkpt>
      <trkpt lat="43.12183" lon="-0.29543">
        <ele>304.2</ele>
        <time>2022-09-08T09:20:03Z</time>
      </trkpt>
      <trkpt lat="43.12184" lon="-0.29546">
        <ele>304.2</ele>
        <time>2022-09-08T09:20:04Z</time>
      </trkpt>
      <trkpt lat="43.12198" lon="-0.29566">
        <ele>305.2</ele>
        <time>2022-09-08T09:20:12Z</time>
      </trkpt>
      <trkpt lat="43.12201" lon="-0.29571">
        <ele>305.4</ele>
        <time>2022-09-08T09:20:14Z</time>
      </trkpt>
      <trkpt lat="43.12209" lon="-0.29585">
        <ele>306.2</ele>
        <time>2022-09-08T09:20:20Z</time>
      </trkpt>
      <trkpt lat="43.12213" lon="-0.29591">
        <ele>306.8</ele>
        <time>2022-09-08T09:20:23Z</time>
      </trkpt>
      <trkpt lat="43.12218" lon="-0.29601">
        <ele>307.4</ele>
        <time>2022-09-08T09:20:27Z</time>
      </trkpt>
      <trkpt lat="43.12222" lon="-0.29607">
        <ele>308.2</ele>
        <time>2022-09-08T09:20:30Z</time>
      </trkpt>
      <trkpt lat="43.12226" lon="-0.29614">
        <ele>308.6</ele>
        <time>2022-09-08T09:20:33Z</time>
      </trkpt>
      <trkpt lat="43.12234" lon="-0.29627">
        <ele>309.4</ele>
        <time>2022-09-08T09:20:39Z</time>
      </trkpt>
      <trkpt lat="43.12237" lon="-0.29631">
        <ele>309.6</ele>
        <time>2022-09-08T09:20:41Z</time>
      </trkpt>
      <trkpt lat="43.12245" lon="-0.29646">
        <ele>310.8</ele>
        <time>2022-09-08T09:20:48Z</time>
      </trkpt>
      <trkpt lat="43.12246" lon="-0.29648">
        <ele>311</ele>
        <time>2022-09-08T09:20:49Z</time>
      </trkpt>
      <trkpt lat="43.12254" lon="-0.29661">
        <ele>311.8</ele>
        <time>2022-09-08T09:20:55Z</time>
      </trkpt>
      <trkpt lat="43.1226" lon="-0.29671">
        <ele>312.4</ele>
        <time>2022-09-08T09:21:00Z</time>
      </trkpt>
      <trkpt lat="43.12263" lon="-0.29677">
        <ele>313</ele>
        <time>2022-09-08T09:21:03Z</time>
      </trkpt>
      <trkpt lat="43.12268" lon="-0.29686">
        <ele>313.6</ele>
        <time>2022-09-08T09:21:07Z</time>
      </trkpt>
      <trkpt lat="43.12272" lon="-0.29693">
        <ele>314</ele>
        <time>2022-09-08T09:21:10Z</time>
      </trkpt>
      <trkpt lat="43.12278" lon="-0.29704">
        <ele>315</ele>
        <time>2022-09-08T09:21:15Z</time>
      </trkpt>
      <trkpt lat="43.12279" lon="-0.29706">
        <ele>315.2</ele>
        <time>2022-09-08T09:21:16Z</time>
      </trkpt>
      <trkpt lat="43.12287" lon="-0.29716">
        <ele>316</ele>
        <time>2022-09-08T09:21:21Z</time>
      </trkpt>
      <trkpt lat="43.12289" lon="-0.2972">
        <ele>316.2</ele>
        <time>2022-09-08T09:21:23Z</time>
      </trkpt>
      <trkpt lat="43.12299" lon="-0.29731">
        <ele>317.4</ele>
        <time>2022-09-08T09:21:29Z</time>
      </trkpt>
      <trkpt lat="43.12301" lon="-0.29733">
        <ele>317.6</ele>
        <time>2022-09-08T09:21:30Z</time>
      </trkpt>
      <trkpt lat="43.12308" lon="-0.29744">
        <ele>318.4</ele>
        <time>2022-09-08T09:21:35Z</time>
      </trkpt>
      <trkpt lat="43.12316" lon="-0.29754">
        <ele>319.2</ele>
        <time>2022-09-08T09:21:40Z</time>
      </trkpt>
      <trkpt lat="43.12319" lon="-0.29758">
        <ele>319.6</ele>
        <time>2022-09-08T09:21:42Z</time>
      </trkpt>
      <trkpt lat="43.1233" lon="-0.29774">
        <ele>320.4</ele>
        <time>2022-09-08T09:21:49Z</time>
      </trkpt>
      <trkpt lat="43.12333" lon="-0.29779">
        <ele>320.6</ele>
        <time>2022-09-08T09:21:51Z</time>
      </trkpt>
      <trkpt lat="43.12349" lon="-0.29803">
        <ele>321.4</ele>
        <time>2022-09-08T09:22:01Z</time>
      </trkpt>
      <trkpt lat="43.12356" lon="-0.29815">
        <ele>321.6</ele>
        <time>2022-09-08T09:22:06Z</time>
      </trkpt>
      <trkpt lat="43.1236" lon="-0.29822">
        <ele>321.8</ele>
        <time>2022-09-08T09:22:09Z</time>
      </trkpt>
      <trkpt lat="43.12372" lon="-0.29843">
        <ele>322</ele>
        <time>2022-09-08T09:22:17Z</time>
      </trkpt>
      <trkpt lat="43.12383" lon="-0.29862">
        <ele>322.2</ele>
        <time>2022-09-08T09:22:25Z</time>
      </trkpt>
      <trkpt lat="43.12393" lon="-0.2988">
        <ele>322.2</ele>
        <time>2022-09-08T09:22:32Z</time>
      </trkpt>
      <trkpt lat="43.12405" lon="-0.29902">
        <ele>321.6</ele>
        <time>2022-09-08T09:22:39Z</time>
      </trkpt>
      <trkpt lat="43.1242" lon="-0.2993">
        <ele>320.6</ele>
        <time>2022-09-08T09:22:45Z</time>
      </trkpt>
      <trkpt lat="43.12424" lon="-0.29935">
        <ele>320.2</ele>
        <time>2022-09-08T09:22:46Z</time>
      </trkpt>
      <trkpt lat="43.12435" lon="-0.29953">
        <ele>319.6</ele>
        <time>2022-09-08T09:22:49Z</time>
      </trkpt>
      <trkpt lat="43.12439" lon="-0.29958">
        <ele>319.2</ele>
        <time>2022-09-08T09:22:50Z</time>
      </trkpt>
      <trkpt lat="43.12446" lon="-0.29968">
        <ele>318.6</ele>
        <time>2022-09-08T09:22:52Z</time>
      </trkpt>
      <trkpt lat="43.12452" lon="-0.29976">
        <ele>318.2</ele>
        <time>2022-09-08T09:22:54Z</time>
      </trkpt>
      <trkpt lat="43.12458" lon="-0.29987">
        <ele>317.8</ele>
        <time>2022-09-08T09:22:57Z</time>
      </trkpt>
      <trkpt lat="43.1247" lon="-0.30001">
        <ele>317.6</ele>
        <time>2022-09-08T09:23:03Z</time>
      </trkpt>
      <trkpt lat="43.12477" lon="-0.30006">
        <ele>317.2</ele>
        <time>2022-09-08T09:23:08Z</time>
      </trkpt>
      <trkpt lat="43.12478" lon="-0.3001">
        <ele>317.2</ele>
        <time>2022-09-08T09:23:10Z</time>
      </trkpt>
      <trkpt lat="43.12474" lon="-0.30016">
        <ele>317</ele>
        <time>2022-09-08T09:23:14Z</time>
      </trkpt>
      <trkpt lat="43.12474" lon="-0.3002">
        <ele>317</ele>
        <time>2022-09-08T09:23:16Z</time>
      </trkpt>
      <trkpt lat="43.12478" lon="-0.30025">
        <ele>316.6</ele>
        <time>2022-09-08T09:23:18Z</time>
      </trkpt>
      <trkpt lat="43.12482" lon="-0.30033">
        <ele>316.4</ele>
        <time>2022-09-08T09:23:20Z</time>
      </trkpt>
      <trkpt lat="43.12485" lon="-0.30037">
        <ele>316.2</ele>
        <time>2022-09-08T09:23:21Z</time>
      </trkpt>
      <trkpt lat="43.1249" lon="-0.30047">
        <ele>315.6</ele>
        <time>2022-09-08T09:23:23Z</time>
      </trkpt>
      <trkpt lat="43.12495" lon="-0.30057">
        <ele>314.8</ele>
        <time>2022-09-08T09:23:25Z</time>
      </trkpt>
      <trkpt lat="43.12501" lon="-0.30068">
        <ele>313.8</ele>
        <time>2022-09-08T09:23:27Z</time>
      </trkpt>
      <trkpt lat="43.12507" lon="-0.30079">
        <ele>312.6</ele>
        <time>2022-09-08T09:23:29Z</time>
      </trkpt>
      <trkpt lat="43.1251" lon="-0.30085">
        <ele>311.8</ele>
        <time>2022-09-08T09:23:30Z</time>
      </trkpt>
      <trkpt lat="43.12512" lon="-0.3009">
        <ele>311.2</ele>
        <time>2022-09-08T09:23:31Z</time>
      </trkpt>
      <trkpt lat="43.12517" lon="-0.30101">
        <ele>310</ele>
        <time>2022-09-08T09:23:33Z</time>
      </trkpt>
      <trkpt lat="43.1252" lon="-0.30106">
        <ele>309.4</ele>
        <time>2022-09-08T09:23:34Z</time>
      </trkpt>
      <trkpt lat="43.12522" lon="-0.30112">
        <ele>308.8</ele>
        <time>2022-09-08T09:23:35Z</time>
      </trkpt>
      <trkpt lat="43.12525" lon="-0.30117">
        <ele>308.2</ele>
        <time>2022-09-08T09:23:36Z</time>
      </trkpt>
      <trkpt lat="43.12527" lon="-0.30122">
        <ele>307.6</ele>
        <time>2022-09-08T09:23:37Z</time>
      </trkpt>
      <trkpt lat="43.12533" lon="-0.30132">
        <ele>306.4</ele>
        <time>2022-09-08T09:23:39Z</time>
      </trkpt>
      <trkpt lat="43.12536" lon="-0.30137">
        <ele>305.2</ele>
        <time>2022-09-08T09:23:40Z</time>
      </trkpt>
      <trkpt lat="43.12541" lon="-0.30146">
        <ele>303.6</ele>
        <time>2022-09-08T09:23:42Z</time>
      </trkpt>
      <trkpt lat="43.12545" lon="-0.30151">
        <ele>303</ele>
        <time>2022-09-08T09:23:43Z</time>
      </trkpt>
      <trkpt lat="43.12548" lon="-0.30157">
        <ele>302.4</ele>
        <time>2022-09-08T09:23:44Z</time>
      </trkpt>
      <trkpt lat="43.12554" lon="-0.30166">
        <ele>300.8</ele>
        <time>2022-09-08T09:23:46Z</time>
      </trkpt>
      <trkpt lat="43.1256" lon="-0.30175">
        <ele>299.4</ele>
        <time>2022-09-08T09:23:48Z</time>
      </trkpt>
      <trkpt lat="43.12562" lon="-0.30179">
        <ele>298.6</ele>
        <time>2022-09-08T09:23:49Z</time>
      </trkpt>
      <trkpt lat="43.12565" lon="-0.30182">
        <ele>298</ele>
        <time>2022-09-08T09:23:50Z</time>
      </trkpt>
      <trkpt lat="43.12571" lon="-0.30188">
        <ele>296.8</ele>
        <time>2022-09-08T09:23:53Z</time>
      </trkpt>
      <trkpt lat="43.12577" lon="-0.30193">
        <ele>295.6</ele>
        <time>2022-09-08T09:23:57Z</time>
      </trkpt>
      <trkpt lat="43.1258" lon="-0.30195">
        <ele>295.2</ele>
        <time>2022-09-08T09:23:59Z</time>
      </trkpt>
      <trkpt lat="43.1258" lon="-0.30196">
        <ele>295.2</ele>
        <time>2022-09-08T09:24:00Z</time>
      </trkpt>
      <trkpt lat="43.1258" lon="-0.30202">
        <ele>294.8</ele>
        <time>2022-09-08T09:24:04Z</time>
      </trkpt>
      <trkpt lat="43.1258" lon="-0.30208">
        <ele>294.4</ele>
        <time>2022-09-08T09:24:07Z</time>
      </trkpt>
      <trkpt lat="43.12582" lon="-0.3021">
        <ele>294.2</ele>
        <time>2022-09-08T09:24:08Z</time>
      </trkpt>
      <trkpt lat="43.12584" lon="-0.30212">
        <ele>293.8</ele>
        <time>2022-09-08T09:24:09Z</time>
      </trkpt>
      <trkpt lat="43.12588" lon="-0.30216">
        <ele>293.2</ele>
        <time>2022-09-08T09:24:11Z</time>
      </trkpt>
      <trkpt lat="43.12593" lon="-0.3022">
        <ele>292.2</ele>
        <time>2022-09-08T09:24:14Z</time>
      </trkpt>
      <trkpt lat="43.12595" lon="-0.30221">
        <ele>292</ele>
        <time>2022-09-08T09:24:15Z</time>
      </trkpt>
      <trkpt lat="43.12599" lon="-0.30227">
        <ele>291.2</ele>
        <time>2022-09-08T09:24:21Z</time>
      </trkpt>
      <trkpt lat="43.12607" lon="-0.30248">
        <ele>292</ele>
        <time>2022-09-08T09:25:26Z</time>
      </trkpt>
      <trkpt lat="43.1261" lon="-0.30253">
        <ele>292</ele>
        <time>2022-09-08T09:25:28Z</time>
      </trkpt>
      <trkpt lat="43.12616" lon="-0.30272">
        <ele>292.2</ele>
        <time>2022-09-08T09:25:34Z</time>
      </trkpt>
      <trkpt lat="43.12622" lon="-0.30287">
        <ele>293.2</ele>
        <time>2022-09-08T09:25:39Z</time>
      </trkpt>
      <trkpt lat="43.12625" lon="-0.30296">
        <ele>294</ele>
        <time>2022-09-08T09:25:43Z</time>
      </trkpt>
      <trkpt lat="43.12632" lon="-0.30311">
        <ele>294.4</ele>
        <time>2022-09-08T09:25:49Z</time>
      </trkpt>
      <trkpt lat="43.12634" lon="-0.30317">
        <ele>294.4</ele>
        <time>2022-09-08T09:25:51Z</time>
      </trkpt>
      <trkpt lat="43.12638" lon="-0.30333">
        <ele>294.6</ele>
        <time>2022-09-08T09:25:57Z</time>
      </trkpt>
      <trkpt lat="43.12642" lon="-0.30348">
        <ele>294.8</ele>
        <time>2022-09-08T09:26:03Z</time>
      </trkpt>
      <trkpt lat="43.1265" lon="-0.30361">
        <ele>294.8</ele>
        <time>2022-09-08T09:26:08Z</time>
      </trkpt>
      <trkpt lat="43.12653" lon="-0.30375">
        <ele>295</ele>
        <time>2022-09-08T09:26:14Z</time>
      </trkpt>
      <trkpt lat="43.12659" lon="-0.30375">
        <ele>295.2</ele>
        <time>2022-09-08T09:26:18Z</time>
      </trkpt>
      <trkpt lat="43.12667" lon="-0.30373">
        <ele>295.4</ele>
        <time>2022-09-08T09:26:23Z</time>
      </trkpt>
      <trkpt lat="43.12668" lon="-0.30372">
        <ele>295.4</ele>
        <time>2022-09-08T09:26:24Z</time>
      </trkpt>
      <trkpt lat="43.1267" lon="-0.3037">
        <ele>295.4</ele>
        <time>2022-09-08T09:26:26Z</time>
      </trkpt>
      <trkpt lat="43.12674" lon="-0.30367">
        <ele>295.2</ele>
        <time>2022-09-08T09:26:30Z</time>
      </trkpt>
      <trkpt lat="43.12681" lon="-0.30368">
        <ele>295.4</ele>
        <time>2022-09-08T09:26:35Z</time>
      </trkpt>
      <trkpt lat="43.12682" lon="-0.3038">
        <ele>295.6</ele>
        <time>2022-09-08T09:26:39Z</time>
      </trkpt>
      <trkpt lat="43.12688" lon="-0.30387">
        <ele>296</ele>
        <time>2022-09-08T09:26:43Z</time>
      </trkpt>
      <trkpt lat="43.12702" lon="-0.30398">
        <ele>296.2</ele>
        <time>2022-09-08T09:26:51Z</time>
      </trkpt>
      <trkpt lat="43.12708" lon="-0.30401">
        <ele>296.2</ele>
        <time>2022-09-08T09:30:03Z</time>
      </trkpt>
      <trkpt lat="43.12703" lon="-0.30404">
        <ele>296.4</ele>
        <time>2022-09-08T09:30:06Z</time>
      </trkpt>
      <trkpt lat="43.12701" lon="-0.30403">
        <ele>296.4</ele>
        <time>2022-09-08T09:30:07Z</time>
      </trkpt>
      <trkpt lat="43.12694" lon="-0.30396">
        <ele>296.2</ele>
        <time>2022-09-08T09:30:11Z</time>
      </trkpt>
      <trkpt lat="43.12687" lon="-0.30397">
        <ele>296.2</ele>
        <time>2022-09-08T09:30:14Z</time>
      </trkpt>
      <trkpt lat="43.12682" lon="-0.30397">
        <ele>296.4</ele>
        <time>2022-09-08T09:30:16Z</time>
      </trkpt>
      <trkpt lat="43.12671" lon="-0.30406">
        <ele>295.8</ele>
        <time>2022-09-08T09:30:22Z</time>
      </trkpt>
      <trkpt lat="43.12668" lon="-0.3042">
        <ele>296</ele>
        <time>2022-09-08T09:30:28Z</time>
      </trkpt>
      <trkpt lat="43.12662" lon="-0.30432">
        <ele>296</ele>
        <time>2022-09-08T09:30:35Z</time>
      </trkpt>
      <trkpt lat="43.12666" lon="-0.30429">
        <ele>295.4</ele>
        <time>2022-09-08T09:35:39Z</time>
      </trkpt>
      <trkpt lat="43.12668" lon="-0.30428">
        <ele>295.4</ele>
        <time>2022-09-08T09:35:40Z</time>
      </trkpt>
      <trkpt lat="43.12676" lon="-0.30425">
        <ele>295.6</ele>
        <time>2022-09-08T09:35:44Z</time>
      </trkpt>
      <trkpt lat="43.12683" lon="-0.30421">
        <ele>295.6</ele>
        <time>2022-09-08T09:35:47Z</time>
      </trkpt>
      <trkpt lat="43.12699" lon="-0.30415">
        <ele>295.6</ele>
        <time>2022-09-08T09:35:55Z</time>
      </trkpt>
      <trkpt lat="43.12701" lon="-0.3041">
        <ele>295.6</ele>
        <time>2022-09-08T09:35:58Z</time>
      </trkpt>
      <trkpt lat="43.12698" lon="-0.30408">
        <ele>295.6</ele>
        <time>2022-09-08T09:36:00Z</time>
      </trkpt>
      <trkpt lat="43.12698" lon="-0.30415">
        <ele>295.8</ele>
        <time>2022-09-08T09:36:03Z</time>
      </trkpt>
      <trkpt lat="43.12696" lon="-0.30418">
        <ele>296</ele>
        <time>2022-09-08T09:36:05Z</time>
      </trkpt>
      <trkpt lat="43.12691" lon="-0.30422">
        <ele>296</ele>
        <time>2022-09-08T09:36:08Z</time>
      </trkpt>
      <trkpt lat="43.12673" lon="-0.30432">
        <ele>295.6</ele>
        <time>2022-09-08T09:36:17Z</time>
      </trkpt>
      <trkpt lat="43.12664" lon="-0.30438">
        <ele>295.4</ele>
        <time>2022-09-08T09:36:22Z</time>
      </trkpt>
      <trkpt lat="43.12663" lon="-0.30439">
        <ele>295.4</ele>
        <time>2022-09-08T09:36:23Z</time>
      </trkpt>
      <trkpt lat="43.12662" lon="-0.30445">
        <ele>295.4</ele>
        <time>2022-09-08T09:36:26Z</time>
      </trkpt>
      <trkpt lat="43.12662" lon="-0.30452">
        <ele>295.4</ele>
        <time>2022-09-08T09:36:28Z</time>
      </trkpt>
      <trkpt lat="43.12663" lon="-0.30486">
        <ele>295.8</ele>
        <time>2022-09-08T09:36:37Z</time>
      </trkpt>
      <trkpt lat="43.12664" lon="-0.30505">
        <ele>296.4</ele>
        <time>2022-09-08T09:36:42Z</time>
      </trkpt>
      <trkpt lat="43.12664" lon="-0.30528">
        <ele>296.8</ele>
        <time>2022-09-08T09:36:48Z</time>
      </trkpt>
      <trkpt lat="43.12665" lon="-0.30547">
        <ele>297.4</ele>
        <time>2022-09-08T09:36:53Z</time>
      </trkpt>
      <trkpt lat="43.12665" lon="-0.30561">
        <ele>297.8</ele>
        <time>2022-09-08T09:36:57Z</time>
      </trkpt>
      <trkpt lat="43.12668" lon="-0.30581">
        <ele>298.4</ele>
        <time>2022-09-08T09:37:03Z</time>
      </trkpt>
      <trkpt lat="43.12669" lon="-0.30584">
        <ele>298.6</ele>
        <time>2022-09-08T09:37:04Z</time>
      </trkpt>
      <trkpt lat="43.12669" lon="-0.30611">
        <ele>299.4</ele>
        <time>2022-09-08T09:37:12Z</time>
      </trkpt>
      <trkpt lat="43.1267" lon="-0.30618">
        <ele>299.6</ele>
        <time>2022-09-08T09:37:14Z</time>
      </trkpt>
      <trkpt lat="43.12674" lon="-0.30641">
        <ele>300</ele>
        <time>2022-09-08T09:37:21Z</time>
      </trkpt>
      <trkpt lat="43.12675" lon="-0.30663">
        <ele>300.6</ele>
        <time>2022-09-08T09:37:27Z</time>
      </trkpt>
      <trkpt lat="43.12677" lon="-0.3068">
        <ele>301</ele>
        <time>2022-09-08T09:37:32Z</time>
      </trkpt>
      <trkpt lat="43.12679" lon="-0.307">
        <ele>301.6</ele>
        <time>2022-09-08T09:37:38Z</time>
      </trkpt>
      <trkpt lat="43.12681" lon="-0.30713">
        <ele>302.4</ele>
        <time>2022-09-08T09:37:42Z</time>
      </trkpt>
      <trkpt lat="43.12682" lon="-0.30726">
        <ele>302.8</ele>
        <time>2022-09-08T09:37:46Z</time>
      </trkpt>
      <trkpt lat="43.12683" lon="-0.30739">
        <ele>303.4</ele>
        <time>2022-09-08T09:37:50Z</time>
      </trkpt>
      <trkpt lat="43.12685" lon="-0.30755">
        <ele>303.8</ele>
        <time>2022-09-08T09:37:55Z</time>
      </trkpt>
      <trkpt lat="43.12686" lon="-0.30764">
        <ele>304.4</ele>
        <time>2022-09-08T09:37:58Z</time>
      </trkpt>
      <trkpt lat="43.12688" lon="-0.30779">
        <ele>305</ele>
        <time>2022-09-08T09:38:03Z</time>
      </trkpt>
      <trkpt lat="43.12691" lon="-0.30793">
        <ele>305.8</ele>
        <time>2022-09-08T09:38:08Z</time>
      </trkpt>
      <trkpt lat="43.12691" lon="-0.30795">
        <ele>305.8</ele>
        <time>2022-09-08T09:38:09Z</time>
      </trkpt>
      <trkpt lat="43.12695" lon="-0.30799">
        <ele>306</ele>
        <time>2022-09-08T09:38:12Z</time>
      </trkpt>
      <trkpt lat="43.12696" lon="-0.30813">
        <ele>306.6</ele>
        <time>2022-09-08T09:38:17Z</time>
      </trkpt>
      <trkpt lat="43.12695" lon="-0.30821">
        <ele>307</ele>
        <time>2022-09-08T09:38:20Z</time>
      </trkpt>
      <trkpt lat="43.12695" lon="-0.30833">
        <ele>307.8</ele>
        <time>2022-09-08T09:38:25Z</time>
      </trkpt>
      <trkpt lat="43.12694" lon="-0.30836">
        <ele>308</ele>
        <time>2022-09-08T09:38:26Z</time>
      </trkpt>
      <trkpt lat="43.12693" lon="-0.30848">
        <ele>309</ele>
        <time>2022-09-08T09:38:31Z</time>
      </trkpt>
      <trkpt lat="43.12692" lon="-0.30854">
        <ele>309.4</ele>
        <time>2022-09-08T09:38:33Z</time>
      </trkpt>
      <trkpt lat="43.12689" lon="-0.30864">
        <ele>310.2</ele>
        <time>2022-09-08T09:38:37Z</time>
      </trkpt>
      <trkpt lat="43.12684" lon="-0.30879">
        <ele>311.4</ele>
        <time>2022-09-08T09:38:43Z</time>
      </trkpt>
      <trkpt lat="43.12682" lon="-0.30893">
        <ele>312.4</ele>
        <time>2022-09-08T09:38:49Z</time>
      </trkpt>
      <trkpt lat="43.12681" lon="-0.30901">
        <ele>313</ele>
        <time>2022-09-08T09:38:52Z</time>
      </trkpt>
      <trkpt lat="43.12681" lon="-0.30906">
        <ele>313.4</ele>
        <time>2022-09-08T09:38:54Z</time>
      </trkpt>
      <trkpt lat="43.1268" lon="-0.30915">
        <ele>314.4</ele>
        <time>2022-09-08T09:38:58Z</time>
      </trkpt>
      <trkpt lat="43.1268" lon="-0.30918">
        <ele>314.6</ele>
        <time>2022-09-08T09:38:59Z</time>
      </trkpt>
      <trkpt lat="43.1268" lon="-0.30933">
        <ele>315.6</ele>
        <time>2022-09-08T09:39:05Z</time>
      </trkpt>
      <trkpt lat="43.12682" lon="-0.30948">
        <ele>316.6</ele>
        <time>2022-09-08T09:39:11Z</time>
      </trkpt>
      <trkpt lat="43.12682" lon="-0.30951">
        <ele>316.8</ele>
        <time>2022-09-08T09:39:12Z</time>
      </trkpt>
      <trkpt lat="43.12688" lon="-0.30972">
        <ele>317.6</ele>
        <time>2022-09-08T09:39:20Z</time>
      </trkpt>
      <trkpt lat="43.12689" lon="-0.30975">
        <ele>317.8</ele>
        <time>2022-09-08T09:39:21Z</time>
      </trkpt>
      <trkpt lat="43.12692" lon="-0.30989">
        <ele>318.2</ele>
        <time>2022-09-08T09:39:26Z</time>
      </trkpt>
      <trkpt lat="43.12696" lon="-0.31013">
        <ele>318.4</ele>
        <time>2022-09-08T09:39:35Z</time>
      </trkpt>
      <trkpt lat="43.12703" lon="-0.31037">
        <ele>318.4</ele>
        <time>2022-09-08T09:39:43Z</time>
      </trkpt>
      <trkpt lat="43.1271" lon="-0.31069">
        <ele>318.6</ele>
        <time>2022-09-08T09:39:52Z</time>
      </trkpt>
      <trkpt lat="43.12717" lon="-0.31095">
        <ele>318.4</ele>
        <time>2022-09-08T09:39:58Z</time>
      </trkpt>
      <trkpt lat="43.12726" lon="-0.31135">
        <ele>318</ele>
        <time>2022-09-08T09:40:07Z</time>
      </trkpt>
      <trkpt lat="43.12735" lon="-0.31171">
        <ele>317.6</ele>
        <time>2022-09-08T09:40:13Z</time>
      </trkpt>
      <trkpt lat="43.12746" lon="-0.31237">
        <ele>317</ele>
        <time>2022-09-08T09:40:23Z</time>
      </trkpt>
      <trkpt lat="43.12748" lon="-0.31249">
        <ele>316.8</ele>
        <time>2022-09-08T09:40:25Z</time>
      </trkpt>
      <trkpt lat="43.12753" lon="-0.31257">
        <ele>316.8</ele>
        <time>2022-09-08T09:40:27Z</time>
      </trkpt>
      <trkpt lat="43.12754" lon="-0.31259">
        <ele>316.6</ele>
        <time>2022-09-08T09:40:28Z</time>
      </trkpt>
      <trkpt lat="43.12753" lon="-0.31265">
        <ele>316.4</ele>
        <time>2022-09-08T09:40:31Z</time>
      </trkpt>
      <trkpt lat="43.12749" lon="-0.31259">
        <ele>316.2</ele>
        <time>2022-09-08T09:40:34Z</time>
      </trkpt>
      <trkpt lat="43.12748" lon="-0.31256">
        <ele>316.2</ele>
        <time>2022-09-08T09:40:35Z</time>
      </trkpt>
      <trkpt lat="43.12745" lon="-0.31228">
        <ele>316.6</ele>
        <time>2022-09-08T09:40:43Z</time>
      </trkpt>
      <trkpt lat="43.12742" lon="-0.31206">
        <ele>316.6</ele>
        <time>2022-09-08T09:40:51Z</time>
      </trkpt>
      <trkpt lat="43.12739" lon="-0.31202">
        <ele>316.8</ele>
        <time>2022-09-08T09:41:09Z</time>
      </trkpt>
      <trkpt lat="43.1274" lon="-0.31208">
        <ele>316.8</ele>
        <time>2022-09-08T09:41:12Z</time>
      </trkpt>
      <trkpt lat="43.12745" lon="-0.31232">
        <ele>316.8</ele>
        <time>2022-09-08T09:41:20Z</time>
      </trkpt>
      <trkpt lat="43.1275" lon="-0.31261">
        <ele>316.4</ele>
        <time>2022-09-08T09:41:29Z</time>
      </trkpt>
      <trkpt lat="43.12751" lon="-0.31292">
        <ele>315.8</ele>
        <time>2022-09-08T09:41:36Z</time>
      </trkpt>
      <trkpt lat="43.12751" lon="-0.31298">
        <ele>315.6</ele>
        <time>2022-09-08T09:41:37Z</time>
      </trkpt>
      <trkpt lat="43.1275" lon="-0.31304">
        <ele>315.6</ele>
        <time>2022-09-08T09:41:38Z</time>
      </trkpt>
      <trkpt lat="43.12745" lon="-0.31325">
        <ele>315</ele>
        <time>2022-09-08T09:41:41Z</time>
      </trkpt>
      <trkpt lat="43.12742" lon="-0.31332">
        <ele>314.4</ele>
        <time>2022-09-08T09:41:42Z</time>
      </trkpt>
      <trkpt lat="43.12738" lon="-0.31339">
        <ele>314.2</ele>
        <time>2022-09-08T09:41:43Z</time>
      </trkpt>
      <trkpt lat="43.12729" lon="-0.31353">
        <ele>313.2</ele>
        <time>2022-09-08T09:41:45Z</time>
      </trkpt>
      <trkpt lat="43.12718" lon="-0.31367">
        <ele>312.2</ele>
        <time>2022-09-08T09:41:47Z</time>
      </trkpt>
      <trkpt lat="43.12699" lon="-0.31386">
        <ele>311</ele>
        <time>2022-09-08T09:41:50Z</time>
      </trkpt>
      <trkpt lat="43.12692" lon="-0.31393">
        <ele>310.8</ele>
        <time>2022-09-08T09:41:51Z</time>
      </trkpt>
      <trkpt lat="43.12672" lon="-0.31412">
        <ele>309.8</ele>
        <time>2022-09-08T09:41:54Z</time>
      </trkpt>
      <trkpt lat="43.1265" lon="-0.31433">
        <ele>308.6</ele>
        <time>2022-09-08T09:41:57Z</time>
      </trkpt>
      <trkpt lat="43.12643" lon="-0.31441">
        <ele>308</ele>
        <time>2022-09-08T09:41:58Z</time>
      </trkpt>
      <trkpt lat="43.12635" lon="-0.31448">
        <ele>307.6</ele>
        <time>2022-09-08T09:41:59Z</time>
      </trkpt>
      <trkpt lat="43.12614" lon="-0.31473">
        <ele>306.2</ele>
        <time>2022-09-08T09:42:02Z</time>
      </trkpt>
      <trkpt lat="43.12601" lon="-0.31492">
        <ele>305</ele>
        <time>2022-09-08T09:42:04Z</time>
      </trkpt>
      <trkpt lat="43.12592" lon="-0.31515">
        <ele>303.4</ele>
        <time>2022-09-08T09:42:06Z</time>
      </trkpt>
      <trkpt lat="43.12586" lon="-0.3154">
        <ele>302.8</ele>
        <time>2022-09-08T09:42:08Z</time>
      </trkpt>
      <trkpt lat="43.12584" lon="-0.31566">
        <ele>302.2</ele>
        <time>2022-09-08T09:42:10Z</time>
      </trkpt>
      <trkpt lat="43.12587" lon="-0.31592">
        <ele>301.6</ele>
        <time>2022-09-08T09:42:12Z</time>
      </trkpt>
      <trkpt lat="43.12589" lon="-0.31604">
        <ele>301.2</ele>
        <time>2022-09-08T09:42:13Z</time>
      </trkpt>
      <trkpt lat="43.12591" lon="-0.31616">
        <ele>301</ele>
        <time>2022-09-08T09:42:14Z</time>
      </trkpt>
      <trkpt lat="43.12601" lon="-0.31661">
        <ele>300.6</ele>
        <time>2022-09-08T09:42:18Z</time>
      </trkpt>
      <trkpt lat="43.12604" lon="-0.317">
        <ele>301</ele>
        <time>2022-09-08T09:42:22Z</time>
      </trkpt>
      <trkpt lat="43.12598" lon="-0.31751">
        <ele>301.4</ele>
        <time>2022-09-08T09:42:28Z</time>
      </trkpt>
      <trkpt lat="43.12583" lon="-0.31808">
        <ele>301.6</ele>
        <time>2022-09-08T09:42:36Z</time>
      </trkpt>
      <trkpt lat="43.12574" lon="-0.31839">
        <ele>301.8</ele>
        <time>2022-09-08T09:42:41Z</time>
      </trkpt>
      <trkpt lat="43.12568" lon="-0.31849">
        <ele>301.8</ele>
        <time>2022-09-08T09:42:43Z</time>
      </trkpt>
      <trkpt lat="43.12557" lon="-0.3187">
        <ele>302</ele>
        <time>2022-09-08T09:42:47Z</time>
      </trkpt>
      <trkpt lat="43.12551" lon="-0.31888">
        <ele>302.2</ele>
        <time>2022-09-08T09:42:50Z</time>
      </trkpt>
      <trkpt lat="43.1255" lon="-0.31894">
        <ele>302</ele>
        <time>2022-09-08T09:42:51Z</time>
      </trkpt>
      <trkpt lat="43.12548" lon="-0.31921">
        <ele>303.2</ele>
        <time>2022-09-08T09:42:56Z</time>
      </trkpt>
      <trkpt lat="43.12548" lon="-0.31925">
        <ele>303.4</ele>
        <time>2022-09-08T09:42:57Z</time>
      </trkpt>
      <trkpt lat="43.12547" lon="-0.3194">
        <ele>304.2</ele>
        <time>2022-09-08T09:43:01Z</time>
      </trkpt>
      <trkpt lat="43.12546" lon="-0.31949">
        <ele>304.8</ele>
        <time>2022-09-08T09:43:04Z</time>
      </trkpt>
      <trkpt lat="43.12546" lon="-0.31959">
        <ele>305.4</ele>
        <time>2022-09-08T09:43:07Z</time>
      </trkpt>
      <trkpt lat="43.12544" lon="-0.31975">
        <ele>306.4</ele>
        <time>2022-09-08T09:43:12Z</time>
      </trkpt>
      <trkpt lat="43.12544" lon="-0.31978">
        <ele>306.6</ele>
        <time>2022-09-08T09:43:13Z</time>
      </trkpt>
      <trkpt lat="43.12542" lon="-0.31985">
        <ele>307</ele>
        <time>2022-09-08T09:43:16Z</time>
      </trkpt>
      <trkpt lat="43.12542" lon="-0.31991">
        <ele>307.6</ele>
        <time>2022-09-08T09:43:18Z</time>
      </trkpt>
      <trkpt lat="43.12542" lon="-0.32015">
        <ele>308.6</ele>
        <time>2022-09-08T09:43:26Z</time>
      </trkpt>
      <trkpt lat="43.12542" lon="-0.32018">
        <ele>308.8</ele>
        <time>2022-09-08T09:43:27Z</time>
      </trkpt>
      <trkpt lat="43.12543" lon="-0.32038">
        <ele>309.6</ele>
        <time>2022-09-08T09:43:34Z</time>
      </trkpt>
      <trkpt lat="43.12543" lon="-0.32042">
        <ele>309.6</ele>
        <time>2022-09-08T09:43:35Z</time>
      </trkpt>
      <trkpt lat="43.12544" lon="-0.32067">
        <ele>310.6</ele>
        <time>2022-09-08T09:43:43Z</time>
      </trkpt>
      <trkpt lat="43.12544" lon="-0.3207">
        <ele>310.8</ele>
        <time>2022-09-08T09:43:44Z</time>
      </trkpt>
      <trkpt lat="43.12546" lon="-0.32092">
        <ele>311.4</ele>
        <time>2022-09-08T09:43:51Z</time>
      </trkpt>
      <trkpt lat="43.12547" lon="-0.32102">
        <ele>311.8</ele>
        <time>2022-09-08T09:43:55Z</time>
      </trkpt>
      <trkpt lat="43.12547" lon="-0.32105">
        <ele>311.8</ele>
        <time>2022-09-08T09:43:56Z</time>
      </trkpt>
      <trkpt lat="43.12549" lon="-0.32133">
        <ele>312.8</ele>
        <time>2022-09-08T09:44:05Z</time>
      </trkpt>
      <trkpt lat="43.12549" lon="-0.3214">
        <ele>312.8</ele>
        <time>2022-09-08T09:44:07Z</time>
      </trkpt>
      <trkpt lat="43.12552" lon="-0.32158">
        <ele>313.6</ele>
        <time>2022-09-08T09:44:13Z</time>
      </trkpt>
      <trkpt lat="43.12553" lon="-0.32171">
        <ele>313.8</ele>
        <time>2022-09-08T09:44:17Z</time>
      </trkpt>
      <trkpt lat="43.12554" lon="-0.3218">
        <ele>314.2</ele>
        <time>2022-09-08T09:44:20Z</time>
      </trkpt>
      <trkpt lat="43.12556" lon="-0.32202">
        <ele>315</ele>
        <time>2022-09-08T09:44:27Z</time>
      </trkpt>
      <trkpt lat="43.12557" lon="-0.32208">
        <ele>315</ele>
        <time>2022-09-08T09:44:29Z</time>
      </trkpt>
      <trkpt lat="43.12562" lon="-0.32236">
        <ele>316</ele>
        <time>2022-09-08T09:44:38Z</time>
      </trkpt>
      <trkpt lat="43.12563" lon="-0.32242">
        <ele>316.2</ele>
        <time>2022-09-08T09:44:40Z</time>
      </trkpt>
      <trkpt lat="43.12563" lon="-0.32249">
        <ele>316.8</ele>
        <time>2022-09-08T09:44:43Z</time>
      </trkpt>
      <trkpt lat="43.12564" lon="-0.32253">
        <ele>317</ele>
        <time>2022-09-08T09:44:45Z</time>
      </trkpt>
      <trkpt lat="43.12566" lon="-0.32259">
        <ele>317.4</ele>
        <time>2022-09-08T09:44:56Z</time>
      </trkpt>
      <trkpt lat="43.12567" lon="-0.32267">
        <ele>318</ele>
        <time>2022-09-08T09:44:59Z</time>
      </trkpt>
      <trkpt lat="43.12568" lon="-0.3228">
        <ele>318.8</ele>
        <time>2022-09-08T09:45:04Z</time>
      </trkpt>
      <trkpt lat="43.12569" lon="-0.32282">
        <ele>319.2</ele>
        <time>2022-09-08T09:45:05Z</time>
      </trkpt>
      <trkpt lat="43.12572" lon="-0.323">
        <ele>320.2</ele>
        <time>2022-09-08T09:45:12Z</time>
      </trkpt>
      <trkpt lat="43.12572" lon="-0.32302">
        <ele>320.2</ele>
        <time>2022-09-08T09:45:13Z</time>
      </trkpt>
      <trkpt lat="43.12573" lon="-0.32312">
        <ele>321.2</ele>
        <time>2022-09-08T09:45:17Z</time>
      </trkpt>
      <trkpt lat="43.12574" lon="-0.32324">
        <ele>322.2</ele>
        <time>2022-09-08T09:45:22Z</time>
      </trkpt>
      <trkpt lat="43.12574" lon="-0.32326">
        <ele>322.4</ele>
        <time>2022-09-08T09:45:23Z</time>
      </trkpt>
      <trkpt lat="43.12576" lon="-0.32344">
        <ele>323.4</ele>
        <time>2022-09-08T09:45:30Z</time>
      </trkpt>
      <trkpt lat="43.12575" lon="-0.32347">
        <ele>323.6</ele>
        <time>2022-09-08T09:45:31Z</time>
      </trkpt>
      <trkpt lat="43.12575" lon="-0.3236">
        <ele>324.6</ele>
        <time>2022-09-08T09:45:37Z</time>
      </trkpt>
      <trkpt lat="43.12575" lon="-0.32363">
        <ele>324.6</ele>
        <time>2022-09-08T09:45:38Z</time>
      </trkpt>
      <trkpt lat="43.12575" lon="-0.32374">
        <ele>325.4</ele>
        <time>2022-09-08T09:45:43Z</time>
      </trkpt>
      <trkpt lat="43.12575" lon="-0.32376">
        <ele>325.6</ele>
        <time>2022-09-08T09:45:44Z</time>
      </trkpt>
      <trkpt lat="43.12575" lon="-0.32378">
        <ele>325.8</ele>
        <time>2022-09-08T09:45:45Z</time>
      </trkpt>
      <trkpt lat="43.12574" lon="-0.3239">
        <ele>326.6</ele>
        <time>2022-09-08T09:45:50Z</time>
      </trkpt>
      <trkpt lat="43.12573" lon="-0.32396">
        <ele>327.2</ele>
        <time>2022-09-08T09:45:53Z</time>
      </trkpt>
      <trkpt lat="43.12573" lon="-0.32398">
        <ele>327.4</ele>
        <time>2022-09-08T09:45:54Z</time>
      </trkpt>
      <trkpt lat="43.12572" lon="-0.32406">
        <ele>327.8</ele>
        <time>2022-09-08T09:45:58Z</time>
      </trkpt>
      <trkpt lat="43.1257" lon="-0.32411">
        <ele>328.4</ele>
        <time>2022-09-08T09:46:00Z</time>
      </trkpt>
      <trkpt lat="43.12571" lon="-0.32417">
        <ele>328.6</ele>
        <time>2022-09-08T09:46:03Z</time>
      </trkpt>
      <trkpt lat="43.1257" lon="-0.32421">
        <ele>329</ele>
        <time>2022-09-08T09:46:05Z</time>
      </trkpt>
      <trkpt lat="43.12569" lon="-0.32428">
        <ele>329.4</ele>
        <time>2022-09-08T09:46:08Z</time>
      </trkpt>
      <trkpt lat="43.12568" lon="-0.32435">
        <ele>329.8</ele>
        <time>2022-09-08T09:46:11Z</time>
      </trkpt>
      <trkpt lat="43.12568" lon="-0.32438">
        <ele>330</ele>
        <time>2022-09-08T09:46:12Z</time>
      </trkpt>
      <trkpt lat="43.12565" lon="-0.32449">
        <ele>330.8</ele>
        <time>2022-09-08T09:46:17Z</time>
      </trkpt>
      <trkpt lat="43.12564" lon="-0.32456">
        <ele>331</ele>
        <time>2022-09-08T09:46:20Z</time>
      </trkpt>
      <trkpt lat="43.12563" lon="-0.32463">
        <ele>331.4</ele>
        <time>2022-09-08T09:46:23Z</time>
      </trkpt>
      <trkpt lat="43.1256" lon="-0.3248">
        <ele>332</ele>
        <time>2022-09-08T09:46:30Z</time>
      </trkpt>
      <trkpt lat="43.1256" lon="-0.32482">
        <ele>332.2</ele>
        <time>2022-09-08T09:46:31Z</time>
      </trkpt>
      <trkpt lat="43.12559" lon="-0.32495">
        <ele>332.8</ele>
        <time>2022-09-08T09:46:38Z</time>
      </trkpt>
      <trkpt lat="43.12558" lon="-0.32501">
        <ele>333</ele>
        <time>2022-09-08T09:49:03Z</time>
      </trkpt>
      <trkpt lat="43.12557" lon="-0.32506">
        <ele>333</ele>
        <time>2022-09-08T09:49:05Z</time>
      </trkpt>
      <trkpt lat="43.12553" lon="-0.32529">
        <ele>332.6</ele>
        <time>2022-09-08T09:49:11Z</time>
      </trkpt>
      <trkpt lat="43.1255" lon="-0.32564">
        <ele>332</ele>
        <time>2022-09-08T09:49:17Z</time>
      </trkpt>
      <trkpt lat="43.12549" lon="-0.32576">
        <ele>331.8</ele>
        <time>2022-09-08T09:49:19Z</time>
      </trkpt>
      <trkpt lat="43.1255" lon="-0.32611">
        <ele>331.2</ele>
        <time>2022-09-08T09:49:24Z</time>
      </trkpt>
      <trkpt lat="43.12554" lon="-0.3264">
        <ele>330.8</ele>
        <time>2022-09-08T09:49:28Z</time>
      </trkpt>
      <trkpt lat="43.12558" lon="-0.32663">
        <ele>330.6</ele>
        <time>2022-09-08T09:49:31Z</time>
      </trkpt>
      <trkpt lat="43.12569" lon="-0.32711">
        <ele>329.8</ele>
        <time>2022-09-08T09:49:37Z</time>
      </trkpt>
      <trkpt lat="43.12574" lon="-0.32737">
        <ele>329.4</ele>
        <time>2022-09-08T09:49:40Z</time>
      </trkpt>
      <trkpt lat="43.1258" lon="-0.32764">
        <ele>328.6</ele>
        <time>2022-09-08T09:49:43Z</time>
      </trkpt>
      <trkpt lat="43.12595" lon="-0.32826">
        <ele>328</ele>
        <time>2022-09-08T09:49:50Z</time>
      </trkpt>
      <trkpt lat="43.12599" lon="-0.32843">
        <ele>327.6</ele>
        <time>2022-09-08T09:49:52Z</time>
      </trkpt>
      <trkpt lat="43.12615" lon="-0.32898">
        <ele>326.8</ele>
        <time>2022-09-08T09:49:59Z</time>
      </trkpt>
      <trkpt lat="43.12623" lon="-0.32919">
        <ele>326.4</ele>
        <time>2022-09-08T09:50:02Z</time>
      </trkpt>
      <trkpt lat="43.12634" lon="-0.32943">
        <ele>326.6</ele>
        <time>2022-09-08T09:50:06Z</time>
      </trkpt>
      <trkpt lat="43.1266" lon="-0.32977">
        <ele>326.8</ele>
        <time>2022-09-08T09:50:13Z</time>
      </trkpt>
      <trkpt lat="43.12667" lon="-0.32988">
        <ele>326.8</ele>
        <time>2022-09-08T09:50:15Z</time>
      </trkpt>
      <trkpt lat="43.12673" lon="-0.32998">
        <ele>326.8</ele>
        <time>2022-09-08T09:50:17Z</time>
      </trkpt>
      <trkpt lat="43.1268" lon="-0.33006">
        <ele>326.6</ele>
        <time>2022-09-08T09:50:19Z</time>
      </trkpt>
      <trkpt lat="43.12704" lon="-0.33039">
        <ele>326.2</ele>
        <time>2022-09-08T09:50:26Z</time>
      </trkpt>
      <trkpt lat="43.12732" lon="-0.33079">
        <ele>326.2</ele>
        <time>2022-09-08T09:50:34Z</time>
      </trkpt>
      <trkpt lat="43.12746" lon="-0.33098">
        <ele>326</ele>
        <time>2022-09-08T09:50:38Z</time>
      </trkpt>
      <trkpt lat="43.12757" lon="-0.33113">
        <ele>326</ele>
        <time>2022-09-08T09:50:41Z</time>
      </trkpt>
      <trkpt lat="43.1277" lon="-0.33134">
        <ele>326.8</ele>
        <time>2022-09-08T09:50:46Z</time>
      </trkpt>
      <trkpt lat="43.12777" lon="-0.33159">
        <ele>327.4</ele>
        <time>2022-09-08T09:50:51Z</time>
      </trkpt>
      <trkpt lat="43.12777" lon="-0.33165">
        <ele>327.4</ele>
        <time>2022-09-08T09:50:52Z</time>
      </trkpt>
      <trkpt lat="43.12775" lon="-0.33183">
        <ele>327.4</ele>
        <time>2022-09-08T09:50:55Z</time>
      </trkpt>
      <trkpt lat="43.12772" lon="-0.33199">
        <ele>328</ele>
        <time>2022-09-08T09:50:58Z</time>
      </trkpt>
      <trkpt lat="43.12769" lon="-0.33212">
        <ele>328.6</ele>
        <time>2022-09-08T09:51:01Z</time>
      </trkpt>
      <trkpt lat="43.12767" lon="-0.33221">
        <ele>329.2</ele>
        <time>2022-09-08T09:51:03Z</time>
      </trkpt>
      <trkpt lat="43.12765" lon="-0.33233">
        <ele>329.8</ele>
        <time>2022-09-08T09:51:06Z</time>
      </trkpt>
      <trkpt lat="43.12762" lon="-0.33244">
        <ele>330</ele>
        <time>2022-09-08T09:51:09Z</time>
      </trkpt>
      <trkpt lat="43.12756" lon="-0.33272">
        <ele>330.4</ele>
        <time>2022-09-08T09:51:16Z</time>
      </trkpt>
      <trkpt lat="43.12752" lon="-0.33292">
        <ele>330.8</ele>
        <time>2022-09-08T09:51:21Z</time>
      </trkpt>
      <trkpt lat="43.12749" lon="-0.33308">
        <ele>331.2</ele>
        <time>2022-09-08T09:51:25Z</time>
      </trkpt>
      <trkpt lat="43.12742" lon="-0.33345">
        <ele>331.2</ele>
        <time>2022-09-08T09:51:34Z</time>
      </trkpt>
      <trkpt lat="43.12733" lon="-0.33383">
        <ele>331</ele>
        <time>2022-09-08T09:51:42Z</time>
      </trkpt>
      <trkpt lat="43.12723" lon="-0.33431">
        <ele>331.2</ele>
        <time>2022-09-08T09:51:51Z</time>
      </trkpt>
      <trkpt lat="43.1272" lon="-0.33473">
        <ele>330.6</ele>
        <time>2022-09-08T09:51:58Z</time>
      </trkpt>
      <trkpt lat="43.12723" lon="-0.33514">
        <ele>329.8</ele>
        <time>2022-09-08T09:52:04Z</time>
      </trkpt>
      <trkpt lat="43.12724" lon="-0.33522">
        <ele>329.8</ele>
        <time>2022-09-08T09:52:05Z</time>
      </trkpt>
      <trkpt lat="43.12735" lon="-0.33582">
        <ele>328.8</ele>
        <time>2022-09-08T09:52:13Z</time>
      </trkpt>
      <trkpt lat="43.12736" lon="-0.33589">
        <ele>328.8</ele>
        <time>2022-09-08T09:52:14Z</time>
      </trkpt>
      <trkpt lat="43.12743" lon="-0.33633">
        <ele>329</ele>
        <time>2022-09-08T09:52:21Z</time>
      </trkpt>
      <trkpt lat="43.12755" lon="-0.33679">
        <ele>329.4</ele>
        <time>2022-09-08T09:52:29Z</time>
      </trkpt>
      <trkpt lat="43.12762" lon="-0.33716">
        <ele>328.2</ele>
        <time>2022-09-08T09:52:35Z</time>
      </trkpt>
      <trkpt lat="43.12766" lon="-0.33738">
        <ele>327.8</ele>
        <time>2022-09-08T09:52:38Z</time>
      </trkpt>
      <trkpt lat="43.1277" lon="-0.33765">
        <ele>326.8</ele>
        <time>2022-09-08T09:52:41Z</time>
      </trkpt>
      <trkpt lat="43.12771" lon="-0.33775">
        <ele>326.2</ele>
        <time>2022-09-08T09:52:42Z</time>
      </trkpt>
      <trkpt lat="43.12772" lon="-0.33786">
        <ele>325.8</ele>
        <time>2022-09-08T09:52:43Z</time>
      </trkpt>
      <trkpt lat="43.1277" lon="-0.33808">
        <ele>325</ele>
        <time>2022-09-08T09:52:45Z</time>
      </trkpt>
      <trkpt lat="43.12765" lon="-0.3384">
        <ele>324</ele>
        <time>2022-09-08T09:52:48Z</time>
      </trkpt>
      <trkpt lat="43.12762" lon="-0.33871">
        <ele>323.8</ele>
        <time>2022-09-08T09:52:51Z</time>
      </trkpt>
      <trkpt lat="43.12761" lon="-0.33909">
        <ele>324.2</ele>
        <time>2022-09-08T09:52:56Z</time>
      </trkpt>
      <trkpt lat="43.12768" lon="-0.33958">
        <ele>324.8</ele>
        <time>2022-09-08T09:53:03Z</time>
      </trkpt>
      <trkpt lat="43.1277" lon="-0.33964">
        <ele>325</ele>
        <time>2022-09-08T09:53:04Z</time>
      </trkpt>
      <trkpt lat="43.12777" lon="-0.33985">
        <ele>325.2</ele>
        <time>2022-09-08T09:53:08Z</time>
      </trkpt>
      <trkpt lat="43.12783" lon="-0.33999">
        <ele>326.2</ele>
        <time>2022-09-08T09:53:11Z</time>
      </trkpt>
      <trkpt lat="43.1279" lon="-0.34014">
        <ele>327</ele>
        <time>2022-09-08T09:53:15Z</time>
      </trkpt>
      <trkpt lat="43.12792" lon="-0.34018">
        <ele>327.2</ele>
        <time>2022-09-08T09:53:16Z</time>
      </trkpt>
      <trkpt lat="43.12799" lon="-0.34041">
        <ele>328.2</ele>
        <time>2022-09-08T09:53:22Z</time>
      </trkpt>
      <trkpt lat="43.128" lon="-0.34045">
        <ele>328.2</ele>
        <time>2022-09-08T09:53:23Z</time>
      </trkpt>
      <trkpt lat="43.12808" lon="-0.34073">
        <ele>328.4</ele>
        <time>2022-09-08T09:53:29Z</time>
      </trkpt>
      <trkpt lat="43.12815" lon="-0.34112">
        <ele>328.4</ele>
        <time>2022-09-08T09:53:37Z</time>
      </trkpt>
      <trkpt lat="43.1282" lon="-0.34165">
        <ele>327.6</ele>
        <time>2022-09-08T09:53:46Z</time>
      </trkpt>
      <trkpt lat="43.12822" lon="-0.34185">
        <ele>327.2</ele>
        <time>2022-09-08T09:53:49Z</time>
      </trkpt>
      <trkpt lat="43.12829" lon="-0.34231">
        <ele>326.8</ele>
        <time>2022-09-08T09:53:56Z</time>
      </trkpt>
      <trkpt lat="43.12836" lon="-0.34263">
        <ele>326.2</ele>
        <time>2022-09-08T09:54:01Z</time>
      </trkpt>
      <trkpt lat="43.1284" lon="-0.34282">
        <ele>326</ele>
        <time>2022-09-08T09:54:04Z</time>
      </trkpt>
      <trkpt lat="43.12849" lon="-0.34315">
        <ele>325</ele>
        <time>2022-09-08T09:54:09Z</time>
      </trkpt>
      <trkpt lat="43.12855" lon="-0.34335">
        <ele>325</ele>
        <time>2022-09-08T09:54:12Z</time>
      </trkpt>
      <trkpt lat="43.12867" lon="-0.34374">
        <ele>324.4</ele>
        <time>2022-09-08T09:54:18Z</time>
      </trkpt>
      <trkpt lat="43.12872" lon="-0.34386">
        <ele>324.6</ele>
        <time>2022-09-08T09:54:20Z</time>
      </trkpt>
      <trkpt lat="43.12898" lon="-0.34444">
        <ele>325.4</ele>
        <time>2022-09-08T09:54:30Z</time>
      </trkpt>
      <trkpt lat="43.129" lon="-0.3445">
        <ele>325.6</ele>
        <time>2022-09-08T09:54:31Z</time>
      </trkpt>
      <trkpt lat="43.12917" lon="-0.34491">
        <ele>326</ele>
        <time>2022-09-08T09:54:39Z</time>
      </trkpt>
      <trkpt lat="43.12921" lon="-0.34498">
        <ele>326</ele>
        <time>2022-09-08T09:54:41Z</time>
      </trkpt>
      <trkpt lat="43.12927" lon="-0.34513">
        <ele>326.2</ele>
        <time>2022-09-08T09:54:46Z</time>
      </trkpt>
      <trkpt lat="43.12937" lon="-0.34535">
        <ele>326.6</ele>
        <time>2022-09-08T09:56:06Z</time>
      </trkpt>
      <trkpt lat="43.1294" lon="-0.34541">
        <ele>327</ele>
        <time>2022-09-08T09:56:08Z</time>
      </trkpt>
      <trkpt lat="43.12943" lon="-0.34548">
        <ele>327.2</ele>
        <time>2022-09-08T09:56:10Z</time>
      </trkpt>
      <trkpt lat="43.12952" lon="-0.34571">
        <ele>327</ele>
        <time>2022-09-08T09:56:16Z</time>
      </trkpt>
      <trkpt lat="43.1297" lon="-0.34612">
        <ele>327.2</ele>
        <time>2022-09-08T09:56:26Z</time>
      </trkpt>
      <trkpt lat="43.12987" lon="-0.34652">
        <ele>327.2</ele>
        <time>2022-09-08T09:56:36Z</time>
      </trkpt>
      <trkpt lat="43.13" lon="-0.34691">
        <ele>326.8</ele>
        <time>2022-09-08T09:56:44Z</time>
      </trkpt>
      <trkpt lat="43.13004" lon="-0.34711">
        <ele>326</ele>
        <time>2022-09-08T09:56:47Z</time>
      </trkpt>
      <trkpt lat="43.13004" lon="-0.34719">
        <ele>325.8</ele>
        <time>2022-09-08T09:56:48Z</time>
      </trkpt>
      <trkpt lat="43.13004" lon="-0.34727">
        <ele>325.4</ele>
        <time>2022-09-08T09:56:49Z</time>
      </trkpt>
      <trkpt lat="43.13002" lon="-0.34736">
        <ele>325</ele>
        <time>2022-09-08T09:56:50Z</time>
      </trkpt>
      <trkpt lat="43.12999" lon="-0.34754">
        <ele>324.6</ele>
        <time>2022-09-08T09:56:52Z</time>
      </trkpt>
      <trkpt lat="43.12995" lon="-0.34771">
        <ele>324.2</ele>
        <time>2022-09-08T09:56:54Z</time>
      </trkpt>
      <trkpt lat="43.12992" lon="-0.34779">
        <ele>323.8</ele>
        <time>2022-09-08T09:56:55Z</time>
      </trkpt>
      <trkpt lat="43.12984" lon="-0.34817">
        <ele>323.8</ele>
        <time>2022-09-08T09:57:00Z</time>
      </trkpt>
      <trkpt lat="43.12984" lon="-0.34854">
        <ele>325.4</ele>
        <time>2022-09-08T09:57:06Z</time>
      </trkpt>
      <trkpt lat="43.12986" lon="-0.34881">
        <ele>326.4</ele>
        <time>2022-09-08T09:57:12Z</time>
      </trkpt>
      <trkpt lat="43.12987" lon="-0.34886">
        <ele>326.6</ele>
        <time>2022-09-08T09:57:13Z</time>
      </trkpt>
      <trkpt lat="43.1299" lon="-0.3492">
        <ele>327.2</ele>
        <time>2022-09-08T09:57:21Z</time>
      </trkpt>
      <trkpt lat="43.12991" lon="-0.34929">
        <ele>327.4</ele>
        <time>2022-09-08T09:57:23Z</time>
      </trkpt>
      <trkpt lat="43.12994" lon="-0.34959">
        <ele>328</ele>
        <time>2022-09-08T09:57:30Z</time>
      </trkpt>
      <trkpt lat="43.12996" lon="-0.34985">
        <ele>328.4</ele>
        <time>2022-09-08T09:57:36Z</time>
      </trkpt>
      <trkpt lat="43.12998" lon="-0.35006">
        <ele>328.8</ele>
        <time>2022-09-08T09:57:41Z</time>
      </trkpt>
      <trkpt lat="43.13" lon="-0.35018">
        <ele>329.4</ele>
        <time>2022-09-08T09:57:44Z</time>
      </trkpt>
      <trkpt lat="43.13001" lon="-0.3504">
        <ele>330.2</ele>
        <time>2022-09-08T09:57:50Z</time>
      </trkpt>
      <trkpt lat="43.13002" lon="-0.35051">
        <ele>330.6</ele>
        <time>2022-09-08T09:57:53Z</time>
      </trkpt>
      <trkpt lat="43.13003" lon="-0.35071">
        <ele>331</ele>
        <time>2022-09-08T09:57:59Z</time>
      </trkpt>
      <trkpt lat="43.13006" lon="-0.35096">
        <ele>331.4</ele>
        <time>2022-09-08T09:58:07Z</time>
      </trkpt>
      <trkpt lat="43.1301" lon="-0.35125">
        <ele>331</ele>
        <time>2022-09-08T09:58:15Z</time>
      </trkpt>
      <trkpt lat="43.13015" lon="-0.35159">
        <ele>330</ele>
        <time>2022-09-08T09:58:21Z</time>
      </trkpt>
      <trkpt lat="43.13017" lon="-0.35165">
        <ele>329.8</ele>
        <time>2022-09-08T09:58:22Z</time>
      </trkpt>
      <trkpt lat="43.13021" lon="-0.35182">
        <ele>329.6</ele>
        <time>2022-09-08T09:58:25Z</time>
      </trkpt>
      <trkpt lat="43.13022" lon="-0.35194">
        <ele>329.2</ele>
        <time>2022-09-08T09:58:27Z</time>
      </trkpt>
      <trkpt lat="43.13028" lon="-0.35229">
        <ele>328.4</ele>
        <time>2022-09-08T09:58:32Z</time>
      </trkpt>
      <trkpt lat="43.1303" lon="-0.35243">
        <ele>328.2</ele>
        <time>2022-09-08T09:58:34Z</time>
      </trkpt>
      <trkpt lat="43.13034" lon="-0.3526">
        <ele>327.8</ele>
        <time>2022-09-08T09:58:38Z</time>
      </trkpt>
      <trkpt lat="43.13039" lon="-0.3527">
        <ele>327.8</ele>
        <time>2022-09-08T09:58:44Z</time>
      </trkpt>
      <trkpt lat="43.1304" lon="-0.35275">
        <ele>327.8</ele>
        <time>2022-09-08T09:58:46Z</time>
      </trkpt>
      <trkpt lat="43.13037" lon="-0.35279">
        <ele>327.8</ele>
        <time>2022-09-08T09:58:48Z</time>
      </trkpt>
      <trkpt lat="43.13028" lon="-0.35282">
        <ele>327.4</ele>
        <time>2022-09-08T09:58:52Z</time>
      </trkpt>
      <trkpt lat="43.13025" lon="-0.35283">
        <ele>327.4</ele>
        <time>2022-09-08T09:58:53Z</time>
      </trkpt>
      <trkpt lat="43.13005" lon="-0.3529">
        <ele>326.6</ele>
        <time>2022-09-08T09:58:58Z</time>
      </trkpt>
      <trkpt lat="43.13" lon="-0.35291">
        <ele>326.4</ele>
        <time>2022-09-08T09:58:59Z</time>
      </trkpt>
      <trkpt lat="43.12973" lon="-0.35297">
        <ele>325.4</ele>
        <time>2022-09-08T09:59:04Z</time>
      </trkpt>
      <trkpt lat="43.12966" lon="-0.35298">
        <ele>325</ele>
        <time>2022-09-08T09:59:05Z</time>
      </trkpt>
      <trkpt lat="43.12947" lon="-0.353">
        <ele>324</ele>
        <time>2022-09-08T09:59:08Z</time>
      </trkpt>
      <trkpt lat="43.12941" lon="-0.353">
        <ele>324</ele>
        <time>2022-09-08T09:59:09Z</time>
      </trkpt>
      <trkpt lat="43.12935" lon="-0.353">
        <ele>323.8</ele>
        <time>2022-09-08T09:59:10Z</time>
      </trkpt>
      <trkpt lat="43.12891" lon="-0.35299">
        <ele>323.6</ele>
        <time>2022-09-08T09:59:18Z</time>
      </trkpt>
      <trkpt lat="43.12869" lon="-0.35303">
        <ele>324</ele>
        <time>2022-09-08T09:59:23Z</time>
      </trkpt>
      <trkpt lat="43.12863" lon="-0.35309">
        <ele>324.2</ele>
        <time>2022-09-08T09:59:25Z</time>
      </trkpt>
      <trkpt lat="43.12859" lon="-0.35316">
        <ele>324.2</ele>
        <time>2022-09-08T09:59:27Z</time>
      </trkpt>
      <trkpt lat="43.12857" lon="-0.35324">
        <ele>324.4</ele>
        <time>2022-09-08T09:59:29Z</time>
      </trkpt>
      <trkpt lat="43.12855" lon="-0.35339">
        <ele>325.2</ele>
        <time>2022-09-08T09:59:33Z</time>
      </trkpt>
      <trkpt lat="43.12853" lon="-0.35348">
        <ele>325.6</ele>
        <time>2022-09-08T09:59:36Z</time>
      </trkpt>
      <trkpt lat="43.12851" lon="-0.35361">
        <ele>326</ele>
        <time>2022-09-08T09:59:43Z</time>
      </trkpt>
      <trkpt lat="43.12849" lon="-0.35388">
        <ele>326.2</ele>
        <time>2022-09-08T10:03:21Z</time>
      </trkpt>
      <trkpt lat="43.12852" lon="-0.35411">
        <ele>326.8</ele>
        <time>2022-09-08T10:03:28Z</time>
      </trkpt>
      <trkpt lat="43.12858" lon="-0.35433">
        <ele>327.2</ele>
        <time>2022-09-08T10:03:35Z</time>
      </trkpt>
      <trkpt lat="43.1286" lon="-0.35437">
        <ele>327.2</ele>
        <time>2022-09-08T10:03:36Z</time>
      </trkpt>
      <trkpt lat="43.12865" lon="-0.35459">
        <ele>327.4</ele>
        <time>2022-09-08T10:03:42Z</time>
      </trkpt>
      <trkpt lat="43.12869" lon="-0.35489">
        <ele>328</ele>
        <time>2022-09-08T10:03:50Z</time>
      </trkpt>
      <trkpt lat="43.12871" lon="-0.35495">
        <ele>328.2</ele>
        <time>2022-09-08T10:03:52Z</time>
      </trkpt>
      <trkpt lat="43.12871" lon="-0.35515">
        <ele>328.8</ele>
        <time>2022-09-08T10:03:57Z</time>
      </trkpt>
      <trkpt lat="43.12872" lon="-0.35549">
        <ele>329.2</ele>
        <time>2022-09-08T10:04:06Z</time>
      </trkpt>
      <trkpt lat="43.12872" lon="-0.35553">
        <ele>329.4</ele>
        <time>2022-09-08T10:04:07Z</time>
      </trkpt>
      <trkpt lat="43.12872" lon="-0.35583">
        <ele>329.6</ele>
        <time>2022-09-08T10:04:14Z</time>
      </trkpt>
      <trkpt lat="43.12872" lon="-0.35617">
        <ele>329.6</ele>
        <time>2022-09-08T10:04:23Z</time>
      </trkpt>
      <trkpt lat="43.1287" lon="-0.3563">
        <ele>329.8</ele>
        <time>2022-09-08T10:04:41Z</time>
      </trkpt>
      <trkpt lat="43.12865" lon="-0.35657">
        <ele>329.8</ele>
        <time>2022-09-08T10:04:48Z</time>
      </trkpt>
      <trkpt lat="43.12856" lon="-0.35695">
        <ele>330.6</ele>
        <time>2022-09-08T10:04:56Z</time>
      </trkpt>
      <trkpt lat="43.12855" lon="-0.357">
        <ele>330.8</ele>
        <time>2022-09-08T10:04:57Z</time>
      </trkpt>
      <trkpt lat="43.12848" lon="-0.35739">
        <ele>331.2</ele>
        <time>2022-09-08T10:05:05Z</time>
      </trkpt>
      <trkpt lat="43.12844" lon="-0.35778">
        <ele>330.4</ele>
        <time>2022-09-08T10:05:12Z</time>
      </trkpt>
      <trkpt lat="43.12838" lon="-0.35803">
        <ele>330.2</ele>
        <time>2022-09-08T10:05:16Z</time>
      </trkpt>
      <trkpt lat="43.12835" lon="-0.35814">
        <ele>330.2</ele>
        <time>2022-09-08T10:05:18Z</time>
      </trkpt>
      <trkpt lat="43.12823" lon="-0.35868">
        <ele>331</ele>
        <time>2022-09-08T10:05:27Z</time>
      </trkpt>
      <trkpt lat="43.12823" lon="-0.35874">
        <ele>331</ele>
        <time>2022-09-08T10:05:28Z</time>
      </trkpt>
      <trkpt lat="43.12828" lon="-0.35898">
        <ele>331.2</ele>
        <time>2022-09-08T10:05:32Z</time>
      </trkpt>
      <trkpt lat="43.12831" lon="-0.35903">
        <ele>331.2</ele>
        <time>2022-09-08T10:05:33Z</time>
      </trkpt>
      <trkpt lat="43.12845" lon="-0.35936">
        <ele>331.2</ele>
        <time>2022-09-08T10:05:39Z</time>
      </trkpt>
      <trkpt lat="43.1285" lon="-0.35946">
        <ele>331.2</ele>
        <time>2022-09-08T10:05:41Z</time>
      </trkpt>
      <trkpt lat="43.12859" lon="-0.35959">
        <ele>331.6</ele>
        <time>2022-09-08T10:05:44Z</time>
      </trkpt>
      <trkpt lat="43.12865" lon="-0.35967">
        <ele>331.8</ele>
        <time>2022-09-08T10:05:46Z</time>
      </trkpt>
      <trkpt lat="43.12873" lon="-0.35987">
        <ele>332.6</ele>
        <time>2022-09-08T10:05:51Z</time>
      </trkpt>
      <trkpt lat="43.12873" lon="-0.35991">
        <ele>332.8</ele>
        <time>2022-09-08T10:05:52Z</time>
      </trkpt>
      <trkpt lat="43.12868" lon="-0.36003">
        <ele>333.2</ele>
        <time>2022-09-08T10:05:55Z</time>
      </trkpt>
      <trkpt lat="43.12859" lon="-0.36022">
        <ele>334</ele>
        <time>2022-09-08T10:06:00Z</time>
      </trkpt>
      <trkpt lat="43.12856" lon="-0.3603">
        <ele>334.2</ele>
        <time>2022-09-08T10:06:02Z</time>
      </trkpt>
      <trkpt lat="43.12851" lon="-0.36049">
        <ele>335</ele>
        <time>2022-09-08T10:06:07Z</time>
      </trkpt>
      <trkpt lat="43.12849" lon="-0.36056">
        <ele>335.6</ele>
        <time>2022-09-08T10:06:09Z</time>
      </trkpt>
      <trkpt lat="43.12846" lon="-0.36068">
        <ele>336</ele>
        <time>2022-09-08T10:06:12Z</time>
      </trkpt>
      <trkpt lat="43.12842" lon="-0.36087">
        <ele>337</ele>
        <time>2022-09-08T10:06:17Z</time>
      </trkpt>
      <trkpt lat="43.12842" lon="-0.36091">
        <ele>337.2</ele>
        <time>2022-09-08T10:06:18Z</time>
      </trkpt>
      <trkpt lat="43.12836" lon="-0.36111">
        <ele>338.2</ele>
        <time>2022-09-08T10:06:24Z</time>
      </trkpt>
      <trkpt lat="43.12836" lon="-0.36115">
        <ele>338.4</ele>
        <time>2022-09-08T10:06:25Z</time>
      </trkpt>
      <trkpt lat="43.12822" lon="-0.36144">
        <ele>339.2</ele>
        <time>2022-09-08T10:06:34Z</time>
      </trkpt>
      <trkpt lat="43.12812" lon="-0.36166">
        <ele>339.6</ele>
        <time>2022-09-08T10:06:41Z</time>
      </trkpt>
      <trkpt lat="43.12806" lon="-0.36187">
        <ele>340.2</ele>
        <time>2022-09-08T10:06:47Z</time>
      </trkpt>
      <trkpt lat="43.12806" lon="-0.36195">
        <ele>340.4</ele>
        <time>2022-09-08T10:06:49Z</time>
      </trkpt>
      <trkpt lat="43.12808" lon="-0.36214">
        <ele>341.2</ele>
        <time>2022-09-08T10:06:54Z</time>
      </trkpt>
      <trkpt lat="43.12807" lon="-0.36229">
        <ele>342</ele>
        <time>2022-09-08T10:06:58Z</time>
      </trkpt>
      <trkpt lat="43.12805" lon="-0.36238">
        <ele>342.4</ele>
        <time>2022-09-08T10:07:01Z</time>
      </trkpt>
      <trkpt lat="43.12802" lon="-0.36255">
        <ele>342.8</ele>
        <time>2022-09-08T10:07:06Z</time>
      </trkpt>
      <trkpt lat="43.12796" lon="-0.36277">
        <ele>342.8</ele>
        <time>2022-09-08T10:07:12Z</time>
      </trkpt>
      <trkpt lat="43.12793" lon="-0.3631">
        <ele>342.4</ele>
        <time>2022-09-08T10:07:19Z</time>
      </trkpt>
      <trkpt lat="43.12793" lon="-0.36344">
        <ele>341.4</ele>
        <time>2022-09-08T10:07:24Z</time>
      </trkpt>
      <trkpt lat="43.12793" lon="-0.36351">
        <ele>341.2</ele>
        <time>2022-09-08T10:07:25Z</time>
      </trkpt>
      <trkpt lat="43.12792" lon="-0.3641">
        <ele>340.6</ele>
        <time>2022-09-08T10:07:32Z</time>
      </trkpt>
      <trkpt lat="43.12791" lon="-0.36417">
        <ele>340.4</ele>
        <time>2022-09-08T10:07:33Z</time>
      </trkpt>
      <trkpt lat="43.12789" lon="-0.36424">
        <ele>340.4</ele>
        <time>2022-09-08T10:07:34Z</time>
      </trkpt>
      <trkpt lat="43.12782" lon="-0.36432">
        <ele>340.6</ele>
        <time>2022-09-08T10:07:36Z</time>
      </trkpt>
      <trkpt lat="43.12778" lon="-0.36436">
        <ele>340.8</ele>
        <time>2022-09-08T10:07:37Z</time>
      </trkpt>
      <trkpt lat="43.12768" lon="-0.36444">
        <ele>341.6</ele>
        <time>2022-09-08T10:07:40Z</time>
      </trkpt>
      <trkpt lat="43.12762" lon="-0.36448">
        <ele>342</ele>
        <time>2022-09-08T10:07:42Z</time>
      </trkpt>
      <trkpt lat="43.12754" lon="-0.36456">
        <ele>342.6</ele>
        <time>2022-09-08T10:07:45Z</time>
      </trkpt>
      <trkpt lat="43.12749" lon="-0.36464">
        <ele>343.2</ele>
        <time>2022-09-08T10:07:48Z</time>
      </trkpt>
      <trkpt lat="43.12745" lon="-0.36474">
        <ele>343.8</ele>
        <time>2022-09-08T10:07:51Z</time>
      </trkpt>
      <trkpt lat="43.12744" lon="-0.36485">
        <ele>344.2</ele>
        <time>2022-09-08T10:07:54Z</time>
      </trkpt>
      <trkpt lat="43.12742" lon="-0.36502">
        <ele>344.8</ele>
        <time>2022-09-08T10:07:59Z</time>
      </trkpt>
      <trkpt lat="43.12742" lon="-0.36506">
        <ele>344.8</ele>
        <time>2022-09-08T10:08:00Z</time>
      </trkpt>
      <trkpt lat="43.12741" lon="-0.36533">
        <ele>345.8</ele>
        <time>2022-09-08T10:08:07Z</time>
      </trkpt>
      <trkpt lat="43.1274" lon="-0.36547">
        <ele>346.4</ele>
        <time>2022-09-08T10:08:11Z</time>
      </trkpt>
      <trkpt lat="43.12739" lon="-0.36558">
        <ele>347</ele>
        <time>2022-09-08T10:08:14Z</time>
      </trkpt>
      <trkpt lat="43.12737" lon="-0.36575">
        <ele>347.8</ele>
        <time>2022-09-08T10:08:19Z</time>
      </trkpt>
      <trkpt lat="43.12735" lon="-0.36577">
        <ele>348</ele>
        <time>2022-09-08T10:08:20Z</time>
      </trkpt>
      <trkpt lat="43.12725" lon="-0.36595">
        <ele>348.2</ele>
        <time>2022-09-08T10:08:26Z</time>
      </trkpt>
      <trkpt lat="43.1271" lon="-0.36626">
        <ele>348.6</ele>
        <time>2022-09-08T10:08:35Z</time>
      </trkpt>
      <trkpt lat="43.12691" lon="-0.36664">
        <ele>348.8</ele>
        <time>2022-09-08T10:08:44Z</time>
      </trkpt>
      <trkpt lat="43.12686" lon="-0.36672">
        <ele>349.2</ele>
        <time>2022-09-08T10:08:46Z</time>
      </trkpt>
      <trkpt lat="43.1267" lon="-0.36695">
        <ele>349.8</ele>
        <time>2022-09-08T10:08:53Z</time>
      </trkpt>
      <trkpt lat="43.12652" lon="-0.36732">
        <ele>349.8</ele>
        <time>2022-09-08T10:09:02Z</time>
      </trkpt>
      <trkpt lat="43.1264" lon="-0.36771">
        <ele>350</ele>
        <time>2022-09-08T10:09:10Z</time>
      </trkpt>
      <trkpt lat="43.12639" lon="-0.36775">
        <ele>350.2</ele>
        <time>2022-09-08T10:09:11Z</time>
      </trkpt>
      <trkpt lat="43.12629" lon="-0.36803">
        <ele>351.2</ele>
        <time>2022-09-08T10:09:18Z</time>
      </trkpt>
      <trkpt lat="43.12628" lon="-0.36805">
        <ele>351.4</ele>
        <time>2022-09-08T10:09:19Z</time>
      </trkpt>
      <trkpt lat="43.12621" lon="-0.36822">
        <ele>352.4</ele>
        <time>2022-09-08T10:09:25Z</time>
      </trkpt>
      <trkpt lat="43.12607" lon="-0.36852">
        <ele>353.4</ele>
        <time>2022-09-08T10:09:35Z</time>
      </trkpt>
      <trkpt lat="43.12605" lon="-0.36855">
        <ele>353.4</ele>
        <time>2022-09-08T10:09:36Z</time>
      </trkpt>
      <trkpt lat="43.12593" lon="-0.36879">
        <ele>354.2</ele>
        <time>2022-09-08T10:09:44Z</time>
      </trkpt>
      <trkpt lat="43.12591" lon="-0.36886">
        <ele>354.4</ele>
        <time>2022-09-08T10:09:46Z</time>
      </trkpt>
      <trkpt lat="43.12581" lon="-0.36908">
        <ele>355.4</ele>
        <time>2022-09-08T10:09:53Z</time>
      </trkpt>
      <trkpt lat="43.1258" lon="-0.36911">
        <ele>355.6</ele>
        <time>2022-09-08T10:09:54Z</time>
      </trkpt>
      <trkpt lat="43.1257" lon="-0.36935">
        <ele>356.4</ele>
        <time>2022-09-08T10:10:02Z</time>
      </trkpt>
      <trkpt lat="43.12568" lon="-0.36942">
        <ele>356.6</ele>
        <time>2022-09-08T10:10:04Z</time>
      </trkpt>
      <trkpt lat="43.12561" lon="-0.36965">
        <ele>356.8</ele>
        <time>2022-09-08T10:10:11Z</time>
      </trkpt>
      <trkpt lat="43.12552" lon="-0.37">
        <ele>356.6</ele>
        <time>2022-09-08T10:10:20Z</time>
      </trkpt>
      <trkpt lat="43.12536" lon="-0.37016">
        <ele>356.8</ele>
        <time>2022-09-08T10:10:26Z</time>
      </trkpt>
      <trkpt lat="43.12511" lon="-0.37031">
        <ele>357.2</ele>
        <time>2022-09-08T10:10:35Z</time>
      </trkpt>
      <trkpt lat="43.12491" lon="-0.37046">
        <ele>356.6</ele>
        <time>2022-09-08T10:10:41Z</time>
      </trkpt>
      <trkpt lat="43.12464" lon="-0.37059">
        <ele>355.4</ele>
        <time>2022-09-08T10:10:46Z</time>
      </trkpt>
      <trkpt lat="43.12444" lon="-0.37073">
        <ele>354.2</ele>
        <time>2022-09-08T10:10:49Z</time>
      </trkpt>
      <trkpt lat="43.12431" lon="-0.37084">
        <ele>353</ele>
        <time>2022-09-08T10:10:51Z</time>
      </trkpt>
      <trkpt lat="43.12415" lon="-0.37103">
        <ele>351.6</ele>
        <time>2022-09-08T10:10:54Z</time>
      </trkpt>
      <trkpt lat="43.12411" lon="-0.3711">
        <ele>351.4</ele>
        <time>2022-09-08T10:10:55Z</time>
      </trkpt>
      <trkpt lat="43.12407" lon="-0.37117">
        <ele>350.8</ele>
        <time>2022-09-08T10:10:56Z</time>
      </trkpt>
      <trkpt lat="43.12405" lon="-0.37126">
        <ele>350</ele>
        <time>2022-09-08T10:10:57Z</time>
      </trkpt>
      <trkpt lat="43.12404" lon="-0.37146">
        <ele>349.4</ele>
        <time>2022-09-08T10:10:59Z</time>
      </trkpt>
      <trkpt lat="43.12404" lon="-0.37156">
        <ele>349</ele>
        <time>2022-09-08T10:11:00Z</time>
      </trkpt>
      <trkpt lat="43.12404" lon="-0.37165">
        <ele>348.6</ele>
        <time>2022-09-08T10:11:01Z</time>
      </trkpt>
      <trkpt lat="43.12402" lon="-0.37182">
        <ele>348</ele>
        <time>2022-09-08T10:11:03Z</time>
      </trkpt>
      <trkpt lat="43.124" lon="-0.37189">
        <ele>348</ele>
        <time>2022-09-08T10:11:04Z</time>
      </trkpt>
      <trkpt lat="43.12396" lon="-0.37201">
        <ele>348</ele>
        <time>2022-09-08T10:11:06Z</time>
      </trkpt>
      <trkpt lat="43.12396" lon="-0.37211">
        <ele>348.4</ele>
        <time>2022-09-08T10:11:08Z</time>
      </trkpt>
      <trkpt lat="43.12399" lon="-0.37216">
        <ele>349.2</ele>
        <time>2022-09-08T10:11:10Z</time>
      </trkpt>
      <trkpt lat="43.12403" lon="-0.37221">
        <ele>349.8</ele>
        <time>2022-09-08T10:11:12Z</time>
      </trkpt>
      <trkpt lat="43.1241" lon="-0.37228">
        <ele>350.4</ele>
        <time>2022-09-08T10:11:16Z</time>
      </trkpt>
      <trkpt lat="43.12416" lon="-0.37235">
        <ele>351.2</ele>
        <time>2022-09-08T10:11:20Z</time>
      </trkpt>
      <trkpt lat="43.12417" lon="-0.37237">
        <ele>351.4</ele>
        <time>2022-09-08T10:11:21Z</time>
      </trkpt>
      <trkpt lat="43.12426" lon="-0.37251">
        <ele>352.6</ele>
        <time>2022-09-08T10:11:28Z</time>
      </trkpt>
      <trkpt lat="43.12428" lon="-0.37257">
        <ele>353.2</ele>
        <time>2022-09-08T10:11:31Z</time>
      </trkpt>
      <trkpt lat="43.12431" lon="-0.37264">
        <ele>353.6</ele>
        <time>2022-09-08T10:11:34Z</time>
      </trkpt>
      <trkpt lat="43.12436" lon="-0.37277">
        <ele>354.8</ele>
        <time>2022-09-08T10:11:40Z</time>
      </trkpt>
      <trkpt lat="43.12436" lon="-0.37279">
        <ele>355</ele>
        <time>2022-09-08T10:11:41Z</time>
      </trkpt>
      <trkpt lat="43.12438" lon="-0.37288">
        <ele>355.8</ele>
        <time>2022-09-08T10:11:45Z</time>
      </trkpt>
      <trkpt lat="43.12441" lon="-0.37294">
        <ele>356.4</ele>
        <time>2022-09-08T10:11:48Z</time>
      </trkpt>
      <trkpt lat="43.12442" lon="-0.37301">
        <ele>357</ele>
        <time>2022-09-08T10:11:51Z</time>
      </trkpt>
      <trkpt lat="43.12445" lon="-0.37311">
        <ele>357.4</ele>
        <time>2022-09-08T10:11:55Z</time>
      </trkpt>
      <trkpt lat="43.12446" lon="-0.3732">
        <ele>358</ele>
        <time>2022-09-08T10:11:59Z</time>
      </trkpt>
      <trkpt lat="43.12448" lon="-0.3733">
        <ele>358.6</ele>
        <time>2022-09-08T10:12:03Z</time>
      </trkpt>
      <trkpt lat="43.12449" lon="-0.37337">
        <ele>359.2</ele>
        <time>2022-09-08T10:12:06Z</time>
      </trkpt>
      <trkpt lat="43.12452" lon="-0.37349">
        <ele>360</ele>
        <time>2022-09-08T10:12:11Z</time>
      </trkpt>
      <trkpt lat="43.12452" lon="-0.37356">
        <ele>360.2</ele>
        <time>2022-09-08T10:12:14Z</time>
      </trkpt>
      <trkpt lat="43.12453" lon="-0.37368">
        <ele>361</ele>
        <time>2022-09-08T10:12:19Z</time>
      </trkpt>
      <trkpt lat="43.12454" lon="-0.37375">
        <ele>361.2</ele>
        <time>2022-09-08T10:12:22Z</time>
      </trkpt>
      <trkpt lat="43.12455" lon="-0.37383">
        <ele>361.8</ele>
        <time>2022-09-08T10:12:26Z</time>
      </trkpt>
      <trkpt lat="43.12456" lon="-0.37385">
        <ele>361.8</ele>
        <time>2022-09-08T10:12:27Z</time>
      </trkpt>
      <trkpt lat="43.12459" lon="-0.37392">
        <ele>362.4</ele>
        <time>2022-09-08T10:12:31Z</time>
      </trkpt>
      <trkpt lat="43.1246" lon="-0.37395">
        <ele>362.8</ele>
        <time>2022-09-08T10:12:33Z</time>
      </trkpt>
      <trkpt lat="43.12462" lon="-0.37404">
        <ele>363.4</ele>
        <time>2022-09-08T10:12:37Z</time>
      </trkpt>
      <trkpt lat="43.12465" lon="-0.37411">
        <ele>364</ele>
        <time>2022-09-08T10:12:41Z</time>
      </trkpt>
      <trkpt lat="43.1247" lon="-0.37423">
        <ele>364.4</ele>
        <time>2022-09-08T10:12:47Z</time>
      </trkpt>
      <trkpt lat="43.12472" lon="-0.3743">
        <ele>364.8</ele>
        <time>2022-09-08T10:12:50Z</time>
      </trkpt>
      <trkpt lat="43.12478" lon="-0.37446">
        <ele>365.6</ele>
        <time>2022-09-08T10:12:57Z</time>
      </trkpt>
      <trkpt lat="43.12482" lon="-0.37465">
        <ele>366.4</ele>
        <time>2022-09-08T10:13:04Z</time>
      </trkpt>
      <trkpt lat="43.12484" lon="-0.37469">
        <ele>366.8</ele>
        <time>2022-09-08T10:13:06Z</time>
      </trkpt>
      <trkpt lat="43.12486" lon="-0.37483">
        <ele>367.4</ele>
        <time>2022-09-08T10:13:12Z</time>
      </trkpt>
      <trkpt lat="43.12488" lon="-0.3749">
        <ele>367.8</ele>
        <time>2022-09-08T10:13:15Z</time>
      </trkpt>
      <trkpt lat="43.12489" lon="-0.37502">
        <ele>368.4</ele>
        <time>2022-09-08T10:13:20Z</time>
      </trkpt>
      <trkpt lat="43.1249" lon="-0.37506">
        <ele>368.8</ele>
        <time>2022-09-08T10:13:22Z</time>
      </trkpt>
      <trkpt lat="43.12493" lon="-0.37517">
        <ele>369.6</ele>
        <time>2022-09-08T10:13:27Z</time>
      </trkpt>
      <trkpt lat="43.12493" lon="-0.3752">
        <ele>369.8</ele>
        <time>2022-09-08T10:13:28Z</time>
      </trkpt>
      <trkpt lat="43.12495" lon="-0.37524">
        <ele>370.2</ele>
        <time>2022-09-08T10:13:30Z</time>
      </trkpt>
      <trkpt lat="43.12498" lon="-0.37529">
        <ele>370.6</ele>
        <time>2022-09-08T10:13:33Z</time>
      </trkpt>
      <trkpt lat="43.125" lon="-0.37534">
        <ele>371</ele>
        <time>2022-09-08T10:13:35Z</time>
      </trkpt>
      <trkpt lat="43.12505" lon="-0.37545">
        <ele>371.8</ele>
        <time>2022-09-08T10:13:40Z</time>
      </trkpt>
      <trkpt lat="43.12506" lon="-0.37547">
        <ele>372</ele>
        <time>2022-09-08T10:13:41Z</time>
      </trkpt>
      <trkpt lat="43.12513" lon="-0.37558">
        <ele>373</ele>
        <time>2022-09-08T10:13:47Z</time>
      </trkpt>
      <trkpt lat="43.12514" lon="-0.37559">
        <ele>373</ele>
        <time>2022-09-08T10:13:48Z</time>
      </trkpt>
      <trkpt lat="43.12519" lon="-0.37568">
        <ele>373.8</ele>
        <time>2022-09-08T10:13:53Z</time>
      </trkpt>
      <trkpt lat="43.1252" lon="-0.3757">
        <ele>374</ele>
        <time>2022-09-08T10:13:54Z</time>
      </trkpt>
      <trkpt lat="43.12525" lon="-0.37584">
        <ele>375</ele>
        <time>2022-09-08T10:14:01Z</time>
      </trkpt>
      <trkpt lat="43.12525" lon="-0.37586">
        <ele>375.2</ele>
        <time>2022-09-08T10:14:02Z</time>
      </trkpt>
      <trkpt lat="43.1253" lon="-0.37594">
        <ele>375.6</ele>
        <time>2022-09-08T10:14:07Z</time>
      </trkpt>
      <trkpt lat="43.12534" lon="-0.37602">
        <ele>376.2</ele>
        <time>2022-09-08T10:14:11Z</time>
      </trkpt>
      <trkpt lat="43.12534" lon="-0.37607">
        <ele>376.4</ele>
        <time>2022-09-08T10:14:13Z</time>
      </trkpt>
      <trkpt lat="43.12537" lon="-0.37622">
        <ele>377.2</ele>
        <time>2022-09-08T10:14:19Z</time>
      </trkpt>
      <trkpt lat="43.12537" lon="-0.3763">
        <ele>377.6</ele>
        <time>2022-09-08T10:14:22Z</time>
      </trkpt>
      <trkpt lat="43.12538" lon="-0.37647">
        <ele>378.4</ele>
        <time>2022-09-08T10:14:28Z</time>
      </trkpt>
      <trkpt lat="43.12538" lon="-0.37651">
        <ele>378.8</ele>
        <time>2022-09-08T10:14:30Z</time>
      </trkpt>
      <trkpt lat="43.12539" lon="-0.37656">
        <ele>379</ele>
        <time>2022-09-08T10:14:32Z</time>
      </trkpt>
      <trkpt lat="43.12539" lon="-0.37662">
        <ele>379.4</ele>
        <time>2022-09-08T10:14:34Z</time>
      </trkpt>
      <trkpt lat="43.12541" lon="-0.37665">
        <ele>379.6</ele>
        <time>2022-09-08T10:14:36Z</time>
      </trkpt>
      <trkpt lat="43.12546" lon="-0.37676">
        <ele>380.6</ele>
        <time>2022-09-08T10:14:42Z</time>
      </trkpt>
      <trkpt lat="43.12546" lon="-0.37677">
        <ele>380.6</ele>
        <time>2022-09-08T10:14:43Z</time>
      </trkpt>
      <trkpt lat="43.12547" lon="-0.37679">
        <ele>380.8</ele>
        <time>2022-09-08T10:14:44Z</time>
      </trkpt>
      <trkpt lat="43.12549" lon="-0.37688">
        <ele>381.6</ele>
        <time>2022-09-08T10:14:49Z</time>
      </trkpt>
      <trkpt lat="43.12549" lon="-0.37691">
        <ele>381.6</ele>
        <time>2022-09-08T10:14:50Z</time>
      </trkpt>
      <trkpt lat="43.1255" lon="-0.37708">
        <ele>382.4</ele>
        <time>2022-09-08T10:14:56Z</time>
      </trkpt>
      <trkpt lat="43.1255" lon="-0.37712">
        <ele>382.8</ele>
        <time>2022-09-08T10:14:58Z</time>
      </trkpt>
      <trkpt lat="43.12552" lon="-0.37726">
        <ele>383.6</ele>
        <time>2022-09-08T10:15:03Z</time>
      </trkpt>
      <trkpt lat="43.12552" lon="-0.37729">
        <ele>383.8</ele>
        <time>2022-09-08T10:15:04Z</time>
      </trkpt>
      <trkpt lat="43.12554" lon="-0.37741">
        <ele>384.6</ele>
        <time>2022-09-08T10:15:09Z</time>
      </trkpt>
      <trkpt lat="43.12554" lon="-0.37744">
        <ele>384.8</ele>
        <time>2022-09-08T10:15:10Z</time>
      </trkpt>
      <trkpt lat="43.12554" lon="-0.37751">
        <ele>385.4</ele>
        <time>2022-09-08T10:15:14Z</time>
      </trkpt>
      <trkpt lat="43.12553" lon="-0.37761">
        <ele>386</ele>
        <time>2022-09-08T10:15:18Z</time>
      </trkpt>
      <trkpt lat="43.12553" lon="-0.37765">
        <ele>386.4</ele>
        <time>2022-09-08T10:15:20Z</time>
      </trkpt>
      <trkpt lat="43.1255" lon="-0.37773">
        <ele>387.2</ele>
        <time>2022-09-08T10:15:24Z</time>
      </trkpt>
      <trkpt lat="43.12549" lon="-0.37777">
        <ele>387.4</ele>
        <time>2022-09-08T10:15:26Z</time>
      </trkpt>
      <trkpt lat="43.12543" lon="-0.37788">
        <ele>388.2</ele>
        <time>2022-09-08T10:15:33Z</time>
      </trkpt>
      <trkpt lat="43.12538" lon="-0.37799">
        <ele>389.4</ele>
        <time>2022-09-08T10:15:40Z</time>
      </trkpt>
      <trkpt lat="43.12538" lon="-0.37802">
        <ele>389.4</ele>
        <time>2022-09-08T10:15:41Z</time>
      </trkpt>
      <trkpt lat="43.12535" lon="-0.37811">
        <ele>390.4</ele>
        <time>2022-09-08T10:15:45Z</time>
      </trkpt>
      <trkpt lat="43.12533" lon="-0.37819">
        <ele>391</ele>
        <time>2022-09-08T10:15:48Z</time>
      </trkpt>
      <trkpt lat="43.1253" lon="-0.37827">
        <ele>391.4</ele>
        <time>2022-09-08T10:15:52Z</time>
      </trkpt>
      <trkpt lat="43.12527" lon="-0.37837">
        <ele>392.2</ele>
        <time>2022-09-08T10:15:56Z</time>
      </trkpt>
      <trkpt lat="43.12524" lon="-0.37844">
        <ele>392.6</ele>
        <time>2022-09-08T10:15:59Z</time>
      </trkpt>
      <trkpt lat="43.1252" lon="-0.37858">
        <ele>393.4</ele>
        <time>2022-09-08T10:16:05Z</time>
      </trkpt>
      <trkpt lat="43.12519" lon="-0.37864">
        <ele>393.6</ele>
        <time>2022-09-08T10:16:07Z</time>
      </trkpt>
      <trkpt lat="43.12519" lon="-0.37867">
        <ele>393.8</ele>
        <time>2022-09-08T10:16:08Z</time>
      </trkpt>
      <trkpt lat="43.1252" lon="-0.37877">
        <ele>394.6</ele>
        <time>2022-09-08T10:16:12Z</time>
      </trkpt>
      <trkpt lat="43.12519" lon="-0.37879">
        <ele>394.8</ele>
        <time>2022-09-08T10:16:13Z</time>
      </trkpt>
      <trkpt lat="43.1252" lon="-0.37892">
        <ele>395.8</ele>
        <time>2022-09-08T10:16:19Z</time>
      </trkpt>
      <trkpt lat="43.1252" lon="-0.37894">
        <ele>396</ele>
        <time>2022-09-08T10:16:20Z</time>
      </trkpt>
      <trkpt lat="43.12519" lon="-0.37907">
        <ele>396.8</ele>
        <time>2022-09-08T10:16:26Z</time>
      </trkpt>
      <trkpt lat="43.12518" lon="-0.3791">
        <ele>397</ele>
        <time>2022-09-08T10:16:27Z</time>
      </trkpt>
      <trkpt lat="43.12513" lon="-0.37921">
        <ele>398</ele>
        <time>2022-09-08T10:16:33Z</time>
      </trkpt>
      <trkpt lat="43.12513" lon="-0.37923">
        <ele>398</ele>
        <time>2022-09-08T10:16:34Z</time>
      </trkpt>
      <trkpt lat="43.12515" lon="-0.3793">
        <ele>398.6</ele>
        <time>2022-09-08T10:16:37Z</time>
      </trkpt>
      <trkpt lat="43.12516" lon="-0.37931">
        <ele>398.6</ele>
        <time>2022-09-08T10:16:38Z</time>
      </trkpt>
      <trkpt lat="43.12562" lon="-0.37964">
        <ele>404.4</ele>
        <time>2022-09-08T10:17:15Z</time>
      </trkpt>
      <trkpt lat="43.12565" lon="-0.37963">
        <ele>404.6</ele>
        <time>2022-09-08T10:17:17Z</time>
      </trkpt>
      <trkpt lat="43.12575" lon="-0.3796">
        <ele>405.6</ele>
        <time>2022-09-08T10:17:22Z</time>
      </trkpt>
      <trkpt lat="43.12581" lon="-0.37958">
        <ele>406</ele>
        <time>2022-09-08T10:17:25Z</time>
      </trkpt>
      <trkpt lat="43.1259" lon="-0.37954">
        <ele>406.6</ele>
        <time>2022-09-08T10:17:30Z</time>
      </trkpt>
      <trkpt lat="43.12596" lon="-0.37952">
        <ele>407</ele>
        <time>2022-09-08T10:17:33Z</time>
      </trkpt>
      <trkpt lat="43.126" lon="-0.37953">
        <ele>407.6</ele>
        <time>2022-09-08T10:17:36Z</time>
      </trkpt>
      <trkpt lat="43.12602" lon="-0.37955">
        <ele>408</ele>
        <time>2022-09-08T10:17:38Z</time>
      </trkpt>
      <trkpt lat="43.12604" lon="-0.37957">
        <ele>408.2</ele>
        <time>2022-09-08T10:17:39Z</time>
      </trkpt>
      <trkpt lat="43.12608" lon="-0.37963">
        <ele>408.6</ele>
        <time>2022-09-08T10:17:43Z</time>
      </trkpt>
      <trkpt lat="43.12609" lon="-0.37964">
        <ele>408.8</ele>
        <time>2022-09-08T10:17:44Z</time>
      </trkpt>
      <trkpt lat="43.12609" lon="-0.37966">
        <ele>409.2</ele>
        <time>2022-09-08T10:17:45Z</time>
      </trkpt>
      <trkpt lat="43.12609" lon="-0.37967">
        <ele>409.2</ele>
        <time>2022-09-08T10:17:46Z</time>
      </trkpt>
      <trkpt lat="43.12608" lon="-0.37972">
        <ele>409.8</ele>
        <time>2022-09-08T10:17:49Z</time>
      </trkpt>
      <trkpt lat="43.12601" lon="-0.37986">
        <ele>410.4</ele>
        <time>2022-09-08T10:17:57Z</time>
      </trkpt>
      <trkpt lat="43.1259" lon="-0.37997">
        <ele>410.8</ele>
        <time>2022-09-08T10:18:04Z</time>
      </trkpt>
      <trkpt lat="43.12588" lon="-0.37999">
        <ele>410.8</ele>
        <time>2022-09-08T10:18:05Z</time>
      </trkpt>
      <trkpt lat="43.1258" lon="-0.38004">
        <ele>412</ele>
        <time>2022-09-08T10:18:10Z</time>
      </trkpt>
      <trkpt lat="43.12577" lon="-0.38004">
        <ele>412.2</ele>
        <time>2022-09-08T10:18:12Z</time>
      </trkpt>
      <trkpt lat="43.12566" lon="-0.38003">
        <ele>413</ele>
        <time>2022-09-08T10:18:18Z</time>
      </trkpt>
      <trkpt lat="43.12564" lon="-0.38003">
        <ele>413.2</ele>
        <time>2022-09-08T10:18:19Z</time>
      </trkpt>
      <trkpt lat="43.12555" lon="-0.38003">
        <ele>414</ele>
        <time>2022-09-08T10:18:25Z</time>
      </trkpt>
      <trkpt lat="43.12551" lon="-0.38003">
        <ele>414.4</ele>
        <time>2022-09-08T10:18:27Z</time>
      </trkpt>
      <trkpt lat="43.12542" lon="-0.38005">
        <ele>415.2</ele>
        <time>2022-09-08T10:18:33Z</time>
      </trkpt>
      <trkpt lat="43.12535" lon="-0.38006">
        <ele>415.8</ele>
        <time>2022-09-08T10:18:37Z</time>
      </trkpt>
      <trkpt lat="43.12529" lon="-0.38008">
        <ele>416.4</ele>
        <time>2022-09-08T10:18:41Z</time>
      </trkpt>
      <trkpt lat="43.12523" lon="-0.3801">
        <ele>416.8</ele>
        <time>2022-09-08T10:18:45Z</time>
      </trkpt>
      <trkpt lat="43.12517" lon="-0.38012">
        <ele>417.4</ele>
        <time>2022-09-08T10:18:49Z</time>
      </trkpt>
      <trkpt lat="43.12511" lon="-0.38015">
        <ele>418</ele>
        <time>2022-09-08T10:18:53Z</time>
      </trkpt>
      <trkpt lat="43.12504" lon="-0.38016">
        <ele>418.4</ele>
        <time>2022-09-08T10:18:57Z</time>
      </trkpt>
      <trkpt lat="43.12498" lon="-0.38019">
        <ele>419</ele>
        <time>2022-09-08T10:19:01Z</time>
      </trkpt>
      <trkpt lat="43.1249" lon="-0.3802">
        <ele>419.6</ele>
        <time>2022-09-08T10:19:06Z</time>
      </trkpt>
      <trkpt lat="43.12485" lon="-0.38019">
        <ele>420</ele>
        <time>2022-09-08T10:19:09Z</time>
      </trkpt>
      <trkpt lat="43.12479" lon="-0.38016">
        <ele>420.6</ele>
        <time>2022-09-08T10:19:13Z</time>
      </trkpt>
      <trkpt lat="43.12476" lon="-0.38015">
        <ele>421</ele>
        <time>2022-09-08T10:19:15Z</time>
      </trkpt>
      <trkpt lat="43.12469" lon="-0.38011">
        <ele>421.6</ele>
        <time>2022-09-08T10:19:20Z</time>
      </trkpt>
      <trkpt lat="43.12465" lon="-0.38009">
        <ele>422</ele>
        <time>2022-09-08T10:19:22Z</time>
      </trkpt>
      <trkpt lat="43.12458" lon="-0.38004">
        <ele>422.6</ele>
        <time>2022-09-08T10:19:26Z</time>
      </trkpt>
      <trkpt lat="43.1245" lon="-0.38005">
        <ele>423.6</ele>
        <time>2022-09-08T10:19:31Z</time>
      </trkpt>
      <trkpt lat="43.12448" lon="-0.38006">
        <ele>423.8</ele>
        <time>2022-09-08T10:19:32Z</time>
      </trkpt>
      <trkpt lat="43.1244" lon="-0.38015">
        <ele>424.8</ele>
        <time>2022-09-08T10:19:38Z</time>
      </trkpt>
      <trkpt lat="43.12438" lon="-0.38016">
        <ele>424.8</ele>
        <time>2022-09-08T10:19:39Z</time>
      </trkpt>
      <trkpt lat="43.1243" lon="-0.38028">
        <ele>425.2</ele>
        <time>2022-09-08T10:19:46Z</time>
      </trkpt>
      <trkpt lat="43.12421" lon="-0.38041">
        <ele>425.8</ele>
        <time>2022-09-08T10:19:53Z</time>
      </trkpt>
      <trkpt lat="43.1242" lon="-0.38043">
        <ele>426</ele>
        <time>2022-09-08T10:19:54Z</time>
      </trkpt>
      <trkpt lat="43.12409" lon="-0.38058">
        <ele>426.8</ele>
        <time>2022-09-08T10:20:02Z</time>
      </trkpt>
      <trkpt lat="43.12408" lon="-0.3806">
        <ele>426.8</ele>
        <time>2022-09-08T10:20:03Z</time>
      </trkpt>
      <trkpt lat="43.12399" lon="-0.38071">
        <ele>427.8</ele>
        <time>2022-09-08T10:20:10Z</time>
      </trkpt>
      <trkpt lat="43.1239" lon="-0.38083">
        <ele>428.8</ele>
        <time>2022-09-08T10:20:17Z</time>
      </trkpt>
      <trkpt lat="43.12389" lon="-0.38085">
        <ele>429</ele>
        <time>2022-09-08T10:20:18Z</time>
      </trkpt>
      <trkpt lat="43.12384" lon="-0.38092">
        <ele>430</ele>
        <time>2022-09-08T10:20:23Z</time>
      </trkpt>
      <trkpt lat="43.12381" lon="-0.38096">
        <ele>430.6</ele>
        <time>2022-09-08T10:20:26Z</time>
      </trkpt>
      <trkpt lat="43.12378" lon="-0.38101">
        <ele>431.2</ele>
        <time>2022-09-08T10:20:29Z</time>
      </trkpt>
      <trkpt lat="43.12374" lon="-0.38106">
        <ele>432</ele>
        <time>2022-09-08T10:20:33Z</time>
      </trkpt>
      <trkpt lat="43.12372" lon="-0.38107">
        <ele>432.2</ele>
        <time>2022-09-08T10:20:34Z</time>
      </trkpt>
      <trkpt lat="43.12371" lon="-0.38111">
        <ele>432.4</ele>
        <time>2022-09-08T10:20:36Z</time>
      </trkpt>
      <trkpt lat="43.12366" lon="-0.38119">
        <ele>433.2</ele>
        <time>2022-09-08T10:20:41Z</time>
      </trkpt>
      <trkpt lat="43.12362" lon="-0.38124">
        <ele>433.4</ele>
        <time>2022-09-08T10:20:44Z</time>
      </trkpt>
      <trkpt lat="43.12359" lon="-0.38132">
        <ele>433.8</ele>
        <time>2022-09-08T10:20:48Z</time>
      </trkpt>
      <trkpt lat="43.12355" lon="-0.38145">
        <ele>434.4</ele>
        <time>2022-09-08T10:20:53Z</time>
      </trkpt>
      <trkpt lat="43.12354" lon="-0.38152">
        <ele>434.6</ele>
        <time>2022-09-08T10:20:56Z</time>
      </trkpt>
      <trkpt lat="43.1235" lon="-0.38178">
        <ele>435.2</ele>
        <time>2022-09-08T10:21:04Z</time>
      </trkpt>
      <trkpt lat="43.12348" lon="-0.38191">
        <ele>435.6</ele>
        <time>2022-09-08T10:21:08Z</time>
      </trkpt>
      <trkpt lat="43.12346" lon="-0.38202">
        <ele>436.2</ele>
        <time>2022-09-08T10:21:11Z</time>
      </trkpt>
      <trkpt lat="43.12345" lon="-0.38209">
        <ele>436.6</ele>
        <time>2022-09-08T10:21:13Z</time>
      </trkpt>
      <trkpt lat="43.12344" lon="-0.38226">
        <ele>437</ele>
        <time>2022-09-08T10:21:19Z</time>
      </trkpt>
      <trkpt lat="43.12341" lon="-0.38243">
        <ele>437</ele>
        <time>2022-09-08T10:21:25Z</time>
      </trkpt>
      <trkpt lat="43.12339" lon="-0.38262">
        <ele>437.4</ele>
        <time>2022-09-08T10:21:31Z</time>
      </trkpt>
      <trkpt lat="43.12339" lon="-0.3827">
        <ele>437.6</ele>
        <time>2022-09-08T10:21:34Z</time>
      </trkpt>
      <trkpt lat="43.12339" lon="-0.38275">
        <ele>438</ele>
        <time>2022-09-08T10:21:36Z</time>
      </trkpt>
      <trkpt lat="43.12336" lon="-0.38282">
        <ele>438.8</ele>
        <time>2022-09-08T10:21:39Z</time>
      </trkpt>
      <trkpt lat="43.12333" lon="-0.38287">
        <ele>438.8</ele>
        <time>2022-09-08T10:21:41Z</time>
      </trkpt>
      <trkpt lat="43.12316" lon="-0.38306">
        <ele>439.6</ele>
        <time>2022-09-08T10:21:50Z</time>
      </trkpt>
      <trkpt lat="43.12314" lon="-0.38308">
        <ele>439.8</ele>
        <time>2022-09-08T10:21:51Z</time>
      </trkpt>
      <trkpt lat="43.12301" lon="-0.38324">
        <ele>440.4</ele>
        <time>2022-09-08T10:21:58Z</time>
      </trkpt>
      <trkpt lat="43.12296" lon="-0.38333">
        <ele>440.8</ele>
        <time>2022-09-08T10:22:01Z</time>
      </trkpt>
      <trkpt lat="43.12289" lon="-0.38348">
        <ele>441.6</ele>
        <time>2022-09-08T10:22:06Z</time>
      </trkpt>
      <trkpt lat="43.12283" lon="-0.38361">
        <ele>442</ele>
        <time>2022-09-08T10:22:10Z</time>
      </trkpt>
      <trkpt lat="43.1228" lon="-0.38372">
        <ele>442.4</ele>
        <time>2022-09-08T10:22:13Z</time>
      </trkpt>
      <trkpt lat="43.12274" lon="-0.3839">
        <ele>443.2</ele>
        <time>2022-09-08T10:22:18Z</time>
      </trkpt>
      <trkpt lat="43.12269" lon="-0.38408">
        <ele>443.8</ele>
        <time>2022-09-08T10:22:23Z</time>
      </trkpt>
      <trkpt lat="43.12261" lon="-0.38431">
        <ele>444.2</ele>
        <time>2022-09-08T10:22:30Z</time>
      </trkpt>
      <trkpt lat="43.1225" lon="-0.3846">
        <ele>444.6</ele>
        <time>2022-09-08T10:22:38Z</time>
      </trkpt>
      <trkpt lat="43.12243" lon="-0.38494">
        <ele>444.8</ele>
        <time>2022-09-08T10:22:45Z</time>
      </trkpt>
      <trkpt lat="43.12245" lon="-0.3853">
        <ele>444.8</ele>
        <time>2022-09-08T10:22:52Z</time>
      </trkpt>
      <trkpt lat="43.1225" lon="-0.38567">
        <ele>445.2</ele>
        <time>2022-09-08T10:22:59Z</time>
      </trkpt>
      <trkpt lat="43.12252" lon="-0.38576">
        <ele>445.4</ele>
        <time>2022-09-08T10:23:01Z</time>
      </trkpt>
      <trkpt lat="43.12259" lon="-0.38612">
        <ele>446</ele>
        <time>2022-09-08T10:23:08Z</time>
      </trkpt>
      <trkpt lat="43.12262" lon="-0.38633">
        <ele>446.4</ele>
        <time>2022-09-08T10:23:12Z</time>
      </trkpt>
      <trkpt lat="43.12265" lon="-0.38653">
        <ele>446.8</ele>
        <time>2022-09-08T10:23:16Z</time>
      </trkpt>
      <trkpt lat="43.12261" lon="-0.38688">
        <ele>447.4</ele>
        <time>2022-09-08T10:23:23Z</time>
      </trkpt>
      <trkpt lat="43.12252" lon="-0.38705">
        <ele>447.4</ele>
        <time>2022-09-08T10:23:27Z</time>
      </trkpt>
      <trkpt lat="43.12249" lon="-0.38708">
        <ele>447.6</ele>
        <time>2022-09-08T10:23:28Z</time>
      </trkpt>
      <trkpt lat="43.1223" lon="-0.38716">
        <ele>448</ele>
        <time>2022-09-08T10:23:33Z</time>
      </trkpt>
      <trkpt lat="43.12204" lon="-0.38717">
        <ele>448.2</ele>
        <time>2022-09-08T10:23:40Z</time>
      </trkpt>
      <trkpt lat="43.12189" lon="-0.38719">
        <ele>448.4</ele>
        <time>2022-09-08T10:23:44Z</time>
      </trkpt>
      <trkpt lat="43.12179" lon="-0.38726">
        <ele>448.8</ele>
        <time>2022-09-08T10:23:47Z</time>
      </trkpt>
      <trkpt lat="43.12168" lon="-0.38744">
        <ele>449.2</ele>
        <time>2022-09-08T10:23:52Z</time>
      </trkpt>
      <trkpt lat="43.12162" lon="-0.3877">
        <ele>449.4</ele>
        <time>2022-09-08T10:23:57Z</time>
      </trkpt>
      <trkpt lat="43.12162" lon="-0.38775">
        <ele>449.6</ele>
        <time>2022-09-08T10:23:58Z</time>
      </trkpt>
      <trkpt lat="43.12165" lon="-0.38807">
        <ele>450.4</ele>
        <time>2022-09-08T10:24:04Z</time>
      </trkpt>
      <trkpt lat="43.12167" lon="-0.38811">
        <ele>450.6</ele>
        <time>2022-09-08T10:24:05Z</time>
      </trkpt>
      <trkpt lat="43.12177" lon="-0.38853">
        <ele>451.6</ele>
        <time>2022-09-08T10:24:14Z</time>
      </trkpt>
      <trkpt lat="43.1219" lon="-0.38871">
        <ele>452</ele>
        <time>2022-09-08T10:24:19Z</time>
      </trkpt>
      <trkpt lat="43.12204" lon="-0.38887">
        <ele>452.6</ele>
        <time>2022-09-08T10:24:25Z</time>
      </trkpt>
      <trkpt lat="43.12209" lon="-0.38895">
        <ele>452.6</ele>
        <time>2022-09-08T10:24:27Z</time>
      </trkpt>
      <trkpt lat="43.12217" lon="-0.38906">
        <ele>453.2</ele>
        <time>2022-09-08T10:24:30Z</time>
      </trkpt>
      <trkpt lat="43.12235" lon="-0.38934">
        <ele>453.6</ele>
        <time>2022-09-08T10:24:38Z</time>
      </trkpt>
      <trkpt lat="43.12237" lon="-0.38938">
        <ele>453.8</ele>
        <time>2022-09-08T10:24:39Z</time>
      </trkpt>
      <trkpt lat="43.1225" lon="-0.38963">
        <ele>454.6</ele>
        <time>2022-09-08T10:24:45Z</time>
      </trkpt>
      <trkpt lat="43.12251" lon="-0.38968">
        <ele>454.8</ele>
        <time>2022-09-08T10:24:46Z</time>
      </trkpt>
      <trkpt lat="43.12254" lon="-0.38991">
        <ele>456</ele>
        <time>2022-09-08T10:24:52Z</time>
      </trkpt>
      <trkpt lat="43.12254" lon="-0.39016">
        <ele>456.8</ele>
        <time>2022-09-08T10:24:58Z</time>
      </trkpt>
      <trkpt lat="43.12254" lon="-0.39024">
        <ele>457</ele>
        <time>2022-09-08T10:25:00Z</time>
      </trkpt>
      <trkpt lat="43.12251" lon="-0.39048">
        <ele>457.8</ele>
        <time>2022-09-08T10:25:06Z</time>
      </trkpt>
      <trkpt lat="43.12243" lon="-0.39076">
        <ele>458</ele>
        <time>2022-09-08T10:25:13Z</time>
      </trkpt>
      <trkpt lat="43.12233" lon="-0.39094">
        <ele>458.2</ele>
        <time>2022-09-08T10:25:19Z</time>
      </trkpt>
      <trkpt lat="43.12213" lon="-0.39105">
        <ele>458.2</ele>
        <time>2022-09-08T10:25:26Z</time>
      </trkpt>
      <trkpt lat="43.12185" lon="-0.39114">
        <ele>458.4</ele>
        <time>2022-09-08T10:25:35Z</time>
      </trkpt>
      <trkpt lat="43.12157" lon="-0.39122">
        <ele>458.4</ele>
        <time>2022-09-08T10:25:42Z</time>
      </trkpt>
      <trkpt lat="43.12131" lon="-0.39129">
        <ele>458.2</ele>
        <time>2022-09-08T10:25:49Z</time>
      </trkpt>
      <trkpt lat="43.12104" lon="-0.39135">
        <ele>458.2</ele>
        <time>2022-09-08T10:25:57Z</time>
      </trkpt>
      <trkpt lat="43.1208" lon="-0.39135">
        <ele>458</ele>
        <time>2022-09-08T10:26:03Z</time>
      </trkpt>
      <trkpt lat="43.12052" lon="-0.39138">
        <ele>457.8</ele>
        <time>2022-09-08T10:26:09Z</time>
      </trkpt>
      <trkpt lat="43.12043" lon="-0.39143">
        <ele>457.4</ele>
        <time>2022-09-08T10:26:11Z</time>
      </trkpt>
      <trkpt lat="43.12035" lon="-0.39151">
        <ele>457.2</ele>
        <time>2022-09-08T10:26:13Z</time>
      </trkpt>
      <trkpt lat="43.12027" lon="-0.39167">
        <ele>457.4</ele>
        <time>2022-09-08T10:26:16Z</time>
      </trkpt>
      <trkpt lat="43.12023" lon="-0.39179">
        <ele>457.4</ele>
        <time>2022-09-08T10:26:18Z</time>
      </trkpt>
      <trkpt lat="43.12015" lon="-0.39208">
        <ele>457.6</ele>
        <time>2022-09-08T10:26:23Z</time>
      </trkpt>
      <trkpt lat="43.12013" lon="-0.3922">
        <ele>457.6</ele>
        <time>2022-09-08T10:26:25Z</time>
      </trkpt>
      <trkpt lat="43.12013" lon="-0.39243">
        <ele>458.2</ele>
        <time>2022-09-08T10:26:29Z</time>
      </trkpt>
      <trkpt lat="43.12004" lon="-0.39267">
        <ele>459.2</ele>
        <time>2022-09-08T10:26:34Z</time>
      </trkpt>
      <trkpt lat="43.11986" lon="-0.3928">
        <ele>459.8</ele>
        <time>2022-09-08T10:26:39Z</time>
      </trkpt>
      <trkpt lat="43.11962" lon="-0.39278">
        <ele>460.2</ele>
        <time>2022-09-08T10:26:45Z</time>
      </trkpt>
      <trkpt lat="43.11955" lon="-0.39277">
        <ele>460.2</ele>
        <time>2022-09-08T10:26:47Z</time>
      </trkpt>
      <trkpt lat="43.11929" lon="-0.39266">
        <ele>461.2</ele>
        <time>2022-09-08T10:26:54Z</time>
      </trkpt>
      <trkpt lat="43.11918" lon="-0.39259">
        <ele>461.4</ele>
        <time>2022-09-08T10:26:57Z</time>
      </trkpt>
      <trkpt lat="43.11901" lon="-0.39246">
        <ele>461.4</ele>
        <time>2022-09-08T10:27:02Z</time>
      </trkpt>
      <trkpt lat="43.11893" lon="-0.39242">
        <ele>461.6</ele>
        <time>2022-09-08T10:27:04Z</time>
      </trkpt>
      <trkpt lat="43.11881" lon="-0.39239">
        <ele>461.6</ele>
        <time>2022-09-08T10:27:07Z</time>
      </trkpt>
      <trkpt lat="43.1186" lon="-0.39243">
        <ele>462</ele>
        <time>2022-09-08T10:27:12Z</time>
      </trkpt>
      <trkpt lat="43.11852" lon="-0.39246">
        <ele>462.4</ele>
        <time>2022-09-08T10:27:14Z</time>
      </trkpt>
      <trkpt lat="43.11821" lon="-0.39255">
        <ele>463.4</ele>
        <time>2022-09-08T10:27:22Z</time>
      </trkpt>
      <trkpt lat="43.1179" lon="-0.39253">
        <ele>464</ele>
        <time>2022-09-08T10:27:30Z</time>
      </trkpt>
      <trkpt lat="43.11764" lon="-0.39245">
        <ele>464.6</ele>
        <time>2022-09-08T10:27:37Z</time>
      </trkpt>
      <trkpt lat="43.1176" lon="-0.39243">
        <ele>464.8</ele>
        <time>2022-09-08T10:27:38Z</time>
      </trkpt>
      <trkpt lat="43.11737" lon="-0.39227">
        <ele>465.4</ele>
        <time>2022-09-08T10:27:45Z</time>
      </trkpt>
      <trkpt lat="43.11726" lon="-0.39213">
        <ele>465.8</ele>
        <time>2022-09-08T10:27:49Z</time>
      </trkpt>
      <trkpt lat="43.11716" lon="-0.39203">
        <ele>465.8</ele>
        <time>2022-09-08T10:27:52Z</time>
      </trkpt>
      <trkpt lat="43.11713" lon="-0.392">
        <ele>465.8</ele>
        <time>2022-09-08T10:27:53Z</time>
      </trkpt>
      <trkpt lat="43.11691" lon="-0.39193">
        <ele>466.4</ele>
        <time>2022-09-08T10:27:59Z</time>
      </trkpt>
      <trkpt lat="43.11675" lon="-0.392">
        <ele>466.8</ele>
        <time>2022-09-08T10:28:04Z</time>
      </trkpt>
      <trkpt lat="43.11658" lon="-0.39217">
        <ele>467</ele>
        <time>2022-09-08T10:28:09Z</time>
      </trkpt>
      <trkpt lat="43.11637" lon="-0.39241">
        <ele>467.8</ele>
        <time>2022-09-08T10:28:16Z</time>
      </trkpt>
      <trkpt lat="43.11634" lon="-0.39244">
        <ele>468</ele>
        <time>2022-09-08T10:28:17Z</time>
      </trkpt>
      <trkpt lat="43.11615" lon="-0.39248">
        <ele>468.4</ele>
        <time>2022-09-08T10:28:22Z</time>
      </trkpt>
      <trkpt lat="43.11599" lon="-0.3924">
        <ele>468.8</ele>
        <time>2022-09-08T10:28:27Z</time>
      </trkpt>
      <trkpt lat="43.11596" lon="-0.39238">
        <ele>468.8</ele>
        <time>2022-09-08T10:28:28Z</time>
      </trkpt>
      <trkpt lat="43.11583" lon="-0.39226">
        <ele>469.4</ele>
        <time>2022-09-08T10:28:35Z</time>
      </trkpt>
      <trkpt lat="43.11568" lon="-0.39216">
        <ele>469.6</ele>
        <time>2022-09-08T10:28:41Z</time>
      </trkpt>
      <trkpt lat="43.11555" lon="-0.39209">
        <ele>470</ele>
        <time>2022-09-08T10:28:46Z</time>
      </trkpt>
      <trkpt lat="43.11543" lon="-0.39205">
        <ele>470.4</ele>
        <time>2022-09-08T10:28:50Z</time>
      </trkpt>
      <trkpt lat="43.11517" lon="-0.39199">
        <ele>471</ele>
        <time>2022-09-08T10:28:58Z</time>
      </trkpt>
      <trkpt lat="43.11487" lon="-0.39199">
        <ele>471.6</ele>
        <time>2022-09-08T10:29:06Z</time>
      </trkpt>
      <trkpt lat="43.11465" lon="-0.39212">
        <ele>472</ele>
        <time>2022-09-08T10:29:12Z</time>
      </trkpt>
      <trkpt lat="43.11461" lon="-0.39216">
        <ele>471.8</ele>
        <time>2022-09-08T10:29:13Z</time>
      </trkpt>
      <trkpt lat="43.11455" lon="-0.39231">
        <ele>471.6</ele>
        <time>2022-09-08T10:29:16Z</time>
      </trkpt>
      <trkpt lat="43.11454" lon="-0.39249">
        <ele>471.6</ele>
        <time>2022-09-08T10:29:19Z</time>
      </trkpt>
      <trkpt lat="43.11453" lon="-0.39255">
        <ele>471.8</ele>
        <time>2022-09-08T10:29:20Z</time>
      </trkpt>
      <trkpt lat="43.11452" lon="-0.39261">
        <ele>471.6</ele>
        <time>2022-09-08T10:29:21Z</time>
      </trkpt>
      <trkpt lat="43.11448" lon="-0.39279">
        <ele>471.4</ele>
        <time>2022-09-08T10:29:24Z</time>
      </trkpt>
      <trkpt lat="43.11443" lon="-0.39289">
        <ele>471.2</ele>
        <time>2022-09-08T10:29:26Z</time>
      </trkpt>
      <trkpt lat="43.11428" lon="-0.39305">
        <ele>471.2</ele>
        <time>2022-09-08T10:29:30Z</time>
      </trkpt>
      <trkpt lat="43.11423" lon="-0.39309">
        <ele>471</ele>
        <time>2022-09-08T10:29:31Z</time>
      </trkpt>
      <trkpt lat="43.11398" lon="-0.39333">
        <ele>470.4</ele>
        <time>2022-09-08T10:29:37Z</time>
      </trkpt>
      <trkpt lat="43.11392" lon="-0.39341">
        <ele>470</ele>
        <time>2022-09-08T10:29:39Z</time>
      </trkpt>
      <trkpt lat="43.11386" lon="-0.39349">
        <ele>469.8</ele>
        <time>2022-09-08T10:29:42Z</time>
      </trkpt>
      <trkpt lat="43.11384" lon="-0.3935">
        <ele>469.8</ele>
        <time>2022-09-08T10:29:43Z</time>
      </trkpt>
      <trkpt lat="43.11381" lon="-0.39349">
        <ele>470.2</ele>
        <time>2022-09-08T10:29:46Z</time>
      </trkpt>
      <trkpt lat="43.11381" lon="-0.39357">
        <ele>470</ele>
        <time>2022-09-08T10:33:53Z</time>
      </trkpt>
      <trkpt lat="43.11381" lon="-0.39361">
        <ele>469.8</ele>
        <time>2022-09-08T10:33:54Z</time>
      </trkpt>
      <trkpt lat="43.11381" lon="-0.39378">
        <ele>469.4</ele>
        <time>2022-09-08T10:33:57Z</time>
      </trkpt>
      <trkpt lat="43.11382" lon="-0.3939">
        <ele>469.2</ele>
        <time>2022-09-08T10:33:59Z</time>
      </trkpt>
      <trkpt lat="43.11385" lon="-0.39402">
        <ele>469</ele>
        <time>2022-09-08T10:34:01Z</time>
      </trkpt>
      <trkpt lat="43.11391" lon="-0.39418">
        <ele>469</ele>
        <time>2022-09-08T10:34:04Z</time>
      </trkpt>
      <trkpt lat="43.11392" lon="-0.39424">
        <ele>469</ele>
        <time>2022-09-08T10:34:05Z</time>
      </trkpt>
      <trkpt lat="43.11393" lon="-0.3943">
        <ele>469</ele>
        <time>2022-09-08T10:34:06Z</time>
      </trkpt>
      <trkpt lat="43.11392" lon="-0.39453">
        <ele>468.6</ele>
        <time>2022-09-08T10:34:10Z</time>
      </trkpt>
      <trkpt lat="43.11391" lon="-0.39481">
        <ele>468</ele>
        <time>2022-09-08T10:34:14Z</time>
      </trkpt>
      <trkpt lat="43.11392" lon="-0.39488">
        <ele>467.8</ele>
        <time>2022-09-08T10:34:15Z</time>
      </trkpt>
      <trkpt lat="43.11403" lon="-0.39512">
        <ele>467.6</ele>
        <time>2022-09-08T10:34:19Z</time>
      </trkpt>
      <trkpt lat="43.11421" lon="-0.39525">
        <ele>467.4</ele>
        <time>2022-09-08T10:34:23Z</time>
      </trkpt>
      <trkpt lat="43.11432" lon="-0.39542">
        <ele>467</ele>
        <time>2022-09-08T10:34:26Z</time>
      </trkpt>
      <trkpt lat="43.11435" lon="-0.39556">
        <ele>466.6</ele>
        <time>2022-09-08T10:34:28Z</time>
      </trkpt>
      <trkpt lat="43.11436" lon="-0.39563">
        <ele>466.4</ele>
        <time>2022-09-08T10:34:29Z</time>
      </trkpt>
      <trkpt lat="43.11437" lon="-0.39571">
        <ele>466.2</ele>
        <time>2022-09-08T10:34:30Z</time>
      </trkpt>
      <trkpt lat="43.11434" lon="-0.39609">
        <ele>465.4</ele>
        <time>2022-09-08T10:34:35Z</time>
      </trkpt>
      <trkpt lat="43.11422" lon="-0.39665">
        <ele>464.6</ele>
        <time>2022-09-08T10:34:42Z</time>
      </trkpt>
      <trkpt lat="43.11421" lon="-0.39674">
        <ele>464.4</ele>
        <time>2022-09-08T10:34:43Z</time>
      </trkpt>
      <trkpt lat="43.1142" lon="-0.39683">
        <ele>464.2</ele>
        <time>2022-09-08T10:34:44Z</time>
      </trkpt>
      <trkpt lat="43.11425" lon="-0.397">
        <ele>463.8</ele>
        <time>2022-09-08T10:34:46Z</time>
      </trkpt>
      <trkpt lat="43.11439" lon="-0.39712">
        <ele>463.4</ele>
        <time>2022-09-08T10:34:49Z</time>
      </trkpt>
      <trkpt lat="43.11445" lon="-0.39714">
        <ele>463.4</ele>
        <time>2022-09-08T10:34:50Z</time>
      </trkpt>
      <trkpt lat="43.11463" lon="-0.39722">
        <ele>463.2</ele>
        <time>2022-09-08T10:34:53Z</time>
      </trkpt>
      <trkpt lat="43.11468" lon="-0.39726">
        <ele>463.2</ele>
        <time>2022-09-08T10:34:54Z</time>
      </trkpt>
      <trkpt lat="43.11473" lon="-0.3973">
        <ele>463.2</ele>
        <time>2022-09-08T10:34:55Z</time>
      </trkpt>
      <trkpt lat="43.11485" lon="-0.39754">
        <ele>463.4</ele>
        <time>2022-09-08T10:34:59Z</time>
      </trkpt>
      <trkpt lat="43.11502" lon="-0.39803">
        <ele>462</ele>
        <time>2022-09-08T10:35:06Z</time>
      </trkpt>
      <trkpt lat="43.11505" lon="-0.39811">
        <ele>461.8</ele>
        <time>2022-09-08T10:35:07Z</time>
      </trkpt>
      <trkpt lat="43.11515" lon="-0.39842">
        <ele>460.8</ele>
        <time>2022-09-08T10:35:11Z</time>
      </trkpt>
      <trkpt lat="43.11527" lon="-0.39881">
        <ele>460.6</ele>
        <time>2022-09-08T10:35:16Z</time>
      </trkpt>
      <trkpt lat="43.11535" lon="-0.39905">
        <ele>459.8</ele>
        <time>2022-09-08T10:35:19Z</time>
      </trkpt>
      <trkpt lat="43.11549" lon="-0.39943">
        <ele>459.2</ele>
        <time>2022-09-08T10:35:24Z</time>
      </trkpt>
      <trkpt lat="43.11566" lon="-0.39973">
        <ele>458.8</ele>
        <time>2022-09-08T10:35:28Z</time>
      </trkpt>
      <trkpt lat="43.11575" lon="-0.39988">
        <ele>458.4</ele>
        <time>2022-09-08T10:35:30Z</time>
      </trkpt>
      <trkpt lat="43.11597" lon="-0.40026">
        <ele>457.8</ele>
        <time>2022-09-08T10:35:35Z</time>
      </trkpt>
      <trkpt lat="43.11601" lon="-0.40034">
        <ele>457.6</ele>
        <time>2022-09-08T10:35:36Z</time>
      </trkpt>
      <trkpt lat="43.11604" lon="-0.40043">
        <ele>457.4</ele>
        <time>2022-09-08T10:35:37Z</time>
      </trkpt>
      <trkpt lat="43.11615" lon="-0.4008">
        <ele>456.8</ele>
        <time>2022-09-08T10:35:41Z</time>
      </trkpt>
      <trkpt lat="43.11616" lon="-0.40099">
        <ele>456.6</ele>
        <time>2022-09-08T10:35:43Z</time>
      </trkpt>
      <trkpt lat="43.11612" lon="-0.40129">
        <ele>456</ele>
        <time>2022-09-08T10:35:46Z</time>
      </trkpt>
      <trkpt lat="43.11609" lon="-0.40138">
        <ele>455.6</ele>
        <time>2022-09-08T10:35:47Z</time>
      </trkpt>
      <trkpt lat="43.11607" lon="-0.40147">
        <ele>455.4</ele>
        <time>2022-09-08T10:35:48Z</time>
      </trkpt>
      <trkpt lat="43.11602" lon="-0.40181">
        <ele>455.4</ele>
        <time>2022-09-08T10:35:52Z</time>
      </trkpt>
      <trkpt lat="43.11593" lon="-0.40225">
        <ele>455.8</ele>
        <time>2022-09-08T10:35:58Z</time>
      </trkpt>
      <trkpt lat="43.11591" lon="-0.40232">
        <ele>455.8</ele>
        <time>2022-09-08T10:35:59Z</time>
      </trkpt>
      <trkpt lat="43.11579" lon="-0.4026">
        <ele>456</ele>
        <time>2022-09-08T10:36:03Z</time>
      </trkpt>
      <trkpt lat="43.11564" lon="-0.40303">
        <ele>455.4</ele>
        <time>2022-09-08T10:36:09Z</time>
      </trkpt>
      <trkpt lat="43.11565" lon="-0.40337">
        <ele>455</ele>
        <time>2022-09-08T10:36:13Z</time>
      </trkpt>
      <trkpt lat="43.11577" lon="-0.40363">
        <ele>454.8</ele>
        <time>2022-09-08T10:36:17Z</time>
      </trkpt>
      <trkpt lat="43.11582" lon="-0.40369">
        <ele>454.6</ele>
        <time>2022-09-08T10:36:18Z</time>
      </trkpt>
      <trkpt lat="43.11598" lon="-0.40391">
        <ele>454.8</ele>
        <time>2022-09-08T10:36:22Z</time>
      </trkpt>
      <trkpt lat="43.11607" lon="-0.40401">
        <ele>454.8</ele>
        <time>2022-09-08T10:36:24Z</time>
      </trkpt>
      <trkpt lat="43.11624" lon="-0.40421">
        <ele>454.4</ele>
        <time>2022-09-08T10:36:28Z</time>
      </trkpt>
      <trkpt lat="43.1164" lon="-0.40443">
        <ele>454.4</ele>
        <time>2022-09-08T10:36:32Z</time>
      </trkpt>
      <trkpt lat="43.11643" lon="-0.40448">
        <ele>454.6</ele>
        <time>2022-09-08T10:36:33Z</time>
      </trkpt>
      <trkpt lat="43.11646" lon="-0.40453">
        <ele>454.6</ele>
        <time>2022-09-08T10:36:34Z</time>
      </trkpt>
      <trkpt lat="43.1165" lon="-0.40462">
        <ele>454.2</ele>
        <time>2022-09-08T10:36:36Z</time>
      </trkpt>
      <trkpt lat="43.11648" lon="-0.40487">
        <ele>453.4</ele>
        <time>2022-09-08T10:36:39Z</time>
      </trkpt>
      <trkpt lat="43.11647" lon="-0.40495">
        <ele>453.4</ele>
        <time>2022-09-08T10:36:40Z</time>
      </trkpt>
      <trkpt lat="43.11648" lon="-0.4052">
        <ele>453.4</ele>
        <time>2022-09-08T10:36:43Z</time>
      </trkpt>
      <trkpt lat="43.11649" lon="-0.40527">
        <ele>453.4</ele>
        <time>2022-09-08T10:36:44Z</time>
      </trkpt>
      <trkpt lat="43.11658" lon="-0.40563">
        <ele>453.6</ele>
        <time>2022-09-08T10:36:49Z</time>
      </trkpt>
      <trkpt lat="43.11657" lon="-0.40571">
        <ele>453.6</ele>
        <time>2022-09-08T10:36:50Z</time>
      </trkpt>
      <trkpt lat="43.11648" lon="-0.406">
        <ele>453.4</ele>
        <time>2022-09-08T10:36:54Z</time>
      </trkpt>
      <trkpt lat="43.11636" lon="-0.40618">
        <ele>453.2</ele>
        <time>2022-09-08T10:36:57Z</time>
      </trkpt>
      <trkpt lat="43.11629" lon="-0.40629">
        <ele>453</ele>
        <time>2022-09-08T10:36:59Z</time>
      </trkpt>
      <trkpt lat="43.11602" lon="-0.4066">
        <ele>452.4</ele>
        <time>2022-09-08T10:37:06Z</time>
      </trkpt>
      <trkpt lat="43.11588" lon="-0.40678">
        <ele>452.4</ele>
        <time>2022-09-08T10:37:10Z</time>
      </trkpt>
      <trkpt lat="43.11582" lon="-0.40687">
        <ele>452.4</ele>
        <time>2022-09-08T10:37:12Z</time>
      </trkpt>
      <trkpt lat="43.11575" lon="-0.40697">
        <ele>452.2</ele>
        <time>2022-09-08T10:37:14Z</time>
      </trkpt>
      <trkpt lat="43.11563" lon="-0.40723">
        <ele>452</ele>
        <time>2022-09-08T10:37:19Z</time>
      </trkpt>
      <trkpt lat="43.11561" lon="-0.40728">
        <ele>452</ele>
        <time>2022-09-08T10:37:20Z</time>
      </trkpt>
      <trkpt lat="43.1154" lon="-0.40763">
        <ele>451.8</ele>
        <time>2022-09-08T10:37:27Z</time>
      </trkpt>
      <trkpt lat="43.11526" lon="-0.40778">
        <ele>451.8</ele>
        <time>2022-09-08T10:37:31Z</time>
      </trkpt>
      <trkpt lat="43.11514" lon="-0.40789">
        <ele>451.6</ele>
        <time>2022-09-08T10:37:34Z</time>
      </trkpt>
      <trkpt lat="43.11499" lon="-0.40806">
        <ele>451.4</ele>
        <time>2022-09-08T10:37:38Z</time>
      </trkpt>
      <trkpt lat="43.11492" lon="-0.40815">
        <ele>451.4</ele>
        <time>2022-09-08T10:37:40Z</time>
      </trkpt>
      <trkpt lat="43.11471" lon="-0.40849">
        <ele>451</ele>
        <time>2022-09-08T10:37:47Z</time>
      </trkpt>
      <trkpt lat="43.11454" lon="-0.40883">
        <ele>450.8</ele>
        <time>2022-09-08T10:37:54Z</time>
      </trkpt>
      <trkpt lat="43.11448" lon="-0.40892">
        <ele>450.8</ele>
        <time>2022-09-08T10:37:56Z</time>
      </trkpt>
      <trkpt lat="43.11436" lon="-0.40903">
        <ele>450.8</ele>
        <time>2022-09-08T10:37:59Z</time>
      </trkpt>
      <trkpt lat="43.11431" lon="-0.40907">
        <ele>450.8</ele>
        <time>2022-09-08T10:38:00Z</time>
      </trkpt>
      <trkpt lat="43.11408" lon="-0.40919">
        <ele>450.6</ele>
        <time>2022-09-08T10:38:05Z</time>
      </trkpt>
      <trkpt lat="43.11403" lon="-0.4092">
        <ele>450.6</ele>
        <time>2022-09-08T10:38:06Z</time>
      </trkpt>
      <trkpt lat="43.11394" lon="-0.40922">
        <ele>450.6</ele>
        <time>2022-09-08T10:38:08Z</time>
      </trkpt>
      <trkpt lat="43.1138" lon="-0.40926">
        <ele>450.4</ele>
        <time>2022-09-08T10:38:11Z</time>
      </trkpt>
      <trkpt lat="43.11371" lon="-0.40928">
        <ele>450.2</ele>
        <time>2022-09-08T10:38:13Z</time>
      </trkpt>
      <trkpt lat="43.11361" lon="-0.40931">
        <ele>450.2</ele>
        <time>2022-09-08T10:38:15Z</time>
      </trkpt>
      <trkpt lat="43.11343" lon="-0.40942">
        <ele>450.4</ele>
        <time>2022-09-08T10:38:19Z</time>
      </trkpt>
      <trkpt lat="43.11314" lon="-0.40964">
        <ele>449.8</ele>
        <time>2022-09-08T10:38:26Z</time>
      </trkpt>
      <trkpt lat="43.11301" lon="-0.40982">
        <ele>449.6</ele>
        <time>2022-09-08T10:38:30Z</time>
      </trkpt>
      <trkpt lat="43.11299" lon="-0.40988">
        <ele>449.6</ele>
        <time>2022-09-08T10:38:31Z</time>
      </trkpt>
      <trkpt lat="43.11295" lon="-0.41013">
        <ele>449.2</ele>
        <time>2022-09-08T10:38:35Z</time>
      </trkpt>
      <trkpt lat="43.11299" lon="-0.41026">
        <ele>448.8</ele>
        <time>2022-09-08T10:38:37Z</time>
      </trkpt>
      <trkpt lat="43.11303" lon="-0.41039">
        <ele>448.6</ele>
        <time>2022-09-08T10:38:39Z</time>
      </trkpt>
      <trkpt lat="43.11321" lon="-0.41095">
        <ele>448.4</ele>
        <time>2022-09-08T10:38:48Z</time>
      </trkpt>
      <trkpt lat="43.11326" lon="-0.41111">
        <ele>448.6</ele>
        <time>2022-09-08T10:38:53Z</time>
      </trkpt>
      <trkpt lat="43.1133" lon="-0.41123">
        <ele>449.2</ele>
        <time>2022-09-08T10:38:58Z</time>
      </trkpt>
      <trkpt lat="43.11328" lon="-0.41138">
        <ele>449.6</ele>
        <time>2022-09-08T10:39:03Z</time>
      </trkpt>
      <trkpt lat="43.1133" lon="-0.41152">
        <ele>449.8</ele>
        <time>2022-09-08T10:39:09Z</time>
      </trkpt>
      <trkpt lat="43.11335" lon="-0.41171">
        <ele>449</ele>
        <time>2022-09-08T10:39:15Z</time>
      </trkpt>
      <trkpt lat="43.11342" lon="-0.41188">
        <ele>447.8</ele>
        <time>2022-09-08T10:39:18Z</time>
      </trkpt>
      <trkpt lat="43.11346" lon="-0.41195">
        <ele>447.4</ele>
        <time>2022-09-08T10:39:19Z</time>
      </trkpt>
      <trkpt lat="43.11353" lon="-0.41209">
        <ele>446.4</ele>
        <time>2022-09-08T10:39:21Z</time>
      </trkpt>
      <trkpt lat="43.11362" lon="-0.41223">
        <ele>444.4</ele>
        <time>2022-09-08T10:39:23Z</time>
      </trkpt>
      <trkpt lat="43.11366" lon="-0.41229">
        <ele>443.6</ele>
        <time>2022-09-08T10:39:24Z</time>
      </trkpt>
      <trkpt lat="43.11371" lon="-0.41236">
        <ele>443</ele>
        <time>2022-09-08T10:39:25Z</time>
      </trkpt>
      <trkpt lat="43.1138" lon="-0.41249">
        <ele>441.4</ele>
        <time>2022-09-08T10:39:27Z</time>
      </trkpt>
      <trkpt lat="43.11384" lon="-0.41255">
        <ele>440.8</ele>
        <time>2022-09-08T10:39:28Z</time>
      </trkpt>
      <trkpt lat="43.11388" lon="-0.41262">
        <ele>440.2</ele>
        <time>2022-09-08T10:39:29Z</time>
      </trkpt>
      <trkpt lat="43.11393" lon="-0.41274">
        <ele>439.4</ele>
        <time>2022-09-08T10:39:31Z</time>
      </trkpt>
      <trkpt lat="43.11395" lon="-0.4128">
        <ele>439</ele>
        <time>2022-09-08T10:39:32Z</time>
      </trkpt>
      <trkpt lat="43.11396" lon="-0.41286">
        <ele>438.6</ele>
        <time>2022-09-08T10:39:33Z</time>
      </trkpt>
      <trkpt lat="43.11394" lon="-0.41304">
        <ele>438</ele>
        <time>2022-09-08T10:39:36Z</time>
      </trkpt>
      <trkpt lat="43.11393" lon="-0.4131">
        <ele>437.6</ele>
        <time>2022-09-08T10:39:37Z</time>
      </trkpt>
      <trkpt lat="43.11394" lon="-0.41325">
        <ele>436.8</ele>
        <time>2022-09-08T10:39:40Z</time>
      </trkpt>
      <trkpt lat="43.11395" lon="-0.41329">
        <ele>436.8</ele>
        <time>2022-09-08T10:39:41Z</time>
      </trkpt>
      <trkpt lat="43.11398" lon="-0.41337">
        <ele>436.4</ele>
        <time>2022-09-08T10:39:43Z</time>
      </trkpt>
      <trkpt lat="43.11407" lon="-0.41359">
        <ele>435.6</ele>
        <time>2022-09-08T10:39:47Z</time>
      </trkpt>
      <trkpt lat="43.11425" lon="-0.41397">
        <ele>435</ele>
        <time>2022-09-08T10:39:53Z</time>
      </trkpt>
      <trkpt lat="43.11432" lon="-0.41409">
        <ele>434.8</ele>
        <time>2022-09-08T10:39:55Z</time>
      </trkpt>
      <trkpt lat="43.1144" lon="-0.4142">
        <ele>434.6</ele>
        <time>2022-09-08T10:39:57Z</time>
      </trkpt>
      <trkpt lat="43.11448" lon="-0.4143">
        <ele>434.4</ele>
        <time>2022-09-08T10:39:59Z</time>
      </trkpt>
      <trkpt lat="43.11472" lon="-0.41454">
        <ele>433.6</ele>
        <time>2022-09-08T10:40:04Z</time>
      </trkpt>
      <trkpt lat="43.11477" lon="-0.41458">
        <ele>433.2</ele>
        <time>2022-09-08T10:40:05Z</time>
      </trkpt>
      <trkpt lat="43.11491" lon="-0.41467">
        <ele>432.4</ele>
        <time>2022-09-08T10:40:08Z</time>
      </trkpt>
      <trkpt lat="43.11502" lon="-0.41471">
        <ele>431.8</ele>
        <time>2022-09-08T10:40:10Z</time>
      </trkpt>
      <trkpt lat="43.11508" lon="-0.41473">
        <ele>431</ele>
        <time>2022-09-08T10:40:11Z</time>
      </trkpt>
      <trkpt lat="43.11527" lon="-0.41481">
        <ele>429.6</ele>
        <time>2022-09-08T10:40:14Z</time>
      </trkpt>
      <trkpt lat="43.11543" lon="-0.41489">
        <ele>429</ele>
        <time>2022-09-08T10:40:16Z</time>
      </trkpt>
      <trkpt lat="43.11558" lon="-0.41499">
        <ele>428.4</ele>
        <time>2022-09-08T10:40:18Z</time>
      </trkpt>
      <trkpt lat="43.11572" lon="-0.41511">
        <ele>428.2</ele>
        <time>2022-09-08T10:40:20Z</time>
      </trkpt>
      <trkpt lat="43.11608" lon="-0.41546">
        <ele>427.4</ele>
        <time>2022-09-08T10:40:26Z</time>
      </trkpt>
      <trkpt lat="43.11619" lon="-0.41557">
        <ele>427.4</ele>
        <time>2022-09-08T10:40:28Z</time>
      </trkpt>
      <trkpt lat="43.1164" lon="-0.41579">
        <ele>427</ele>
        <time>2022-09-08T10:40:32Z</time>
      </trkpt>
      <trkpt lat="43.11645" lon="-0.41585">
        <ele>427</ele>
        <time>2022-09-08T10:40:33Z</time>
      </trkpt>
      <trkpt lat="43.11655" lon="-0.41609">
        <ele>426.8</ele>
        <time>2022-09-08T10:40:36Z</time>
      </trkpt>
      <trkpt lat="43.11658" lon="-0.41618">
        <ele>427</ele>
        <time>2022-09-08T10:40:37Z</time>
      </trkpt>
      <trkpt lat="43.11672" lon="-0.41645">
        <ele>427.6</ele>
        <time>2022-09-08T10:40:41Z</time>
      </trkpt>
      <trkpt lat="43.11694" lon="-0.41673">
        <ele>428.6</ele>
        <time>2022-09-08T10:40:47Z</time>
      </trkpt>
      <trkpt lat="43.11698" lon="-0.41676">
        <ele>428.8</ele>
        <time>2022-09-08T10:40:48Z</time>
      </trkpt>
      <trkpt lat="43.11717" lon="-0.41687">
        <ele>429.2</ele>
        <time>2022-09-08T10:40:53Z</time>
      </trkpt>
      <trkpt lat="43.11729" lon="-0.41692">
        <ele>429.6</ele>
        <time>2022-09-08T10:40:56Z</time>
      </trkpt>
      <trkpt lat="43.11748" lon="-0.41699">
        <ele>430.4</ele>
        <time>2022-09-08T10:41:01Z</time>
      </trkpt>
      <trkpt lat="43.11763" lon="-0.41702">
        <ele>430.6</ele>
        <time>2022-09-08T10:41:05Z</time>
      </trkpt>
      <trkpt lat="43.11767" lon="-0.41702">
        <ele>430.8</ele>
        <time>2022-09-08T10:41:06Z</time>
      </trkpt>
      <trkpt lat="43.11788" lon="-0.41704">
        <ele>431</ele>
        <time>2022-09-08T10:41:12Z</time>
      </trkpt>
      <trkpt lat="43.11798" lon="-0.41707">
        <ele>431.2</ele>
        <time>2022-09-08T10:41:14Z</time>
      </trkpt>
      <trkpt lat="43.11811" lon="-0.41716">
        <ele>431.2</ele>
        <time>2022-09-08T10:41:17Z</time>
      </trkpt>
      <trkpt lat="43.11815" lon="-0.41719">
        <ele>431.2</ele>
        <time>2022-09-08T10:41:18Z</time>
      </trkpt>
      <trkpt lat="43.11832" lon="-0.41732">
        <ele>431.6</ele>
        <time>2022-09-08T10:41:22Z</time>
      </trkpt>
      <trkpt lat="43.11846" lon="-0.41745">
        <ele>432.4</ele>
        <time>2022-09-08T10:41:26Z</time>
      </trkpt>
      <trkpt lat="43.11852" lon="-0.41751">
        <ele>432.8</ele>
        <time>2022-09-08T10:41:28Z</time>
      </trkpt>
      <trkpt lat="43.11861" lon="-0.41763">
        <ele>432.8</ele>
        <time>2022-09-08T10:41:31Z</time>
      </trkpt>
      <trkpt lat="43.11873" lon="-0.41787">
        <ele>433.2</ele>
        <time>2022-09-08T10:41:36Z</time>
      </trkpt>
      <trkpt lat="43.11875" lon="-0.41792">
        <ele>433.4</ele>
        <time>2022-09-08T10:41:37Z</time>
      </trkpt>
      <trkpt lat="43.11886" lon="-0.41829">
        <ele>433</ele>
        <time>2022-09-08T10:41:44Z</time>
      </trkpt>
      <trkpt lat="43.11891" lon="-0.41841">
        <ele>432.8</ele>
        <time>2022-09-08T10:41:46Z</time>
      </trkpt>
      <trkpt lat="43.11902" lon="-0.41859">
        <ele>431.8</ele>
        <time>2022-09-08T10:41:49Z</time>
      </trkpt>
      <trkpt lat="43.11906" lon="-0.41866">
        <ele>431.4</ele>
        <time>2022-09-08T10:41:50Z</time>
      </trkpt>
      <trkpt lat="43.11911" lon="-0.41872">
        <ele>431.2</ele>
        <time>2022-09-08T10:41:51Z</time>
      </trkpt>
      <trkpt lat="43.11922" lon="-0.41883">
        <ele>430.4</ele>
        <time>2022-09-08T10:41:53Z</time>
      </trkpt>
      <trkpt lat="43.11929" lon="-0.41887">
        <ele>430</ele>
        <time>2022-09-08T10:41:54Z</time>
      </trkpt>
      <trkpt lat="43.11943" lon="-0.41893">
        <ele>429</ele>
        <time>2022-09-08T10:41:56Z</time>
      </trkpt>
      <trkpt lat="43.1195" lon="-0.41896">
        <ele>428.2</ele>
        <time>2022-09-08T10:41:57Z</time>
      </trkpt>
      <trkpt lat="43.11957" lon="-0.419">
        <ele>427.4</ele>
        <time>2022-09-08T10:41:58Z</time>
      </trkpt>
      <trkpt lat="43.11973" lon="-0.41911">
        <ele>425.4</ele>
        <time>2022-09-08T10:42:00Z</time>
      </trkpt>
      <trkpt lat="43.1198" lon="-0.41919">
        <ele>424.4</ele>
        <time>2022-09-08T10:42:01Z</time>
      </trkpt>
      <trkpt lat="43.11986" lon="-0.41927">
        <ele>423.2</ele>
        <time>2022-09-08T10:42:02Z</time>
      </trkpt>
      <trkpt lat="43.11993" lon="-0.41944">
        <ele>421.4</ele>
        <time>2022-09-08T10:42:04Z</time>
      </trkpt>
      <trkpt lat="43.11996" lon="-0.41954">
        <ele>420.6</ele>
        <time>2022-09-08T10:42:05Z</time>
      </trkpt>
      <trkpt lat="43.11999" lon="-0.41963">
        <ele>419.8</ele>
        <time>2022-09-08T10:42:06Z</time>
      </trkpt>
      <trkpt lat="43.12002" lon="-0.41973">
        <ele>418.8</ele>
        <time>2022-09-08T10:42:07Z</time>
      </trkpt>
      <trkpt lat="43.12006" lon="-0.41983">
        <ele>418</ele>
        <time>2022-09-08T10:42:08Z</time>
      </trkpt>
      <trkpt lat="43.12011" lon="-0.41993">
        <ele>417.2</ele>
        <time>2022-09-08T10:42:09Z</time>
      </trkpt>
      <trkpt lat="43.12016" lon="-0.42002">
        <ele>416</ele>
        <time>2022-09-08T10:42:10Z</time>
      </trkpt>
      <trkpt lat="43.12021" lon="-0.42012">
        <ele>414</ele>
        <time>2022-09-08T10:42:11Z</time>
      </trkpt>
      <trkpt lat="43.12027" lon="-0.42021">
        <ele>412.8</ele>
        <time>2022-09-08T10:42:12Z</time>
      </trkpt>
      <trkpt lat="43.12032" lon="-0.42031">
        <ele>411.8</ele>
        <time>2022-09-08T10:42:13Z</time>
      </trkpt>
      <trkpt lat="43.12037" lon="-0.42041">
        <ele>410.8</ele>
        <time>2022-09-08T10:42:14Z</time>
      </trkpt>
      <trkpt lat="43.12044" lon="-0.42063">
        <ele>408.8</ele>
        <time>2022-09-08T10:42:16Z</time>
      </trkpt>
      <trkpt lat="43.12048" lon="-0.42073">
        <ele>407.8</ele>
        <time>2022-09-08T10:42:17Z</time>
      </trkpt>
      <trkpt lat="43.12053" lon="-0.42085">
        <ele>407</ele>
        <time>2022-09-08T10:42:18Z</time>
      </trkpt>
      <trkpt lat="43.12058" lon="-0.42097">
        <ele>406.4</ele>
        <time>2022-09-08T10:42:19Z</time>
      </trkpt>
      <trkpt lat="43.12064" lon="-0.42122">
        <ele>404.6</ele>
        <time>2022-09-08T10:42:21Z</time>
      </trkpt>
      <trkpt lat="43.12068" lon="-0.42135">
        <ele>403.4</ele>
        <time>2022-09-08T10:42:22Z</time>
      </trkpt>
      <trkpt lat="43.12072" lon="-0.42147">
        <ele>402.4</ele>
        <time>2022-09-08T10:42:23Z</time>
      </trkpt>
      <trkpt lat="43.12076" lon="-0.42159">
        <ele>401.2</ele>
        <time>2022-09-08T10:42:24Z</time>
      </trkpt>
      <trkpt lat="43.12081" lon="-0.4217">
        <ele>400.2</ele>
        <time>2022-09-08T10:42:25Z</time>
      </trkpt>
      <trkpt lat="43.12087" lon="-0.42181">
        <ele>399</ele>
        <time>2022-09-08T10:42:26Z</time>
      </trkpt>
      <trkpt lat="43.12092" lon="-0.42191">
        <ele>397.8</ele>
        <time>2022-09-08T10:42:27Z</time>
      </trkpt>
      <trkpt lat="43.12099" lon="-0.422">
        <ele>396.6</ele>
        <time>2022-09-08T10:42:28Z</time>
      </trkpt>
      <trkpt lat="43.12105" lon="-0.42208">
        <ele>395.4</ele>
        <time>2022-09-08T10:42:29Z</time>
      </trkpt>
      <trkpt lat="43.12113" lon="-0.42216">
        <ele>394.4</ele>
        <time>2022-09-08T10:42:30Z</time>
      </trkpt>
      <trkpt lat="43.12121" lon="-0.42223">
        <ele>393.6</ele>
        <time>2022-09-08T10:42:31Z</time>
      </trkpt>
      <trkpt lat="43.12138" lon="-0.42233">
        <ele>392.2</ele>
        <time>2022-09-08T10:42:33Z</time>
      </trkpt>
      <trkpt lat="43.12146" lon="-0.42239">
        <ele>392</ele>
        <time>2022-09-08T10:42:34Z</time>
      </trkpt>
      <trkpt lat="43.12153" lon="-0.42246">
        <ele>391.4</ele>
        <time>2022-09-08T10:42:35Z</time>
      </trkpt>
      <trkpt lat="43.12158" lon="-0.42255">
        <ele>391.2</ele>
        <time>2022-09-08T10:42:36Z</time>
      </trkpt>
      <trkpt lat="43.12167" lon="-0.42275">
        <ele>391.2</ele>
        <time>2022-09-08T10:42:38Z</time>
      </trkpt>
      <trkpt lat="43.12189" lon="-0.42308">
        <ele>390.2</ele>
        <time>2022-09-08T10:42:42Z</time>
      </trkpt>
      <trkpt lat="43.12223" lon="-0.42354">
        <ele>389.6</ele>
        <time>2022-09-08T10:42:48Z</time>
      </trkpt>
      <trkpt lat="43.12245" lon="-0.42385">
        <ele>389</ele>
        <time>2022-09-08T10:42:53Z</time>
      </trkpt>
      <trkpt lat="43.1226" lon="-0.42407">
        <ele>389.8</ele>
        <time>2022-09-08T10:42:58Z</time>
      </trkpt>
      <trkpt lat="43.12279" lon="-0.42433">
        <ele>390.2</ele>
        <time>2022-09-08T10:43:05Z</time>
      </trkpt>
      <trkpt lat="43.12281" lon="-0.42437">
        <ele>390.2</ele>
        <time>2022-09-08T10:43:06Z</time>
      </trkpt>
      <trkpt lat="43.12303" lon="-0.42472">
        <ele>391</ele>
        <time>2022-09-08T10:43:15Z</time>
      </trkpt>
      <trkpt lat="43.12307" lon="-0.42478">
        <ele>391.4</ele>
        <time>2022-09-08T10:43:17Z</time>
      </trkpt>
      <trkpt lat="43.12316" lon="-0.42492">
        <ele>392.6</ele>
        <time>2022-09-08T10:43:22Z</time>
      </trkpt>
      <trkpt lat="43.12318" lon="-0.42495">
        <ele>393</ele>
        <time>2022-09-08T10:43:23Z</time>
      </trkpt>
      <trkpt lat="43.12325" lon="-0.42506">
        <ele>393.6</ele>
        <time>2022-09-08T10:43:28Z</time>
      </trkpt>
      <trkpt lat="43.12327" lon="-0.42511">
        <ele>394</ele>
        <time>2022-09-08T10:43:30Z</time>
      </trkpt>
      <trkpt lat="43.12337" lon="-0.42531">
        <ele>394.6</ele>
        <time>2022-09-08T10:43:37Z</time>
      </trkpt>
      <trkpt lat="43.1235" lon="-0.4255">
        <ele>395.6</ele>
        <time>2022-09-08T10:43:45Z</time>
      </trkpt>
      <trkpt lat="43.12351" lon="-0.42552">
        <ele>395.8</ele>
        <time>2022-09-08T10:43:46Z</time>
      </trkpt>
      <trkpt lat="43.1236" lon="-0.42564">
        <ele>396.4</ele>
        <time>2022-09-08T10:43:52Z</time>
      </trkpt>
      <trkpt lat="43.12362" lon="-0.42569">
        <ele>396.8</ele>
        <time>2022-09-08T10:43:54Z</time>
      </trkpt>
      <trkpt lat="43.12369" lon="-0.42579">
        <ele>397.6</ele>
        <time>2022-09-08T10:43:59Z</time>
      </trkpt>
      <trkpt lat="43.12371" lon="-0.42585">
        <ele>398</ele>
        <time>2022-09-08T10:44:02Z</time>
      </trkpt>
      <trkpt lat="43.12373" lon="-0.42592">
        <ele>398.2</ele>
        <time>2022-09-08T10:44:05Z</time>
      </trkpt>
      <trkpt lat="43.1238" lon="-0.42603">
        <ele>399</ele>
        <time>2022-09-08T10:44:11Z</time>
      </trkpt>
      <trkpt lat="43.1238" lon="-0.42606">
        <ele>399.2</ele>
        <time>2022-09-08T10:44:12Z</time>
      </trkpt>
      <trkpt lat="43.12381" lon="-0.42608">
        <ele>399.4</ele>
        <time>2022-09-08T10:44:13Z</time>
      </trkpt>
      <trkpt lat="43.12384" lon="-0.42614">
        <ele>400.2</ele>
        <time>2022-09-08T10:44:16Z</time>
      </trkpt>
      <trkpt lat="43.1239" lon="-0.42625">
        <ele>401</ele>
        <time>2022-09-08T10:44:22Z</time>
      </trkpt>
      <trkpt lat="43.12392" lon="-0.42626">
        <ele>401.2</ele>
        <time>2022-09-08T10:44:23Z</time>
      </trkpt>
      <trkpt lat="43.12401" lon="-0.42639">
        <ele>401.8</ele>
        <time>2022-09-08T10:44:30Z</time>
      </trkpt>
      <trkpt lat="43.12405" lon="-0.42644">
        <ele>402.2</ele>
        <time>2022-09-08T10:44:33Z</time>
      </trkpt>
      <trkpt lat="43.12408" lon="-0.42653">
        <ele>403</ele>
        <time>2022-09-08T10:44:37Z</time>
      </trkpt>
      <trkpt lat="43.1241" lon="-0.42656">
        <ele>403.2</ele>
        <time>2022-09-08T10:44:39Z</time>
      </trkpt>
      <trkpt lat="43.12416" lon="-0.42667">
        <ele>404.4</ele>
        <time>2022-09-08T10:44:45Z</time>
      </trkpt>
      <trkpt lat="43.12423" lon="-0.42676">
        <ele>405.4</ele>
        <time>2022-09-08T10:44:51Z</time>
      </trkpt>
      <trkpt lat="43.12424" lon="-0.42678">
        <ele>405.6</ele>
        <time>2022-09-08T10:44:52Z</time>
      </trkpt>
      <trkpt lat="43.12431" lon="-0.42689">
        <ele>406.8</ele>
        <time>2022-09-08T10:44:59Z</time>
      </trkpt>
      <trkpt lat="43.12437" lon="-0.42701">
        <ele>407.8</ele>
        <time>2022-09-08T10:45:06Z</time>
      </trkpt>
      <trkpt lat="43.12438" lon="-0.42702">
        <ele>407.8</ele>
        <time>2022-09-08T10:45:07Z</time>
      </trkpt>
      <trkpt lat="43.12445" lon="-0.42713">
        <ele>408.8</ele>
        <time>2022-09-08T10:45:14Z</time>
      </trkpt>
      <trkpt lat="43.12447" lon="-0.42713">
        <ele>409</ele>
        <time>2022-09-08T10:45:15Z</time>
      </trkpt>
      <trkpt lat="43.12456" lon="-0.42708">
        <ele>409.8</ele>
        <time>2022-09-08T10:45:21Z</time>
      </trkpt>
      <trkpt lat="43.12456" lon="-0.42706">
        <ele>410</ele>
        <time>2022-09-08T10:45:22Z</time>
      </trkpt>
      <trkpt lat="43.12456" lon="-0.427">
        <ele>410.6</ele>
        <time>2022-09-08T10:45:25Z</time>
      </trkpt>
      <trkpt lat="43.12456" lon="-0.42698">
        <ele>410.6</ele>
        <time>2022-09-08T10:45:26Z</time>
      </trkpt>
      <trkpt lat="43.12456" lon="-0.42694">
        <ele>411</ele>
        <time>2022-09-08T10:45:28Z</time>
      </trkpt>
      <trkpt lat="43.12458" lon="-0.42681">
        <ele>412</ele>
        <time>2022-09-08T10:45:34Z</time>
      </trkpt>
      <trkpt lat="43.12458" lon="-0.42679">
        <ele>412.2</ele>
        <time>2022-09-08T10:45:35Z</time>
      </trkpt>
      <trkpt lat="43.12459" lon="-0.4267">
        <ele>413</ele>
        <time>2022-09-08T10:45:41Z</time>
      </trkpt>
      <trkpt lat="43.1246" lon="-0.42669">
        <ele>413.2</ele>
        <time>2022-09-08T10:45:42Z</time>
      </trkpt>
      <trkpt lat="43.12461" lon="-0.42668">
        <ele>413.4</ele>
        <time>2022-09-08T10:45:43Z</time>
      </trkpt>
      <trkpt lat="43.12465" lon="-0.42671">
        <ele>414</ele>
        <time>2022-09-08T10:45:46Z</time>
      </trkpt>
      <trkpt lat="43.12466" lon="-0.42674">
        <ele>414.2</ele>
        <time>2022-09-08T10:45:48Z</time>
      </trkpt>
      <trkpt lat="43.12468" lon="-0.42682">
        <ele>414.2</ele>
        <time>2022-09-08T10:45:53Z</time>
      </trkpt>
      <trkpt lat="43.12466" lon="-0.42696">
        <ele>413.8</ele>
        <time>2022-09-08T10:46:00Z</time>
      </trkpt>
      <trkpt lat="43.12465" lon="-0.42696">
        <ele>413.8</ele>
        <time>2022-09-08T11:32:25Z</time>
      </trkpt>
      <trkpt lat="43.12466" lon="-0.4269">
        <ele>413.8</ele>
        <time>2022-09-08T11:32:28Z</time>
      </trkpt>
      <trkpt lat="43.12466" lon="-0.42676">
        <ele>414.2</ele>
        <time>2022-09-08T11:32:35Z</time>
      </trkpt>
      <trkpt lat="43.12465" lon="-0.42673">
        <ele>414.2</ele>
        <time>2022-09-08T11:32:37Z</time>
      </trkpt>
      <trkpt lat="43.12461" lon="-0.42669">
        <ele>414.2</ele>
        <time>2022-09-08T11:32:41Z</time>
      </trkpt>
      <trkpt lat="43.12458" lon="-0.42675">
        <ele>413.6</ele>
        <time>2022-09-08T11:32:46Z</time>
      </trkpt>
      <trkpt lat="43.12458" lon="-0.42693">
        <ele>412.2</ele>
        <time>2022-09-08T11:32:51Z</time>
      </trkpt>
      <trkpt lat="43.12455" lon="-0.4271">
        <ele>411</ele>
        <time>2022-09-08T11:32:55Z</time>
      </trkpt>
      <trkpt lat="43.12453" lon="-0.42714">
        <ele>411</ele>
        <time>2022-09-08T11:32:56Z</time>
      </trkpt>
      <trkpt lat="43.12439" lon="-0.42733">
        <ele>410</ele>
        <time>2022-09-08T11:33:01Z</time>
      </trkpt>
      <trkpt lat="43.12437" lon="-0.42737">
        <ele>409.6</ele>
        <time>2022-09-08T11:33:02Z</time>
      </trkpt>
      <trkpt lat="43.12432" lon="-0.42755">
        <ele>408.2</ele>
        <time>2022-09-08T11:33:05Z</time>
      </trkpt>
      <trkpt lat="43.12431" lon="-0.42761">
        <ele>408</ele>
        <time>2022-09-08T11:33:06Z</time>
      </trkpt>
      <trkpt lat="43.1243" lon="-0.42783">
        <ele>407.4</ele>
        <time>2022-09-08T11:33:09Z</time>
      </trkpt>
      <trkpt lat="43.1243" lon="-0.4279">
        <ele>407</ele>
        <time>2022-09-08T11:33:10Z</time>
      </trkpt>
      <trkpt lat="43.12429" lon="-0.4282">
        <ele>405.6</ele>
        <time>2022-09-08T11:33:14Z</time>
      </trkpt>
      <trkpt lat="43.12433" lon="-0.42853">
        <ele>404.2</ele>
        <time>2022-09-08T11:33:18Z</time>
      </trkpt>
      <trkpt lat="43.12443" lon="-0.42877">
        <ele>402.8</ele>
        <time>2022-09-08T11:33:21Z</time>
      </trkpt>
      <trkpt lat="43.12447" lon="-0.42885">
        <ele>402.4</ele>
        <time>2022-09-08T11:33:22Z</time>
      </trkpt>
      <trkpt lat="43.12451" lon="-0.42892">
        <ele>402.2</ele>
        <time>2022-09-08T11:33:23Z</time>
      </trkpt>
      <trkpt lat="43.12456" lon="-0.42899">
        <ele>401.8</ele>
        <time>2022-09-08T11:33:24Z</time>
      </trkpt>
      <trkpt lat="43.12468" lon="-0.42919">
        <ele>400.4</ele>
        <time>2022-09-08T11:33:27Z</time>
      </trkpt>
      <trkpt lat="43.12475" lon="-0.42932">
        <ele>398.6</ele>
        <time>2022-09-08T11:33:29Z</time>
      </trkpt>
      <trkpt lat="43.12481" lon="-0.42943">
        <ele>397.6</ele>
        <time>2022-09-08T11:33:31Z</time>
      </trkpt>
      <trkpt lat="43.12487" lon="-0.42954">
        <ele>396.8</ele>
        <time>2022-09-08T11:33:33Z</time>
      </trkpt>
      <trkpt lat="43.12497" lon="-0.42969">
        <ele>396.4</ele>
        <time>2022-09-08T11:33:36Z</time>
      </trkpt>
      <trkpt lat="43.12501" lon="-0.42974">
        <ele>396.6</ele>
        <time>2022-09-08T11:33:38Z</time>
      </trkpt>
      <trkpt lat="43.12503" lon="-0.42976">
        <ele>396.8</ele>
        <time>2022-09-08T11:33:39Z</time>
      </trkpt>
      <trkpt lat="43.12506" lon="-0.42978">
        <ele>397.6</ele>
        <time>2022-09-08T11:33:41Z</time>
      </trkpt>
      <trkpt lat="43.12508" lon="-0.42982">
        <ele>398</ele>
        <time>2022-09-08T11:33:43Z</time>
      </trkpt>
      <trkpt lat="43.12509" lon="-0.42991">
        <ele>398.4</ele>
        <time>2022-09-08T11:33:49Z</time>
      </trkpt>
      <trkpt lat="43.12507" lon="-0.42987">
        <ele>398.4</ele>
        <time>2022-09-08T11:34:08Z</time>
      </trkpt>
      <trkpt lat="43.12504" lon="-0.42982">
        <ele>398.2</ele>
        <time>2022-09-08T11:34:10Z</time>
      </trkpt>
      <trkpt lat="43.12496" lon="-0.42965">
        <ele>397.4</ele>
        <time>2022-09-08T11:34:14Z</time>
      </trkpt>
      <trkpt lat="43.12486" lon="-0.4296">
        <ele>396.6</ele>
        <time>2022-09-08T11:34:17Z</time>
      </trkpt>
      <trkpt lat="43.12482" lon="-0.42964">
        <ele>396</ele>
        <time>2022-09-08T11:34:18Z</time>
      </trkpt>
      <trkpt lat="43.12478" lon="-0.42978">
        <ele>395</ele>
        <time>2022-09-08T11:34:20Z</time>
      </trkpt>
      <trkpt lat="43.12477" lon="-0.42987">
        <ele>395</ele>
        <time>2022-09-08T11:34:21Z</time>
      </trkpt>
      <trkpt lat="43.12468" lon="-0.43013">
        <ele>393.8</ele>
        <time>2022-09-08T11:34:24Z</time>
      </trkpt>
      <trkpt lat="43.12463" lon="-0.43022">
        <ele>393</ele>
        <time>2022-09-08T11:34:25Z</time>
      </trkpt>
      <trkpt lat="43.12459" lon="-0.43031">
        <ele>392.2</ele>
        <time>2022-09-08T11:34:26Z</time>
      </trkpt>
      <trkpt lat="43.12442" lon="-0.43057">
        <ele>391</ele>
        <time>2022-09-08T11:34:29Z</time>
      </trkpt>
      <trkpt lat="43.12432" lon="-0.43076">
        <ele>390.2</ele>
        <time>2022-09-08T11:34:31Z</time>
      </trkpt>
      <trkpt lat="43.12428" lon="-0.43086">
        <ele>389.6</ele>
        <time>2022-09-08T11:34:32Z</time>
      </trkpt>
      <trkpt lat="43.12427" lon="-0.43096">
        <ele>389</ele>
        <time>2022-09-08T11:34:33Z</time>
      </trkpt>
      <trkpt lat="43.12427" lon="-0.43106">
        <ele>388.4</ele>
        <time>2022-09-08T11:34:34Z</time>
      </trkpt>
      <trkpt lat="43.12433" lon="-0.43121">
        <ele>387.8</ele>
        <time>2022-09-08T11:34:36Z</time>
      </trkpt>
      <trkpt lat="43.12444" lon="-0.43139">
        <ele>387.6</ele>
        <time>2022-09-08T11:34:39Z</time>
      </trkpt>
      <trkpt lat="43.12451" lon="-0.43149">
        <ele>387.6</ele>
        <time>2022-09-08T11:34:41Z</time>
      </trkpt>
      <trkpt lat="43.12468" lon="-0.43178">
        <ele>388</ele>
        <time>2022-09-08T11:34:47Z</time>
      </trkpt>
      <trkpt lat="43.12469" lon="-0.43183">
        <ele>388</ele>
        <time>2022-09-08T11:34:48Z</time>
      </trkpt>
      <trkpt lat="43.12482" lon="-0.43232">
        <ele>388.6</ele>
        <time>2022-09-08T11:34:57Z</time>
      </trkpt>
      <trkpt lat="43.1249" lon="-0.43267">
        <ele>388.6</ele>
        <time>2022-09-08T11:35:04Z</time>
      </trkpt>
      <trkpt lat="43.12495" lon="-0.43282">
        <ele>388.4</ele>
        <time>2022-09-08T11:35:07Z</time>
      </trkpt>
      <trkpt lat="43.12503" lon="-0.43296">
        <ele>388.4</ele>
        <time>2022-09-08T11:35:10Z</time>
      </trkpt>
      <trkpt lat="43.12528" lon="-0.43332">
        <ele>387.8</ele>
        <time>2022-09-08T11:35:18Z</time>
      </trkpt>
      <trkpt lat="43.1253" lon="-0.43338">
        <ele>388</ele>
        <time>2022-09-08T11:35:19Z</time>
      </trkpt>
      <trkpt lat="43.12534" lon="-0.43355">
        <ele>387.8</ele>
        <time>2022-09-08T11:35:22Z</time>
      </trkpt>
      <trkpt lat="43.12542" lon="-0.43397">
        <ele>387.6</ele>
        <time>2022-09-08T11:35:29Z</time>
      </trkpt>
      <trkpt lat="43.12543" lon="-0.43403">
        <ele>387.4</ele>
        <time>2022-09-08T11:35:30Z</time>
      </trkpt>
      <trkpt lat="43.12553" lon="-0.43457">
        <ele>387.4</ele>
        <time>2022-09-08T11:35:39Z</time>
      </trkpt>
      <trkpt lat="43.12562" lon="-0.43503">
        <ele>387.6</ele>
        <time>2022-09-08T11:35:47Z</time>
      </trkpt>
      <trkpt lat="43.1257" lon="-0.43552">
        <ele>388.2</ele>
        <time>2022-09-08T11:35:56Z</time>
      </trkpt>
      <trkpt lat="43.12571" lon="-0.43564">
        <ele>388.2</ele>
        <time>2022-09-08T11:35:58Z</time>
      </trkpt>
      <trkpt lat="43.12567" lon="-0.43609">
        <ele>388</ele>
        <time>2022-09-08T11:36:06Z</time>
      </trkpt>
      <trkpt lat="43.12567" lon="-0.43656">
        <ele>388.2</ele>
        <time>2022-09-08T11:36:14Z</time>
      </trkpt>
      <trkpt lat="43.12578" lon="-0.437">
        <ele>388.2</ele>
        <time>2022-09-08T11:36:22Z</time>
      </trkpt>
      <trkpt lat="43.12583" lon="-0.43736">
        <ele>388.8</ele>
        <time>2022-09-08T11:36:29Z</time>
      </trkpt>
      <trkpt lat="43.12584" lon="-0.43747">
        <ele>389.2</ele>
        <time>2022-09-08T11:36:31Z</time>
      </trkpt>
      <trkpt lat="43.12585" lon="-0.43784">
        <ele>389.4</ele>
        <time>2022-09-08T11:36:38Z</time>
      </trkpt>
      <trkpt lat="43.12585" lon="-0.43817">
        <ele>389.6</ele>
        <time>2022-09-08T11:36:45Z</time>
      </trkpt>
      <trkpt lat="43.12585" lon="-0.43845">
        <ele>390.4</ele>
        <time>2022-09-08T11:36:51Z</time>
      </trkpt>
      <trkpt lat="43.12585" lon="-0.43856">
        <ele>391</ele>
        <time>2022-09-08T11:36:54Z</time>
      </trkpt>
      <trkpt lat="43.12585" lon="-0.43874">
        <ele>391.6</ele>
        <time>2022-09-08T11:36:59Z</time>
      </trkpt>
      <trkpt lat="43.12586" lon="-0.43887">
        <ele>391.8</ele>
        <time>2022-09-08T11:37:03Z</time>
      </trkpt>
      <trkpt lat="43.12586" lon="-0.43901">
        <ele>392.8</ele>
        <time>2022-09-08T11:37:07Z</time>
      </trkpt>
      <trkpt lat="43.12586" lon="-0.43915">
        <ele>393.2</ele>
        <time>2022-09-08T11:37:12Z</time>
      </trkpt>
      <trkpt lat="43.12581" lon="-0.43949">
        <ele>393.4</ele>
        <time>2022-09-08T11:37:21Z</time>
      </trkpt>
      <trkpt lat="43.12581" lon="-0.43953">
        <ele>393.4</ele>
        <time>2022-09-08T11:37:22Z</time>
      </trkpt>
      <trkpt lat="43.12578" lon="-0.43974">
        <ele>393.6</ele>
        <time>2022-09-08T11:37:28Z</time>
      </trkpt>
      <trkpt lat="43.12577" lon="-0.43982">
        <ele>393.8</ele>
        <time>2022-09-08T11:37:30Z</time>
      </trkpt>
      <trkpt lat="43.1258" lon="-0.44003">
        <ele>394.6</ele>
        <time>2022-09-08T11:37:36Z</time>
      </trkpt>
      <trkpt lat="43.12581" lon="-0.44009">
        <ele>395</ele>
        <time>2022-09-08T11:37:38Z</time>
      </trkpt>
      <trkpt lat="43.12584" lon="-0.44027">
        <ele>395.6</ele>
        <time>2022-09-08T11:37:44Z</time>
      </trkpt>
      <trkpt lat="43.12587" lon="-0.44036">
        <ele>396</ele>
        <time>2022-09-08T11:37:47Z</time>
      </trkpt>
      <trkpt lat="43.12592" lon="-0.44053">
        <ele>396.4</ele>
        <time>2022-09-08T11:37:52Z</time>
      </trkpt>
      <trkpt lat="43.12604" lon="-0.44077">
        <ele>396.8</ele>
        <time>2022-09-08T11:38:00Z</time>
      </trkpt>
      <trkpt lat="43.12605" lon="-0.4408">
        <ele>397</ele>
        <time>2022-09-08T11:38:01Z</time>
      </trkpt>
      <trkpt lat="43.12608" lon="-0.44083">
        <ele>397.2</ele>
        <time>2022-09-08T11:38:02Z</time>
      </trkpt>
      <trkpt lat="43.12618" lon="-0.44097">
        <ele>397.4</ele>
        <time>2022-09-08T11:38:07Z</time>
      </trkpt>
      <trkpt lat="43.12634" lon="-0.44121">
        <ele>398.2</ele>
        <time>2022-09-08T11:38:15Z</time>
      </trkpt>
      <trkpt lat="43.12645" lon="-0.44137">
        <ele>399.2</ele>
        <time>2022-09-08T11:38:21Z</time>
      </trkpt>
      <trkpt lat="43.12647" lon="-0.44139">
        <ele>399.4</ele>
        <time>2022-09-08T11:38:22Z</time>
      </trkpt>
      <trkpt lat="43.12661" lon="-0.4416">
        <ele>400.2</ele>
        <time>2022-09-08T11:38:30Z</time>
      </trkpt>
      <trkpt lat="43.12663" lon="-0.44163">
        <ele>400.2</ele>
        <time>2022-09-08T11:38:31Z</time>
      </trkpt>
      <trkpt lat="43.12665" lon="-0.44181">
        <ele>401</ele>
        <time>2022-09-08T11:38:36Z</time>
      </trkpt>
      <trkpt lat="43.12663" lon="-0.44195">
        <ele>401.4</ele>
        <time>2022-09-08T11:38:40Z</time>
      </trkpt>
      <trkpt lat="43.1266" lon="-0.44205">
        <ele>401.4</ele>
        <time>2022-09-08T11:38:43Z</time>
      </trkpt>
      <trkpt lat="43.12655" lon="-0.44229">
        <ele>401.8</ele>
        <time>2022-09-08T11:38:50Z</time>
      </trkpt>
      <trkpt lat="43.12658" lon="-0.44244">
        <ele>402.4</ele>
        <time>2022-09-08T11:38:55Z</time>
      </trkpt>
      <trkpt lat="43.12663" lon="-0.44254">
        <ele>403.6</ele>
        <time>2022-09-08T11:39:00Z</time>
      </trkpt>
      <trkpt lat="43.12664" lon="-0.44256">
        <ele>403.6</ele>
        <time>2022-09-08T11:39:01Z</time>
      </trkpt>
      <trkpt lat="43.12669" lon="-0.44265">
        <ele>404.6</ele>
        <time>2022-09-08T11:39:06Z</time>
      </trkpt>
      <trkpt lat="43.12675" lon="-0.44275">
        <ele>405.4</ele>
        <time>2022-09-08T11:39:11Z</time>
      </trkpt>
      <trkpt lat="43.12677" lon="-0.44278">
        <ele>405.8</ele>
        <time>2022-09-08T11:39:13Z</time>
      </trkpt>
      <trkpt lat="43.12686" lon="-0.4429">
        <ele>406.4</ele>
        <time>2022-09-08T11:39:20Z</time>
      </trkpt>
      <trkpt lat="43.12691" lon="-0.44291">
        <ele>406.6</ele>
        <time>2022-09-08T11:39:26Z</time>
      </trkpt>
      <trkpt lat="43.12695" lon="-0.44296">
        <ele>407</ele>
        <time>2022-09-08T11:42:19Z</time>
      </trkpt>
      <trkpt lat="43.12699" lon="-0.44299">
        <ele>407</ele>
        <time>2022-09-08T11:42:21Z</time>
      </trkpt>
      <trkpt lat="43.12719" lon="-0.44314">
        <ele>406.4</ele>
        <time>2022-09-08T11:42:27Z</time>
      </trkpt>
      <trkpt lat="43.12746" lon="-0.44337">
        <ele>406.2</ele>
        <time>2022-09-08T11:42:34Z</time>
      </trkpt>
      <trkpt lat="43.12772" lon="-0.44357">
        <ele>406.2</ele>
        <time>2022-09-08T11:42:41Z</time>
      </trkpt>
      <trkpt lat="43.12794" lon="-0.44369">
        <ele>406</ele>
        <time>2022-09-08T11:42:47Z</time>
      </trkpt>
      <trkpt lat="43.12798" lon="-0.44371">
        <ele>405.8</ele>
        <time>2022-09-08T11:42:48Z</time>
      </trkpt>
      <trkpt lat="43.12807" lon="-0.44372">
        <ele>405.6</ele>
        <time>2022-09-08T11:42:50Z</time>
      </trkpt>
      <trkpt lat="43.12827" lon="-0.44373">
        <ele>405.4</ele>
        <time>2022-09-08T11:42:54Z</time>
      </trkpt>
      <trkpt lat="43.12854" lon="-0.44372">
        <ele>404.8</ele>
        <time>2022-09-08T11:42:59Z</time>
      </trkpt>
      <trkpt lat="43.12877" lon="-0.44371">
        <ele>404.2</ele>
        <time>2022-09-08T11:43:03Z</time>
      </trkpt>
      <trkpt lat="43.12889" lon="-0.4437">
        <ele>403.8</ele>
        <time>2022-09-08T11:43:05Z</time>
      </trkpt>
      <trkpt lat="43.12909" lon="-0.44376">
        <ele>402.6</ele>
        <time>2022-09-08T11:43:08Z</time>
      </trkpt>
      <trkpt lat="43.12916" lon="-0.4438">
        <ele>402.4</ele>
        <time>2022-09-08T11:43:09Z</time>
      </trkpt>
      <trkpt lat="43.12931" lon="-0.44389">
        <ele>402</ele>
        <time>2022-09-08T11:43:11Z</time>
      </trkpt>
      <trkpt lat="43.12944" lon="-0.44403">
        <ele>401.2</ele>
        <time>2022-09-08T11:43:13Z</time>
      </trkpt>
      <trkpt lat="43.12954" lon="-0.44422">
        <ele>400</ele>
        <time>2022-09-08T11:43:15Z</time>
      </trkpt>
      <trkpt lat="43.1296" lon="-0.44443">
        <ele>399.2</ele>
        <time>2022-09-08T11:43:17Z</time>
      </trkpt>
      <trkpt lat="43.12964" lon="-0.44477">
        <ele>398.8</ele>
        <time>2022-09-08T11:43:20Z</time>
      </trkpt>
      <trkpt lat="43.12964" lon="-0.44488">
        <ele>398.4</ele>
        <time>2022-09-08T11:43:21Z</time>
      </trkpt>
      <trkpt lat="43.12963" lon="-0.44509">
        <ele>397.6</ele>
        <time>2022-09-08T11:43:23Z</time>
      </trkpt>
      <trkpt lat="43.12964" lon="-0.44531">
        <ele>396.4</ele>
        <time>2022-09-08T11:43:25Z</time>
      </trkpt>
      <trkpt lat="43.12967" lon="-0.44554">
        <ele>395</ele>
        <time>2022-09-08T11:43:27Z</time>
      </trkpt>
      <trkpt lat="43.12973" lon="-0.44578">
        <ele>393.8</ele>
        <time>2022-09-08T11:43:29Z</time>
      </trkpt>
      <trkpt lat="43.12982" lon="-0.44603">
        <ele>392</ele>
        <time>2022-09-08T11:43:31Z</time>
      </trkpt>
      <trkpt lat="43.12991" lon="-0.44628">
        <ele>390.4</ele>
        <time>2022-09-08T11:43:33Z</time>
      </trkpt>
      <trkpt lat="43.13001" lon="-0.44654">
        <ele>388.8</ele>
        <time>2022-09-08T11:43:35Z</time>
      </trkpt>
      <trkpt lat="43.1301" lon="-0.44681">
        <ele>387.2</ele>
        <time>2022-09-08T11:43:37Z</time>
      </trkpt>
      <trkpt lat="43.13015" lon="-0.44693">
        <ele>386.6</ele>
        <time>2022-09-08T11:43:38Z</time>
      </trkpt>
      <trkpt lat="43.13019" lon="-0.44706">
        <ele>386.2</ele>
        <time>2022-09-08T11:43:39Z</time>
      </trkpt>
      <trkpt lat="43.13029" lon="-0.44731">
        <ele>385</ele>
        <time>2022-09-08T11:43:41Z</time>
      </trkpt>
      <trkpt lat="43.13047" lon="-0.4478">
        <ele>384.8</ele>
        <time>2022-09-08T11:43:45Z</time>
      </trkpt>
      <trkpt lat="43.13051" lon="-0.44792">
        <ele>384.2</ele>
        <time>2022-09-08T11:43:46Z</time>
      </trkpt>
      <trkpt lat="43.13056" lon="-0.44803">
        <ele>383.6</ele>
        <time>2022-09-08T11:43:47Z</time>
      </trkpt>
      <trkpt lat="43.13068" lon="-0.44837">
        <ele>382.4</ele>
        <time>2022-09-08T11:43:50Z</time>
      </trkpt>
      <trkpt lat="43.13076" lon="-0.44859">
        <ele>381</ele>
        <time>2022-09-08T11:43:52Z</time>
      </trkpt>
      <trkpt lat="43.13085" lon="-0.44882">
        <ele>380</ele>
        <time>2022-09-08T11:43:54Z</time>
      </trkpt>
      <trkpt lat="43.13089" lon="-0.44894">
        <ele>379.4</ele>
        <time>2022-09-08T11:43:55Z</time>
      </trkpt>
      <trkpt lat="43.13102" lon="-0.44931">
        <ele>378</ele>
        <time>2022-09-08T11:43:58Z</time>
      </trkpt>
      <trkpt lat="43.13121" lon="-0.44979">
        <ele>376.8</ele>
        <time>2022-09-08T11:44:02Z</time>
      </trkpt>
      <trkpt lat="43.13126" lon="-0.44991">
        <ele>376</ele>
        <time>2022-09-08T11:44:03Z</time>
      </trkpt>
      <trkpt lat="43.13132" lon="-0.45003">
        <ele>375.8</ele>
        <time>2022-09-08T11:44:04Z</time>
      </trkpt>
      <trkpt lat="43.13146" lon="-0.45038">
        <ele>374.6</ele>
        <time>2022-09-08T11:44:07Z</time>
      </trkpt>
      <trkpt lat="43.1315" lon="-0.4505">
        <ele>374.2</ele>
        <time>2022-09-08T11:44:08Z</time>
      </trkpt>
      <trkpt lat="43.13154" lon="-0.45063">
        <ele>373.4</ele>
        <time>2022-09-08T11:44:09Z</time>
      </trkpt>
      <trkpt lat="43.1316" lon="-0.45089">
        <ele>372.2</ele>
        <time>2022-09-08T11:44:11Z</time>
      </trkpt>
      <trkpt lat="43.13164" lon="-0.45114">
        <ele>371.6</ele>
        <time>2022-09-08T11:44:13Z</time>
      </trkpt>
      <trkpt lat="43.13168" lon="-0.45138">
        <ele>371</ele>
        <time>2022-09-08T11:44:15Z</time>
      </trkpt>
      <trkpt lat="43.13174" lon="-0.45184">
        <ele>370.4</ele>
        <time>2022-09-08T11:44:19Z</time>
      </trkpt>
      <trkpt lat="43.13183" lon="-0.4524">
        <ele>370</ele>
        <time>2022-09-08T11:44:25Z</time>
      </trkpt>
      <trkpt lat="43.13192" lon="-0.45292">
        <ele>370.2</ele>
        <time>2022-09-08T11:44:32Z</time>
      </trkpt>
      <trkpt lat="43.132" lon="-0.45334">
        <ele>370.4</ele>
        <time>2022-09-08T11:44:39Z</time>
      </trkpt>
      <trkpt lat="43.132" lon="-0.45345">
        <ele>370.6</ele>
        <time>2022-09-08T11:44:41Z</time>
      </trkpt>
      <trkpt lat="43.132" lon="-0.45357">
        <ele>370.2</ele>
        <time>2022-09-08T11:44:43Z</time>
      </trkpt>
      <trkpt lat="43.13204" lon="-0.45395">
        <ele>368.8</ele>
        <time>2022-09-08T11:44:48Z</time>
      </trkpt>
      <trkpt lat="43.13208" lon="-0.45424">
        <ele>367.6</ele>
        <time>2022-09-08T11:44:51Z</time>
      </trkpt>
      <trkpt lat="43.13214" lon="-0.45444">
        <ele>367</ele>
        <time>2022-09-08T11:44:53Z</time>
      </trkpt>
      <trkpt lat="43.13223" lon="-0.45463">
        <ele>366.4</ele>
        <time>2022-09-08T11:44:55Z</time>
      </trkpt>
      <trkpt lat="43.13232" lon="-0.45481">
        <ele>365.8</ele>
        <time>2022-09-08T11:44:57Z</time>
      </trkpt>
      <trkpt lat="43.13237" lon="-0.4549">
        <ele>365.6</ele>
        <time>2022-09-08T11:44:58Z</time>
      </trkpt>
      <trkpt lat="43.13241" lon="-0.45499">
        <ele>365.4</ele>
        <time>2022-09-08T11:44:59Z</time>
      </trkpt>
      <trkpt lat="43.13265" lon="-0.45542">
        <ele>364.4</ele>
        <time>2022-09-08T11:45:04Z</time>
      </trkpt>
      <trkpt lat="43.13279" lon="-0.45569">
        <ele>363.2</ele>
        <time>2022-09-08T11:45:07Z</time>
      </trkpt>
      <trkpt lat="43.13291" lon="-0.45594">
        <ele>363</ele>
        <time>2022-09-08T11:45:10Z</time>
      </trkpt>
      <trkpt lat="43.13295" lon="-0.45613">
        <ele>363.2</ele>
        <time>2022-09-08T11:45:12Z</time>
      </trkpt>
      <trkpt lat="43.13303" lon="-0.45653">
        <ele>362.4</ele>
        <time>2022-09-08T11:45:17Z</time>
      </trkpt>
      <trkpt lat="43.13304" lon="-0.45667">
        <ele>361.6</ele>
        <time>2022-09-08T11:45:19Z</time>
      </trkpt>
      <trkpt lat="43.13305" lon="-0.45691">
        <ele>361.2</ele>
        <time>2022-09-08T11:45:23Z</time>
      </trkpt>
      <trkpt lat="43.13303" lon="-0.45703">
        <ele>360.6</ele>
        <time>2022-09-08T11:45:25Z</time>
      </trkpt>
      <trkpt lat="43.13298" lon="-0.45721">
        <ele>359.6</ele>
        <time>2022-09-08T11:45:28Z</time>
      </trkpt>
      <trkpt lat="43.13292" lon="-0.45742">
        <ele>358</ele>
        <time>2022-09-08T11:45:31Z</time>
      </trkpt>
      <trkpt lat="43.1329" lon="-0.45753">
        <ele>357.6</ele>
        <time>2022-09-08T11:45:33Z</time>
      </trkpt>
      <trkpt lat="43.13287" lon="-0.45771">
        <ele>357.2</ele>
        <time>2022-09-08T11:45:36Z</time>
      </trkpt>
      <trkpt lat="43.13285" lon="-0.45785">
        <ele>357</ele>
        <time>2022-09-08T11:45:38Z</time>
      </trkpt>
      <trkpt lat="43.13285" lon="-0.45792">
        <ele>357</ele>
        <time>2022-09-08T11:45:39Z</time>
      </trkpt>
      <trkpt lat="43.13284" lon="-0.45809">
        <ele>356.4</ele>
        <time>2022-09-08T11:45:42Z</time>
      </trkpt>
      <trkpt lat="43.13284" lon="-0.4584">
        <ele>356.2</ele>
        <time>2022-09-08T11:45:48Z</time>
      </trkpt>
      <trkpt lat="43.13281" lon="-0.45855">
        <ele>356</ele>
        <time>2022-09-08T11:45:51Z</time>
      </trkpt>
      <trkpt lat="43.13279" lon="-0.4586">
        <ele>355.8</ele>
        <time>2022-09-08T11:45:52Z</time>
      </trkpt>
      <trkpt lat="43.13276" lon="-0.45864">
        <ele>355.8</ele>
        <time>2022-09-08T11:45:53Z</time>
      </trkpt>
      <trkpt lat="43.13261" lon="-0.45889">
        <ele>355.2</ele>
        <time>2022-09-08T11:45:59Z</time>
      </trkpt>
      <trkpt lat="43.13252" lon="-0.45904">
        <ele>354.8</ele>
        <time>2022-09-08T11:46:03Z</time>
      </trkpt>
      <trkpt lat="43.13251" lon="-0.45907">
        <ele>354.6</ele>
        <time>2022-09-08T11:46:04Z</time>
      </trkpt>
      <trkpt lat="43.13244" lon="-0.45917">
        <ele>354.4</ele>
        <time>2022-09-08T11:46:09Z</time>
      </trkpt>
      <trkpt lat="43.1324" lon="-0.4591">
        <ele>354.2</ele>
        <time>2022-09-08T11:46:34Z</time>
      </trkpt>
      <trkpt lat="43.13238" lon="-0.45906">
        <ele>354.2</ele>
        <time>2022-09-08T11:46:36Z</time>
      </trkpt>
      <trkpt lat="43.13234" lon="-0.45911">
        <ele>354.4</ele>
        <time>2022-09-08T11:46:39Z</time>
      </trkpt>
      <trkpt lat="43.1323" lon="-0.45914">
        <ele>354.2</ele>
        <time>2022-09-08T11:46:41Z</time>
      </trkpt>
      <trkpt lat="43.13223" lon="-0.45919">
        <ele>354.2</ele>
        <time>2022-09-08T11:46:44Z</time>
      </trkpt>
      <trkpt lat="43.13202" lon="-0.45931">
        <ele>354.6</ele>
        <time>2022-09-08T11:46:52Z</time>
      </trkpt>
      <trkpt lat="43.13178" lon="-0.45945">
        <ele>355</ele>
        <time>2022-09-08T11:47:01Z</time>
      </trkpt>
      <trkpt lat="43.13154" lon="-0.45959">
        <ele>355</ele>
        <time>2022-09-08T11:47:09Z</time>
      </trkpt>
      <trkpt lat="43.13128" lon="-0.45976">
        <ele>355.2</ele>
        <time>2022-09-08T11:47:17Z</time>
      </trkpt>
      <trkpt lat="43.13114" lon="-0.45996">
        <ele>355.6</ele>
        <time>2022-09-08T11:47:23Z</time>
      </trkpt>
      <trkpt lat="43.13102" lon="-0.46025">
        <ele>355.6</ele>
        <time>2022-09-08T11:47:30Z</time>
      </trkpt>
      <trkpt lat="43.13094" lon="-0.46036">
        <ele>355.8</ele>
        <time>2022-09-08T11:47:33Z</time>
      </trkpt>
      <trkpt lat="43.13088" lon="-0.46042">
        <ele>356</ele>
        <time>2022-09-08T11:47:35Z</time>
      </trkpt>
      <trkpt lat="43.1306" lon="-0.46063">
        <ele>356</ele>
        <time>2022-09-08T11:47:43Z</time>
      </trkpt>
      <trkpt lat="43.13033" lon="-0.46084">
        <ele>356</ele>
        <time>2022-09-08T11:47:51Z</time>
      </trkpt>
      <trkpt lat="43.13026" lon="-0.46091">
        <ele>355.8</ele>
        <time>2022-09-08T11:47:53Z</time>
      </trkpt>
      <trkpt lat="43.13017" lon="-0.46106">
        <ele>355</ele>
        <time>2022-09-08T11:47:56Z</time>
      </trkpt>
      <trkpt lat="43.13015" lon="-0.46111">
        <ele>354.8</ele>
        <time>2022-09-08T11:47:57Z</time>
      </trkpt>
      <trkpt lat="43.13013" lon="-0.46115">
        <ele>354.8</ele>
        <time>2022-09-08T11:47:58Z</time>
      </trkpt>
      <trkpt lat="43.1301" lon="-0.46125">
        <ele>354.4</ele>
        <time>2022-09-08T11:48:00Z</time>
      </trkpt>
      <trkpt lat="43.13009" lon="-0.46135">
        <ele>354.4</ele>
        <time>2022-09-08T11:48:02Z</time>
      </trkpt>
      <trkpt lat="43.13014" lon="-0.46153">
        <ele>354.4</ele>
        <time>2022-09-08T11:48:07Z</time>
      </trkpt>
      <trkpt lat="43.13029" lon="-0.46184">
        <ele>354</ele>
        <time>2022-09-08T11:48:15Z</time>
      </trkpt>
      <trkpt lat="43.13036" lon="-0.46199">
        <ele>353.6</ele>
        <time>2022-09-08T11:48:18Z</time>
      </trkpt>
      <trkpt lat="43.13039" lon="-0.46203">
        <ele>354</ele>
        <time>2022-09-08T11:48:19Z</time>
      </trkpt>
      <trkpt lat="43.13049" lon="-0.46217">
        <ele>353.4</ele>
        <time>2022-09-08T11:48:22Z</time>
      </trkpt>
      <trkpt lat="43.13052" lon="-0.46221">
        <ele>353.2</ele>
        <time>2022-09-08T11:48:23Z</time>
      </trkpt>
      <trkpt lat="43.13057" lon="-0.46232">
        <ele>352.8</ele>
        <time>2022-09-08T11:48:25Z</time>
      </trkpt>
      <trkpt lat="43.13059" lon="-0.46238">
        <ele>352.6</ele>
        <time>2022-09-08T11:48:26Z</time>
      </trkpt>
      <trkpt lat="43.13063" lon="-0.46249">
        <ele>352.6</ele>
        <time>2022-09-08T11:48:28Z</time>
      </trkpt>
      <trkpt lat="43.13072" lon="-0.46276">
        <ele>352.4</ele>
        <time>2022-09-08T11:48:33Z</time>
      </trkpt>
      <trkpt lat="43.13074" lon="-0.46281">
        <ele>352.4</ele>
        <time>2022-09-08T11:48:34Z</time>
      </trkpt>
      <trkpt lat="43.13087" lon="-0.4631">
        <ele>352</ele>
        <time>2022-09-08T11:48:41Z</time>
      </trkpt>
      <trkpt lat="43.13098" lon="-0.46328">
        <ele>351.6</ele>
        <time>2022-09-08T11:48:46Z</time>
      </trkpt>
      <trkpt lat="43.131" lon="-0.46332">
        <ele>351.4</ele>
        <time>2022-09-08T11:48:47Z</time>
      </trkpt>
      <trkpt lat="43.13122" lon="-0.46351">
        <ele>351.2</ele>
        <time>2022-09-08T11:48:54Z</time>
      </trkpt>
      <trkpt lat="43.13148" lon="-0.46372">
        <ele>350.6</ele>
        <time>2022-09-08T11:49:02Z</time>
      </trkpt>
      <trkpt lat="43.13154" lon="-0.46377">
        <ele>350.6</ele>
        <time>2022-09-08T11:49:04Z</time>
      </trkpt>
      <trkpt lat="43.13166" lon="-0.46388">
        <ele>350.4</ele>
        <time>2022-09-08T11:49:08Z</time>
      </trkpt>
      <trkpt lat="43.13185" lon="-0.46401">
        <ele>350.6</ele>
        <time>2022-09-08T11:49:14Z</time>
      </trkpt>
      <trkpt lat="43.13196" lon="-0.46425">
        <ele>350</ele>
        <time>2022-09-08T11:49:20Z</time>
      </trkpt>
      <trkpt lat="43.13205" lon="-0.46447">
        <ele>349.4</ele>
        <time>2022-09-08T11:49:25Z</time>
      </trkpt>
      <trkpt lat="43.13206" lon="-0.46452">
        <ele>349.4</ele>
        <time>2022-09-08T11:49:26Z</time>
      </trkpt>
      <trkpt lat="43.13214" lon="-0.46475">
        <ele>349</ele>
        <time>2022-09-08T11:49:30Z</time>
      </trkpt>
      <trkpt lat="43.1322" lon="-0.46493">
        <ele>348.4</ele>
        <time>2022-09-08T11:49:33Z</time>
      </trkpt>
      <trkpt lat="43.13222" lon="-0.46498">
        <ele>348.2</ele>
        <time>2022-09-08T11:49:34Z</time>
      </trkpt>
      <trkpt lat="43.13224" lon="-0.46509">
        <ele>348.2</ele>
        <time>2022-09-08T11:49:36Z</time>
      </trkpt>
      <trkpt lat="43.13223" lon="-0.46533">
        <ele>347.8</ele>
        <time>2022-09-08T11:49:40Z</time>
      </trkpt>
      <trkpt lat="43.13223" lon="-0.46539">
        <ele>348</ele>
        <time>2022-09-08T11:49:41Z</time>
      </trkpt>
      <trkpt lat="43.13223" lon="-0.46563">
        <ele>347.8</ele>
        <time>2022-09-08T11:49:45Z</time>
      </trkpt>
      <trkpt lat="43.13225" lon="-0.4658">
        <ele>347.8</ele>
        <time>2022-09-08T11:49:48Z</time>
      </trkpt>
      <trkpt lat="43.13227" lon="-0.46589">
        <ele>347.4</ele>
        <time>2022-09-08T11:49:50Z</time>
      </trkpt>
      <trkpt lat="43.13228" lon="-0.46594">
        <ele>347.4</ele>
        <time>2022-09-08T11:49:51Z</time>
      </trkpt>
      <trkpt lat="43.1323" lon="-0.46608">
        <ele>347.6</ele>
        <time>2022-09-08T11:49:54Z</time>
      </trkpt>
      <trkpt lat="43.13237" lon="-0.46639">
        <ele>347.8</ele>
        <time>2022-09-08T11:50:01Z</time>
      </trkpt>
      <trkpt lat="43.1324" lon="-0.46657">
        <ele>348.4</ele>
        <time>2022-09-08T11:50:07Z</time>
      </trkpt>
      <trkpt lat="43.1324" lon="-0.4666">
        <ele>348.4</ele>
        <time>2022-09-08T11:50:08Z</time>
      </trkpt>
      <trkpt lat="43.13242" lon="-0.46674">
        <ele>349.2</ele>
        <time>2022-09-08T11:50:14Z</time>
      </trkpt>
      <trkpt lat="43.13242" lon="-0.46679">
        <ele>349.4</ele>
        <time>2022-09-08T11:50:16Z</time>
      </trkpt>
      <trkpt lat="43.13242" lon="-0.46684">
        <ele>349.6</ele>
        <time>2022-09-08T11:50:19Z</time>
      </trkpt>
      <trkpt lat="43.13245" lon="-0.46702">
        <ele>349.6</ele>
        <time>2022-09-08T11:50:26Z</time>
      </trkpt>
      <trkpt lat="43.13245" lon="-0.46707">
        <ele>349.4</ele>
        <time>2022-09-08T11:50:28Z</time>
      </trkpt>
      <trkpt lat="43.13246" lon="-0.46714">
        <ele>349.2</ele>
        <time>2022-09-08T11:50:32Z</time>
      </trkpt>
      <trkpt lat="43.1325" lon="-0.46728">
        <ele>349</ele>
        <time>2022-09-08T11:50:40Z</time>
      </trkpt>
      <trkpt lat="43.13251" lon="-0.4673">
        <ele>349</ele>
        <time>2022-09-08T11:50:41Z</time>
      </trkpt>
      <trkpt lat="43.13258" lon="-0.46764">
        <ele>348.8</ele>
        <time>2022-09-08T11:51:12Z</time>
      </trkpt>
      <trkpt lat="43.13259" lon="-0.46766">
        <ele>348.8</ele>
        <time>2022-09-08T11:51:13Z</time>
      </trkpt>
      <trkpt lat="43.13266" lon="-0.46787">
        <ele>348.6</ele>
        <time>2022-09-08T11:51:22Z</time>
      </trkpt>
      <trkpt lat="43.13272" lon="-0.468">
        <ele>348.4</ele>
        <time>2022-09-08T11:51:28Z</time>
      </trkpt>
      <trkpt lat="43.1328" lon="-0.4682">
        <ele>348.2</ele>
        <time>2022-09-08T11:51:34Z</time>
      </trkpt>
      <trkpt lat="43.13287" lon="-0.46843">
        <ele>348.2</ele>
        <time>2022-09-08T11:51:40Z</time>
      </trkpt>
      <trkpt lat="43.13298" lon="-0.46869">
        <ele>347.8</ele>
        <time>2022-09-08T11:51:48Z</time>
      </trkpt>
      <trkpt lat="43.13305" lon="-0.46889">
        <ele>347.6</ele>
        <time>2022-09-08T11:51:55Z</time>
      </trkpt>
      <trkpt lat="43.1331" lon="-0.46907">
        <ele>347.6</ele>
        <time>2022-09-08T11:52:01Z</time>
      </trkpt>
      <trkpt lat="43.13311" lon="-0.46909">
        <ele>347.4</ele>
        <time>2022-09-08T11:52:02Z</time>
      </trkpt>
      <trkpt lat="43.13314" lon="-0.46918">
        <ele>347.2</ele>
        <time>2022-09-08T11:52:06Z</time>
      </trkpt>
      <trkpt lat="43.13315" lon="-0.4692">
        <ele>347.2</ele>
        <time>2022-09-08T11:52:07Z</time>
      </trkpt>
      <trkpt lat="43.13331" lon="-0.46959">
        <ele>346.2</ele>
        <time>2022-09-08T11:53:49Z</time>
      </trkpt>
      <trkpt lat="43.13335" lon="-0.46971">
        <ele>346</ele>
        <time>2022-09-08T11:53:55Z</time>
      </trkpt>
      <trkpt lat="43.13339" lon="-0.46982">
        <ele>346</ele>
        <time>2022-09-08T11:54:01Z</time>
      </trkpt>
      <trkpt lat="43.13345" lon="-0.46993">
        <ele>346</ele>
        <time>2022-09-08T11:54:07Z</time>
      </trkpt>
      <trkpt lat="43.13351" lon="-0.47009">
        <ele>345.6</ele>
        <time>2022-09-08T11:54:15Z</time>
      </trkpt>
      <trkpt lat="43.13358" lon="-0.47019">
        <ele>345.4</ele>
        <time>2022-09-08T11:54:22Z</time>
      </trkpt>
      <trkpt lat="43.13361" lon="-0.47023">
        <ele>345.4</ele>
        <time>2022-09-08T11:54:26Z</time>
      </trkpt>
      <trkpt lat="43.13364" lon="-0.47028">
        <ele>345.2</ele>
        <time>2022-09-08T11:54:29Z</time>
      </trkpt>
      <trkpt lat="43.1337" lon="-0.47037">
        <ele>345.2</ele>
        <time>2022-09-08T11:54:35Z</time>
      </trkpt>
      <trkpt lat="43.13372" lon="-0.47039">
        <ele>345.2</ele>
        <time>2022-09-08T11:54:37Z</time>
      </trkpt>
      <trkpt lat="43.13379" lon="-0.47048">
        <ele>344.8</ele>
        <time>2022-09-08T11:54:43Z</time>
      </trkpt>
      <trkpt lat="43.1339" lon="-0.47062">
        <ele>344.8</ele>
        <time>2022-09-08T11:54:51Z</time>
      </trkpt>
      <trkpt lat="43.13399" lon="-0.47075">
        <ele>344.8</ele>
        <time>2022-09-08T11:54:57Z</time>
      </trkpt>
      <trkpt lat="43.13409" lon="-0.47089">
        <ele>344.4</ele>
        <time>2022-09-08T11:55:03Z</time>
      </trkpt>
      <trkpt lat="43.13415" lon="-0.47098">
        <ele>344.4</ele>
        <time>2022-09-08T11:55:08Z</time>
      </trkpt>
      <trkpt lat="43.1342" lon="-0.47107">
        <ele>344.2</ele>
        <time>2022-09-08T11:55:12Z</time>
      </trkpt>
      <trkpt lat="43.13422" lon="-0.4711">
        <ele>344.2</ele>
        <time>2022-09-08T11:55:14Z</time>
      </trkpt>
      <trkpt lat="43.13429" lon="-0.47123">
        <ele>343.8</ele>
        <time>2022-09-08T11:55:19Z</time>
      </trkpt>
      <trkpt lat="43.1344" lon="-0.47144">
        <ele>343.2</ele>
        <time>2022-09-08T11:55:26Z</time>
      </trkpt>
      <trkpt lat="43.13441" lon="-0.47147">
        <ele>343</ele>
        <time>2022-09-08T11:55:27Z</time>
      </trkpt>
      <trkpt lat="43.13447" lon="-0.47159">
        <ele>342.6</ele>
        <time>2022-09-08T11:55:33Z</time>
      </trkpt>
      <trkpt lat="43.13451" lon="-0.47166">
        <ele>342</ele>
        <time>2022-09-08T11:55:38Z</time>
      </trkpt>
      <trkpt lat="43.13451" lon="-0.47165">
        <ele>342</ele>
        <time>2022-09-08T11:55:39Z</time>
      </trkpt>
      <trkpt lat="43.13485" lon="-0.47259">
        <ele>338.6</ele>
        <time>2022-09-08T11:58:45Z</time>
      </trkpt>
      <trkpt lat="43.13488" lon="-0.47266">
        <ele>338.6</ele>
        <time>2022-09-08T11:58:47Z</time>
      </trkpt>
      <trkpt lat="43.13494" lon="-0.47286">
        <ele>338</ele>
        <time>2022-09-08T11:58:53Z</time>
      </trkpt>
      <trkpt lat="43.13502" lon="-0.47322">
        <ele>338.2</ele>
        <time>2022-09-08T11:59:01Z</time>
      </trkpt>
      <trkpt lat="43.13511" lon="-0.47351">
        <ele>337.6</ele>
        <time>2022-09-08T11:59:08Z</time>
      </trkpt>
      <trkpt lat="43.13522" lon="-0.47377">
        <ele>337.6</ele>
        <time>2022-09-08T11:59:15Z</time>
      </trkpt>
      <trkpt lat="43.13537" lon="-0.47401">
        <ele>337.6</ele>
        <time>2022-09-08T11:59:21Z</time>
      </trkpt>
      <trkpt lat="43.13549" lon="-0.47428">
        <ele>336.8</ele>
        <time>2022-09-08T11:59:27Z</time>
      </trkpt>
      <trkpt lat="43.13552" lon="-0.47433">
        <ele>336.6</ele>
        <time>2022-09-08T11:59:28Z</time>
      </trkpt>
      <trkpt lat="43.13555" lon="-0.47437">
        <ele>336.6</ele>
        <time>2022-09-08T11:59:29Z</time>
      </trkpt>
      <trkpt lat="43.13561" lon="-0.47448">
        <ele>336.6</ele>
        <time>2022-09-08T11:59:32Z</time>
      </trkpt>
      <trkpt lat="43.13568" lon="-0.47464">
        <ele>336.4</ele>
        <time>2022-09-08T11:59:37Z</time>
      </trkpt>
      <trkpt lat="43.13576" lon="-0.47492">
        <ele>336.2</ele>
        <time>2022-09-08T11:59:43Z</time>
      </trkpt>
      <trkpt lat="43.13577" lon="-0.47527">
        <ele>336.4</ele>
        <time>2022-09-08T11:59:49Z</time>
      </trkpt>
      <trkpt lat="43.13576" lon="-0.47557">
        <ele>335.6</ele>
        <time>2022-09-08T11:59:55Z</time>
      </trkpt>
      <trkpt lat="43.13576" lon="-0.47567">
        <ele>335.4</ele>
        <time>2022-09-08T11:59:57Z</time>
      </trkpt>
      <trkpt lat="43.13576" lon="-0.47612">
        <ele>335</ele>
        <time>2022-09-08T12:00:06Z</time>
      </trkpt>
      <trkpt lat="43.13578" lon="-0.47638">
        <ele>334.8</ele>
        <time>2022-09-08T12:00:11Z</time>
      </trkpt>
      <trkpt lat="43.1358" lon="-0.47655">
        <ele>334.4</ele>
        <time>2022-09-08T12:00:14Z</time>
      </trkpt>
      <trkpt lat="43.13582" lon="-0.47665">
        <ele>334.2</ele>
        <time>2022-09-08T12:00:16Z</time>
      </trkpt>
      <trkpt lat="43.1358" lon="-0.47685">
        <ele>334.2</ele>
        <time>2022-09-08T12:00:20Z</time>
      </trkpt>
      <trkpt lat="43.13573" lon="-0.47712">
        <ele>333.4</ele>
        <time>2022-09-08T12:00:25Z</time>
      </trkpt>
      <trkpt lat="43.1357" lon="-0.47726">
        <ele>333.4</ele>
        <time>2022-09-08T12:00:27Z</time>
      </trkpt>
      <trkpt lat="43.13569" lon="-0.47748">
        <ele>331.8</ele>
        <time>2022-09-08T12:00:30Z</time>
      </trkpt>
      <trkpt lat="43.13569" lon="-0.4776">
        <ele>331</ele>
        <time>2022-09-08T12:00:32Z</time>
      </trkpt>
      <trkpt lat="43.1357" lon="-0.47765">
        <ele>330.6</ele>
        <time>2022-09-08T12:00:33Z</time>
      </trkpt>
      <trkpt lat="43.13569" lon="-0.4778">
        <ele>330</ele>
        <time>2022-09-08T12:00:36Z</time>
      </trkpt>
      <trkpt lat="43.13569" lon="-0.47786">
        <ele>330</ele>
        <time>2022-09-08T12:00:37Z</time>
      </trkpt>
      <trkpt lat="43.13568" lon="-0.47793">
        <ele>330</ele>
        <time>2022-09-08T12:00:38Z</time>
      </trkpt>
      <trkpt lat="43.13561" lon="-0.47809">
        <ele>329.8</ele>
        <time>2022-09-08T12:00:41Z</time>
      </trkpt>
      <trkpt lat="43.13558" lon="-0.47814">
        <ele>330</ele>
        <time>2022-09-08T12:00:42Z</time>
      </trkpt>
      <trkpt lat="43.13552" lon="-0.47824">
        <ele>329.4</ele>
        <time>2022-09-08T12:00:44Z</time>
      </trkpt>
      <trkpt lat="43.13543" lon="-0.47839">
        <ele>328.8</ele>
        <time>2022-09-08T12:00:47Z</time>
      </trkpt>
      <trkpt lat="43.13529" lon="-0.47862">
        <ele>328.6</ele>
        <time>2022-09-08T12:00:53Z</time>
      </trkpt>
      <trkpt lat="43.13532" lon="-0.4787">
        <ele>328.2</ele>
        <time>2022-09-08T12:00:55Z</time>
      </trkpt>
      <trkpt lat="43.13534" lon="-0.47873">
        <ele>328.2</ele>
        <time>2022-09-08T12:00:56Z</time>
      </trkpt>
      <trkpt lat="43.13543" lon="-0.47881">
        <ele>328.2</ele>
        <time>2022-09-08T12:01:00Z</time>
      </trkpt>
      <trkpt lat="43.13544" lon="-0.47884">
        <ele>328.2</ele>
        <time>2022-09-08T12:01:01Z</time>
      </trkpt>
      <trkpt lat="43.13552" lon="-0.47903">
        <ele>328.2</ele>
        <time>2022-09-08T12:01:07Z</time>
      </trkpt>
      <trkpt lat="43.13564" lon="-0.47932">
        <ele>328.4</ele>
        <time>2022-09-08T12:01:16Z</time>
      </trkpt>
      <trkpt lat="43.13575" lon="-0.47962">
        <ele>329</ele>
        <time>2022-09-08T12:01:24Z</time>
      </trkpt>
      <trkpt lat="43.13582" lon="-0.47987">
        <ele>329.2</ele>
        <time>2022-09-08T12:01:30Z</time>
      </trkpt>
      <trkpt lat="43.13585" lon="-0.47994">
        <ele>329.4</ele>
        <time>2022-09-08T12:01:32Z</time>
      </trkpt>
      <trkpt lat="43.13593" lon="-0.4802">
        <ele>329.4</ele>
        <time>2022-09-08T12:01:39Z</time>
      </trkpt>
      <trkpt lat="43.13601" lon="-0.48046">
        <ele>330</ele>
        <time>2022-09-08T12:01:47Z</time>
      </trkpt>
      <trkpt lat="43.13605" lon="-0.48072">
        <ele>330.2</ele>
        <time>2022-09-08T12:01:54Z</time>
      </trkpt>
      <trkpt lat="43.13606" lon="-0.48111">
        <ele>330</ele>
        <time>2022-09-08T12:02:02Z</time>
      </trkpt>
      <trkpt lat="43.13604" lon="-0.48141">
        <ele>329.6</ele>
        <time>2022-09-08T12:02:08Z</time>
      </trkpt>
      <trkpt lat="43.13604" lon="-0.48161">
        <ele>329.8</ele>
        <time>2022-09-08T12:02:13Z</time>
      </trkpt>
      <trkpt lat="43.13599" lon="-0.48191">
        <ele>329.4</ele>
        <time>2022-09-08T12:02:20Z</time>
      </trkpt>
      <trkpt lat="43.13597" lon="-0.48208">
        <ele>329.4</ele>
        <time>2022-09-08T12:02:42Z</time>
      </trkpt>
      <trkpt lat="43.13596" lon="-0.48212">
        <ele>329.4</ele>
        <time>2022-09-08T12:02:43Z</time>
      </trkpt>
      <trkpt lat="43.13595" lon="-0.48234">
        <ele>329.2</ele>
        <time>2022-09-08T12:02:49Z</time>
      </trkpt>
      <trkpt lat="43.13597" lon="-0.48255">
        <ele>329.4</ele>
        <time>2022-09-08T12:02:55Z</time>
      </trkpt>
      <trkpt lat="43.13607" lon="-0.48267">
        <ele>329.6</ele>
        <time>2022-09-08T12:02:59Z</time>
      </trkpt>
      <trkpt lat="43.13623" lon="-0.48282">
        <ele>330</ele>
        <time>2022-09-08T12:03:05Z</time>
      </trkpt>
      <trkpt lat="43.1364" lon="-0.48299">
        <ele>330.4</ele>
        <time>2022-09-08T12:03:11Z</time>
      </trkpt>
      <trkpt lat="43.13655" lon="-0.4832">
        <ele>330.4</ele>
        <time>2022-09-08T12:03:17Z</time>
      </trkpt>
      <trkpt lat="43.13668" lon="-0.48346">
        <ele>331</ele>
        <time>2022-09-08T12:03:24Z</time>
      </trkpt>
      <trkpt lat="43.13673" lon="-0.48361">
        <ele>331.4</ele>
        <time>2022-09-08T12:03:27Z</time>
      </trkpt>
      <trkpt lat="43.13677" lon="-0.48373">
        <ele>331</ele>
        <time>2022-09-08T12:03:29Z</time>
      </trkpt>
      <trkpt lat="43.13679" lon="-0.48385">
        <ele>330.6</ele>
        <time>2022-09-08T12:03:31Z</time>
      </trkpt>
      <trkpt lat="43.13683" lon="-0.48402">
        <ele>330.6</ele>
        <time>2022-09-08T12:03:34Z</time>
      </trkpt>
      <trkpt lat="43.13684" lon="-0.48408">
        <ele>330.8</ele>
        <time>2022-09-08T12:03:35Z</time>
      </trkpt>
      <trkpt lat="43.1369" lon="-0.48436">
        <ele>330.4</ele>
        <time>2022-09-08T12:03:40Z</time>
      </trkpt>
      <trkpt lat="43.13693" lon="-0.48453">
        <ele>330.4</ele>
        <time>2022-09-08T12:03:43Z</time>
      </trkpt>
      <trkpt lat="43.13705" lon="-0.48486">
        <ele>329.6</ele>
        <time>2022-09-08T12:03:49Z</time>
      </trkpt>
      <trkpt lat="43.13713" lon="-0.48502">
        <ele>329.2</ele>
        <time>2022-09-08T12:03:52Z</time>
      </trkpt>
      <trkpt lat="43.13718" lon="-0.48514">
        <ele>329</ele>
        <time>2022-09-08T12:03:54Z</time>
      </trkpt>
      <trkpt lat="43.13721" lon="-0.48521">
        <ele>329</ele>
        <time>2022-09-08T12:03:55Z</time>
      </trkpt>
      <trkpt lat="43.13726" lon="-0.48538">
        <ele>328.8</ele>
        <time>2022-09-08T12:03:58Z</time>
      </trkpt>
      <trkpt lat="43.1373" lon="-0.48556">
        <ele>328.8</ele>
        <time>2022-09-08T12:04:01Z</time>
      </trkpt>
      <trkpt lat="43.13734" lon="-0.48582">
        <ele>328.6</ele>
        <time>2022-09-08T12:04:06Z</time>
      </trkpt>
      <trkpt lat="43.13741" lon="-0.48617">
        <ele>328.2</ele>
        <time>2022-09-08T12:04:13Z</time>
      </trkpt>
      <trkpt lat="43.13744" lon="-0.48645">
        <ele>327.8</ele>
        <time>2022-09-08T12:04:18Z</time>
      </trkpt>
      <trkpt lat="43.13751" lon="-0.48661">
        <ele>327.4</ele>
        <time>2022-09-08T12:04:23Z</time>
      </trkpt>
      <trkpt lat="43.13752" lon="-0.48661">
        <ele>327.2</ele>
        <time>2022-09-08T12:04:24Z</time>
      </trkpt>
      <trkpt lat="43.1376" lon="-0.48662">
        <ele>327.4</ele>
        <time>2022-09-08T12:04:28Z</time>
      </trkpt>
      <trkpt lat="43.1377" lon="-0.48661">
        <ele>327.2</ele>
        <time>2022-09-08T12:04:32Z</time>
      </trkpt>
      <trkpt lat="43.13776" lon="-0.48659">
        <ele>327.4</ele>
        <time>2022-09-08T12:04:34Z</time>
      </trkpt>
      <trkpt lat="43.13799" lon="-0.48647">
        <ele>326.8</ele>
        <time>2022-09-08T12:04:42Z</time>
      </trkpt>
      <trkpt lat="43.13812" lon="-0.48643">
        <ele>327</ele>
        <time>2022-09-08T12:04:46Z</time>
      </trkpt>
      <trkpt lat="43.13815" lon="-0.48644">
        <ele>326.8</ele>
        <time>2022-09-08T12:04:47Z</time>
      </trkpt>
      <trkpt lat="43.13823" lon="-0.48656">
        <ele>326.6</ele>
        <time>2022-09-08T12:04:51Z</time>
      </trkpt>
      <trkpt lat="43.13826" lon="-0.48664">
        <ele>326.4</ele>
        <time>2022-09-08T12:04:53Z</time>
      </trkpt>
      <trkpt lat="43.13835" lon="-0.48691">
        <ele>326.6</ele>
        <time>2022-09-08T12:04:59Z</time>
      </trkpt>
      <trkpt lat="43.13847" lon="-0.48717">
        <ele>326.4</ele>
        <time>2022-09-08T12:05:05Z</time>
      </trkpt>
      <trkpt lat="43.13857" lon="-0.48741">
        <ele>326.4</ele>
        <time>2022-09-08T12:05:11Z</time>
      </trkpt>
      <trkpt lat="43.13865" lon="-0.4876">
        <ele>326.2</ele>
        <time>2022-09-08T12:05:17Z</time>
      </trkpt>
      <trkpt lat="43.13875" lon="-0.48773">
        <ele>326</ele>
        <time>2022-09-08T12:05:23Z</time>
      </trkpt>
      <trkpt lat="43.13891" lon="-0.48798">
        <ele>325.4</ele>
        <time>2022-09-08T12:05:30Z</time>
      </trkpt>
      <trkpt lat="43.13911" lon="-0.48828">
        <ele>325.2</ele>
        <time>2022-09-08T12:05:38Z</time>
      </trkpt>
      <trkpt lat="43.13929" lon="-0.48853">
        <ele>325</ele>
        <time>2022-09-08T12:05:45Z</time>
      </trkpt>
      <trkpt lat="43.13934" lon="-0.4886">
        <ele>325.2</ele>
        <time>2022-09-08T12:05:47Z</time>
      </trkpt>
      <trkpt lat="43.13948" lon="-0.48882">
        <ele>325</ele>
        <time>2022-09-08T12:05:53Z</time>
      </trkpt>
      <trkpt lat="43.13961" lon="-0.4891">
        <ele>324.4</ele>
        <time>2022-09-08T12:06:00Z</time>
      </trkpt>
      <trkpt lat="43.13973" lon="-0.48933">
        <ele>324.2</ele>
        <time>2022-09-08T12:06:06Z</time>
      </trkpt>
      <trkpt lat="43.13978" lon="-0.48944">
        <ele>324</ele>
        <time>2022-09-08T12:06:09Z</time>
      </trkpt>
      <trkpt lat="43.13986" lon="-0.48961">
        <ele>324</ele>
        <time>2022-09-08T12:06:13Z</time>
      </trkpt>
      <trkpt lat="43.13995" lon="-0.48987">
        <ele>324</ele>
        <time>2022-09-08T12:06:19Z</time>
      </trkpt>
      <trkpt lat="43.14004" lon="-0.49008">
        <ele>323.8</ele>
        <time>2022-09-08T12:06:24Z</time>
      </trkpt>
      <trkpt lat="43.14015" lon="-0.49035">
        <ele>323.2</ele>
        <time>2022-09-08T12:06:30Z</time>
      </trkpt>
      <trkpt lat="43.14031" lon="-0.4906">
        <ele>323.2</ele>
        <time>2022-09-08T12:06:36Z</time>
      </trkpt>
      <trkpt lat="43.14056" lon="-0.49092">
        <ele>323.2</ele>
        <time>2022-09-08T12:06:44Z</time>
      </trkpt>
      <trkpt lat="43.14062" lon="-0.491">
        <ele>322.8</ele>
        <time>2022-09-08T12:06:46Z</time>
      </trkpt>
      <trkpt lat="43.14084" lon="-0.4913">
        <ele>322.8</ele>
        <time>2022-09-08T12:06:53Z</time>
      </trkpt>
      <trkpt lat="43.14091" lon="-0.49145">
        <ele>322.6</ele>
        <time>2022-09-08T12:06:56Z</time>
      </trkpt>
      <trkpt lat="43.14095" lon="-0.49156">
        <ele>322.6</ele>
        <time>2022-09-08T12:06:58Z</time>
      </trkpt>
      <trkpt lat="43.14097" lon="-0.49161">
        <ele>322.4</ele>
        <time>2022-09-08T12:06:59Z</time>
      </trkpt>
      <trkpt lat="43.14114" lon="-0.49199">
        <ele>322.2</ele>
        <time>2022-09-08T12:07:06Z</time>
      </trkpt>
      <trkpt lat="43.14132" lon="-0.49238">
        <ele>321.8</ele>
        <time>2022-09-08T12:07:13Z</time>
      </trkpt>
      <trkpt lat="43.14148" lon="-0.49267">
        <ele>321.4</ele>
        <time>2022-09-08T12:07:19Z</time>
      </trkpt>
      <trkpt lat="43.14156" lon="-0.49273">
        <ele>321.4</ele>
        <time>2022-09-08T12:07:21Z</time>
      </trkpt>
      <trkpt lat="43.14163" lon="-0.49282">
        <ele>321.4</ele>
        <time>2022-09-08T12:07:23Z</time>
      </trkpt>
      <trkpt lat="43.14173" lon="-0.49295">
        <ele>322</ele>
        <time>2022-09-08T12:07:26Z</time>
      </trkpt>
      <trkpt lat="43.14176" lon="-0.493">
        <ele>321.6</ele>
        <time>2022-09-08T12:07:27Z</time>
      </trkpt>
      <trkpt lat="43.14185" lon="-0.49313">
        <ele>321.2</ele>
        <time>2022-09-08T12:07:30Z</time>
      </trkpt>
      <trkpt lat="43.1419" lon="-0.49322">
        <ele>320.6</ele>
        <time>2022-09-08T12:07:32Z</time>
      </trkpt>
      <trkpt lat="43.14193" lon="-0.49326">
        <ele>320.6</ele>
        <time>2022-09-08T12:07:33Z</time>
      </trkpt>
      <trkpt lat="43.1422" lon="-0.4936">
        <ele>320.2</ele>
        <time>2022-09-08T12:07:41Z</time>
      </trkpt>
      <trkpt lat="43.14239" lon="-0.49381">
        <ele>320.2</ele>
        <time>2022-09-08T12:07:46Z</time>
      </trkpt>
      <trkpt lat="43.14244" lon="-0.4939">
        <ele>319.4</ele>
        <time>2022-09-08T12:07:48Z</time>
      </trkpt>
      <trkpt lat="43.14261" lon="-0.49425">
        <ele>318.8</ele>
        <time>2022-09-08T12:07:55Z</time>
      </trkpt>
      <trkpt lat="43.14264" lon="-0.49429">
        <ele>318.8</ele>
        <time>2022-09-08T12:07:56Z</time>
      </trkpt>
      <trkpt lat="43.14277" lon="-0.49442">
        <ele>319</ele>
        <time>2022-09-08T12:08:00Z</time>
      </trkpt>
      <trkpt lat="43.14306" lon="-0.49474">
        <ele>318.6</ele>
        <time>2022-09-08T12:08:08Z</time>
      </trkpt>
      <trkpt lat="43.14317" lon="-0.49495">
        <ele>318.6</ele>
        <time>2022-09-08T12:08:12Z</time>
      </trkpt>
      <trkpt lat="43.14325" lon="-0.49512">
        <ele>318.4</ele>
        <time>2022-09-08T12:08:15Z</time>
      </trkpt>
      <trkpt lat="43.14336" lon="-0.49535">
        <ele>318.4</ele>
        <time>2022-09-08T12:08:19Z</time>
      </trkpt>
      <trkpt lat="43.14344" lon="-0.4955">
        <ele>318.2</ele>
        <time>2022-09-08T12:08:22Z</time>
      </trkpt>
      <trkpt lat="43.14354" lon="-0.4958">
        <ele>317.8</ele>
        <time>2022-09-08T12:08:27Z</time>
      </trkpt>
      <trkpt lat="43.14366" lon="-0.49614">
        <ele>317.8</ele>
        <time>2022-09-08T12:08:33Z</time>
      </trkpt>
      <trkpt lat="43.14373" lon="-0.49621">
        <ele>318</ele>
        <time>2022-09-08T12:08:35Z</time>
      </trkpt>
      <trkpt lat="43.14384" lon="-0.49633">
        <ele>317.6</ele>
        <time>2022-09-08T12:08:38Z</time>
      </trkpt>
      <trkpt lat="43.14398" lon="-0.49649">
        <ele>317.4</ele>
        <time>2022-09-08T12:08:42Z</time>
      </trkpt>
      <trkpt lat="43.14401" lon="-0.49653">
        <ele>317.4</ele>
        <time>2022-09-08T12:08:43Z</time>
      </trkpt>
      <trkpt lat="43.14415" lon="-0.49679">
        <ele>317.2</ele>
        <time>2022-09-08T12:08:48Z</time>
      </trkpt>
      <trkpt lat="43.14427" lon="-0.49709">
        <ele>316.6</ele>
        <time>2022-09-08T12:08:54Z</time>
      </trkpt>
      <trkpt lat="43.1443" lon="-0.49714">
        <ele>316.6</ele>
        <time>2022-09-08T12:08:55Z</time>
      </trkpt>
      <trkpt lat="43.14442" lon="-0.49741">
        <ele>316.6</ele>
        <time>2022-09-08T12:09:00Z</time>
      </trkpt>
      <trkpt lat="43.1445" lon="-0.49757">
        <ele>316.4</ele>
        <time>2022-09-08T12:09:03Z</time>
      </trkpt>
      <trkpt lat="43.14464" lon="-0.4978">
        <ele>315.8</ele>
        <time>2022-09-08T12:09:08Z</time>
      </trkpt>
      <trkpt lat="43.14478" lon="-0.49797">
        <ele>315.4</ele>
        <time>2022-09-08T12:09:12Z</time>
      </trkpt>
      <trkpt lat="43.14486" lon="-0.49804">
        <ele>315.2</ele>
        <time>2022-09-08T12:09:14Z</time>
      </trkpt>
      <trkpt lat="43.1449" lon="-0.49808">
        <ele>315.2</ele>
        <time>2022-09-08T12:09:15Z</time>
      </trkpt>
      <trkpt lat="43.14505" lon="-0.49825">
        <ele>315</ele>
        <time>2022-09-08T12:09:19Z</time>
      </trkpt>
      <trkpt lat="43.14509" lon="-0.49838">
        <ele>315</ele>
        <time>2022-09-08T12:09:21Z</time>
      </trkpt>
      <trkpt lat="43.14512" lon="-0.49853">
        <ele>314.8</ele>
        <time>2022-09-08T12:09:23Z</time>
      </trkpt>
      <trkpt lat="43.14513" lon="-0.49867">
        <ele>314.2</ele>
        <time>2022-09-08T12:09:25Z</time>
      </trkpt>
      <trkpt lat="43.14514" lon="-0.49874">
        <ele>314</ele>
        <time>2022-09-08T12:09:26Z</time>
      </trkpt>
      <trkpt lat="43.1452" lon="-0.49908">
        <ele>313.6</ele>
        <time>2022-09-08T12:09:31Z</time>
      </trkpt>
      <trkpt lat="43.14526" lon="-0.49926">
        <ele>313.6</ele>
        <time>2022-09-08T12:09:34Z</time>
      </trkpt>
      <trkpt lat="43.14538" lon="-0.49961">
        <ele>313.2</ele>
        <time>2022-09-08T12:09:40Z</time>
      </trkpt>
      <trkpt lat="43.14544" lon="-0.49977">
        <ele>313.6</ele>
        <time>2022-09-08T12:09:43Z</time>
      </trkpt>
      <trkpt lat="43.14566" lon="-0.50029">
        <ele>312.2</ele>
        <time>2022-09-08T12:09:53Z</time>
      </trkpt>
      <trkpt lat="43.14568" lon="-0.50034">
        <ele>312.2</ele>
        <time>2022-09-08T12:09:54Z</time>
      </trkpt>
      <trkpt lat="43.14576" lon="-0.50063">
        <ele>312.4</ele>
        <time>2022-09-08T12:09:59Z</time>
      </trkpt>
      <trkpt lat="43.14581" lon="-0.50097">
        <ele>312</ele>
        <time>2022-09-08T12:10:05Z</time>
      </trkpt>
      <trkpt lat="43.14585" lon="-0.50114">
        <ele>311.8</ele>
        <time>2022-09-08T12:10:08Z</time>
      </trkpt>
      <trkpt lat="43.14589" lon="-0.50124">
        <ele>311.8</ele>
        <time>2022-09-08T12:10:10Z</time>
      </trkpt>
      <trkpt lat="43.14598" lon="-0.50157">
        <ele>311.2</ele>
        <time>2022-09-08T12:10:16Z</time>
      </trkpt>
      <trkpt lat="43.146" lon="-0.50163">
        <ele>311.2</ele>
        <time>2022-09-08T12:10:17Z</time>
      </trkpt>
      <trkpt lat="43.14611" lon="-0.50199">
        <ele>310.6</ele>
        <time>2022-09-08T12:10:24Z</time>
      </trkpt>
      <trkpt lat="43.14622" lon="-0.50222">
        <ele>310.8</ele>
        <time>2022-09-08T12:10:29Z</time>
      </trkpt>
      <trkpt lat="43.14628" lon="-0.50237">
        <ele>310.2</ele>
        <time>2022-09-08T12:10:32Z</time>
      </trkpt>
      <trkpt lat="43.14641" lon="-0.50262">
        <ele>309.8</ele>
        <time>2022-09-08T12:10:37Z</time>
      </trkpt>
      <trkpt lat="43.14649" lon="-0.50279">
        <ele>309</ele>
        <time>2022-09-08T12:10:42Z</time>
      </trkpt>
      <trkpt lat="43.1465" lon="-0.50285">
        <ele>309</ele>
        <time>2022-09-08T12:10:44Z</time>
      </trkpt>
      <trkpt lat="43.14647" lon="-0.50292">
        <ele>309.2</ele>
        <time>2022-09-08T12:10:47Z</time>
      </trkpt>
      <trkpt lat="43.14645" lon="-0.50295">
        <ele>309</ele>
        <time>2022-09-08T12:10:48Z</time>
      </trkpt>
      <trkpt lat="43.14631" lon="-0.50313">
        <ele>309.8</ele>
        <time>2022-09-08T12:10:55Z</time>
      </trkpt>
      <trkpt lat="43.14628" lon="-0.50329">
        <ele>310</ele>
        <time>2022-09-08T12:11:00Z</time>
      </trkpt>
      <trkpt lat="43.14629" lon="-0.50337">
        <ele>310</ele>
        <time>2022-09-08T12:11:02Z</time>
      </trkpt>
      <trkpt lat="43.14629" lon="-0.50359">
        <ele>309.8</ele>
        <time>2022-09-08T12:11:08Z</time>
      </trkpt>
      <trkpt lat="43.14634" lon="-0.50386">
        <ele>310.2</ele>
        <time>2022-09-08T12:11:15Z</time>
      </trkpt>
      <trkpt lat="43.14637" lon="-0.50411">
        <ele>309.8</ele>
        <time>2022-09-08T12:11:21Z</time>
      </trkpt>
      <trkpt lat="43.14641" lon="-0.50439">
        <ele>309.8</ele>
        <time>2022-09-08T12:11:27Z</time>
      </trkpt>
      <trkpt lat="43.14646" lon="-0.50467">
        <ele>309.4</ele>
        <time>2022-09-08T12:11:34Z</time>
      </trkpt>
      <trkpt lat="43.14652" lon="-0.50495">
        <ele>309</ele>
        <time>2022-09-08T12:11:41Z</time>
      </trkpt>
      <trkpt lat="43.14653" lon="-0.50499">
        <ele>309</ele>
        <time>2022-09-08T12:11:42Z</time>
      </trkpt>
      <trkpt lat="43.1466" lon="-0.50513">
        <ele>309</ele>
        <time>2022-09-08T12:11:46Z</time>
      </trkpt>
      <trkpt lat="43.14669" lon="-0.50533">
        <ele>308.4</ele>
        <time>2022-09-08T12:11:52Z</time>
      </trkpt>
      <trkpt lat="43.1468" lon="-0.50565">
        <ele>308.6</ele>
        <time>2022-09-08T12:12:00Z</time>
      </trkpt>
      <trkpt lat="43.14679" lon="-0.50575">
        <ele>308.8</ele>
        <time>2022-09-08T12:12:03Z</time>
      </trkpt>
      <trkpt lat="43.14677" lon="-0.50579">
        <ele>308.8</ele>
        <time>2022-09-08T12:12:04Z</time>
      </trkpt>
      <trkpt lat="43.14657" lon="-0.50608">
        <ele>308.6</ele>
        <time>2022-09-08T12:12:12Z</time>
      </trkpt>
      <trkpt lat="43.14638" lon="-0.50633">
        <ele>308.8</ele>
        <time>2022-09-08T12:12:19Z</time>
      </trkpt>
      <trkpt lat="43.14632" lon="-0.5065">
        <ele>309.2</ele>
        <time>2022-09-08T12:12:24Z</time>
      </trkpt>
      <trkpt lat="43.14628" lon="-0.50668">
        <ele>309.2</ele>
        <time>2022-09-08T12:12:29Z</time>
      </trkpt>
      <trkpt lat="43.14624" lon="-0.50694">
        <ele>308.2</ele>
        <time>2022-09-08T12:12:33Z</time>
      </trkpt>
      <trkpt lat="43.14625" lon="-0.507">
        <ele>308.2</ele>
        <time>2022-09-08T12:12:34Z</time>
      </trkpt>
      <trkpt lat="43.14628" lon="-0.50713">
        <ele>308</ele>
        <time>2022-09-08T12:12:36Z</time>
      </trkpt>
      <trkpt lat="43.14636" lon="-0.50736">
        <ele>307.6</ele>
        <time>2022-09-08T12:12:40Z</time>
      </trkpt>
      <trkpt lat="43.14649" lon="-0.50763">
        <ele>306.8</ele>
        <time>2022-09-08T12:12:45Z</time>
      </trkpt>
      <trkpt lat="43.14655" lon="-0.50772">
        <ele>307</ele>
        <time>2022-09-08T12:12:47Z</time>
      </trkpt>
      <trkpt lat="43.14658" lon="-0.50777">
        <ele>306.8</ele>
        <time>2022-09-08T12:12:48Z</time>
      </trkpt>
      <trkpt lat="43.14668" lon="-0.50798">
        <ele>306.8</ele>
        <time>2022-09-08T12:12:52Z</time>
      </trkpt>
      <trkpt lat="43.14686" lon="-0.50823">
        <ele>306.6</ele>
        <time>2022-09-08T12:12:58Z</time>
      </trkpt>
      <trkpt lat="43.14693" lon="-0.50831">
        <ele>306.4</ele>
        <time>2022-09-08T12:13:00Z</time>
      </trkpt>
      <trkpt lat="43.14699" lon="-0.50839">
        <ele>306.4</ele>
        <time>2022-09-08T12:13:02Z</time>
      </trkpt>
      <trkpt lat="43.14719" lon="-0.50865">
        <ele>306.4</ele>
        <time>2022-09-08T12:13:09Z</time>
      </trkpt>
      <trkpt lat="43.14737" lon="-0.50897">
        <ele>306</ele>
        <time>2022-09-08T12:13:17Z</time>
      </trkpt>
      <trkpt lat="43.14752" lon="-0.50926">
        <ele>305.8</ele>
        <time>2022-09-08T12:13:24Z</time>
      </trkpt>
      <trkpt lat="43.14754" lon="-0.5093">
        <ele>305.8</ele>
        <time>2022-09-08T12:13:25Z</time>
      </trkpt>
      <trkpt lat="43.14773" lon="-0.50973">
        <ele>306.2</ele>
        <time>2022-09-08T12:13:34Z</time>
      </trkpt>
      <trkpt lat="43.14794" lon="-0.51025">
        <ele>306</ele>
        <time>2022-09-08T12:13:44Z</time>
      </trkpt>
      <trkpt lat="43.1481" lon="-0.5107">
        <ele>305.8</ele>
        <time>2022-09-08T12:13:52Z</time>
      </trkpt>
      <trkpt lat="43.14829" lon="-0.51129">
        <ele>305.8</ele>
        <time>2022-09-08T12:14:02Z</time>
      </trkpt>
      <trkpt lat="43.14841" lon="-0.51162">
        <ele>305</ele>
        <time>2022-09-08T12:14:08Z</time>
      </trkpt>
      <trkpt lat="43.14855" lon="-0.51197">
        <ele>305.2</ele>
        <time>2022-09-08T12:14:15Z</time>
      </trkpt>
      <trkpt lat="43.14862" lon="-0.51211">
        <ele>304.6</ele>
        <time>2022-09-08T12:14:18Z</time>
      </trkpt>
      <trkpt lat="43.14878" lon="-0.51244">
        <ele>304.8</ele>
        <time>2022-09-08T12:14:25Z</time>
      </trkpt>
      <trkpt lat="43.14889" lon="-0.51262">
        <ele>304.2</ele>
        <time>2022-09-08T12:14:29Z</time>
      </trkpt>
      <trkpt lat="43.14893" lon="-0.51272">
        <ele>304</ele>
        <time>2022-09-08T12:14:31Z</time>
      </trkpt>
      <trkpt lat="43.14898" lon="-0.51282">
        <ele>303.8</ele>
        <time>2022-09-08T12:14:33Z</time>
      </trkpt>
      <trkpt lat="43.14899" lon="-0.51287">
        <ele>303.6</ele>
        <time>2022-09-08T12:14:34Z</time>
      </trkpt>
      <trkpt lat="43.14902" lon="-0.51299">
        <ele>303.6</ele>
        <time>2022-09-08T12:14:36Z</time>
      </trkpt>
      <trkpt lat="43.14903" lon="-0.51304">
        <ele>303.8</ele>
        <time>2022-09-08T12:14:37Z</time>
      </trkpt>
      <trkpt lat="43.14904" lon="-0.51331">
        <ele>304</ele>
        <time>2022-09-08T12:14:42Z</time>
      </trkpt>
      <trkpt lat="43.14904" lon="-0.51364">
        <ele>303.4</ele>
        <time>2022-09-08T12:14:48Z</time>
      </trkpt>
      <trkpt lat="43.14904" lon="-0.51376">
        <ele>303</ele>
        <time>2022-09-08T12:14:50Z</time>
      </trkpt>
      <trkpt lat="43.14906" lon="-0.51395">
        <ele>302.4</ele>
        <time>2022-09-08T12:14:53Z</time>
      </trkpt>
      <trkpt lat="43.14908" lon="-0.51401">
        <ele>302.4</ele>
        <time>2022-09-08T12:14:54Z</time>
      </trkpt>
      <trkpt lat="43.1491" lon="-0.51407">
        <ele>302.4</ele>
        <time>2022-09-08T12:14:55Z</time>
      </trkpt>
      <trkpt lat="43.14912" lon="-0.51412">
        <ele>302.6</ele>
        <time>2022-09-08T12:14:56Z</time>
      </trkpt>
      <trkpt lat="43.14923" lon="-0.5144">
        <ele>302.6</ele>
        <time>2022-09-08T12:15:01Z</time>
      </trkpt>
      <trkpt lat="43.14928" lon="-0.51451">
        <ele>302.6</ele>
        <time>2022-09-08T12:15:03Z</time>
      </trkpt>
      <trkpt lat="43.14955" lon="-0.51505">
        <ele>301.8</ele>
        <time>2022-09-08T12:15:12Z</time>
      </trkpt>
      <trkpt lat="43.14981" lon="-0.51553">
        <ele>301.8</ele>
        <time>2022-09-08T12:15:20Z</time>
      </trkpt>
      <trkpt lat="43.15003" lon="-0.51596">
        <ele>302.2</ele>
        <time>2022-09-08T12:15:27Z</time>
      </trkpt>
      <trkpt lat="43.15014" lon="-0.5162">
        <ele>301</ele>
        <time>2022-09-08T12:15:31Z</time>
      </trkpt>
      <trkpt lat="43.15023" lon="-0.51642">
        <ele>300.4</ele>
        <time>2022-09-08T12:15:35Z</time>
      </trkpt>
      <trkpt lat="43.15039" lon="-0.51676">
        <ele>300.2</ele>
        <time>2022-09-08T12:15:41Z</time>
      </trkpt>
      <trkpt lat="43.15042" lon="-0.51681">
        <ele>300.2</ele>
        <time>2022-09-08T12:15:42Z</time>
      </trkpt>
      <trkpt lat="43.1505" lon="-0.51691">
        <ele>300</ele>
        <time>2022-09-08T12:15:44Z</time>
      </trkpt>
      <trkpt lat="43.1507" lon="-0.51714">
        <ele>300</ele>
        <time>2022-09-08T12:15:49Z</time>
      </trkpt>
      <trkpt lat="43.15106" lon="-0.51754">
        <ele>299.6</ele>
        <time>2022-09-08T12:15:58Z</time>
      </trkpt>
      <trkpt lat="43.15139" lon="-0.51797">
        <ele>299.6</ele>
        <time>2022-09-08T12:16:07Z</time>
      </trkpt>
      <trkpt lat="43.15152" lon="-0.51816">
        <ele>299</ele>
        <time>2022-09-08T12:16:11Z</time>
      </trkpt>
      <trkpt lat="43.15165" lon="-0.51833">
        <ele>298.8</ele>
        <time>2022-09-08T12:16:15Z</time>
      </trkpt>
      <trkpt lat="43.15191" lon="-0.51864">
        <ele>298.6</ele>
        <time>2022-09-08T12:16:22Z</time>
      </trkpt>
      <trkpt lat="43.15216" lon="-0.51909">
        <ele>298.4</ele>
        <time>2022-09-08T12:16:30Z</time>
      </trkpt>
      <trkpt lat="43.15226" lon="-0.51934">
        <ele>297.8</ele>
        <time>2022-09-08T12:16:34Z</time>
      </trkpt>
      <trkpt lat="43.1523" lon="-0.51947">
        <ele>297.4</ele>
        <time>2022-09-08T12:16:36Z</time>
      </trkpt>
      <trkpt lat="43.15233" lon="-0.51959">
        <ele>297.4</ele>
        <time>2022-09-08T12:16:38Z</time>
      </trkpt>
      <trkpt lat="43.15239" lon="-0.51999">
        <ele>297.2</ele>
        <time>2022-09-08T12:16:44Z</time>
      </trkpt>
      <trkpt lat="43.15247" lon="-0.52052">
        <ele>297.4</ele>
        <time>2022-09-08T12:16:51Z</time>
      </trkpt>
      <trkpt lat="43.15258" lon="-0.52121">
        <ele>297.2</ele>
        <time>2022-09-08T12:17:00Z</time>
      </trkpt>
      <trkpt lat="43.15259" lon="-0.52128">
        <ele>296.6</ele>
        <time>2022-09-08T12:17:01Z</time>
      </trkpt>
      <trkpt lat="43.15268" lon="-0.52171">
        <ele>296</ele>
        <time>2022-09-08T12:17:07Z</time>
      </trkpt>
      <trkpt lat="43.15281" lon="-0.52225">
        <ele>296</ele>
        <time>2022-09-08T12:17:14Z</time>
      </trkpt>
      <trkpt lat="43.15294" lon="-0.52287">
        <ele>295.6</ele>
        <time>2022-09-08T12:17:22Z</time>
      </trkpt>
      <trkpt lat="43.15298" lon="-0.52303">
        <ele>295.6</ele>
        <time>2022-09-08T12:17:24Z</time>
      </trkpt>
      <trkpt lat="43.15311" lon="-0.52348">
        <ele>295.2</ele>
        <time>2022-09-08T12:17:30Z</time>
      </trkpt>
      <trkpt lat="43.15313" lon="-0.52355">
        <ele>295.2</ele>
        <time>2022-09-08T12:17:31Z</time>
      </trkpt>
      <trkpt lat="43.15334" lon="-0.52405">
        <ele>294.8</ele>
        <time>2022-09-08T12:17:38Z</time>
      </trkpt>
      <trkpt lat="43.15353" lon="-0.52442">
        <ele>295</ele>
        <time>2022-09-08T12:17:44Z</time>
      </trkpt>
      <trkpt lat="43.15357" lon="-0.52457">
        <ele>295</ele>
        <time>2022-09-08T12:17:46Z</time>
      </trkpt>
      <trkpt lat="43.15358" lon="-0.52481">
        <ele>294.8</ele>
        <time>2022-09-08T12:17:49Z</time>
      </trkpt>
      <trkpt lat="43.15358" lon="-0.52488">
        <ele>294.6</ele>
        <time>2022-09-08T12:17:50Z</time>
      </trkpt>
      <trkpt lat="43.15359" lon="-0.52495">
        <ele>294.4</ele>
        <time>2022-09-08T12:17:51Z</time>
      </trkpt>
      <trkpt lat="43.1536" lon="-0.52518">
        <ele>295</ele>
        <time>2022-09-08T12:17:54Z</time>
      </trkpt>
      <trkpt lat="43.15358" lon="-0.52534">
        <ele>294.8</ele>
        <time>2022-09-08T12:17:56Z</time>
      </trkpt>
      <trkpt lat="43.15352" lon="-0.52582">
        <ele>294.2</ele>
        <time>2022-09-08T12:18:02Z</time>
      </trkpt>
      <trkpt lat="43.15358" lon="-0.52612">
        <ele>294</ele>
        <time>2022-09-08T12:18:06Z</time>
      </trkpt>
      <trkpt lat="43.1536" lon="-0.52618">
        <ele>294</ele>
        <time>2022-09-08T12:18:07Z</time>
      </trkpt>
      <trkpt lat="43.15365" lon="-0.52638">
        <ele>294</ele>
        <time>2022-09-08T12:18:10Z</time>
      </trkpt>
      <trkpt lat="43.15364" lon="-0.52652">
        <ele>294</ele>
        <time>2022-09-08T12:18:12Z</time>
      </trkpt>
      <trkpt lat="43.15357" lon="-0.52662">
        <ele>293.6</ele>
        <time>2022-09-08T12:18:14Z</time>
      </trkpt>
      <trkpt lat="43.15354" lon="-0.52667">
        <ele>293.4</ele>
        <time>2022-09-08T12:18:15Z</time>
      </trkpt>
      <trkpt lat="43.15323" lon="-0.52704">
        <ele>293</ele>
        <time>2022-09-08T12:18:23Z</time>
      </trkpt>
      <trkpt lat="43.15316" lon="-0.52728">
        <ele>293</ele>
        <time>2022-09-08T12:18:27Z</time>
      </trkpt>
      <trkpt lat="43.15317" lon="-0.52748">
        <ele>292.8</ele>
        <time>2022-09-08T12:18:30Z</time>
      </trkpt>
      <trkpt lat="43.15318" lon="-0.52765">
        <ele>293</ele>
        <time>2022-09-08T12:18:33Z</time>
      </trkpt>
      <trkpt lat="43.1532" lon="-0.5279">
        <ele>294.2</ele>
        <time>2022-09-08T12:18:39Z</time>
      </trkpt>
      <trkpt lat="43.15319" lon="-0.52796">
        <ele>294.6</ele>
        <time>2022-09-08T12:18:41Z</time>
      </trkpt>
      <trkpt lat="43.1532" lon="-0.52805">
        <ele>295.6</ele>
        <time>2022-09-08T12:18:45Z</time>
      </trkpt>
      <trkpt lat="43.1532" lon="-0.52816">
        <ele>296.8</ele>
        <time>2022-09-08T12:18:50Z</time>
      </trkpt>
      <trkpt lat="43.1532" lon="-0.52821">
        <ele>297.2</ele>
        <time>2022-09-08T12:18:52Z</time>
      </trkpt>
      <trkpt lat="43.1532" lon="-0.52827">
        <ele>297.8</ele>
        <time>2022-09-08T12:18:55Z</time>
      </trkpt>
      <trkpt lat="43.1532" lon="-0.52835">
        <ele>298.6</ele>
        <time>2022-09-08T12:18:59Z</time>
      </trkpt>
      <trkpt lat="43.1532" lon="-0.52836">
        <ele>298.8</ele>
        <time>2022-09-08T12:19:00Z</time>
      </trkpt>
      <trkpt lat="43.1532" lon="-0.52845">
        <ele>299.8</ele>
        <time>2022-09-08T12:19:05Z</time>
      </trkpt>
      <trkpt lat="43.1532" lon="-0.52849">
        <ele>300.2</ele>
        <time>2022-09-08T12:19:07Z</time>
      </trkpt>
      <trkpt lat="43.1532" lon="-0.52854">
        <ele>301</ele>
        <time>2022-09-08T12:19:10Z</time>
      </trkpt>
      <trkpt lat="43.1532" lon="-0.52861">
        <ele>301.6</ele>
        <time>2022-09-08T12:19:14Z</time>
      </trkpt>
      <trkpt lat="43.15319" lon="-0.52867">
        <ele>302</ele>
        <time>2022-09-08T12:19:17Z</time>
      </trkpt>
      <trkpt lat="43.15318" lon="-0.52873">
        <ele>302.6</ele>
        <time>2022-09-08T12:19:21Z</time>
      </trkpt>
      <trkpt lat="43.15315" lon="-0.52879">
        <ele>303.2</ele>
        <time>2022-09-08T12:19:25Z</time>
      </trkpt>
      <trkpt lat="43.15313" lon="-0.52886">
        <ele>303.8</ele>
        <time>2022-09-08T12:19:29Z</time>
      </trkpt>
      <trkpt lat="43.15311" lon="-0.52889">
        <ele>304.2</ele>
        <time>2022-09-08T12:19:31Z</time>
      </trkpt>
      <trkpt lat="43.15309" lon="-0.52897">
        <ele>305.2</ele>
        <time>2022-09-08T12:19:36Z</time>
      </trkpt>
      <trkpt lat="43.15308" lon="-0.52898">
        <ele>305.4</ele>
        <time>2022-09-08T12:19:37Z</time>
      </trkpt>
      <trkpt lat="43.15305" lon="-0.52907">
        <ele>306</ele>
        <time>2022-09-08T12:19:42Z</time>
      </trkpt>
      <trkpt lat="43.15304" lon="-0.5291">
        <ele>306.4</ele>
        <time>2022-09-08T12:19:44Z</time>
      </trkpt>
      <trkpt lat="43.15299" lon="-0.52918">
        <ele>307</ele>
        <time>2022-09-08T12:19:49Z</time>
      </trkpt>
      <trkpt lat="43.15294" lon="-0.52924">
        <ele>307.4</ele>
        <time>2022-09-08T12:19:53Z</time>
      </trkpt>
      <trkpt lat="43.1529" lon="-0.52928">
        <ele>308</ele>
        <time>2022-09-08T12:19:56Z</time>
      </trkpt>
      <trkpt lat="43.15286" lon="-0.52938">
        <ele>308.4</ele>
        <time>2022-09-08T12:20:01Z</time>
      </trkpt>
      <trkpt lat="43.15286" lon="-0.52941">
        <ele>308.6</ele>
        <time>2022-09-08T12:20:02Z</time>
      </trkpt>
      <trkpt lat="43.15285" lon="-0.52943">
        <ele>308.8</ele>
        <time>2022-09-08T12:20:03Z</time>
      </trkpt>
      <trkpt lat="43.15285" lon="-0.52955">
        <ele>309</ele>
        <time>2022-09-08T12:20:07Z</time>
      </trkpt>
      <trkpt lat="43.15285" lon="-0.52975">
        <ele>309.4</ele>
        <time>2022-09-08T12:20:14Z</time>
      </trkpt>
      <trkpt lat="43.15288" lon="-0.52991">
        <ele>309.6</ele>
        <time>2022-09-08T12:20:19Z</time>
      </trkpt>
      <trkpt lat="43.15289" lon="-0.52998">
        <ele>310</ele>
        <time>2022-09-08T12:20:21Z</time>
      </trkpt>
      <trkpt lat="43.15293" lon="-0.53024">
        <ele>310.6</ele>
        <time>2022-09-08T12:20:28Z</time>
      </trkpt>
      <trkpt lat="43.15294" lon="-0.53031">
        <ele>310.8</ele>
        <time>2022-09-08T12:20:30Z</time>
      </trkpt>
      <trkpt lat="43.15297" lon="-0.53054">
        <ele>311.6</ele>
        <time>2022-09-08T12:20:36Z</time>
      </trkpt>
      <trkpt lat="43.15296" lon="-0.5308">
        <ele>311.4</ele>
        <time>2022-09-08T12:20:43Z</time>
      </trkpt>
      <trkpt lat="43.15295" lon="-0.53114">
        <ele>311.2</ele>
        <time>2022-09-08T12:20:51Z</time>
      </trkpt>
      <trkpt lat="43.15294" lon="-0.53134">
        <ele>311.2</ele>
        <time>2022-09-08T12:20:55Z</time>
      </trkpt>
      <trkpt lat="43.15293" lon="-0.5314">
        <ele>311.2</ele>
        <time>2022-09-08T12:20:56Z</time>
      </trkpt>
      <trkpt lat="43.15293" lon="-0.53181">
        <ele>311.2</ele>
        <time>2022-09-08T12:21:03Z</time>
      </trkpt>
      <trkpt lat="43.153" lon="-0.53214">
        <ele>311.6</ele>
        <time>2022-09-08T12:21:09Z</time>
      </trkpt>
      <trkpt lat="43.1531" lon="-0.5323">
        <ele>311.8</ele>
        <time>2022-09-08T12:21:13Z</time>
      </trkpt>
      <trkpt lat="43.15313" lon="-0.53233">
        <ele>312</ele>
        <time>2022-09-08T12:21:14Z</time>
      </trkpt>
      <trkpt lat="43.15329" lon="-0.53257">
        <ele>313</ele>
        <time>2022-09-08T12:21:21Z</time>
      </trkpt>
      <trkpt lat="43.15331" lon="-0.5326">
        <ele>313</ele>
        <time>2022-09-08T12:21:22Z</time>
      </trkpt>
      <trkpt lat="43.15357" lon="-0.5329">
        <ele>313.8</ele>
        <time>2022-09-08T12:21:32Z</time>
      </trkpt>
      <trkpt lat="43.15373" lon="-0.53299">
        <ele>314</ele>
        <time>2022-09-08T12:21:37Z</time>
      </trkpt>
      <trkpt lat="43.1538" lon="-0.53303">
        <ele>313.8</ele>
        <time>2022-09-08T12:21:39Z</time>
      </trkpt>
      <trkpt lat="43.1541" lon="-0.53315">
        <ele>314.2</ele>
        <time>2022-09-08T12:21:46Z</time>
      </trkpt>
      <trkpt lat="43.15429" lon="-0.53324">
        <ele>315.2</ele>
        <time>2022-09-08T12:21:50Z</time>
      </trkpt>
      <trkpt lat="43.15454" lon="-0.53336">
        <ele>315</ele>
        <time>2022-09-08T12:21:56Z</time>
      </trkpt>
      <trkpt lat="43.15481" lon="-0.53347">
        <ele>314.6</ele>
        <time>2022-09-08T12:22:02Z</time>
      </trkpt>
      <trkpt lat="43.1551" lon="-0.53354">
        <ele>314</ele>
        <time>2022-09-08T12:22:08Z</time>
      </trkpt>
      <trkpt lat="43.15546" lon="-0.53359">
        <ele>313.2</ele>
        <time>2022-09-08T12:22:15Z</time>
      </trkpt>
      <trkpt lat="43.1557" lon="-0.53362">
        <ele>313</ele>
        <time>2022-09-08T12:22:20Z</time>
      </trkpt>
      <trkpt lat="43.1558" lon="-0.53365">
        <ele>312.4</ele>
        <time>2022-09-08T12:22:22Z</time>
      </trkpt>
      <trkpt lat="43.156" lon="-0.53374">
        <ele>312</ele>
        <time>2022-09-08T12:22:26Z</time>
      </trkpt>
      <trkpt lat="43.15605" lon="-0.53378">
        <ele>311.8</ele>
        <time>2022-09-08T12:22:27Z</time>
      </trkpt>
      <trkpt lat="43.1561" lon="-0.53382">
        <ele>311.6</ele>
        <time>2022-09-08T12:22:28Z</time>
      </trkpt>
      <trkpt lat="43.15632" lon="-0.53402">
        <ele>310.8</ele>
        <time>2022-09-08T12:22:32Z</time>
      </trkpt>
      <trkpt lat="43.15648" lon="-0.53418">
        <ele>310.2</ele>
        <time>2022-09-08T12:22:35Z</time>
      </trkpt>
      <trkpt lat="43.15663" lon="-0.53433">
        <ele>309.8</ele>
        <time>2022-09-08T12:22:38Z</time>
      </trkpt>
      <trkpt lat="43.15681" lon="-0.53451">
        <ele>309.2</ele>
        <time>2022-09-08T12:22:42Z</time>
      </trkpt>
      <trkpt lat="43.15709" lon="-0.53484">
        <ele>309.4</ele>
        <time>2022-09-08T12:22:50Z</time>
      </trkpt>
      <trkpt lat="43.15726" lon="-0.53518">
        <ele>309</ele>
        <time>2022-09-08T12:22:57Z</time>
      </trkpt>
      <trkpt lat="43.15755" lon="-0.53574">
        <ele>309.4</ele>
        <time>2022-09-08T12:23:08Z</time>
      </trkpt>
      <trkpt lat="43.1578" lon="-0.53603">
        <ele>309.6</ele>
        <time>2022-09-08T12:23:15Z</time>
      </trkpt>
      <trkpt lat="43.15816" lon="-0.53624">
        <ele>309.2</ele>
        <time>2022-09-08T12:23:24Z</time>
      </trkpt>
      <trkpt lat="43.15826" lon="-0.53629">
        <ele>308.6</ele>
        <time>2022-09-08T12:23:26Z</time>
      </trkpt>
      <trkpt lat="43.15851" lon="-0.53644">
        <ele>307.8</ele>
        <time>2022-09-08T12:23:31Z</time>
      </trkpt>
      <trkpt lat="43.15867" lon="-0.53653">
        <ele>307.6</ele>
        <time>2022-09-08T12:23:34Z</time>
      </trkpt>
      <trkpt lat="43.15902" lon="-0.53666">
        <ele>306.6</ele>
        <time>2022-09-08T12:23:40Z</time>
      </trkpt>
      <trkpt lat="43.15908" lon="-0.53668">
        <ele>306.4</ele>
        <time>2022-09-08T12:23:41Z</time>
      </trkpt>
      <trkpt lat="43.15945" lon="-0.53684">
        <ele>305.2</ele>
        <time>2022-09-08T12:23:47Z</time>
      </trkpt>
      <trkpt lat="43.15975" lon="-0.53703">
        <ele>305.2</ele>
        <time>2022-09-08T12:23:53Z</time>
      </trkpt>
      <trkpt lat="43.15979" lon="-0.53707">
        <ele>305.4</ele>
        <time>2022-09-08T12:23:54Z</time>
      </trkpt>
      <trkpt lat="43.16008" lon="-0.5374">
        <ele>306.2</ele>
        <time>2022-09-08T12:24:01Z</time>
      </trkpt>
      <trkpt lat="43.16017" lon="-0.53755">
        <ele>306.6</ele>
        <time>2022-09-08T12:24:04Z</time>
      </trkpt>
      <trkpt lat="43.16021" lon="-0.53765">
        <ele>306.8</ele>
        <time>2022-09-08T12:24:06Z</time>
      </trkpt>
      <trkpt lat="43.16036" lon="-0.53796">
        <ele>306.8</ele>
        <time>2022-09-08T12:24:12Z</time>
      </trkpt>
      <trkpt lat="43.16049" lon="-0.53807">
        <ele>306.8</ele>
        <time>2022-09-08T12:24:15Z</time>
      </trkpt>
      <trkpt lat="43.16053" lon="-0.53809">
        <ele>306.8</ele>
        <time>2022-09-08T12:24:16Z</time>
      </trkpt>
      <trkpt lat="43.16064" lon="-0.53813">
        <ele>306.8</ele>
        <time>2022-09-08T12:24:18Z</time>
      </trkpt>
      <trkpt lat="43.16085" lon="-0.53817">
        <ele>307</ele>
        <time>2022-09-08T12:24:22Z</time>
      </trkpt>
      <trkpt lat="43.16112" lon="-0.53821">
        <ele>307.6</ele>
        <time>2022-09-08T12:24:27Z</time>
      </trkpt>
      <trkpt lat="43.16121" lon="-0.53821">
        <ele>307.4</ele>
        <time>2022-09-08T12:24:29Z</time>
      </trkpt>
      <trkpt lat="43.16126" lon="-0.5382">
        <ele>307.4</ele>
        <time>2022-09-08T12:24:30Z</time>
      </trkpt>
      <trkpt lat="43.1614" lon="-0.53811">
        <ele>307.4</ele>
        <time>2022-09-08T12:24:33Z</time>
      </trkpt>
      <trkpt lat="43.16145" lon="-0.53807">
        <ele>307.4</ele>
        <time>2022-09-08T12:24:34Z</time>
      </trkpt>
      <trkpt lat="43.16149" lon="-0.53804">
        <ele>307.4</ele>
        <time>2022-09-08T12:24:35Z</time>
      </trkpt>
      <trkpt lat="43.16173" lon="-0.53791">
        <ele>308</ele>
        <time>2022-09-08T12:24:40Z</time>
      </trkpt>
      <trkpt lat="43.16203" lon="-0.53786">
        <ele>308.6</ele>
        <time>2022-09-08T12:24:46Z</time>
      </trkpt>
      <trkpt lat="43.16212" lon="-0.53785">
        <ele>308.6</ele>
        <time>2022-09-08T12:24:48Z</time>
      </trkpt>
      <trkpt lat="43.16224" lon="-0.53785">
        <ele>309</ele>
        <time>2022-09-08T12:24:51Z</time>
      </trkpt>
      <trkpt lat="43.16246" lon="-0.5379">
        <ele>309.6</ele>
        <time>2022-09-08T12:24:55Z</time>
      </trkpt>
      <trkpt lat="43.16263" lon="-0.53796">
        <ele>309.8</ele>
        <time>2022-09-08T12:24:58Z</time>
      </trkpt>
      <trkpt lat="43.163" lon="-0.53813">
        <ele>310.2</ele>
        <time>2022-09-08T12:25:06Z</time>
      </trkpt>
      <trkpt lat="43.16313" lon="-0.53818">
        <ele>310.8</ele>
        <time>2022-09-08T12:25:09Z</time>
      </trkpt>
      <trkpt lat="43.16338" lon="-0.53829">
        <ele>311.2</ele>
        <time>2022-09-08T12:25:15Z</time>
      </trkpt>
      <trkpt lat="43.16358" lon="-0.53839">
        <ele>312</ele>
        <time>2022-09-08T12:25:20Z</time>
      </trkpt>
      <trkpt lat="43.1637" lon="-0.53846">
        <ele>312.4</ele>
        <time>2022-09-08T12:25:23Z</time>
      </trkpt>
      <trkpt lat="43.16398" lon="-0.53858">
        <ele>313</ele>
        <time>2022-09-08T12:25:30Z</time>
      </trkpt>
      <trkpt lat="43.16406" lon="-0.53859">
        <ele>313.2</ele>
        <time>2022-09-08T12:25:32Z</time>
      </trkpt>
      <trkpt lat="43.16417" lon="-0.53858">
        <ele>314</ele>
        <time>2022-09-08T12:25:36Z</time>
      </trkpt>
      <trkpt lat="43.16419" lon="-0.53857">
        <ele>314.2</ele>
        <time>2022-09-08T12:25:37Z</time>
      </trkpt>
      <trkpt lat="43.1644" lon="-0.53846">
        <ele>314.6</ele>
        <time>2022-09-08T12:25:44Z</time>
      </trkpt>
      <trkpt lat="43.16461" lon="-0.53836">
        <ele>313.6</ele>
        <time>2022-09-08T12:25:49Z</time>
      </trkpt>
      <trkpt lat="43.16472" lon="-0.53829">
        <ele>313</ele>
        <time>2022-09-08T12:25:51Z</time>
      </trkpt>
      <trkpt lat="43.16491" lon="-0.5382">
        <ele>311.6</ele>
        <time>2022-09-08T12:25:54Z</time>
      </trkpt>
      <trkpt lat="43.16498" lon="-0.53818">
        <ele>311.2</ele>
        <time>2022-09-08T12:25:55Z</time>
      </trkpt>
      <trkpt lat="43.16506" lon="-0.53818">
        <ele>310.6</ele>
        <time>2022-09-08T12:25:56Z</time>
      </trkpt>
      <trkpt lat="43.16514" lon="-0.5382">
        <ele>310.4</ele>
        <time>2022-09-08T12:25:57Z</time>
      </trkpt>
      <trkpt lat="43.1653" lon="-0.53825">
        <ele>309.4</ele>
        <time>2022-09-08T12:25:59Z</time>
      </trkpt>
      <trkpt lat="43.1656" lon="-0.53832">
        <ele>309</ele>
        <time>2022-09-08T12:26:03Z</time>
      </trkpt>
      <trkpt lat="43.1659" lon="-0.5384">
        <ele>308.2</ele>
        <time>2022-09-08T12:26:07Z</time>
      </trkpt>
      <trkpt lat="43.16597" lon="-0.53843">
        <ele>308.6</ele>
        <time>2022-09-08T12:26:08Z</time>
      </trkpt>
      <trkpt lat="43.1661" lon="-0.5385">
        <ele>308.4</ele>
        <time>2022-09-08T12:26:10Z</time>
      </trkpt>
      <trkpt lat="43.16641" lon="-0.53874">
        <ele>308.4</ele>
        <time>2022-09-08T12:26:16Z</time>
      </trkpt>
      <trkpt lat="43.16666" lon="-0.53907">
        <ele>307.2</ele>
        <time>2022-09-08T12:26:22Z</time>
      </trkpt>
      <trkpt lat="43.16671" lon="-0.53913">
        <ele>307.2</ele>
        <time>2022-09-08T12:26:23Z</time>
      </trkpt>
      <trkpt lat="43.167" lon="-0.53952">
        <ele>308.2</ele>
        <time>2022-09-08T12:26:31Z</time>
      </trkpt>
      <trkpt lat="43.16726" lon="-0.53976">
        <ele>306.6</ele>
        <time>2022-09-08T12:26:38Z</time>
      </trkpt>
      <trkpt lat="43.16736" lon="-0.53986">
        <ele>306.4</ele>
        <time>2022-09-08T12:26:41Z</time>
      </trkpt>
      <trkpt lat="43.16747" lon="-0.53999">
        <ele>306</ele>
        <time>2022-09-08T12:26:44Z</time>
      </trkpt>
      <trkpt lat="43.1675" lon="-0.54004">
        <ele>306</ele>
        <time>2022-09-08T12:26:45Z</time>
      </trkpt>
      <trkpt lat="43.16765" lon="-0.54029">
        <ele>304.6</ele>
        <time>2022-09-08T12:26:51Z</time>
      </trkpt>
      <trkpt lat="43.16771" lon="-0.54043">
        <ele>304.8</ele>
        <time>2022-09-08T12:26:54Z</time>
      </trkpt>
      <trkpt lat="43.16776" lon="-0.54054">
        <ele>304.6</ele>
        <time>2022-09-08T12:26:56Z</time>
      </trkpt>
      <trkpt lat="43.1679" lon="-0.54091">
        <ele>303.8</ele>
        <time>2022-09-08T12:27:02Z</time>
      </trkpt>
      <trkpt lat="43.16807" lon="-0.54136">
        <ele>303.6</ele>
        <time>2022-09-08T12:27:09Z</time>
      </trkpt>
      <trkpt lat="43.16809" lon="-0.54141">
        <ele>303.6</ele>
        <time>2022-09-08T12:27:10Z</time>
      </trkpt>
      <trkpt lat="43.16822" lon="-0.54176">
        <ele>302.6</ele>
        <time>2022-09-08T12:27:16Z</time>
      </trkpt>
      <trkpt lat="43.16824" lon="-0.54182">
        <ele>302.6</ele>
        <time>2022-09-08T12:27:17Z</time>
      </trkpt>
      <trkpt lat="43.16835" lon="-0.54216">
        <ele>301.8</ele>
        <time>2022-09-08T12:27:22Z</time>
      </trkpt>
      <trkpt lat="43.16839" lon="-0.54239">
        <ele>301.4</ele>
        <time>2022-09-08T12:27:25Z</time>
      </trkpt>
      <trkpt lat="43.16838" lon="-0.54255">
        <ele>300.8</ele>
        <time>2022-09-08T12:27:27Z</time>
      </trkpt>
      <trkpt lat="43.16834" lon="-0.54281">
        <ele>301.2</ele>
        <time>2022-09-08T12:27:31Z</time>
      </trkpt>
      <trkpt lat="43.16833" lon="-0.54287">
        <ele>301.2</ele>
        <time>2022-09-08T12:27:32Z</time>
      </trkpt>
      <trkpt lat="43.16831" lon="-0.54298">
        <ele>301.4</ele>
        <time>2022-09-08T12:27:34Z</time>
      </trkpt>
      <trkpt lat="43.1683" lon="-0.54317">
        <ele>301.2</ele>
        <time>2022-09-08T12:27:37Z</time>
      </trkpt>
      <trkpt lat="43.16831" lon="-0.54359">
        <ele>300.2</ele>
        <time>2022-09-08T12:27:43Z</time>
      </trkpt>
      <trkpt lat="43.16831" lon="-0.54366">
        <ele>300</ele>
        <time>2022-09-08T12:27:44Z</time>
      </trkpt>
      <trkpt lat="43.16833" lon="-0.54403">
        <ele>299.4</ele>
        <time>2022-09-08T12:27:49Z</time>
      </trkpt>
      <trkpt lat="43.16833" lon="-0.54426">
        <ele>299.2</ele>
        <time>2022-09-08T12:27:52Z</time>
      </trkpt>
      <trkpt lat="43.16833" lon="-0.54433">
        <ele>299</ele>
        <time>2022-09-08T12:27:53Z</time>
      </trkpt>
      <trkpt lat="43.16831" lon="-0.54448">
        <ele>298.8</ele>
        <time>2022-09-08T12:27:55Z</time>
      </trkpt>
      <trkpt lat="43.16823" lon="-0.54466">
        <ele>298.4</ele>
        <time>2022-09-08T12:27:58Z</time>
      </trkpt>
      <trkpt lat="43.16819" lon="-0.54471">
        <ele>298.6</ele>
        <time>2022-09-08T12:27:59Z</time>
      </trkpt>
      <trkpt lat="43.16803" lon="-0.54486">
        <ele>298.2</ele>
        <time>2022-09-08T12:28:03Z</time>
      </trkpt>
      <trkpt lat="43.16798" lon="-0.54489">
        <ele>297.8</ele>
        <time>2022-09-08T12:28:04Z</time>
      </trkpt>
      <trkpt lat="43.16767" lon="-0.54521">
        <ele>296.8</ele>
        <time>2022-09-08T12:28:11Z</time>
      </trkpt>
      <trkpt lat="43.16762" lon="-0.54527">
        <ele>296.8</ele>
        <time>2022-09-08T12:28:12Z</time>
      </trkpt>
      <trkpt lat="43.16733" lon="-0.54564">
        <ele>295.8</ele>
        <time>2022-09-08T12:28:18Z</time>
      </trkpt>
      <trkpt lat="43.16724" lon="-0.54577">
        <ele>294.6</ele>
        <time>2022-09-08T12:28:20Z</time>
      </trkpt>
      <trkpt lat="43.16719" lon="-0.54585">
        <ele>294.4</ele>
        <time>2022-09-08T12:28:21Z</time>
      </trkpt>
      <trkpt lat="43.16708" lon="-0.54609">
        <ele>293.6</ele>
        <time>2022-09-08T12:28:24Z</time>
      </trkpt>
      <trkpt lat="43.16684" lon="-0.54657">
        <ele>292.4</ele>
        <time>2022-09-08T12:28:30Z</time>
      </trkpt>
      <trkpt lat="43.16669" lon="-0.54689">
        <ele>293.4</ele>
        <time>2022-09-08T12:28:34Z</time>
      </trkpt>
      <trkpt lat="43.16654" lon="-0.54718">
        <ele>291.4</ele>
        <time>2022-09-08T12:28:38Z</time>
      </trkpt>
      <trkpt lat="43.16642" lon="-0.54737">
        <ele>291.4</ele>
        <time>2022-09-08T12:28:41Z</time>
      </trkpt>
      <trkpt lat="43.16624" lon="-0.54759">
        <ele>290.4</ele>
        <time>2022-09-08T12:28:45Z</time>
      </trkpt>
      <trkpt lat="43.16615" lon="-0.54769">
        <ele>290.2</ele>
        <time>2022-09-08T12:28:47Z</time>
      </trkpt>
      <trkpt lat="43.1659" lon="-0.54807">
        <ele>289.8</ele>
        <time>2022-09-08T12:28:54Z</time>
      </trkpt>
      <trkpt lat="43.16588" lon="-0.54814">
        <ele>289.6</ele>
        <time>2022-09-08T12:28:55Z</time>
      </trkpt>
      <trkpt lat="43.16583" lon="-0.54843">
        <ele>289.6</ele>
        <time>2022-09-08T12:28:59Z</time>
      </trkpt>
      <trkpt lat="43.16583" lon="-0.5485">
        <ele>289.8</ele>
        <time>2022-09-08T12:29:00Z</time>
      </trkpt>
      <trkpt lat="43.16579" lon="-0.54894">
        <ele>289.2</ele>
        <time>2022-09-08T12:29:06Z</time>
      </trkpt>
      <trkpt lat="43.16578" lon="-0.54909">
        <ele>289.2</ele>
        <time>2022-09-08T12:29:08Z</time>
      </trkpt>
      <trkpt lat="43.1658" lon="-0.54954">
        <ele>289</ele>
        <time>2022-09-08T12:29:14Z</time>
      </trkpt>
      <trkpt lat="43.16586" lon="-0.55026">
        <ele>289</ele>
        <time>2022-09-08T12:29:23Z</time>
      </trkpt>
      <trkpt lat="43.1659" lon="-0.55099">
        <ele>289.2</ele>
        <time>2022-09-08T12:29:32Z</time>
      </trkpt>
      <trkpt lat="43.16595" lon="-0.55179">
        <ele>288.4</ele>
        <time>2022-09-08T12:29:42Z</time>
      </trkpt>
      <trkpt lat="43.16598" lon="-0.55194">
        <ele>288</ele>
        <time>2022-09-08T12:29:44Z</time>
      </trkpt>
      <trkpt lat="43.16607" lon="-0.55242">
        <ele>287.6</ele>
        <time>2022-09-08T12:29:50Z</time>
      </trkpt>
      <trkpt lat="43.16622" lon="-0.55313">
        <ele>287.8</ele>
        <time>2022-09-08T12:29:59Z</time>
      </trkpt>
      <trkpt lat="43.16624" lon="-0.55321">
        <ele>287.8</ele>
        <time>2022-09-08T12:30:00Z</time>
      </trkpt>
      <trkpt lat="43.16625" lon="-0.55353">
        <ele>286.8</ele>
        <time>2022-09-08T12:30:04Z</time>
      </trkpt>
      <trkpt lat="43.16625" lon="-0.55369">
        <ele>287.2</ele>
        <time>2022-09-08T12:30:06Z</time>
      </trkpt>
      <trkpt lat="43.16624" lon="-0.55441">
        <ele>286.6</ele>
        <time>2022-09-08T12:30:15Z</time>
      </trkpt>
      <trkpt lat="43.16626" lon="-0.55503">
        <ele>286</ele>
        <time>2022-09-08T12:30:23Z</time>
      </trkpt>
      <trkpt lat="43.16635" lon="-0.55559">
        <ele>286.6</ele>
        <time>2022-09-08T12:30:31Z</time>
      </trkpt>
      <trkpt lat="43.16638" lon="-0.55574">
        <ele>286.2</ele>
        <time>2022-09-08T12:30:33Z</time>
      </trkpt>
      <trkpt lat="43.16641" lon="-0.55595">
        <ele>285.8</ele>
        <time>2022-09-08T12:30:36Z</time>
      </trkpt>
      <trkpt lat="43.16643" lon="-0.55602">
        <ele>285.6</ele>
        <time>2022-09-08T12:30:37Z</time>
      </trkpt>
      <trkpt lat="43.16652" lon="-0.55648">
        <ele>285</ele>
        <time>2022-09-08T12:30:43Z</time>
      </trkpt>
      <trkpt lat="43.16655" lon="-0.55665">
        <ele>284.4</ele>
        <time>2022-09-08T12:30:45Z</time>
      </trkpt>
      <trkpt lat="43.16664" lon="-0.55709">
        <ele>283.6</ele>
        <time>2022-09-08T12:30:50Z</time>
      </trkpt>
      <trkpt lat="43.16666" lon="-0.55718">
        <ele>283.2</ele>
        <time>2022-09-08T12:30:51Z</time>
      </trkpt>
      <trkpt lat="43.16674" lon="-0.55762">
        <ele>282.2</ele>
        <time>2022-09-08T12:30:56Z</time>
      </trkpt>
      <trkpt lat="43.16678" lon="-0.55779">
        <ele>281.8</ele>
        <time>2022-09-08T12:30:58Z</time>
      </trkpt>
      <trkpt lat="43.1669" lon="-0.55835">
        <ele>281.6</ele>
        <time>2022-09-08T12:31:05Z</time>
      </trkpt>
      <trkpt lat="43.167" lon="-0.55861">
        <ele>282</ele>
        <time>2022-09-08T12:31:09Z</time>
      </trkpt>
      <trkpt lat="43.16703" lon="-0.55866">
        <ele>282.2</ele>
        <time>2022-09-08T12:31:10Z</time>
      </trkpt>
      <trkpt lat="43.16714" lon="-0.55881">
        <ele>283</ele>
        <time>2022-09-08T12:31:13Z</time>
      </trkpt>
      <trkpt lat="43.16726" lon="-0.55892">
        <ele>283</ele>
        <time>2022-09-08T12:31:16Z</time>
      </trkpt>
      <trkpt lat="43.16738" lon="-0.55901">
        <ele>283.2</ele>
        <time>2022-09-08T12:31:19Z</time>
      </trkpt>
      <trkpt lat="43.16751" lon="-0.55907">
        <ele>283.6</ele>
        <time>2022-09-08T12:31:22Z</time>
      </trkpt>
      <trkpt lat="43.16782" lon="-0.55915">
        <ele>284</ele>
        <time>2022-09-08T12:31:29Z</time>
      </trkpt>
      <trkpt lat="43.16786" lon="-0.55916">
        <ele>284.2</ele>
        <time>2022-09-08T12:31:30Z</time>
      </trkpt>
      <trkpt lat="43.1679" lon="-0.55916">
        <ele>284.4</ele>
        <time>2022-09-08T12:31:31Z</time>
      </trkpt>
      <trkpt lat="43.16813" lon="-0.55917">
        <ele>284.8</ele>
        <time>2022-09-08T12:31:36Z</time>
      </trkpt>
      <trkpt lat="43.16857" lon="-0.55919">
        <ele>285</ele>
        <time>2022-09-08T12:31:46Z</time>
      </trkpt>
      <trkpt lat="43.16886" lon="-0.5592">
        <ele>284.8</ele>
        <time>2022-09-08T12:31:53Z</time>
      </trkpt>
      <trkpt lat="43.16895" lon="-0.55919">
        <ele>285</ele>
        <time>2022-09-08T12:31:55Z</time>
      </trkpt>
      <trkpt lat="43.16913" lon="-0.55917">
        <ele>284.6</ele>
        <time>2022-09-08T12:31:59Z</time>
      </trkpt>
      <trkpt lat="43.16923" lon="-0.55914">
        <ele>284.6</ele>
        <time>2022-09-08T12:32:01Z</time>
      </trkpt>
      <trkpt lat="43.16942" lon="-0.55911">
        <ele>284.2</ele>
        <time>2022-09-08T12:32:05Z</time>
      </trkpt>
      <trkpt lat="43.16979" lon="-0.55904">
        <ele>283.8</ele>
        <time>2022-09-08T12:32:12Z</time>
      </trkpt>
      <trkpt lat="43.17016" lon="-0.55905">
        <ele>284.2</ele>
        <time>2022-09-08T12:32:20Z</time>
      </trkpt>
      <trkpt lat="43.17021" lon="-0.55907">
        <ele>284.4</ele>
        <time>2022-09-08T12:32:21Z</time>
      </trkpt>
      <trkpt lat="43.17044" lon="-0.55919">
        <ele>284.8</ele>
        <time>2022-09-08T12:32:26Z</time>
      </trkpt>
      <trkpt lat="43.17086" lon="-0.55944">
        <ele>285.4</ele>
        <time>2022-09-08T12:32:36Z</time>
      </trkpt>
      <trkpt lat="43.17094" lon="-0.55949">
        <ele>285.6</ele>
        <time>2022-09-08T12:32:38Z</time>
      </trkpt>
      <trkpt lat="43.17104" lon="-0.55961">
        <ele>285.6</ele>
        <time>2022-09-08T12:32:42Z</time>
      </trkpt>
      <trkpt lat="43.17102" lon="-0.55981">
        <ele>285.4</ele>
        <time>2022-09-08T12:32:46Z</time>
      </trkpt>
      <trkpt lat="43.17096" lon="-0.56026">
        <ele>284.8</ele>
        <time>2022-09-08T12:32:55Z</time>
      </trkpt>
      <trkpt lat="43.17091" lon="-0.5606">
        <ele>284.8</ele>
        <time>2022-09-08T12:33:02Z</time>
      </trkpt>
      <trkpt lat="43.17087" lon="-0.56087">
        <ele>284.8</ele>
        <time>2022-09-08T12:33:08Z</time>
      </trkpt>
      <trkpt lat="43.17084" lon="-0.56109">
        <ele>284.2</ele>
        <time>2022-09-08T12:33:12Z</time>
      </trkpt>
      <trkpt lat="43.17082" lon="-0.56124">
        <ele>284.2</ele>
        <time>2022-09-08T12:33:15Z</time>
      </trkpt>
      <trkpt lat="43.17075" lon="-0.56165">
        <ele>283.8</ele>
        <time>2022-09-08T12:33:23Z</time>
      </trkpt>
      <trkpt lat="43.17069" lon="-0.56204">
        <ele>283.2</ele>
        <time>2022-09-08T12:33:30Z</time>
      </trkpt>
      <trkpt lat="43.17061" lon="-0.56248">
        <ele>282.8</ele>
        <time>2022-09-08T12:33:38Z</time>
      </trkpt>
      <trkpt lat="43.17056" lon="-0.56292">
        <ele>282.2</ele>
        <time>2022-09-08T12:33:46Z</time>
      </trkpt>
      <trkpt lat="43.17055" lon="-0.56297">
        <ele>282.2</ele>
        <time>2022-09-08T12:33:47Z</time>
      </trkpt>
      <trkpt lat="43.17046" lon="-0.56312">
        <ele>282.2</ele>
        <time>2022-09-08T12:33:51Z</time>
      </trkpt>
      <trkpt lat="43.17034" lon="-0.56313">
        <ele>282.2</ele>
        <time>2022-09-08T12:33:55Z</time>
      </trkpt>
      <trkpt lat="43.17024" lon="-0.5631">
        <ele>282</ele>
        <time>2022-09-08T12:34:00Z</time>
      </trkpt>
      <trkpt lat="43.17013" lon="-0.56307">
        <ele>281.8</ele>
        <time>2022-09-08T12:34:06Z</time>
      </trkpt>
      <trkpt lat="43.17008" lon="-0.56305">
        <ele>282</ele>
        <time>2022-09-08T12:34:19Z</time>
      </trkpt>
      <trkpt lat="43.16994" lon="-0.56299">
        <ele>281.6</ele>
        <time>2022-09-08T12:34:25Z</time>
      </trkpt>
      <trkpt lat="43.16987" lon="-0.56302">
        <ele>281.2</ele>
        <time>2022-09-08T12:34:27Z</time>
      </trkpt>
      <trkpt lat="43.16982" lon="-0.5631">
        <ele>281</ele>
        <time>2022-09-08T12:34:29Z</time>
      </trkpt>
      <trkpt lat="43.16979" lon="-0.5633">
        <ele>280.4</ele>
        <time>2022-09-08T12:34:33Z</time>
      </trkpt>
      <trkpt lat="43.16974" lon="-0.56354">
        <ele>280</ele>
        <time>2022-09-08T12:34:38Z</time>
      </trkpt>
      <trkpt lat="43.16971" lon="-0.56367">
        <ele>280</ele>
        <time>2022-09-08T12:34:41Z</time>
      </trkpt>
      <trkpt lat="43.16964" lon="-0.56395">
        <ele>279.8</ele>
        <time>2022-09-08T12:34:48Z</time>
      </trkpt>
      <trkpt lat="43.16958" lon="-0.56425">
        <ele>279.8</ele>
        <time>2022-09-08T12:34:55Z</time>
      </trkpt>
      <trkpt lat="43.16945" lon="-0.56459">
        <ele>279.4</ele>
        <time>2022-09-08T12:35:04Z</time>
      </trkpt>
      <trkpt lat="43.16939" lon="-0.5648">
        <ele>279.4</ele>
        <time>2022-09-08T12:35:10Z</time>
      </trkpt>
      <trkpt lat="43.16936" lon="-0.56503">
        <ele>279.2</ele>
        <time>2022-09-08T12:35:17Z</time>
      </trkpt>
      <trkpt lat="43.16936" lon="-0.56518">
        <ele>279</ele>
        <time>2022-09-08T12:35:24Z</time>
      </trkpt>
      <trkpt lat="43.16936" lon="-0.5652">
        <ele>279</ele>
        <time>2022-09-08T12:35:26Z</time>
      </trkpt>
      <trkpt lat="43.16936" lon="-0.56526">
        <ele>278.8</ele>
        <time>2022-09-08T12:39:24Z</time>
      </trkpt>
      <trkpt lat="43.16935" lon="-0.56537">
        <ele>278.8</ele>
        <time>2022-09-08T12:39:27Z</time>
      </trkpt>
      <trkpt lat="43.16937" lon="-0.56562">
        <ele>278.8</ele>
        <time>2022-09-08T12:39:33Z</time>
      </trkpt>
      <trkpt lat="43.16938" lon="-0.56597">
        <ele>278.6</ele>
        <time>2022-09-08T12:39:42Z</time>
      </trkpt>
      <trkpt lat="43.1694" lon="-0.56628">
        <ele>278.6</ele>
        <time>2022-09-08T12:39:50Z</time>
      </trkpt>
      <trkpt lat="43.16941" lon="-0.56647">
        <ele>278</ele>
        <time>2022-09-08T12:39:54Z</time>
      </trkpt>
      <trkpt lat="43.16942" lon="-0.56665">
        <ele>277.6</ele>
        <time>2022-09-08T12:39:58Z</time>
      </trkpt>
      <trkpt lat="43.16943" lon="-0.56686">
        <ele>276.8</ele>
        <time>2022-09-08T12:40:02Z</time>
      </trkpt>
      <trkpt lat="43.16945" lon="-0.56703">
        <ele>276.4</ele>
        <time>2022-09-08T12:40:05Z</time>
      </trkpt>
      <trkpt lat="43.16946" lon="-0.56739">
        <ele>275.8</ele>
        <time>2022-09-08T12:40:11Z</time>
      </trkpt>
      <trkpt lat="43.16942" lon="-0.56777">
        <ele>275.6</ele>
        <time>2022-09-08T12:40:18Z</time>
      </trkpt>
      <trkpt lat="43.16937" lon="-0.56816">
        <ele>275.2</ele>
        <time>2022-09-08T12:40:26Z</time>
      </trkpt>
      <trkpt lat="43.16937" lon="-0.56849">
        <ele>275.2</ele>
        <time>2022-09-08T12:40:33Z</time>
      </trkpt>
      <trkpt lat="43.1694" lon="-0.56877">
        <ele>275</ele>
        <time>2022-09-08T12:40:40Z</time>
      </trkpt>
      <trkpt lat="43.1694" lon="-0.56892">
        <ele>274.6</ele>
        <time>2022-09-08T12:40:43Z</time>
      </trkpt>
      <trkpt lat="43.1694" lon="-0.56907">
        <ele>274.4</ele>
        <time>2022-09-08T12:40:46Z</time>
      </trkpt>
      <trkpt lat="43.16939" lon="-0.56935">
        <ele>274</ele>
        <time>2022-09-08T12:40:53Z</time>
      </trkpt>
      <trkpt lat="43.16939" lon="-0.56944">
        <ele>273.6</ele>
        <time>2022-09-08T12:40:55Z</time>
      </trkpt>
      <trkpt lat="43.16937" lon="-0.56964">
        <ele>273.4</ele>
        <time>2022-09-08T12:40:59Z</time>
      </trkpt>
      <trkpt lat="43.16929" lon="-0.5699">
        <ele>273.4</ele>
        <time>2022-09-08T12:41:05Z</time>
      </trkpt>
      <trkpt lat="43.16918" lon="-0.57021">
        <ele>273.6</ele>
        <time>2022-09-08T12:41:12Z</time>
      </trkpt>
      <trkpt lat="43.16909" lon="-0.57047">
        <ele>273.4</ele>
        <time>2022-09-08T12:41:19Z</time>
      </trkpt>
      <trkpt lat="43.16905" lon="-0.57065">
        <ele>273.6</ele>
        <time>2022-09-08T12:41:24Z</time>
      </trkpt>
      <trkpt lat="43.1691" lon="-0.57084">
        <ele>273.6</ele>
        <time>2022-09-08T12:41:29Z</time>
      </trkpt>
      <trkpt lat="43.16922" lon="-0.57108">
        <ele>274.2</ele>
        <time>2022-09-08T12:41:36Z</time>
      </trkpt>
      <trkpt lat="43.16933" lon="-0.57133">
        <ele>273.8</ele>
        <time>2022-09-08T12:41:43Z</time>
      </trkpt>
      <trkpt lat="43.16944" lon="-0.57156">
        <ele>273.6</ele>
        <time>2022-09-08T12:41:49Z</time>
      </trkpt>
      <trkpt lat="43.16957" lon="-0.57177">
        <ele>272.6</ele>
        <time>2022-09-08T12:41:55Z</time>
      </trkpt>
      <trkpt lat="43.1696" lon="-0.57181">
        <ele>272.4</ele>
        <time>2022-09-08T12:41:56Z</time>
      </trkpt>
      <trkpt lat="43.16969" lon="-0.57194">
        <ele>271.2</ele>
        <time>2022-09-08T12:42:00Z</time>
      </trkpt>
      <trkpt lat="43.16976" lon="-0.57199">
        <ele>270.6</ele>
        <time>2022-09-08T12:42:03Z</time>
      </trkpt>
      <trkpt lat="43.16981" lon="-0.572">
        <ele>270.4</ele>
        <time>2022-09-08T12:42:07Z</time>
      </trkpt>
      <trkpt lat="43.16981" lon="-0.572">
        <ele>270.4</ele>
        <time>2022-09-08T12:42:08Z</time>
      </trkpt>
      <trkpt lat="43.16981" lon="-0.57207">
        <ele>270.2</ele>
        <time>2022-09-08T12:42:59Z</time>
      </trkpt>
      <trkpt lat="43.16982" lon="-0.57213">
        <ele>269.6</ele>
        <time>2022-09-08T12:43:01Z</time>
      </trkpt>
      <trkpt lat="43.16983" lon="-0.57214">
        <ele>269.4</ele>
        <time>2022-09-08T12:43:02Z</time>
      </trkpt>
      <trkpt lat="43.16983" lon="-0.57221">
        <ele>269.2</ele>
        <time>2022-09-08T12:43:04Z</time>
      </trkpt>
      <trkpt lat="43.16984" lon="-0.57229">
        <ele>268.2</ele>
        <time>2022-09-08T12:43:06Z</time>
      </trkpt>
      <trkpt lat="43.16984" lon="-0.57233">
        <ele>268</ele>
        <time>2022-09-08T12:43:07Z</time>
      </trkpt>
      <trkpt lat="43.16983" lon="-0.57244">
        <ele>266.8</ele>
        <time>2022-09-08T12:43:11Z</time>
      </trkpt>
      <trkpt lat="43.16982" lon="-0.5725">
        <ele>265.6</ele>
        <time>2022-09-08T12:43:14Z</time>
      </trkpt>
      <trkpt lat="43.16982" lon="-0.57251">
        <ele>265.2</ele>
        <time>2022-09-08T12:43:16Z</time>
      </trkpt>
      <trkpt lat="43.16986" lon="-0.57264">
        <ele>262.8</ele>
        <time>2022-09-08T12:43:59Z</time>
      </trkpt>
      <trkpt lat="43.16984" lon="-0.57269">
        <ele>262</ele>
        <time>2022-09-08T12:44:01Z</time>
      </trkpt>
      <trkpt lat="43.16983" lon="-0.57272">
        <ele>261.6</ele>
        <time>2022-09-08T12:44:02Z</time>
      </trkpt>
      <trkpt lat="43.1698" lon="-0.57282">
        <ele>260.6</ele>
        <time>2022-09-08T12:44:06Z</time>
      </trkpt>
      <trkpt lat="43.16977" lon="-0.57287">
        <ele>259.8</ele>
        <time>2022-09-08T12:44:08Z</time>
      </trkpt>
      <trkpt lat="43.16977" lon="-0.57289">
        <ele>259.6</ele>
        <time>2022-09-08T12:44:09Z</time>
      </trkpt>
      <trkpt lat="43.16973" lon="-0.57298">
        <ele>258.4</ele>
        <time>2022-09-08T12:44:13Z</time>
      </trkpt>
      <trkpt lat="43.16967" lon="-0.5731">
        <ele>257.2</ele>
        <time>2022-09-08T12:44:17Z</time>
      </trkpt>
      <trkpt lat="43.16966" lon="-0.57313">
        <ele>257</ele>
        <time>2022-09-08T12:44:18Z</time>
      </trkpt>
      <trkpt lat="43.16962" lon="-0.57323">
        <ele>256</ele>
        <time>2022-09-08T12:44:22Z</time>
      </trkpt>
      <trkpt lat="43.16961" lon="-0.57327">
        <ele>255.6</ele>
        <time>2022-09-08T12:44:24Z</time>
      </trkpt>
      <trkpt lat="43.1696" lon="-0.57332">
        <ele>254.6</ele>
        <time>2022-09-08T12:44:26Z</time>
      </trkpt>
      <trkpt lat="43.16958" lon="-0.57337">
        <ele>254</ele>
        <time>2022-09-08T12:44:28Z</time>
      </trkpt>
      <trkpt lat="43.16957" lon="-0.57339">
        <ele>253.6</ele>
        <time>2022-09-08T12:44:29Z</time>
      </trkpt>
      <trkpt lat="43.16956" lon="-0.57341">
        <ele>253.2</ele>
        <time>2022-09-08T12:44:30Z</time>
      </trkpt>
      <trkpt lat="43.16953" lon="-0.57344">
        <ele>252.6</ele>
        <time>2022-09-08T12:44:32Z</time>
      </trkpt>
      <trkpt lat="43.16949" lon="-0.57349">
        <ele>251.6</ele>
        <time>2022-09-08T12:44:35Z</time>
      </trkpt>
      <trkpt lat="43.16945" lon="-0.57351">
        <ele>250.4</ele>
        <time>2022-09-08T12:44:37Z</time>
      </trkpt>
      <trkpt lat="43.1694" lon="-0.57354">
        <ele>249.2</ele>
        <time>2022-09-08T12:44:40Z</time>
      </trkpt>
      <trkpt lat="43.16937" lon="-0.57357">
        <ele>248.4</ele>
        <time>2022-09-08T12:44:42Z</time>
      </trkpt>
      <trkpt lat="43.16935" lon="-0.57358">
        <ele>248</ele>
        <time>2022-09-08T12:44:43Z</time>
      </trkpt>
      <trkpt lat="43.16934" lon="-0.5736">
        <ele>247.6</ele>
        <time>2022-09-08T12:44:44Z</time>
      </trkpt>
      <trkpt lat="43.16931" lon="-0.57363">
        <ele>246.6</ele>
        <time>2022-09-08T12:44:46Z</time>
      </trkpt>
      <trkpt lat="43.16927" lon="-0.57367">
        <ele>245.2</ele>
        <time>2022-09-08T12:44:49Z</time>
      </trkpt>
      <trkpt lat="43.16925" lon="-0.57368">
        <ele>244.6</ele>
        <time>2022-09-08T12:44:50Z</time>
      </trkpt>
      <trkpt lat="43.1692" lon="-0.57373">
        <ele>243.6</ele>
        <time>2022-09-08T12:44:52Z</time>
      </trkpt>
      <trkpt lat="43.16911" lon="-0.57379">
        <ele>242.4</ele>
        <time>2022-09-08T12:44:55Z</time>
      </trkpt>
      <trkpt lat="43.16899" lon="-0.57386">
        <ele>241</ele>
        <time>2022-09-08T12:44:58Z</time>
      </trkpt>
      <trkpt lat="43.16895" lon="-0.57386">
        <ele>240.6</ele>
        <time>2022-09-08T12:44:59Z</time>
      </trkpt>
      <trkpt lat="43.16887" lon="-0.57389">
        <ele>239.8</ele>
        <time>2022-09-08T12:45:01Z</time>
      </trkpt>
      <trkpt lat="43.16878" lon="-0.57391">
        <ele>238.4</ele>
        <time>2022-09-08T12:45:04Z</time>
      </trkpt>
      <trkpt lat="43.16865" lon="-0.57396">
        <ele>237.4</ele>
        <time>2022-09-08T12:45:07Z</time>
      </trkpt>
      <trkpt lat="43.16861" lon="-0.57399">
        <ele>236.8</ele>
        <time>2022-09-08T12:45:08Z</time>
      </trkpt>
      <trkpt lat="43.16859" lon="-0.57401">
        <ele>236.2</ele>
        <time>2022-09-08T12:45:09Z</time>
      </trkpt>
      <trkpt lat="43.16848" lon="-0.57405">
        <ele>235</ele>
        <time>2022-09-08T12:45:13Z</time>
      </trkpt>
      <trkpt lat="43.16838" lon="-0.57408">
        <ele>234.2</ele>
        <time>2022-09-08T12:45:19Z</time>
      </trkpt>
      <trkpt lat="43.16837" lon="-0.57407">
        <ele>234</ele>
        <time>2022-09-08T12:45:20Z</time>
      </trkpt>
      <trkpt lat="43.16832" lon="-0.57404">
        <ele>233.4</ele>
        <time>2022-09-08T12:45:23Z</time>
      </trkpt>
      <trkpt lat="43.16828" lon="-0.574">
        <ele>232.8</ele>
        <time>2022-09-08T12:45:25Z</time>
      </trkpt>
      <trkpt lat="43.16825" lon="-0.57398">
        <ele>232.2</ele>
        <time>2022-09-08T12:45:27Z</time>
      </trkpt>
      <trkpt lat="43.16824" lon="-0.57396">
        <ele>231.8</ele>
        <time>2022-09-08T12:45:28Z</time>
      </trkpt>
      <trkpt lat="43.16823" lon="-0.57385">
        <ele>231.4</ele>
        <time>2022-09-08T12:45:31Z</time>
      </trkpt>
      <trkpt lat="43.16825" lon="-0.57372">
        <ele>230.8</ele>
        <time>2022-09-08T12:45:34Z</time>
      </trkpt>
      <trkpt lat="43.16828" lon="-0.57358">
        <ele>230.4</ele>
        <time>2022-09-08T12:45:38Z</time>
      </trkpt>
      <trkpt lat="43.16835" lon="-0.57344">
        <ele>230.2</ele>
        <time>2022-09-08T12:45:43Z</time>
      </trkpt>
      <trkpt lat="43.16844" lon="-0.57328">
        <ele>230.4</ele>
        <time>2022-09-08T12:45:49Z</time>
      </trkpt>
      <trkpt lat="43.16853" lon="-0.57314">
        <ele>230.2</ele>
        <time>2022-09-08T12:45:54Z</time>
      </trkpt>
      <trkpt lat="43.16851" lon="-0.5731">
        <ele>230</ele>
        <time>2022-09-08T12:45:55Z</time>
      </trkpt>
      <trkpt lat="43.16848" lon="-0.573">
        <ele>230.4</ele>
        <time>2022-09-08T12:45:59Z</time>
      </trkpt>
      <trkpt lat="43.16842" lon="-0.57294">
        <ele>230</ele>
        <time>2022-09-08T12:46:03Z</time>
      </trkpt>
      <trkpt lat="43.16836" lon="-0.57292">
        <ele>230.4</ele>
        <time>2022-09-08T12:46:05Z</time>
      </trkpt>
      <trkpt lat="43.16818" lon="-0.57288">
        <ele>231.2</ele>
        <time>2022-09-08T12:46:11Z</time>
      </trkpt>
      <trkpt lat="43.16797" lon="-0.57284">
        <ele>230.4</ele>
        <time>2022-09-08T12:46:18Z</time>
      </trkpt>
      <trkpt lat="43.16788" lon="-0.57282">
        <ele>230.6</ele>
        <time>2022-09-08T12:46:22Z</time>
      </trkpt>
      <trkpt lat="43.16777" lon="-0.57277">
        <ele>230.8</ele>
        <time>2022-09-08T12:49:20Z</time>
      </trkpt>
      <trkpt lat="43.16766" lon="-0.5728">
        <ele>231</ele>
        <time>2022-09-08T12:49:26Z</time>
      </trkpt>
      <trkpt lat="43.16761" lon="-0.57292">
        <ele>231.2</ele>
        <time>2022-09-08T12:49:30Z</time>
      </trkpt>
      <trkpt lat="43.16759" lon="-0.57313">
        <ele>231</ele>
        <time>2022-09-08T12:49:36Z</time>
      </trkpt>
      <trkpt lat="43.16758" lon="-0.57342">
        <ele>230</ele>
        <time>2022-09-08T12:49:41Z</time>
      </trkpt>
      <trkpt lat="43.16759" lon="-0.57356">
        <ele>229.6</ele>
        <time>2022-09-08T12:49:43Z</time>
      </trkpt>
      <trkpt lat="43.16758" lon="-0.57376">
        <ele>229.2</ele>
        <time>2022-09-08T12:49:46Z</time>
      </trkpt>
      <trkpt lat="43.16759" lon="-0.57382">
        <ele>229.2</ele>
        <time>2022-09-08T12:49:47Z</time>
      </trkpt>
      <trkpt lat="43.16763" lon="-0.57415">
        <ele>228.8</ele>
        <time>2022-09-08T12:49:52Z</time>
      </trkpt>
      <trkpt lat="43.16763" lon="-0.5743">
        <ele>228.6</ele>
        <time>2022-09-08T12:49:55Z</time>
      </trkpt>
      <trkpt lat="43.16763" lon="-0.57436">
        <ele>228.6</ele>
        <time>2022-09-08T12:49:56Z</time>
      </trkpt>
      <trkpt lat="43.16765" lon="-0.57472">
        <ele>228.6</ele>
        <time>2022-09-08T12:50:03Z</time>
      </trkpt>
      <trkpt lat="43.16767" lon="-0.57494">
        <ele>228.2</ele>
        <time>2022-09-08T12:50:07Z</time>
      </trkpt>
      <trkpt lat="43.16773" lon="-0.57526">
        <ele>228</ele>
        <time>2022-09-08T12:50:13Z</time>
      </trkpt>
      <trkpt lat="43.16779" lon="-0.57554">
        <ele>229.4</ele>
        <time>2022-09-08T12:50:20Z</time>
      </trkpt>
      <trkpt lat="43.1678" lon="-0.57558">
        <ele>229.8</ele>
        <time>2022-09-08T12:50:22Z</time>
      </trkpt>
      <trkpt lat="43.16781" lon="-0.57565">
        <ele>231</ele>
        <time>2022-09-08T12:50:25Z</time>
      </trkpt>
      <trkpt lat="43.16785" lon="-0.57578">
        <ele>232</ele>
        <time>2022-09-08T12:50:30Z</time>
      </trkpt>
      <trkpt lat="43.16787" lon="-0.5758">
        <ele>232.4</ele>
        <time>2022-09-08T12:50:31Z</time>
      </trkpt>
      <trkpt lat="43.16791" lon="-0.57588">
        <ele>233.2</ele>
        <time>2022-09-08T12:50:35Z</time>
      </trkpt>
      <trkpt lat="43.16792" lon="-0.57592">
        <ele>233.6</ele>
        <time>2022-09-08T12:50:37Z</time>
      </trkpt>
      <trkpt lat="43.16796" lon="-0.57602">
        <ele>234.4</ele>
        <time>2022-09-08T12:50:41Z</time>
      </trkpt>
      <trkpt lat="43.16799" lon="-0.57609">
        <ele>234.6</ele>
        <time>2022-09-08T12:50:44Z</time>
      </trkpt>
      <trkpt lat="43.16801" lon="-0.57613">
        <ele>234.8</ele>
        <time>2022-09-08T12:50:46Z</time>
      </trkpt>
      <trkpt lat="43.16804" lon="-0.5762">
        <ele>235.2</ele>
        <time>2022-09-08T12:50:49Z</time>
      </trkpt>
      <trkpt lat="43.16807" lon="-0.57624">
        <ele>235.4</ele>
        <time>2022-09-08T12:50:51Z</time>
      </trkpt>
      <trkpt lat="43.16812" lon="-0.5763">
        <ele>235.6</ele>
        <time>2022-09-08T12:50:54Z</time>
      </trkpt>
      <trkpt lat="43.16815" lon="-0.57634">
        <ele>235.6</ele>
        <time>2022-09-08T12:50:56Z</time>
      </trkpt>
      <trkpt lat="43.16824" lon="-0.57643">
        <ele>236</ele>
        <time>2022-09-08T12:51:02Z</time>
      </trkpt>
      <trkpt lat="43.16833" lon="-0.57648">
        <ele>235.8</ele>
        <time>2022-09-08T12:51:07Z</time>
      </trkpt>
      <trkpt lat="43.16838" lon="-0.5765">
        <ele>235.8</ele>
        <time>2022-09-08T12:51:10Z</time>
      </trkpt>
      <trkpt lat="43.16841" lon="-0.57652">
        <ele>235.8</ele>
        <time>2022-09-08T12:51:12Z</time>
      </trkpt>
      <trkpt lat="43.16858" lon="-0.57661">
        <ele>235.6</ele>
        <time>2022-09-08T12:51:18Z</time>
      </trkpt>
      <trkpt lat="43.16877" lon="-0.57671">
        <ele>234.8</ele>
        <time>2022-09-08T12:51:23Z</time>
      </trkpt>
      <trkpt lat="43.16894" lon="-0.5767">
        <ele>234.2</ele>
        <time>2022-09-08T12:51:26Z</time>
      </trkpt>
      <trkpt lat="43.16899" lon="-0.57669">
        <ele>233.8</ele>
        <time>2022-09-08T12:51:27Z</time>
      </trkpt>
      <trkpt lat="43.16905" lon="-0.57666">
        <ele>233.4</ele>
        <time>2022-09-08T12:51:28Z</time>
      </trkpt>
      <trkpt lat="43.16917" lon="-0.57666">
        <ele>233</ele>
        <time>2022-09-08T12:51:30Z</time>
      </trkpt>
      <trkpt lat="43.16922" lon="-0.57666">
        <ele>233</ele>
        <time>2022-09-08T12:51:31Z</time>
      </trkpt>
      <trkpt lat="43.16943" lon="-0.57668">
        <ele>232</ele>
        <time>2022-09-08T12:51:35Z</time>
      </trkpt>
      <trkpt lat="43.16954" lon="-0.5767">
        <ele>231.6</ele>
        <time>2022-09-08T12:51:37Z</time>
      </trkpt>
      <trkpt lat="43.1696" lon="-0.5767">
        <ele>231.4</ele>
        <time>2022-09-08T12:51:38Z</time>
      </trkpt>
      <trkpt lat="43.16973" lon="-0.5767">
        <ele>231.2</ele>
        <time>2022-09-08T12:51:40Z</time>
      </trkpt>
      <trkpt lat="43.16983" lon="-0.57671">
        <ele>231</ele>
        <time>2022-09-08T12:51:42Z</time>
      </trkpt>
      <trkpt lat="43.16988" lon="-0.57672">
        <ele>230.8</ele>
        <time>2022-09-08T12:51:43Z</time>
      </trkpt>
      <trkpt lat="43.17003" lon="-0.57674">
        <ele>230.4</ele>
        <time>2022-09-08T12:51:47Z</time>
      </trkpt>
      <trkpt lat="43.17027" lon="-0.57673">
        <ele>231</ele>
        <time>2022-09-08T12:51:52Z</time>
      </trkpt>
      <trkpt lat="43.17047" lon="-0.57671">
        <ele>231.6</ele>
        <time>2022-09-08T12:51:57Z</time>
      </trkpt>
      <trkpt lat="43.17054" lon="-0.5767">
        <ele>232.2</ele>
        <time>2022-09-08T12:51:59Z</time>
      </trkpt>
      <trkpt lat="43.17069" lon="-0.57667">
        <ele>232.2</ele>
        <time>2022-09-08T12:52:03Z</time>
      </trkpt>
      <trkpt lat="43.17095" lon="-0.57663">
        <ele>232.8</ele>
        <time>2022-09-08T12:52:09Z</time>
      </trkpt>
      <trkpt lat="43.17104" lon="-0.57661">
        <ele>233.4</ele>
        <time>2022-09-08T12:52:12Z</time>
      </trkpt>
      <trkpt lat="43.17111" lon="-0.57661">
        <ele>233.8</ele>
        <time>2022-09-08T12:52:14Z</time>
      </trkpt>
      <trkpt lat="43.17126" lon="-0.57663">
        <ele>233.6</ele>
        <time>2022-09-08T12:52:19Z</time>
      </trkpt>
      <trkpt lat="43.17144" lon="-0.57673">
        <ele>232.8</ele>
        <time>2022-09-08T12:52:23Z</time>
      </trkpt>
      <trkpt lat="43.17149" lon="-0.57676">
        <ele>232.4</ele>
        <time>2022-09-08T12:52:24Z</time>
      </trkpt>
      <trkpt lat="43.17153" lon="-0.57678">
        <ele>232.4</ele>
        <time>2022-09-08T12:52:25Z</time>
      </trkpt>
      <trkpt lat="43.17165" lon="-0.57685">
        <ele>232.2</ele>
        <time>2022-09-08T12:52:28Z</time>
      </trkpt>
      <trkpt lat="43.1717" lon="-0.57686">
        <ele>232.2</ele>
        <time>2022-09-08T12:52:29Z</time>
      </trkpt>
      <trkpt lat="43.17188" lon="-0.57696">
        <ele>232.4</ele>
        <time>2022-09-08T12:52:34Z</time>
      </trkpt>
      <trkpt lat="43.172" lon="-0.57712">
        <ele>233</ele>
        <time>2022-09-08T12:52:38Z</time>
      </trkpt>
      <trkpt lat="43.17212" lon="-0.57727">
        <ele>233.4</ele>
        <time>2022-09-08T12:52:42Z</time>
      </trkpt>
      <trkpt lat="43.17216" lon="-0.57736">
        <ele>233.4</ele>
        <time>2022-09-08T12:52:44Z</time>
      </trkpt>
      <trkpt lat="43.1723" lon="-0.57761">
        <ele>233.6</ele>
        <time>2022-09-08T12:52:49Z</time>
      </trkpt>
      <trkpt lat="43.1724" lon="-0.57782">
        <ele>234.2</ele>
        <time>2022-09-08T12:52:54Z</time>
      </trkpt>
      <trkpt lat="43.1725" lon="-0.57794">
        <ele>234.4</ele>
        <time>2022-09-08T12:52:58Z</time>
      </trkpt>
      <trkpt lat="43.17254" lon="-0.57801">
        <ele>234.4</ele>
        <time>2022-09-08T12:53:00Z</time>
      </trkpt>
      <trkpt lat="43.17265" lon="-0.57822">
        <ele>234.8</ele>
        <time>2022-09-08T12:53:06Z</time>
      </trkpt>
      <trkpt lat="43.17274" lon="-0.57842">
        <ele>235.4</ele>
        <time>2022-09-08T12:53:11Z</time>
      </trkpt>
      <trkpt lat="43.17285" lon="-0.57881">
        <ele>236.4</ele>
        <time>2022-09-08T12:53:19Z</time>
      </trkpt>
      <trkpt lat="43.17286" lon="-0.57886">
        <ele>236.4</ele>
        <time>2022-09-08T12:53:20Z</time>
      </trkpt>
      <trkpt lat="43.17294" lon="-0.57929">
        <ele>236</ele>
        <time>2022-09-08T12:53:28Z</time>
      </trkpt>
      <trkpt lat="43.17301" lon="-0.57962">
        <ele>236</ele>
        <time>2022-09-08T12:53:34Z</time>
      </trkpt>
      <trkpt lat="43.17309" lon="-0.58001">
        <ele>236.4</ele>
        <time>2022-09-08T12:53:41Z</time>
      </trkpt>
      <trkpt lat="43.1731" lon="-0.58006">
        <ele>236.4</ele>
        <time>2022-09-08T12:53:42Z</time>
      </trkpt>
      <trkpt lat="43.17312" lon="-0.58023">
        <ele>236.8</ele>
        <time>2022-09-08T12:53:46Z</time>
      </trkpt>
      <trkpt lat="43.17319" lon="-0.58049">
        <ele>236.6</ele>
        <time>2022-09-08T12:53:52Z</time>
      </trkpt>
      <trkpt lat="43.17327" lon="-0.58099">
        <ele>235.6</ele>
        <time>2022-09-08T12:54:01Z</time>
      </trkpt>
      <trkpt lat="43.17331" lon="-0.58125">
        <ele>235.4</ele>
        <time>2022-09-08T12:54:06Z</time>
      </trkpt>
      <trkpt lat="43.17335" lon="-0.58142">
        <ele>235.6</ele>
        <time>2022-09-08T12:54:11Z</time>
      </trkpt>
      <trkpt lat="43.17336" lon="-0.5815">
        <ele>235.4</ele>
        <time>2022-09-08T12:54:13Z</time>
      </trkpt>
      <trkpt lat="43.1734" lon="-0.58167">
        <ele>235.2</ele>
        <time>2022-09-08T12:55:52Z</time>
      </trkpt>
      <trkpt lat="43.17342" lon="-0.58173">
        <ele>235</ele>
        <time>2022-09-08T12:55:54Z</time>
      </trkpt>
      <trkpt lat="43.17349" lon="-0.58195">
        <ele>234.2</ele>
        <time>2022-09-08T12:56:00Z</time>
      </trkpt>
      <trkpt lat="43.17355" lon="-0.58211">
        <ele>233.2</ele>
        <time>2022-09-08T12:56:04Z</time>
      </trkpt>
      <trkpt lat="43.17357" lon="-0.58215">
        <ele>233</ele>
        <time>2022-09-08T12:56:05Z</time>
      </trkpt>
      <trkpt lat="43.17362" lon="-0.58228">
        <ele>232.2</ele>
        <time>2022-09-08T12:56:09Z</time>
      </trkpt>
      <trkpt lat="43.17364" lon="-0.58234">
        <ele>231.6</ele>
        <time>2022-09-08T12:56:11Z</time>
      </trkpt>
      <trkpt lat="43.17366" lon="-0.58239">
        <ele>231</ele>
        <time>2022-09-08T12:56:15Z</time>
      </trkpt>
      <trkpt lat="43.17369" lon="-0.58256">
        <ele>230.6</ele>
        <time>2022-09-08T12:56:51Z</time>
      </trkpt>
      <trkpt lat="43.1737" lon="-0.58264">
        <ele>230.4</ele>
        <time>2022-09-08T12:56:53Z</time>
      </trkpt>
      <trkpt lat="43.17376" lon="-0.58293">
        <ele>230.6</ele>
        <time>2022-09-08T12:56:59Z</time>
      </trkpt>
      <trkpt lat="43.17386" lon="-0.58327">
        <ele>230.4</ele>
        <time>2022-09-08T12:57:06Z</time>
      </trkpt>
      <trkpt lat="43.17395" lon="-0.58363">
        <ele>230.2</ele>
        <time>2022-09-08T12:57:13Z</time>
      </trkpt>
      <trkpt lat="43.17399" lon="-0.58379">
        <ele>230</ele>
        <time>2022-09-08T12:57:16Z</time>
      </trkpt>
      <trkpt lat="43.17403" lon="-0.58392">
        <ele>230</ele>
        <time>2022-09-08T12:57:19Z</time>
      </trkpt>
      <trkpt lat="43.17409" lon="-0.58416">
        <ele>230.2</ele>
        <time>2022-09-08T12:57:24Z</time>
      </trkpt>
      <trkpt lat="43.17417" lon="-0.58442">
        <ele>230.4</ele>
        <time>2022-09-08T12:57:30Z</time>
      </trkpt>
      <trkpt lat="43.17426" lon="-0.58469">
        <ele>230</ele>
        <time>2022-09-08T12:57:36Z</time>
      </trkpt>
      <trkpt lat="43.1743" lon="-0.58496">
        <ele>229.6</ele>
        <time>2022-09-08T12:57:41Z</time>
      </trkpt>
      <trkpt lat="43.17429" lon="-0.58529">
        <ele>229.4</ele>
        <time>2022-09-08T12:57:46Z</time>
      </trkpt>
      <trkpt lat="43.17431" lon="-0.58564">
        <ele>231.2</ele>
        <time>2022-09-08T12:57:52Z</time>
      </trkpt>
      <trkpt lat="43.17431" lon="-0.58568">
        <ele>231.4</ele>
        <time>2022-09-08T12:57:53Z</time>
      </trkpt>
      <trkpt lat="43.17432" lon="-0.58591">
        <ele>232.2</ele>
        <time>2022-09-08T12:57:58Z</time>
      </trkpt>
      <trkpt lat="43.17432" lon="-0.58597">
        <ele>232.2</ele>
        <time>2022-09-08T12:57:59Z</time>
      </trkpt>
      <trkpt lat="43.17431" lon="-0.58636">
        <ele>231.6</ele>
        <time>2022-09-08T12:58:05Z</time>
      </trkpt>
      <trkpt lat="43.17429" lon="-0.5865">
        <ele>231.4</ele>
        <time>2022-09-08T12:58:07Z</time>
      </trkpt>
      <trkpt lat="43.17428" lon="-0.5867">
        <ele>231</ele>
        <time>2022-09-08T12:58:10Z</time>
      </trkpt>
      <trkpt lat="43.17428" lon="-0.58684">
        <ele>230.8</ele>
        <time>2022-09-08T12:58:12Z</time>
      </trkpt>
      <trkpt lat="43.17429" lon="-0.58727">
        <ele>230.2</ele>
        <time>2022-09-08T12:58:18Z</time>
      </trkpt>
      <trkpt lat="43.1743" lon="-0.58748">
        <ele>230</ele>
        <time>2022-09-08T12:58:21Z</time>
      </trkpt>
      <trkpt lat="43.17432" lon="-0.58769">
        <ele>230</ele>
        <time>2022-09-08T12:58:24Z</time>
      </trkpt>
      <trkpt lat="43.17433" lon="-0.58788">
        <ele>229.6</ele>
        <time>2022-09-08T12:58:27Z</time>
      </trkpt>
      <trkpt lat="43.17432" lon="-0.58802">
        <ele>229.4</ele>
        <time>2022-09-08T12:58:29Z</time>
      </trkpt>
      <trkpt lat="43.17433" lon="-0.58815">
        <ele>229.6</ele>
        <time>2022-09-08T12:58:31Z</time>
      </trkpt>
      <trkpt lat="43.17432" lon="-0.58835">
        <ele>230</ele>
        <time>2022-09-08T12:58:34Z</time>
      </trkpt>
      <trkpt lat="43.17431" lon="-0.5885">
        <ele>231.2</ele>
        <time>2022-09-08T12:58:38Z</time>
      </trkpt>
      <trkpt lat="43.1743" lon="-0.58852">
        <ele>231.4</ele>
        <time>2022-09-08T12:58:39Z</time>
      </trkpt>
      <trkpt lat="43.17429" lon="-0.58859">
        <ele>232</ele>
        <time>2022-09-08T12:58:42Z</time>
      </trkpt>
      <trkpt lat="43.17428" lon="-0.58866">
        <ele>232.4</ele>
        <time>2022-09-08T12:58:44Z</time>
      </trkpt>
      <trkpt lat="43.17427" lon="-0.58869">
        <ele>232.6</ele>
        <time>2022-09-08T12:58:45Z</time>
      </trkpt>
      <trkpt lat="43.17425" lon="-0.58885">
        <ele>233.8</ele>
        <time>2022-09-08T12:58:50Z</time>
      </trkpt>
      <trkpt lat="43.17426" lon="-0.58911">
        <ele>235</ele>
        <time>2022-09-08T12:58:59Z</time>
      </trkpt>
      <trkpt lat="43.1743" lon="-0.5892">
        <ele>235.6</ele>
        <time>2022-09-08T12:59:04Z</time>
      </trkpt>
      <trkpt lat="43.17432" lon="-0.5893">
        <ele>236</ele>
        <time>2022-09-08T12:59:08Z</time>
      </trkpt>
      <trkpt lat="43.17432" lon="-0.58936">
        <ele>236.2</ele>
        <time>2022-09-08T12:59:10Z</time>
      </trkpt>
      <trkpt lat="43.17435" lon="-0.58951">
        <ele>237</ele>
        <time>2022-09-08T12:59:16Z</time>
      </trkpt>
      <trkpt lat="43.17436" lon="-0.58957">
        <ele>237</ele>
        <time>2022-09-08T12:59:18Z</time>
      </trkpt>
      <trkpt lat="43.17439" lon="-0.58973">
        <ele>237.8</ele>
        <time>2022-09-08T12:59:23Z</time>
      </trkpt>
      <trkpt lat="43.1744" lon="-0.58975">
        <ele>238.2</ele>
        <time>2022-09-08T12:59:24Z</time>
      </trkpt>
      <trkpt lat="43.17444" lon="-0.58987">
        <ele>238.8</ele>
        <time>2022-09-08T12:59:29Z</time>
      </trkpt>
      <trkpt lat="43.17445" lon="-0.58993">
        <ele>239.2</ele>
        <time>2022-09-08T12:59:31Z</time>
      </trkpt>
      <trkpt lat="43.17447" lon="-0.59004">
        <ele>240</ele>
        <time>2022-09-08T12:59:35Z</time>
      </trkpt>
      <trkpt lat="43.17448" lon="-0.59011">
        <ele>240.4</ele>
        <time>2022-09-08T12:59:38Z</time>
      </trkpt>
      <trkpt lat="43.1745" lon="-0.59018">
        <ele>241</ele>
        <time>2022-09-08T12:59:42Z</time>
      </trkpt>
      <trkpt lat="43.17453" lon="-0.59034">
        <ele>241.4</ele>
        <time>2022-09-08T12:59:49Z</time>
      </trkpt>
      <trkpt lat="43.17455" lon="-0.59051">
        <ele>241.2</ele>
        <time>2022-09-08T12:59:55Z</time>
      </trkpt>
      <trkpt lat="43.17458" lon="-0.59076">
        <ele>240.6</ele>
        <time>2022-09-08T13:00:00Z</time>
      </trkpt>
      <trkpt lat="43.17465" lon="-0.59112">
        <ele>239.8</ele>
        <time>2022-09-08T13:00:07Z</time>
      </trkpt>
      <trkpt lat="43.17469" lon="-0.59129">
        <ele>239.4</ele>
        <time>2022-09-08T13:00:10Z</time>
      </trkpt>
      <trkpt lat="43.17472" lon="-0.59143">
        <ele>239.2</ele>
        <time>2022-09-08T13:00:12Z</time>
      </trkpt>
      <trkpt lat="43.17474" lon="-0.5915">
        <ele>239.2</ele>
        <time>2022-09-08T13:00:13Z</time>
      </trkpt>
      <trkpt lat="43.17484" lon="-0.59176">
        <ele>239.2</ele>
        <time>2022-09-08T13:00:17Z</time>
      </trkpt>
      <trkpt lat="43.17494" lon="-0.59186">
        <ele>239.6</ele>
        <time>2022-09-08T13:00:20Z</time>
      </trkpt>
      <trkpt lat="43.17501" lon="-0.59191">
        <ele>240</ele>
        <time>2022-09-08T13:00:22Z</time>
      </trkpt>
      <trkpt lat="43.1751" lon="-0.59196">
        <ele>240.6</ele>
        <time>2022-09-08T13:00:26Z</time>
      </trkpt>
      <trkpt lat="43.17512" lon="-0.59197">
        <ele>240.8</ele>
        <time>2022-09-08T13:00:27Z</time>
      </trkpt>
      <trkpt lat="43.17519" lon="-0.59201">
        <ele>241.8</ele>
        <time>2022-09-08T13:00:31Z</time>
      </trkpt>
      <trkpt lat="43.17524" lon="-0.59205">
        <ele>242</ele>
        <time>2022-09-08T13:00:33Z</time>
      </trkpt>
      <trkpt lat="43.17533" lon="-0.59212">
        <ele>242.8</ele>
        <time>2022-09-08T13:00:37Z</time>
      </trkpt>
      <trkpt lat="43.17537" lon="-0.59216">
        <ele>243.6</ele>
        <time>2022-09-08T13:00:39Z</time>
      </trkpt>
      <trkpt lat="43.17542" lon="-0.59221">
        <ele>244</ele>
        <time>2022-09-08T13:00:42Z</time>
      </trkpt>
      <trkpt lat="43.17546" lon="-0.59226">
        <ele>244.6</ele>
        <time>2022-09-08T13:00:45Z</time>
      </trkpt>
      <trkpt lat="43.17549" lon="-0.59229">
        <ele>245</ele>
        <time>2022-09-08T13:00:47Z</time>
      </trkpt>
      <trkpt lat="43.17555" lon="-0.59236">
        <ele>245.8</ele>
        <time>2022-09-08T13:00:51Z</time>
      </trkpt>
      <trkpt lat="43.17557" lon="-0.59238">
        <ele>246</ele>
        <time>2022-09-08T13:00:52Z</time>
      </trkpt>
      <trkpt lat="43.17565" lon="-0.59249">
        <ele>247.2</ele>
        <time>2022-09-08T13:00:58Z</time>
      </trkpt>
      <trkpt lat="43.17567" lon="-0.59252">
        <ele>247.4</ele>
        <time>2022-09-08T13:00:59Z</time>
      </trkpt>
      <trkpt lat="43.17573" lon="-0.59265">
        <ele>248.4</ele>
        <time>2022-09-08T13:01:05Z</time>
      </trkpt>
      <trkpt lat="43.17575" lon="-0.59269">
        <ele>248.6</ele>
        <time>2022-09-08T13:01:07Z</time>
      </trkpt>
      <trkpt lat="43.17578" lon="-0.59276">
        <ele>249.4</ele>
        <time>2022-09-08T13:01:11Z</time>
      </trkpt>
      <trkpt lat="43.17579" lon="-0.5928">
        <ele>249.6</ele>
        <time>2022-09-08T13:01:13Z</time>
      </trkpt>
      <trkpt lat="43.17582" lon="-0.59292">
        <ele>250.4</ele>
        <time>2022-09-08T13:01:19Z</time>
      </trkpt>
      <trkpt lat="43.17583" lon="-0.59294">
        <ele>250.4</ele>
        <time>2022-09-08T13:01:20Z</time>
      </trkpt>
      <trkpt lat="43.17586" lon="-0.59305">
        <ele>251.4</ele>
        <time>2022-09-08T13:01:26Z</time>
      </trkpt>
      <trkpt lat="43.17587" lon="-0.59307">
        <ele>251.4</ele>
        <time>2022-09-08T13:01:27Z</time>
      </trkpt>
      <trkpt lat="43.17588" lon="-0.59317">
        <ele>252.4</ele>
        <time>2022-09-08T13:01:33Z</time>
      </trkpt>
      <trkpt lat="43.17588" lon="-0.59319">
        <ele>252.6</ele>
        <time>2022-09-08T13:01:34Z</time>
      </trkpt>
      <trkpt lat="43.17589" lon="-0.59325">
        <ele>253</ele>
        <time>2022-09-08T13:01:37Z</time>
      </trkpt>
      <trkpt lat="43.17591" lon="-0.59332">
        <ele>253.6</ele>
        <time>2022-09-08T13:01:41Z</time>
      </trkpt>
      <trkpt lat="43.17592" lon="-0.59336">
        <ele>254.2</ele>
        <time>2022-09-08T13:01:43Z</time>
      </trkpt>
      <trkpt lat="43.17595" lon="-0.59348">
        <ele>254.8</ele>
        <time>2022-09-08T13:01:48Z</time>
      </trkpt>
      <trkpt lat="43.17599" lon="-0.59366">
        <ele>256</ele>
        <time>2022-09-08T13:01:55Z</time>
      </trkpt>
      <trkpt lat="43.17603" lon="-0.59381">
        <ele>257.2</ele>
        <time>2022-09-08T13:02:03Z</time>
      </trkpt>
      <trkpt lat="43.17605" lon="-0.59393">
        <ele>258.4</ele>
        <time>2022-09-08T13:02:10Z</time>
      </trkpt>
      <trkpt lat="43.17606" lon="-0.59395">
        <ele>258.6</ele>
        <time>2022-09-08T13:02:11Z</time>
      </trkpt>
      <trkpt lat="43.17606" lon="-0.59401">
        <ele>259.2</ele>
        <time>2022-09-08T13:02:14Z</time>
      </trkpt>
      <trkpt lat="43.17607" lon="-0.59404">
        <ele>259.6</ele>
        <time>2022-09-08T13:02:16Z</time>
      </trkpt>
      <trkpt lat="43.17607" lon="-0.59407">
        <ele>259.8</ele>
        <time>2022-09-08T13:02:17Z</time>
      </trkpt>
      <trkpt lat="43.17607" lon="-0.59409">
        <ele>259.8</ele>
        <time>2022-09-08T13:02:18Z</time>
      </trkpt>
      <trkpt lat="43.17606" lon="-0.59413">
        <ele>260</ele>
        <time>2022-09-08T13:02:20Z</time>
      </trkpt>
      <trkpt lat="43.17605" lon="-0.59417">
        <ele>260.4</ele>
        <time>2022-09-08T13:02:22Z</time>
      </trkpt>
      <trkpt lat="43.17601" lon="-0.59425">
        <ele>259.8</ele>
        <time>2022-09-08T13:02:27Z</time>
      </trkpt>
      <trkpt lat="43.17599" lon="-0.59427">
        <ele>259.6</ele>
        <time>2022-09-08T13:02:28Z</time>
      </trkpt>
      <trkpt lat="43.17591" lon="-0.59445">
        <ele>259</ele>
        <time>2022-09-08T13:02:32Z</time>
      </trkpt>
      <trkpt lat="43.17589" lon="-0.59469">
        <ele>258.6</ele>
        <time>2022-09-08T13:02:36Z</time>
      </trkpt>
      <trkpt lat="43.17595" lon="-0.59488">
        <ele>258.6</ele>
        <time>2022-09-08T13:02:40Z</time>
      </trkpt>
      <trkpt lat="43.17598" lon="-0.59492">
        <ele>258.6</ele>
        <time>2022-09-08T13:02:41Z</time>
      </trkpt>
      <trkpt lat="43.17604" lon="-0.59499">
        <ele>258.2</ele>
        <time>2022-09-08T13:02:43Z</time>
      </trkpt>
      <trkpt lat="43.17615" lon="-0.59508">
        <ele>258</ele>
        <time>2022-09-08T13:02:46Z</time>
      </trkpt>
      <trkpt lat="43.17631" lon="-0.59524">
        <ele>257.6</ele>
        <time>2022-09-08T13:02:51Z</time>
      </trkpt>
      <trkpt lat="43.1764" lon="-0.5953">
        <ele>257.4</ele>
        <time>2022-09-08T13:02:53Z</time>
      </trkpt>
      <trkpt lat="43.17654" lon="-0.5954">
        <ele>257</ele>
        <time>2022-09-08T13:02:57Z</time>
      </trkpt>
      <trkpt lat="43.17659" lon="-0.59543">
        <ele>256.6</ele>
        <time>2022-09-08T13:03:01Z</time>
      </trkpt>
      <trkpt lat="43.17659" lon="-0.59541">
        <ele>256.8</ele>
        <time>2022-09-08T13:03:08Z</time>
      </trkpt>
      <trkpt lat="43.17656" lon="-0.59541">
        <ele>256.8</ele>
        <time>2022-09-08T13:03:10Z</time>
      </trkpt>
      <trkpt lat="43.17656" lon="-0.5954">
        <ele>257</ele>
        <time>2022-09-08T13:03:58Z</time>
      </trkpt>
      <trkpt lat="43.17661" lon="-0.59543">
        <ele>256.8</ele>
        <time>2022-09-08T13:04:01Z</time>
      </trkpt>
      <trkpt lat="43.17676" lon="-0.59551">
        <ele>256.8</ele>
        <time>2022-09-08T13:04:06Z</time>
      </trkpt>
      <trkpt lat="43.17708" lon="-0.59567">
        <ele>257</ele>
        <time>2022-09-08T13:04:14Z</time>
      </trkpt>
      <trkpt lat="43.17735" lon="-0.59581">
        <ele>256.8</ele>
        <time>2022-09-08T13:04:21Z</time>
      </trkpt>
      <trkpt lat="43.1776" lon="-0.59601">
        <ele>257.4</ele>
        <time>2022-09-08T13:04:28Z</time>
      </trkpt>
      <trkpt lat="43.17781" lon="-0.59627">
        <ele>258.4</ele>
        <time>2022-09-08T13:04:35Z</time>
      </trkpt>
      <trkpt lat="43.17787" lon="-0.59634">
        <ele>258.6</ele>
        <time>2022-09-08T13:04:37Z</time>
      </trkpt>
      <trkpt lat="43.17809" lon="-0.59657">
        <ele>259.6</ele>
        <time>2022-09-08T13:04:45Z</time>
      </trkpt>
      <trkpt lat="43.17827" lon="-0.59675">
        <ele>260.8</ele>
        <time>2022-09-08T13:04:52Z</time>
      </trkpt>
      <trkpt lat="43.17829" lon="-0.59677">
        <ele>260.8</ele>
        <time>2022-09-08T13:04:53Z</time>
      </trkpt>
      <trkpt lat="43.17848" lon="-0.59689">
        <ele>261.8</ele>
        <time>2022-09-08T13:05:00Z</time>
      </trkpt>
      <trkpt lat="43.17851" lon="-0.59691">
        <ele>261.8</ele>
        <time>2022-09-08T13:05:01Z</time>
      </trkpt>
      <trkpt lat="43.17862" lon="-0.59699">
        <ele>262.4</ele>
        <time>2022-09-08T13:05:06Z</time>
      </trkpt>
      <trkpt lat="43.17867" lon="-0.59701">
        <ele>262.8</ele>
        <time>2022-09-08T13:05:08Z</time>
      </trkpt>
      <trkpt lat="43.17879" lon="-0.59708">
        <ele>263.8</ele>
        <time>2022-09-08T13:05:13Z</time>
      </trkpt>
      <trkpt lat="43.1789" lon="-0.59722">
        <ele>264.4</ele>
        <time>2022-09-08T13:05:20Z</time>
      </trkpt>
      <trkpt lat="43.179" lon="-0.59744">
        <ele>263.4</ele>
        <time>2022-09-08T13:05:26Z</time>
      </trkpt>
      <trkpt lat="43.17905" lon="-0.59756">
        <ele>262.8</ele>
        <time>2022-09-08T13:05:31Z</time>
      </trkpt>
      <trkpt lat="43.17908" lon="-0.59761">
        <ele>262.8</ele>
        <time>2022-09-08T13:05:47Z</time>
      </trkpt>
      <trkpt lat="43.17912" lon="-0.59764">
        <ele>263</ele>
        <time>2022-09-08T13:05:49Z</time>
      </trkpt>
      <trkpt lat="43.1792" lon="-0.59768">
        <ele>263.8</ele>
        <time>2022-09-08T13:05:54Z</time>
      </trkpt>
      <trkpt lat="43.17921" lon="-0.59769">
        <ele>264</ele>
        <time>2022-09-08T13:05:55Z</time>
      </trkpt>
      <trkpt lat="43.17932" lon="-0.5978">
        <ele>264.6</ele>
        <time>2022-09-08T13:06:02Z</time>
      </trkpt>
      <trkpt lat="43.17933" lon="-0.59782">
        <ele>265</ele>
        <time>2022-09-08T13:06:03Z</time>
      </trkpt>
      <trkpt lat="43.17941" lon="-0.598">
        <ele>266</ele>
        <time>2022-09-08T13:06:10Z</time>
      </trkpt>
      <trkpt lat="43.17946" lon="-0.59823">
        <ele>267.2</ele>
        <time>2022-09-08T13:06:18Z</time>
      </trkpt>
      <trkpt lat="43.17948" lon="-0.59829">
        <ele>267.8</ele>
        <time>2022-09-08T13:06:20Z</time>
      </trkpt>
      <trkpt lat="43.17957" lon="-0.59844">
        <ele>268.6</ele>
        <time>2022-09-08T13:06:27Z</time>
      </trkpt>
      <trkpt lat="43.17967" lon="-0.59858">
        <ele>269.6</ele>
        <time>2022-09-08T13:06:34Z</time>
      </trkpt>
      <trkpt lat="43.1798" lon="-0.59866">
        <ele>270.8</ele>
        <time>2022-09-08T13:06:41Z</time>
      </trkpt>
      <trkpt lat="43.17982" lon="-0.59867">
        <ele>271</ele>
        <time>2022-09-08T13:06:42Z</time>
      </trkpt>
      <trkpt lat="43.17993" lon="-0.59869">
        <ele>271.8</ele>
        <time>2022-09-08T13:06:48Z</time>
      </trkpt>
      <trkpt lat="43.18" lon="-0.5987">
        <ele>272.8</ele>
        <time>2022-09-08T13:06:52Z</time>
      </trkpt>
      <trkpt lat="43.18004" lon="-0.5987">
        <ele>273.2</ele>
        <time>2022-09-08T13:06:54Z</time>
      </trkpt>
      <trkpt lat="43.18014" lon="-0.59869">
        <ele>274</ele>
        <time>2022-09-08T13:06:59Z</time>
      </trkpt>
      <trkpt lat="43.18018" lon="-0.59868">
        <ele>274.4</ele>
        <time>2022-09-08T13:07:01Z</time>
      </trkpt>
      <trkpt lat="43.18029" lon="-0.59869">
        <ele>275</ele>
        <time>2022-09-08T13:07:07Z</time>
      </trkpt>
      <trkpt lat="43.18043" lon="-0.59869">
        <ele>275.8</ele>
        <time>2022-09-08T13:07:14Z</time>
      </trkpt>
      <trkpt lat="43.18047" lon="-0.59869">
        <ele>276.2</ele>
        <time>2022-09-08T13:07:16Z</time>
      </trkpt>
      <trkpt lat="43.1806" lon="-0.59868">
        <ele>276.8</ele>
        <time>2022-09-08T13:07:22Z</time>
      </trkpt>
      <trkpt lat="43.18066" lon="-0.59867">
        <ele>277.2</ele>
        <time>2022-09-08T13:07:25Z</time>
      </trkpt>
      <trkpt lat="43.18072" lon="-0.59866">
        <ele>277.6</ele>
        <time>2022-09-08T13:07:28Z</time>
      </trkpt>
      <trkpt lat="43.18083" lon="-0.59863">
        <ele>278.4</ele>
        <time>2022-09-08T13:07:33Z</time>
      </trkpt>
      <trkpt lat="43.18101" lon="-0.59858">
        <ele>279.2</ele>
        <time>2022-09-08T13:07:41Z</time>
      </trkpt>
      <trkpt lat="43.18121" lon="-0.59855">
        <ele>278.8</ele>
        <time>2022-09-08T13:07:50Z</time>
      </trkpt>
      <trkpt lat="43.18138" lon="-0.59851">
        <ele>278.2</ele>
        <time>2022-09-08T13:07:56Z</time>
      </trkpt>
      <trkpt lat="43.18148" lon="-0.5985">
        <ele>277.8</ele>
        <time>2022-09-08T13:07:58Z</time>
      </trkpt>
      <trkpt lat="43.1816" lon="-0.59851">
        <ele>277.2</ele>
        <time>2022-09-08T13:08:00Z</time>
      </trkpt>
      <trkpt lat="43.18176" lon="-0.59852">
        <ele>276</ele>
        <time>2022-09-08T13:08:02Z</time>
      </trkpt>
      <trkpt lat="43.18185" lon="-0.59853">
        <ele>274.4</ele>
        <time>2022-09-08T13:08:03Z</time>
      </trkpt>
      <trkpt lat="43.18194" lon="-0.59853">
        <ele>273.8</ele>
        <time>2022-09-08T13:08:04Z</time>
      </trkpt>
      <trkpt lat="43.18203" lon="-0.59855">
        <ele>273.4</ele>
        <time>2022-09-08T13:08:05Z</time>
      </trkpt>
      <trkpt lat="43.18223" lon="-0.59856">
        <ele>272.2</ele>
        <time>2022-09-08T13:08:07Z</time>
      </trkpt>
      <trkpt lat="43.18243" lon="-0.59858">
        <ele>271.6</ele>
        <time>2022-09-08T13:08:09Z</time>
      </trkpt>
      <trkpt lat="43.18262" lon="-0.59859">
        <ele>270.6</ele>
        <time>2022-09-08T13:08:11Z</time>
      </trkpt>
      <trkpt lat="43.18272" lon="-0.5986">
        <ele>270.2</ele>
        <time>2022-09-08T13:08:12Z</time>
      </trkpt>
      <trkpt lat="43.18281" lon="-0.59862">
        <ele>269.6</ele>
        <time>2022-09-08T13:08:13Z</time>
      </trkpt>
      <trkpt lat="43.1829" lon="-0.59865">
        <ele>269.2</ele>
        <time>2022-09-08T13:08:14Z</time>
      </trkpt>
      <trkpt lat="43.18307" lon="-0.5987">
        <ele>268.4</ele>
        <time>2022-09-08T13:08:16Z</time>
      </trkpt>
      <trkpt lat="43.18339" lon="-0.59879">
        <ele>268.4</ele>
        <time>2022-09-08T13:08:20Z</time>
      </trkpt>
      <trkpt lat="43.18388" lon="-0.59894">
        <ele>267.6</ele>
        <time>2022-09-08T13:08:27Z</time>
      </trkpt>
      <trkpt lat="43.18401" lon="-0.59899">
        <ele>267.4</ele>
        <time>2022-09-08T13:08:29Z</time>
      </trkpt>
      <trkpt lat="43.1843" lon="-0.5991">
        <ele>267.4</ele>
        <time>2022-09-08T13:08:34Z</time>
      </trkpt>
      <trkpt lat="43.1845" lon="-0.59929">
        <ele>267.4</ele>
        <time>2022-09-08T13:08:39Z</time>
      </trkpt>
      <trkpt lat="43.18471" lon="-0.59951">
        <ele>268.6</ele>
        <time>2022-09-08T13:08:46Z</time>
      </trkpt>
      <trkpt lat="43.18474" lon="-0.59954">
        <ele>268.8</ele>
        <time>2022-09-08T13:08:47Z</time>
      </trkpt>
      <trkpt lat="43.18485" lon="-0.59964">
        <ele>269.6</ele>
        <time>2022-09-08T13:08:51Z</time>
      </trkpt>
      <trkpt lat="43.1849" lon="-0.59968">
        <ele>269.8</ele>
        <time>2022-09-08T13:08:53Z</time>
      </trkpt>
      <trkpt lat="43.18505" lon="-0.59982">
        <ele>271</ele>
        <time>2022-09-08T13:08:59Z</time>
      </trkpt>
      <trkpt lat="43.1852" lon="-0.59997">
        <ele>271.2</ele>
        <time>2022-09-08T13:09:05Z</time>
      </trkpt>
      <trkpt lat="43.18528" lon="-0.60004">
        <ele>271.4</ele>
        <time>2022-09-08T13:09:08Z</time>
      </trkpt>
      <trkpt lat="43.18539" lon="-0.60017">
        <ele>271.6</ele>
        <time>2022-09-08T13:09:13Z</time>
      </trkpt>
      <trkpt lat="43.18544" lon="-0.60022">
        <ele>272</ele>
        <time>2022-09-08T13:09:15Z</time>
      </trkpt>
      <trkpt lat="43.18554" lon="-0.60034">
        <ele>272.4</ele>
        <time>2022-09-08T13:09:20Z</time>
      </trkpt>
      <trkpt lat="43.18567" lon="-0.60051">
        <ele>273</ele>
        <time>2022-09-08T13:09:27Z</time>
      </trkpt>
      <trkpt lat="43.18583" lon="-0.60071">
        <ele>272.6</ele>
        <time>2022-09-08T13:09:34Z</time>
      </trkpt>
      <trkpt lat="43.18598" lon="-0.60091">
        <ele>272</ele>
        <time>2022-09-08T13:09:39Z</time>
      </trkpt>
      <trkpt lat="43.18613" lon="-0.60108">
        <ele>271</ele>
        <time>2022-09-08T13:09:43Z</time>
      </trkpt>
      <trkpt lat="43.18618" lon="-0.60113">
        <ele>270.8</ele>
        <time>2022-09-08T13:09:44Z</time>
      </trkpt>
      <trkpt lat="43.18623" lon="-0.60118">
        <ele>270.4</ele>
        <time>2022-09-08T13:09:45Z</time>
      </trkpt>
      <trkpt lat="43.18633" lon="-0.60129">
        <ele>269.6</ele>
        <time>2022-09-08T13:09:47Z</time>
      </trkpt>
      <trkpt lat="43.18642" lon="-0.60142">
        <ele>268.4</ele>
        <time>2022-09-08T13:09:49Z</time>
      </trkpt>
      <trkpt lat="43.18651" lon="-0.60154">
        <ele>267.2</ele>
        <time>2022-09-08T13:09:51Z</time>
      </trkpt>
      <trkpt lat="43.18659" lon="-0.60163">
        <ele>265.8</ele>
        <time>2022-09-08T13:09:53Z</time>
      </trkpt>
      <trkpt lat="43.18662" lon="-0.60168">
        <ele>265.4</ele>
        <time>2022-09-08T13:09:54Z</time>
      </trkpt>
      <trkpt lat="43.18669" lon="-0.60176">
        <ele>264.6</ele>
        <time>2022-09-08T13:09:56Z</time>
      </trkpt>
      <trkpt lat="43.18678" lon="-0.60186">
        <ele>263.8</ele>
        <time>2022-09-08T13:09:59Z</time>
      </trkpt>
      <trkpt lat="43.18681" lon="-0.6019">
        <ele>263.4</ele>
        <time>2022-09-08T13:10:00Z</time>
      </trkpt>
      <trkpt lat="43.18684" lon="-0.60193">
        <ele>263.2</ele>
        <time>2022-09-08T13:10:01Z</time>
      </trkpt>
      <trkpt lat="43.18691" lon="-0.602">
        <ele>262.2</ele>
        <time>2022-09-08T13:10:03Z</time>
      </trkpt>
      <trkpt lat="43.18697" lon="-0.60208">
        <ele>261.4</ele>
        <time>2022-09-08T13:10:05Z</time>
      </trkpt>
      <trkpt lat="43.18701" lon="-0.60211">
        <ele>261</ele>
        <time>2022-09-08T13:10:06Z</time>
      </trkpt>
      <trkpt lat="43.18711" lon="-0.60221">
        <ele>260</ele>
        <time>2022-09-08T13:10:10Z</time>
      </trkpt>
      <trkpt lat="43.18716" lon="-0.60226">
        <ele>259.4</ele>
        <time>2022-09-08T13:10:12Z</time>
      </trkpt>
      <trkpt lat="43.18721" lon="-0.6023">
        <ele>258.8</ele>
        <time>2022-09-08T13:10:14Z</time>
      </trkpt>
      <trkpt lat="43.18723" lon="-0.60233">
        <ele>258.6</ele>
        <time>2022-09-08T13:10:15Z</time>
      </trkpt>
      <trkpt lat="43.18735" lon="-0.60245">
        <ele>257.6</ele>
        <time>2022-09-08T13:10:19Z</time>
      </trkpt>
      <trkpt lat="43.18743" lon="-0.60252">
        <ele>257</ele>
        <time>2022-09-08T13:10:21Z</time>
      </trkpt>
      <trkpt lat="43.18747" lon="-0.60256">
        <ele>256.8</ele>
        <time>2022-09-08T13:10:22Z</time>
      </trkpt>
      <trkpt lat="43.18751" lon="-0.60259">
        <ele>256.4</ele>
        <time>2022-09-08T13:10:23Z</time>
      </trkpt>
      <trkpt lat="43.18764" lon="-0.60276">
        <ele>255.4</ele>
        <time>2022-09-08T13:10:27Z</time>
      </trkpt>
      <trkpt lat="43.18771" lon="-0.60284">
        <ele>255.4</ele>
        <time>2022-09-08T13:10:29Z</time>
      </trkpt>
      <trkpt lat="43.18791" lon="-0.60307">
        <ele>254.8</ele>
        <time>2022-09-08T13:10:35Z</time>
      </trkpt>
      <trkpt lat="43.18802" lon="-0.6032">
        <ele>254.4</ele>
        <time>2022-09-08T13:10:38Z</time>
      </trkpt>
      <trkpt lat="43.1881" lon="-0.60327">
        <ele>254.4</ele>
        <time>2022-09-08T13:10:40Z</time>
      </trkpt>
      <trkpt lat="43.18822" lon="-0.60338">
        <ele>254.4</ele>
        <time>2022-09-08T13:10:43Z</time>
      </trkpt>
      <trkpt lat="43.18839" lon="-0.60357">
        <ele>253.2</ele>
        <time>2022-09-08T13:10:48Z</time>
      </trkpt>
      <trkpt lat="43.18855" lon="-0.60374">
        <ele>252.8</ele>
        <time>2022-09-08T13:10:55Z</time>
      </trkpt>
      <trkpt lat="43.18863" lon="-0.60394">
        <ele>252.2</ele>
        <time>2022-09-08T13:11:01Z</time>
      </trkpt>
      <trkpt lat="43.18864" lon="-0.60397">
        <ele>252.2</ele>
        <time>2022-09-08T13:11:02Z</time>
      </trkpt>
      <trkpt lat="43.18868" lon="-0.60419">
        <ele>252.2</ele>
        <time>2022-09-08T13:11:08Z</time>
      </trkpt>
      <trkpt lat="43.18873" lon="-0.60439">
        <ele>252.2</ele>
        <time>2022-09-08T13:11:15Z</time>
      </trkpt>
      <trkpt lat="43.18872" lon="-0.60441">
        <ele>252.4</ele>
        <time>2022-09-08T13:11:16Z</time>
      </trkpt>
      <trkpt lat="43.18869" lon="-0.60444">
        <ele>252.2</ele>
        <time>2022-09-08T13:11:19Z</time>
      </trkpt>
      <trkpt lat="43.1886" lon="-0.60441">
        <ele>251.8</ele>
        <time>2022-09-08T13:13:42Z</time>
      </trkpt>
      <trkpt lat="43.18858" lon="-0.6044">
        <ele>251.8</ele>
        <time>2022-09-08T13:13:43Z</time>
      </trkpt>
      <trkpt lat="43.18852" lon="-0.60433">
        <ele>251.4</ele>
        <time>2022-09-08T13:13:46Z</time>
      </trkpt>
      <trkpt lat="43.18847" lon="-0.60424">
        <ele>251.2</ele>
        <time>2022-09-08T13:13:49Z</time>
      </trkpt>
      <trkpt lat="43.18842" lon="-0.60412">
        <ele>251.2</ele>
        <time>2022-09-08T13:13:54Z</time>
      </trkpt>
      <trkpt lat="43.18842" lon="-0.6041">
        <ele>251</ele>
        <time>2022-09-08T13:13:55Z</time>
      </trkpt>
      <trkpt lat="43.1884" lon="-0.60407">
        <ele>251</ele>
        <time>2022-09-08T13:13:57Z</time>
      </trkpt>
      <trkpt lat="43.18836" lon="-0.60413">
        <ele>250.8</ele>
        <time>2022-09-08T13:14:07Z</time>
      </trkpt>
      <trkpt lat="43.18832" lon="-0.6042">
        <ele>250.6</ele>
        <time>2022-09-08T13:14:10Z</time>
      </trkpt>
      <trkpt lat="43.18833" lon="-0.60425">
        <ele>250.2</ele>
        <time>2022-09-08T13:14:12Z</time>
      </trkpt>
      <trkpt lat="43.1883" lon="-0.60437">
        <ele>250.2</ele>
        <time>2022-09-08T13:14:17Z</time>
      </trkpt>
      <trkpt lat="43.18828" lon="-0.60439">
        <ele>250.2</ele>
        <time>2022-09-08T13:14:18Z</time>
      </trkpt>
      <trkpt lat="43.18825" lon="-0.60443">
        <ele>249.2</ele>
        <time>2022-09-08T13:14:21Z</time>
      </trkpt>
      <trkpt lat="43.18824" lon="-0.60444">
        <ele>249.2</ele>
        <time>2022-09-08T13:14:22Z</time>
      </trkpt>
      <trkpt lat="43.18823" lon="-0.60447">
        <ele>249.2</ele>
        <time>2022-09-08T13:14:24Z</time>
      </trkpt>
      <trkpt lat="43.18824" lon="-0.60449">
        <ele>249</ele>
        <time>2022-09-08T13:14:25Z</time>
      </trkpt>
      <trkpt lat="43.18825" lon="-0.60455">
        <ele>249.2</ele>
        <time>2022-09-08T13:14:27Z</time>
      </trkpt>
      <trkpt lat="43.18826" lon="-0.60464">
        <ele>248.8</ele>
        <time>2022-09-08T13:14:30Z</time>
      </trkpt>
      <trkpt lat="43.18828" lon="-0.60474">
        <ele>248.6</ele>
        <time>2022-09-08T13:14:33Z</time>
      </trkpt>
      <trkpt lat="43.18831" lon="-0.60501">
        <ele>248.8</ele>
        <time>2022-09-08T13:14:40Z</time>
      </trkpt>
      <trkpt lat="43.18832" lon="-0.60516">
        <ele>248</ele>
        <time>2022-09-08T13:14:43Z</time>
      </trkpt>
      <trkpt lat="43.18833" lon="-0.60521">
        <ele>247.8</ele>
        <time>2022-09-08T13:14:44Z</time>
      </trkpt>
      <trkpt lat="43.18836" lon="-0.60541">
        <ele>247.8</ele>
        <time>2022-09-08T13:14:48Z</time>
      </trkpt>
      <trkpt lat="43.18831" lon="-0.60558">
        <ele>246</ele>
        <time>2022-09-08T13:14:51Z</time>
      </trkpt>
      <trkpt lat="43.18825" lon="-0.6057">
        <ele>245.4</ele>
        <time>2022-09-08T13:14:53Z</time>
      </trkpt>
      <trkpt lat="43.18822" lon="-0.60577">
        <ele>245</ele>
        <time>2022-09-08T13:14:54Z</time>
      </trkpt>
      <trkpt lat="43.18817" lon="-0.60588">
        <ele>244</ele>
        <time>2022-09-08T13:14:56Z</time>
      </trkpt>
      <trkpt lat="43.18812" lon="-0.60599">
        <ele>242.8</ele>
        <time>2022-09-08T13:14:58Z</time>
      </trkpt>
      <trkpt lat="43.18805" lon="-0.60618">
        <ele>241.6</ele>
        <time>2022-09-08T13:15:01Z</time>
      </trkpt>
      <trkpt lat="43.18801" lon="-0.60631">
        <ele>240</ele>
        <time>2022-09-08T13:15:03Z</time>
      </trkpt>
      <trkpt lat="43.18798" lon="-0.60644">
        <ele>238.8</ele>
        <time>2022-09-08T13:15:05Z</time>
      </trkpt>
      <trkpt lat="43.18795" lon="-0.60664">
        <ele>237.2</ele>
        <time>2022-09-08T13:15:08Z</time>
      </trkpt>
      <trkpt lat="43.18794" lon="-0.6067">
        <ele>236.4</ele>
        <time>2022-09-08T13:15:09Z</time>
      </trkpt>
      <trkpt lat="43.18793" lon="-0.60677">
        <ele>236</ele>
        <time>2022-09-08T13:15:10Z</time>
      </trkpt>
      <trkpt lat="43.1879" lon="-0.6069">
        <ele>235</ele>
        <time>2022-09-08T13:15:12Z</time>
      </trkpt>
      <trkpt lat="43.18788" lon="-0.60702">
        <ele>233.8</ele>
        <time>2022-09-08T13:15:14Z</time>
      </trkpt>
      <trkpt lat="43.18787" lon="-0.60715">
        <ele>232.2</ele>
        <time>2022-09-08T13:15:16Z</time>
      </trkpt>
      <trkpt lat="43.18787" lon="-0.60727">
        <ele>231.2</ele>
        <time>2022-09-08T13:15:18Z</time>
      </trkpt>
      <trkpt lat="43.18789" lon="-0.60734">
        <ele>230.6</ele>
        <time>2022-09-08T13:15:19Z</time>
      </trkpt>
      <trkpt lat="43.18793" lon="-0.60749">
        <ele>229.8</ele>
        <time>2022-09-08T13:15:21Z</time>
      </trkpt>
      <trkpt lat="43.188" lon="-0.60763">
        <ele>228.6</ele>
        <time>2022-09-08T13:15:23Z</time>
      </trkpt>
      <trkpt lat="43.18809" lon="-0.60784">
        <ele>227.6</ele>
        <time>2022-09-08T13:15:26Z</time>
      </trkpt>
      <trkpt lat="43.18813" lon="-0.60791">
        <ele>226.8</ele>
        <time>2022-09-08T13:15:27Z</time>
      </trkpt>
      <trkpt lat="43.18816" lon="-0.60798">
        <ele>225.8</ele>
        <time>2022-09-08T13:15:28Z</time>
      </trkpt>
      <trkpt lat="43.18818" lon="-0.60805">
        <ele>224.8</ele>
        <time>2022-09-08T13:15:29Z</time>
      </trkpt>
      <trkpt lat="43.1883" lon="-0.60832">
        <ele>223.4</ele>
        <time>2022-09-08T13:15:33Z</time>
      </trkpt>
      <trkpt lat="43.18836" lon="-0.60847">
        <ele>222</ele>
        <time>2022-09-08T13:15:35Z</time>
      </trkpt>
      <trkpt lat="43.18842" lon="-0.60862">
        <ele>220.6</ele>
        <time>2022-09-08T13:15:37Z</time>
      </trkpt>
      <trkpt lat="43.18844" lon="-0.60868">
        <ele>219.4</ele>
        <time>2022-09-08T13:15:38Z</time>
      </trkpt>
      <trkpt lat="43.18847" lon="-0.60875">
        <ele>218.6</ele>
        <time>2022-09-08T13:15:39Z</time>
      </trkpt>
      <trkpt lat="43.1885" lon="-0.60882">
        <ele>217.8</ele>
        <time>2022-09-08T13:15:40Z</time>
      </trkpt>
      <trkpt lat="43.18855" lon="-0.60894">
        <ele>216.6</ele>
        <time>2022-09-08T13:15:42Z</time>
      </trkpt>
      <trkpt lat="43.18862" lon="-0.60909">
        <ele>215.2</ele>
        <time>2022-09-08T13:15:45Z</time>
      </trkpt>
      <trkpt lat="43.18867" lon="-0.60921">
        <ele>214.2</ele>
        <time>2022-09-08T13:15:47Z</time>
      </trkpt>
      <trkpt lat="43.18874" lon="-0.60939">
        <ele>212.6</ele>
        <time>2022-09-08T13:15:50Z</time>
      </trkpt>
      <trkpt lat="43.18876" lon="-0.60945">
        <ele>212.2</ele>
        <time>2022-09-08T13:15:51Z</time>
      </trkpt>
      <trkpt lat="43.18878" lon="-0.6095">
        <ele>211.6</ele>
        <time>2022-09-08T13:15:52Z</time>
      </trkpt>
      <trkpt lat="43.1888" lon="-0.60956">
        <ele>211.4</ele>
        <time>2022-09-08T13:15:53Z</time>
      </trkpt>
      <trkpt lat="43.1888" lon="-0.6097">
        <ele>210.6</ele>
        <time>2022-09-08T13:15:55Z</time>
      </trkpt>
      <trkpt lat="43.18879" lon="-0.60977">
        <ele>210</ele>
        <time>2022-09-08T13:15:56Z</time>
      </trkpt>
      <trkpt lat="43.18874" lon="-0.6099">
        <ele>209.2</ele>
        <time>2022-09-08T13:15:58Z</time>
      </trkpt>
      <trkpt lat="43.18872" lon="-0.60997">
        <ele>208.8</ele>
        <time>2022-09-08T13:15:59Z</time>
      </trkpt>
      <trkpt lat="43.18866" lon="-0.61023">
        <ele>207.4</ele>
        <time>2022-09-08T13:16:04Z</time>
      </trkpt>
      <trkpt lat="43.18872" lon="-0.61028">
        <ele>207</ele>
        <time>2022-09-08T13:16:06Z</time>
      </trkpt>
      <trkpt lat="43.18881" lon="-0.61031">
        <ele>206.8</ele>
        <time>2022-09-08T13:16:09Z</time>
      </trkpt>
      <trkpt lat="43.18885" lon="-0.61032">
        <ele>206.6</ele>
        <time>2022-09-08T13:16:11Z</time>
      </trkpt>
      <trkpt lat="43.18892" lon="-0.61032">
        <ele>206.6</ele>
        <time>2022-09-08T13:16:15Z</time>
      </trkpt>
      <trkpt lat="43.18894" lon="-0.6103">
        <ele>206.4</ele>
        <time>2022-09-08T13:16:16Z</time>
      </trkpt>
      <trkpt lat="43.18898" lon="-0.61025">
        <ele>206.4</ele>
        <time>2022-09-08T13:16:18Z</time>
      </trkpt>
      <trkpt lat="43.18906" lon="-0.61017">
        <ele>206.2</ele>
        <time>2022-09-08T13:16:21Z</time>
      </trkpt>
      <trkpt lat="43.18917" lon="-0.61006">
        <ele>206.2</ele>
        <time>2022-09-08T13:16:26Z</time>
      </trkpt>
      <trkpt lat="43.18931" lon="-0.60996">
        <ele>206</ele>
        <time>2022-09-08T13:16:33Z</time>
      </trkpt>
      <trkpt lat="43.18941" lon="-0.6099">
        <ele>205.8</ele>
        <time>2022-09-08T13:17:10Z</time>
      </trkpt>
      <trkpt lat="43.18943" lon="-0.60971">
        <ele>205.8</ele>
        <time>2022-09-08T13:17:14Z</time>
      </trkpt>
      <trkpt lat="43.18945" lon="-0.60968">
        <ele>205.8</ele>
        <time>2022-09-08T13:17:15Z</time>
      </trkpt>
      <trkpt lat="43.18959" lon="-0.60953">
        <ele>206</ele>
        <time>2022-09-08T13:17:21Z</time>
      </trkpt>
      <trkpt lat="43.18976" lon="-0.60934">
        <ele>205.8</ele>
        <time>2022-09-08T13:17:29Z</time>
      </trkpt>
      <trkpt lat="43.18986" lon="-0.60922">
        <ele>205.8</ele>
        <time>2022-09-08T13:17:34Z</time>
      </trkpt>
      <trkpt lat="43.18994" lon="-0.60913">
        <ele>205.4</ele>
        <time>2022-09-08T13:17:38Z</time>
      </trkpt>
      <trkpt lat="43.18997" lon="-0.60908">
        <ele>205.4</ele>
        <time>2022-09-08T13:17:40Z</time>
      </trkpt>
      <trkpt lat="43.19014" lon="-0.60888">
        <ele>205.6</ele>
        <time>2022-09-08T13:17:47Z</time>
      </trkpt>
      <trkpt lat="43.19032" lon="-0.6087">
        <ele>205.8</ele>
        <time>2022-09-08T13:17:54Z</time>
      </trkpt>
      <trkpt lat="43.19051" lon="-0.60846">
        <ele>206.4</ele>
        <time>2022-09-08T13:18:02Z</time>
      </trkpt>
      <trkpt lat="43.19065" lon="-0.60829">
        <ele>207.4</ele>
        <time>2022-09-08T13:18:08Z</time>
      </trkpt>
      <trkpt lat="43.1907" lon="-0.60824">
        <ele>207.8</ele>
        <time>2022-09-08T13:18:10Z</time>
      </trkpt>
      <trkpt lat="43.19081" lon="-0.60811">
        <ele>208.4</ele>
        <time>2022-09-08T13:18:16Z</time>
      </trkpt>
      <trkpt lat="43.1908" lon="-0.60814">
        <ele>208.8</ele>
        <time>2022-09-08T13:18:19Z</time>
      </trkpt>
      <trkpt lat="43.19072" lon="-0.60825">
        <ele>208.2</ele>
        <time>2022-09-08T13:18:24Z</time>
      </trkpt>
      <trkpt lat="43.19073" lon="-0.60828">
        <ele>208</ele>
        <time>2022-09-08T13:18:26Z</time>
      </trkpt>
      <trkpt lat="43.19075" lon="-0.60833">
        <ele>208</ele>
        <time>2022-09-08T13:18:28Z</time>
      </trkpt>
      <trkpt lat="43.19081" lon="-0.60847">
        <ele>208.4</ele>
        <time>2022-09-08T13:18:34Z</time>
      </trkpt>
      <trkpt lat="43.19089" lon="-0.60858">
        <ele>208.8</ele>
        <time>2022-09-08T13:18:42Z</time>
      </trkpt>
      <trkpt lat="43.19098" lon="-0.60876">
        <ele>209.4</ele>
        <time>2022-09-08T13:20:16Z</time>
      </trkpt>
      <trkpt lat="43.19099" lon="-0.60877">
        <ele>209.4</ele>
        <time>2022-09-08T13:20:17Z</time>
      </trkpt>
      <trkpt lat="43.19105" lon="-0.60886">
        <ele>209</ele>
        <time>2022-09-08T13:20:23Z</time>
      </trkpt>
      <trkpt lat="43.19106" lon="-0.60893">
        <ele>209</ele>
        <time>2022-09-08T13:20:37Z</time>
      </trkpt>
      <trkpt lat="43.19106" lon="-0.60896">
        <ele>209.2</ele>
        <time>2022-09-08T13:20:38Z</time>
      </trkpt>
      <trkpt lat="43.19108" lon="-0.60916">
        <ele>209.6</ele>
        <time>2022-09-08T13:20:45Z</time>
      </trkpt>
      <trkpt lat="43.19108" lon="-0.60918">
        <ele>209.8</ele>
        <time>2022-09-08T13:20:46Z</time>
      </trkpt>
      <trkpt lat="43.19109" lon="-0.60925">
        <ele>210.6</ele>
        <time>2022-09-08T13:20:49Z</time>
      </trkpt>
      <trkpt lat="43.19111" lon="-0.60932">
        <ele>211.6</ele>
        <time>2022-09-08T13:20:53Z</time>
      </trkpt>
      <trkpt lat="43.19111" lon="-0.60933">
        <ele>211.8</ele>
        <time>2022-09-08T13:20:54Z</time>
      </trkpt>
      <trkpt lat="43.19115" lon="-0.60936">
        <ele>212.2</ele>
        <time>2022-09-08T13:20:58Z</time>
      </trkpt>
      <trkpt lat="43.19117" lon="-0.60937">
        <ele>212.4</ele>
        <time>2022-09-08T13:21:00Z</time>
      </trkpt>
      <trkpt lat="43.1912" lon="-0.60939">
        <ele>212.4</ele>
        <time>2022-09-08T13:21:02Z</time>
      </trkpt>
      <trkpt lat="43.19126" lon="-0.60941">
        <ele>212.4</ele>
        <time>2022-09-08T13:21:06Z</time>
      </trkpt>
      <trkpt lat="43.19131" lon="-0.60938">
        <ele>212.4</ele>
        <time>2022-09-08T13:21:11Z</time>
      </trkpt>
      <trkpt lat="43.19132" lon="-0.60937">
        <ele>212.4</ele>
        <time>2022-09-08T13:21:12Z</time>
      </trkpt>
      <trkpt lat="43.19139" lon="-0.60932">
        <ele>212.4</ele>
        <time>2022-09-08T13:21:17Z</time>
      </trkpt>
      <trkpt lat="43.19153" lon="-0.60926">
        <ele>212</ele>
        <time>2022-09-08T13:21:24Z</time>
      </trkpt>
      <trkpt lat="43.19157" lon="-0.60925">
        <ele>212</ele>
        <time>2022-09-08T13:21:26Z</time>
      </trkpt>
      <trkpt lat="43.19172" lon="-0.60925">
        <ele>211.8</ele>
        <time>2022-09-08T13:21:33Z</time>
      </trkpt>
      <trkpt lat="43.19186" lon="-0.60925">
        <ele>211.8</ele>
        <time>2022-09-08T13:21:38Z</time>
      </trkpt>
      <trkpt lat="43.19203" lon="-0.60921">
        <ele>211.8</ele>
        <time>2022-09-08T13:21:44Z</time>
      </trkpt>
      <trkpt lat="43.19216" lon="-0.60925">
        <ele>211.4</ele>
        <time>2022-09-08T13:21:50Z</time>
      </trkpt>
      <trkpt lat="43.19222" lon="-0.60926">
        <ele>211.6</ele>
        <time>2022-09-08T13:21:55Z</time>
      </trkpt>
      <trkpt lat="43.19227" lon="-0.60939">
        <ele>211.6</ele>
        <time>2022-09-08T13:22:00Z</time>
      </trkpt>
      <trkpt lat="43.19234" lon="-0.60961">
        <ele>211.8</ele>
        <time>2022-09-08T13:22:07Z</time>
      </trkpt>
      <trkpt lat="43.19239" lon="-0.60972">
        <ele>211.6</ele>
        <time>2022-09-08T13:22:11Z</time>
      </trkpt>
      <trkpt lat="43.19242" lon="-0.60978">
        <ele>211.8</ele>
        <time>2022-09-08T13:22:13Z</time>
      </trkpt>
      <trkpt lat="43.19257" lon="-0.61008">
        <ele>211.8</ele>
        <time>2022-09-08T13:22:23Z</time>
      </trkpt>
      <trkpt lat="43.19265" lon="-0.61021">
        <ele>212</ele>
        <time>2022-09-08T13:22:30Z</time>
      </trkpt>
      <trkpt lat="43.19267" lon="-0.61032">
        <ele>212</ele>
        <time>2022-09-08T13:22:36Z</time>
      </trkpt>
      <trkpt lat="43.19272" lon="-0.61033">
        <ele>212</ele>
        <time>2022-09-08T13:22:58Z</time>
      </trkpt>
      <trkpt lat="43.19274" lon="-0.61032">
        <ele>212</ele>
        <time>2022-09-08T13:22:59Z</time>
      </trkpt>
      <trkpt lat="43.19285" lon="-0.61026">
        <ele>212.4</ele>
        <time>2022-09-08T13:23:06Z</time>
      </trkpt>
      <trkpt lat="43.19295" lon="-0.61033">
        <ele>212.2</ele>
        <time>2022-09-08T13:23:10Z</time>
      </trkpt>
      <trkpt lat="43.19314" lon="-0.61049">
        <ele>212.4</ele>
        <time>2022-09-08T13:23:17Z</time>
      </trkpt>
      <trkpt lat="43.19328" lon="-0.61062">
        <ele>212.8</ele>
        <time>2022-09-08T13:23:22Z</time>
      </trkpt>
      <trkpt lat="43.19334" lon="-0.61067">
        <ele>212.4</ele>
        <time>2022-09-08T13:23:24Z</time>
      </trkpt>
      <trkpt lat="43.19362" lon="-0.61093">
        <ele>212.6</ele>
        <time>2022-09-08T13:23:34Z</time>
      </trkpt>
      <trkpt lat="43.19379" lon="-0.61109">
        <ele>212.8</ele>
        <time>2022-09-08T13:23:41Z</time>
      </trkpt>
      <trkpt lat="43.19394" lon="-0.61121">
        <ele>212.6</ele>
        <time>2022-09-08T13:23:48Z</time>
      </trkpt>
      <trkpt lat="43.19404" lon="-0.61128">
        <ele>212.6</ele>
        <time>2022-09-08T13:23:54Z</time>
      </trkpt>
    </trkseg>
  </trk>
</gpx>